<?xml version="1.0" encoding="UTF-8"?>
<gpx version="1.1" creator="https://www.youtrack.es" xsi:schemaLocation="http://www.topografix.com/GPX/1/1 http://www.topografix.com/GPX/1/1/gpx.xsd http://www.garmin.com/xmlschemas/GpxExtensions/v3 http://www.garmin.com/xmlschemas/GpxExtensionsv3.xsd http://www.garmin.com/xmlschemas/TrackPointExtension/v1 http://www.garmin.com/xmlschemas/TrackPointExtensionv1.xsd" xmlns:gpxtpx="http://www.garmin.com/xmlschemas/TrackPointExtension/v1" xmlns:gpxx="http://www.garmin.com/xmlschemas/GpxExtensions/v3" xmlns:xsi="http://www.w3.org/2001/XMLSchema-instance">
  <metadata>
    <link href="https://www.youtrack.es">
      <text>YouTrack.es</text>
    </link>
    <time>2026-05-08T00:33:02Z</time>
  </metadata>
  <trk>
    <src>https://www.youtrack.es</src>
    <link href="https://www.youtrack.es/ruta/20092-esteribar-ciclismo-en-ruta">
      <text>YouTrack.es</text>
    </link>
    <trkseg>
      <trkpt lat="42.83769" lon="-1.5837">
        <ele>429.6</ele>
        <time>2021-03-07 10:24:59</time>
      </trkpt>
      <trkpt lat="42.83771" lon="-1.58369">
        <ele>429.8</ele>
        <time>2021-03-07 10:25:00</time>
      </trkpt>
      <trkpt lat="42.83773" lon="-1.58368">
        <ele>429.8</ele>
        <time>2021-03-07 10:25:01</time>
      </trkpt>
      <trkpt lat="42.83777" lon="-1.58367">
        <ele>429.8</ele>
        <time>2021-03-07 10:25:02</time>
      </trkpt>
      <trkpt lat="42.8378" lon="-1.58366">
        <ele>430</ele>
        <time>2021-03-07 10:25:03</time>
      </trkpt>
      <trkpt lat="42.83784" lon="-1.58365">
        <ele>430</ele>
        <time>2021-03-07 10:25:04</time>
      </trkpt>
      <trkpt lat="42.83789" lon="-1.58364">
        <ele>430</ele>
        <time>2021-03-07 10:25:05</time>
      </trkpt>
      <trkpt lat="42.83794" lon="-1.58363">
        <ele>429.8</ele>
        <time>2021-03-07 10:25:06</time>
      </trkpt>
      <trkpt lat="42.83799" lon="-1.58361">
        <ele>429.8</ele>
        <time>2021-03-07 10:25:07</time>
      </trkpt>
      <trkpt lat="42.83804" lon="-1.58361">
        <ele>429.4</ele>
        <time>2021-03-07 10:25:08</time>
      </trkpt>
      <trkpt lat="42.83809" lon="-1.5836">
        <ele>429.2</ele>
        <time>2021-03-07 10:25:09</time>
      </trkpt>
      <trkpt lat="42.83815" lon="-1.5836">
        <ele>429</ele>
        <time>2021-03-07 10:25:10</time>
      </trkpt>
      <trkpt lat="42.8382" lon="-1.5836">
        <ele>428.8</ele>
        <time>2021-03-07 10:25:11</time>
      </trkpt>
      <trkpt lat="42.83826" lon="-1.58359">
        <ele>428.6</ele>
        <time>2021-03-07 10:25:12</time>
      </trkpt>
      <trkpt lat="42.83832" lon="-1.58359">
        <ele>428.4</ele>
        <time>2021-03-07 10:25:13</time>
      </trkpt>
      <trkpt lat="42.83837" lon="-1.58358">
        <ele>428.6</ele>
        <time>2021-03-07 10:25:14</time>
      </trkpt>
      <trkpt lat="42.83843" lon="-1.58358">
        <ele>428.6</ele>
        <time>2021-03-07 10:25:15</time>
      </trkpt>
      <trkpt lat="42.83849" lon="-1.58358">
        <ele>428.6</ele>
        <time>2021-03-07 10:25:16</time>
      </trkpt>
      <trkpt lat="42.83854" lon="-1.58358">
        <ele>428.8</ele>
        <time>2021-03-07 10:25:17</time>
      </trkpt>
      <trkpt lat="42.8386" lon="-1.58358">
        <ele>429</ele>
        <time>2021-03-07 10:25:18</time>
      </trkpt>
      <trkpt lat="42.83866" lon="-1.58358">
        <ele>429</ele>
        <time>2021-03-07 10:25:19</time>
      </trkpt>
      <trkpt lat="42.83872" lon="-1.58358">
        <ele>429</ele>
        <time>2021-03-07 10:25:20</time>
      </trkpt>
      <trkpt lat="42.83878" lon="-1.58358">
        <ele>429</ele>
        <time>2021-03-07 10:25:21</time>
      </trkpt>
      <trkpt lat="42.83884" lon="-1.58359">
        <ele>429</ele>
        <time>2021-03-07 10:25:22</time>
      </trkpt>
      <trkpt lat="42.8389" lon="-1.5836">
        <ele>428.8</ele>
        <time>2021-03-07 10:25:23</time>
      </trkpt>
      <trkpt lat="42.83897" lon="-1.58361">
        <ele>429</ele>
        <time>2021-03-07 10:25:24</time>
      </trkpt>
      <trkpt lat="42.83904" lon="-1.58361">
        <ele>429</ele>
        <time>2021-03-07 10:25:25</time>
      </trkpt>
      <trkpt lat="42.83911" lon="-1.58363">
        <ele>428.8</ele>
        <time>2021-03-07 10:25:26</time>
      </trkpt>
      <trkpt lat="42.83917" lon="-1.58365">
        <ele>428.8</ele>
        <time>2021-03-07 10:25:27</time>
      </trkpt>
      <trkpt lat="42.83924" lon="-1.58367">
        <ele>428.6</ele>
        <time>2021-03-07 10:25:28</time>
      </trkpt>
      <trkpt lat="42.83931" lon="-1.58369">
        <ele>428.6</ele>
        <time>2021-03-07 10:25:29</time>
      </trkpt>
      <trkpt lat="42.83938" lon="-1.5837">
        <ele>428.6</ele>
        <time>2021-03-07 10:25:30</time>
      </trkpt>
      <trkpt lat="42.83945" lon="-1.58372">
        <ele>428.6</ele>
        <time>2021-03-07 10:25:31</time>
      </trkpt>
      <trkpt lat="42.83951" lon="-1.58373">
        <ele>428.2</ele>
        <time>2021-03-07 10:25:32</time>
      </trkpt>
      <trkpt lat="42.83958" lon="-1.58376">
        <ele>428</ele>
        <time>2021-03-07 10:25:33</time>
      </trkpt>
      <trkpt lat="42.83964" lon="-1.5838">
        <ele>428</ele>
        <time>2021-03-07 10:25:34</time>
      </trkpt>
      <trkpt lat="42.83969" lon="-1.58384">
        <ele>427.8</ele>
        <time>2021-03-07 10:25:35</time>
      </trkpt>
      <trkpt lat="42.83974" lon="-1.5839">
        <ele>427.8</ele>
        <time>2021-03-07 10:25:36</time>
      </trkpt>
      <trkpt lat="42.8398" lon="-1.58395">
        <ele>427.8</ele>
        <time>2021-03-07 10:25:37</time>
      </trkpt>
      <trkpt lat="42.83985" lon="-1.58401">
        <ele>427.8</ele>
        <time>2021-03-07 10:25:38</time>
      </trkpt>
      <trkpt lat="42.83991" lon="-1.58406">
        <ele>427.6</ele>
        <time>2021-03-07 10:25:39</time>
      </trkpt>
      <trkpt lat="42.83997" lon="-1.58411">
        <ele>427.6</ele>
        <time>2021-03-07 10:25:40</time>
      </trkpt>
      <trkpt lat="42.84003" lon="-1.58415">
        <ele>427.6</ele>
        <time>2021-03-07 10:25:41</time>
      </trkpt>
      <trkpt lat="42.84008" lon="-1.5842">
        <ele>427.6</ele>
        <time>2021-03-07 10:25:42</time>
      </trkpt>
      <trkpt lat="42.84014" lon="-1.58425">
        <ele>427.6</ele>
        <time>2021-03-07 10:25:43</time>
      </trkpt>
      <trkpt lat="42.8402" lon="-1.58429">
        <ele>427.6</ele>
        <time>2021-03-07 10:25:44</time>
      </trkpt>
      <trkpt lat="42.84026" lon="-1.58432">
        <ele>427.4</ele>
        <time>2021-03-07 10:25:45</time>
      </trkpt>
      <trkpt lat="42.84033" lon="-1.58435">
        <ele>427.4</ele>
        <time>2021-03-07 10:25:46</time>
      </trkpt>
      <trkpt lat="42.84039" lon="-1.58435">
        <ele>427.2</ele>
        <time>2021-03-07 10:25:47</time>
      </trkpt>
      <trkpt lat="42.84045" lon="-1.58434">
        <ele>427</ele>
        <time>2021-03-07 10:25:48</time>
      </trkpt>
      <trkpt lat="42.8405" lon="-1.58432">
        <ele>427</ele>
        <time>2021-03-07 10:25:49</time>
      </trkpt>
      <trkpt lat="42.84056" lon="-1.58432">
        <ele>427</ele>
        <time>2021-03-07 10:25:50</time>
      </trkpt>
      <trkpt lat="42.84062" lon="-1.58434">
        <ele>427</ele>
        <time>2021-03-07 10:25:51</time>
      </trkpt>
      <trkpt lat="42.84065" lon="-1.5844">
        <ele>427</ele>
        <time>2021-03-07 10:25:52</time>
      </trkpt>
      <trkpt lat="42.84066" lon="-1.58448">
        <ele>427</ele>
        <time>2021-03-07 10:25:53</time>
      </trkpt>
      <trkpt lat="42.84065" lon="-1.58456">
        <ele>427</ele>
        <time>2021-03-07 10:25:54</time>
      </trkpt>
      <trkpt lat="42.84063" lon="-1.58465">
        <ele>426.8</ele>
        <time>2021-03-07 10:25:55</time>
      </trkpt>
      <trkpt lat="42.84062" lon="-1.58474">
        <ele>426.8</ele>
        <time>2021-03-07 10:25:56</time>
      </trkpt>
      <trkpt lat="42.84061" lon="-1.58485">
        <ele>426.8</ele>
        <time>2021-03-07 10:25:57</time>
      </trkpt>
      <trkpt lat="42.84061" lon="-1.58496">
        <ele>426.6</ele>
        <time>2021-03-07 10:25:58</time>
      </trkpt>
      <trkpt lat="42.84061" lon="-1.58509">
        <ele>426.6</ele>
        <time>2021-03-07 10:25:59</time>
      </trkpt>
      <trkpt lat="42.84061" lon="-1.58522">
        <ele>426.6</ele>
        <time>2021-03-07 10:26:00</time>
      </trkpt>
      <trkpt lat="42.84062" lon="-1.58535">
        <ele>426.6</ele>
        <time>2021-03-07 10:26:01</time>
      </trkpt>
      <trkpt lat="42.84062" lon="-1.58548">
        <ele>426.4</ele>
        <time>2021-03-07 10:26:02</time>
      </trkpt>
      <trkpt lat="42.84063" lon="-1.58562">
        <ele>426</ele>
        <time>2021-03-07 10:26:03</time>
      </trkpt>
      <trkpt lat="42.84065" lon="-1.58576">
        <ele>425.4</ele>
        <time>2021-03-07 10:26:04</time>
      </trkpt>
      <trkpt lat="42.84069" lon="-1.58589">
        <ele>424.6</ele>
        <time>2021-03-07 10:26:05</time>
      </trkpt>
      <trkpt lat="42.84071" lon="-1.58603">
        <ele>424</ele>
        <time>2021-03-07 10:26:06</time>
      </trkpt>
      <trkpt lat="42.84071" lon="-1.58617">
        <ele>423.2</ele>
        <time>2021-03-07 10:26:07</time>
      </trkpt>
      <trkpt lat="42.84071" lon="-1.5863">
        <ele>422.2</ele>
        <time>2021-03-07 10:26:08</time>
      </trkpt>
      <trkpt lat="42.84072" lon="-1.58644">
        <ele>421.2</ele>
        <time>2021-03-07 10:26:09</time>
      </trkpt>
      <trkpt lat="42.84074" lon="-1.58658">
        <ele>420.2</ele>
        <time>2021-03-07 10:26:10</time>
      </trkpt>
      <trkpt lat="42.84075" lon="-1.5867">
        <ele>419.2</ele>
        <time>2021-03-07 10:26:11</time>
      </trkpt>
      <trkpt lat="42.84073" lon="-1.58682">
        <ele>418</ele>
        <time>2021-03-07 10:26:12</time>
      </trkpt>
      <trkpt lat="42.84069" lon="-1.58693">
        <ele>417.4</ele>
        <time>2021-03-07 10:26:13</time>
      </trkpt>
      <trkpt lat="42.84062" lon="-1.58701">
        <ele>416.8</ele>
        <time>2021-03-07 10:26:14</time>
      </trkpt>
      <trkpt lat="42.84055" lon="-1.58704">
        <ele>416.6</ele>
        <time>2021-03-07 10:26:15</time>
      </trkpt>
      <trkpt lat="42.84046" lon="-1.58703">
        <ele>416.4</ele>
        <time>2021-03-07 10:26:16</time>
      </trkpt>
      <trkpt lat="42.84039" lon="-1.58698">
        <ele>416.4</ele>
        <time>2021-03-07 10:26:17</time>
      </trkpt>
      <trkpt lat="42.84031" lon="-1.58693">
        <ele>416.2</ele>
        <time>2021-03-07 10:26:18</time>
      </trkpt>
      <trkpt lat="42.84023" lon="-1.58687">
        <ele>416.2</ele>
        <time>2021-03-07 10:26:19</time>
      </trkpt>
      <trkpt lat="42.84015" lon="-1.58684">
        <ele>416.2</ele>
        <time>2021-03-07 10:26:20</time>
      </trkpt>
      <trkpt lat="42.84006" lon="-1.58682">
        <ele>416</ele>
        <time>2021-03-07 10:26:21</time>
      </trkpt>
      <trkpt lat="42.83998" lon="-1.5868">
        <ele>416</ele>
        <time>2021-03-07 10:26:22</time>
      </trkpt>
      <trkpt lat="42.83989" lon="-1.58679">
        <ele>415.8</ele>
        <time>2021-03-07 10:26:23</time>
      </trkpt>
      <trkpt lat="42.8398" lon="-1.58679">
        <ele>415.8</ele>
        <time>2021-03-07 10:26:24</time>
      </trkpt>
      <trkpt lat="42.83971" lon="-1.58678">
        <ele>415.6</ele>
        <time>2021-03-07 10:26:25</time>
      </trkpt>
      <trkpt lat="42.83961" lon="-1.58678">
        <ele>415.8</ele>
        <time>2021-03-07 10:26:26</time>
      </trkpt>
      <trkpt lat="42.83952" lon="-1.58678">
        <ele>415.6</ele>
        <time>2021-03-07 10:26:27</time>
      </trkpt>
      <trkpt lat="42.83942" lon="-1.58678">
        <ele>415.4</ele>
        <time>2021-03-07 10:26:28</time>
      </trkpt>
      <trkpt lat="42.83932" lon="-1.58679">
        <ele>415.4</ele>
        <time>2021-03-07 10:26:29</time>
      </trkpt>
      <trkpt lat="42.83923" lon="-1.5868">
        <ele>415.4</ele>
        <time>2021-03-07 10:26:30</time>
      </trkpt>
      <trkpt lat="42.83914" lon="-1.58682">
        <ele>415.2</ele>
        <time>2021-03-07 10:26:31</time>
      </trkpt>
      <trkpt lat="42.83906" lon="-1.58687">
        <ele>415.2</ele>
        <time>2021-03-07 10:26:32</time>
      </trkpt>
      <trkpt lat="42.83899" lon="-1.58695">
        <ele>415.2</ele>
        <time>2021-03-07 10:26:33</time>
      </trkpt>
      <trkpt lat="42.83896" lon="-1.58705">
        <ele>415</ele>
        <time>2021-03-07 10:26:34</time>
      </trkpt>
      <trkpt lat="42.83897" lon="-1.58717">
        <ele>415</ele>
        <time>2021-03-07 10:26:35</time>
      </trkpt>
      <trkpt lat="42.83899" lon="-1.58727">
        <ele>415</ele>
        <time>2021-03-07 10:26:36</time>
      </trkpt>
      <trkpt lat="42.83904" lon="-1.58735">
        <ele>415</ele>
        <time>2021-03-07 10:26:37</time>
      </trkpt>
      <trkpt lat="42.83908" lon="-1.58742">
        <ele>415</ele>
        <time>2021-03-07 10:26:38</time>
      </trkpt>
      <trkpt lat="42.83913" lon="-1.58749">
        <ele>415</ele>
        <time>2021-03-07 10:26:39</time>
      </trkpt>
      <trkpt lat="42.83917" lon="-1.58756">
        <ele>415</ele>
        <time>2021-03-07 10:26:40</time>
      </trkpt>
      <trkpt lat="42.83922" lon="-1.58762">
        <ele>415</ele>
        <time>2021-03-07 10:26:41</time>
      </trkpt>
      <trkpt lat="42.83926" lon="-1.58768">
        <ele>415</ele>
        <time>2021-03-07 10:26:42</time>
      </trkpt>
      <trkpt lat="42.83929" lon="-1.58774">
        <ele>415.2</ele>
        <time>2021-03-07 10:26:43</time>
      </trkpt>
      <trkpt lat="42.83933" lon="-1.5878">
        <ele>415.4</ele>
        <time>2021-03-07 10:26:44</time>
      </trkpt>
      <trkpt lat="42.83936" lon="-1.58786">
        <ele>415.8</ele>
        <time>2021-03-07 10:26:45</time>
      </trkpt>
      <trkpt lat="42.83939" lon="-1.58792">
        <ele>416</ele>
        <time>2021-03-07 10:26:46</time>
      </trkpt>
      <trkpt lat="42.83941" lon="-1.58798">
        <ele>416.4</ele>
        <time>2021-03-07 10:26:47</time>
      </trkpt>
      <trkpt lat="42.83944" lon="-1.58804">
        <ele>416.8</ele>
        <time>2021-03-07 10:26:48</time>
      </trkpt>
      <trkpt lat="42.83946" lon="-1.58809">
        <ele>417</ele>
        <time>2021-03-07 10:26:49</time>
      </trkpt>
      <trkpt lat="42.83949" lon="-1.58814">
        <ele>417.4</ele>
        <time>2021-03-07 10:26:50</time>
      </trkpt>
      <trkpt lat="42.83951" lon="-1.58819">
        <ele>417.6</ele>
        <time>2021-03-07 10:26:51</time>
      </trkpt>
      <trkpt lat="42.83952" lon="-1.58823">
        <ele>418</ele>
        <time>2021-03-07 10:26:52</time>
      </trkpt>
      <trkpt lat="42.83954" lon="-1.58828">
        <ele>418.4</ele>
        <time>2021-03-07 10:26:53</time>
      </trkpt>
      <trkpt lat="42.83955" lon="-1.58833">
        <ele>418.6</ele>
        <time>2021-03-07 10:26:54</time>
      </trkpt>
      <trkpt lat="42.83957" lon="-1.58837">
        <ele>418.8</ele>
        <time>2021-03-07 10:26:55</time>
      </trkpt>
      <trkpt lat="42.83959" lon="-1.58842">
        <ele>419.4</ele>
        <time>2021-03-07 10:26:56</time>
      </trkpt>
      <trkpt lat="42.8396" lon="-1.58847">
        <ele>419.8</ele>
        <time>2021-03-07 10:26:57</time>
      </trkpt>
      <trkpt lat="42.83961" lon="-1.58851">
        <ele>420</ele>
        <time>2021-03-07 10:26:58</time>
      </trkpt>
      <trkpt lat="42.83963" lon="-1.58855">
        <ele>420.4</ele>
        <time>2021-03-07 10:26:59</time>
      </trkpt>
      <trkpt lat="42.83964" lon="-1.5886">
        <ele>420.6</ele>
        <time>2021-03-07 10:27:00</time>
      </trkpt>
      <trkpt lat="42.83965" lon="-1.58865">
        <ele>420.8</ele>
        <time>2021-03-07 10:27:01</time>
      </trkpt>
      <trkpt lat="42.83966" lon="-1.58869">
        <ele>421.2</ele>
        <time>2021-03-07 10:27:02</time>
      </trkpt>
      <trkpt lat="42.83967" lon="-1.58874">
        <ele>421.4</ele>
        <time>2021-03-07 10:27:03</time>
      </trkpt>
      <trkpt lat="42.83968" lon="-1.58879">
        <ele>421.8</ele>
        <time>2021-03-07 10:27:04</time>
      </trkpt>
      <trkpt lat="42.83969" lon="-1.58884">
        <ele>422</ele>
        <time>2021-03-07 10:27:05</time>
      </trkpt>
      <trkpt lat="42.83969" lon="-1.58888">
        <ele>422.4</ele>
        <time>2021-03-07 10:27:06</time>
      </trkpt>
      <trkpt lat="42.8397" lon="-1.58892">
        <ele>422.6</ele>
        <time>2021-03-07 10:27:07</time>
      </trkpt>
      <trkpt lat="42.83971" lon="-1.58897">
        <ele>422.8</ele>
        <time>2021-03-07 10:27:08</time>
      </trkpt>
      <trkpt lat="42.83971" lon="-1.58901">
        <ele>423</ele>
        <time>2021-03-07 10:27:09</time>
      </trkpt>
      <trkpt lat="42.83972" lon="-1.58906">
        <ele>423.2</ele>
        <time>2021-03-07 10:27:10</time>
      </trkpt>
      <trkpt lat="42.83973" lon="-1.58911">
        <ele>423.4</ele>
        <time>2021-03-07 10:27:11</time>
      </trkpt>
      <trkpt lat="42.83973" lon="-1.58915">
        <ele>423.6</ele>
        <time>2021-03-07 10:27:12</time>
      </trkpt>
      <trkpt lat="42.83973" lon="-1.5892">
        <ele>424</ele>
        <time>2021-03-07 10:27:13</time>
      </trkpt>
      <trkpt lat="42.83974" lon="-1.58924">
        <ele>424</ele>
        <time>2021-03-07 10:27:14</time>
      </trkpt>
      <trkpt lat="42.83975" lon="-1.58929">
        <ele>424.2</ele>
        <time>2021-03-07 10:27:15</time>
      </trkpt>
      <trkpt lat="42.83975" lon="-1.58933">
        <ele>424.4</ele>
        <time>2021-03-07 10:27:16</time>
      </trkpt>
      <trkpt lat="42.83975" lon="-1.58938">
        <ele>424.8</ele>
        <time>2021-03-07 10:27:17</time>
      </trkpt>
      <trkpt lat="42.83975" lon="-1.58942">
        <ele>425.2</ele>
        <time>2021-03-07 10:27:18</time>
      </trkpt>
      <trkpt lat="42.83975" lon="-1.58946">
        <ele>425.4</ele>
        <time>2021-03-07 10:27:19</time>
      </trkpt>
      <trkpt lat="42.83976" lon="-1.58951">
        <ele>425.6</ele>
        <time>2021-03-07 10:27:20</time>
      </trkpt>
      <trkpt lat="42.83976" lon="-1.58956">
        <ele>425.8</ele>
        <time>2021-03-07 10:27:21</time>
      </trkpt>
      <trkpt lat="42.83976" lon="-1.5896">
        <ele>426.2</ele>
        <time>2021-03-07 10:27:22</time>
      </trkpt>
      <trkpt lat="42.83976" lon="-1.58965">
        <ele>426.4</ele>
        <time>2021-03-07 10:27:23</time>
      </trkpt>
      <trkpt lat="42.83976" lon="-1.58969">
        <ele>426.6</ele>
        <time>2021-03-07 10:27:24</time>
      </trkpt>
      <trkpt lat="42.83976" lon="-1.58973">
        <ele>426.8</ele>
        <time>2021-03-07 10:27:25</time>
      </trkpt>
      <trkpt lat="42.83976" lon="-1.58977">
        <ele>427</ele>
        <time>2021-03-07 10:27:26</time>
      </trkpt>
      <trkpt lat="42.83976" lon="-1.58981">
        <ele>427.2</ele>
        <time>2021-03-07 10:27:27</time>
      </trkpt>
      <trkpt lat="42.83975" lon="-1.58985">
        <ele>427.4</ele>
        <time>2021-03-07 10:27:28</time>
      </trkpt>
      <trkpt lat="42.83975" lon="-1.5899">
        <ele>427.6</ele>
        <time>2021-03-07 10:27:29</time>
      </trkpt>
      <trkpt lat="42.83975" lon="-1.58994">
        <ele>428</ele>
        <time>2021-03-07 10:27:30</time>
      </trkpt>
      <trkpt lat="42.83975" lon="-1.58998">
        <ele>428</ele>
        <time>2021-03-07 10:27:31</time>
      </trkpt>
      <trkpt lat="42.83974" lon="-1.59002">
        <ele>428.4</ele>
        <time>2021-03-07 10:27:32</time>
      </trkpt>
      <trkpt lat="42.83974" lon="-1.59006">
        <ele>428.6</ele>
        <time>2021-03-07 10:27:33</time>
      </trkpt>
      <trkpt lat="42.83973" lon="-1.5901">
        <ele>428.8</ele>
        <time>2021-03-07 10:27:34</time>
      </trkpt>
      <trkpt lat="42.83973" lon="-1.59014">
        <ele>429.2</ele>
        <time>2021-03-07 10:27:35</time>
      </trkpt>
      <trkpt lat="42.83972" lon="-1.59018">
        <ele>429.4</ele>
        <time>2021-03-07 10:27:36</time>
      </trkpt>
      <trkpt lat="42.83972" lon="-1.59022">
        <ele>429.6</ele>
        <time>2021-03-07 10:27:37</time>
      </trkpt>
      <trkpt lat="42.83971" lon="-1.59027">
        <ele>429.8</ele>
        <time>2021-03-07 10:27:38</time>
      </trkpt>
      <trkpt lat="42.8397" lon="-1.59031">
        <ele>430</ele>
        <time>2021-03-07 10:27:39</time>
      </trkpt>
      <trkpt lat="42.8397" lon="-1.59035">
        <ele>430.2</ele>
        <time>2021-03-07 10:27:40</time>
      </trkpt>
      <trkpt lat="42.83969" lon="-1.59039">
        <ele>430.2</ele>
        <time>2021-03-07 10:27:41</time>
      </trkpt>
      <trkpt lat="42.83968" lon="-1.59043">
        <ele>430.4</ele>
        <time>2021-03-07 10:27:42</time>
      </trkpt>
      <trkpt lat="42.83967" lon="-1.59047">
        <ele>430.6</ele>
        <time>2021-03-07 10:27:43</time>
      </trkpt>
      <trkpt lat="42.83967" lon="-1.59051">
        <ele>430.6</ele>
        <time>2021-03-07 10:27:44</time>
      </trkpt>
      <trkpt lat="42.83966" lon="-1.59055">
        <ele>430.8</ele>
        <time>2021-03-07 10:27:45</time>
      </trkpt>
      <trkpt lat="42.83965" lon="-1.59059">
        <ele>431</ele>
        <time>2021-03-07 10:27:46</time>
      </trkpt>
      <trkpt lat="42.83964" lon="-1.59063">
        <ele>431.2</ele>
        <time>2021-03-07 10:27:47</time>
      </trkpt>
      <trkpt lat="42.83963" lon="-1.59067">
        <ele>431.4</ele>
        <time>2021-03-07 10:27:48</time>
      </trkpt>
      <trkpt lat="42.83963" lon="-1.59071">
        <ele>431.6</ele>
        <time>2021-03-07 10:27:49</time>
      </trkpt>
      <trkpt lat="42.83962" lon="-1.59075">
        <ele>431.8</ele>
        <time>2021-03-07 10:27:50</time>
      </trkpt>
      <trkpt lat="42.83961" lon="-1.59079">
        <ele>432</ele>
        <time>2021-03-07 10:27:51</time>
      </trkpt>
      <trkpt lat="42.83959" lon="-1.59083">
        <ele>432.4</ele>
        <time>2021-03-07 10:27:52</time>
      </trkpt>
      <trkpt lat="42.83958" lon="-1.59087">
        <ele>432.6</ele>
        <time>2021-03-07 10:27:53</time>
      </trkpt>
      <trkpt lat="42.83957" lon="-1.59091">
        <ele>432.8</ele>
        <time>2021-03-07 10:27:54</time>
      </trkpt>
      <trkpt lat="42.83956" lon="-1.59095">
        <ele>433.2</ele>
        <time>2021-03-07 10:27:55</time>
      </trkpt>
      <trkpt lat="42.83955" lon="-1.59099">
        <ele>433.4</ele>
        <time>2021-03-07 10:27:56</time>
      </trkpt>
      <trkpt lat="42.83954" lon="-1.59103">
        <ele>433.6</ele>
        <time>2021-03-07 10:27:57</time>
      </trkpt>
      <trkpt lat="42.83953" lon="-1.59107">
        <ele>433.8</ele>
        <time>2021-03-07 10:27:58</time>
      </trkpt>
      <trkpt lat="42.83951" lon="-1.5911">
        <ele>434</ele>
        <time>2021-03-07 10:27:59</time>
      </trkpt>
      <trkpt lat="42.8395" lon="-1.59114">
        <ele>434.2</ele>
        <time>2021-03-07 10:28:00</time>
      </trkpt>
      <trkpt lat="42.83949" lon="-1.59118">
        <ele>434.4</ele>
        <time>2021-03-07 10:28:01</time>
      </trkpt>
      <trkpt lat="42.83947" lon="-1.59121">
        <ele>434.6</ele>
        <time>2021-03-07 10:28:02</time>
      </trkpt>
      <trkpt lat="42.83946" lon="-1.59124">
        <ele>434.8</ele>
        <time>2021-03-07 10:28:03</time>
      </trkpt>
      <trkpt lat="42.83944" lon="-1.59128">
        <ele>435</ele>
        <time>2021-03-07 10:28:04</time>
      </trkpt>
      <trkpt lat="42.83943" lon="-1.59132">
        <ele>435.2</ele>
        <time>2021-03-07 10:28:05</time>
      </trkpt>
      <trkpt lat="42.83942" lon="-1.59135">
        <ele>435.4</ele>
        <time>2021-03-07 10:28:06</time>
      </trkpt>
      <trkpt lat="42.8394" lon="-1.59139">
        <ele>435.6</ele>
        <time>2021-03-07 10:28:07</time>
      </trkpt>
      <trkpt lat="42.83939" lon="-1.59143">
        <ele>435.8</ele>
        <time>2021-03-07 10:28:08</time>
      </trkpt>
      <trkpt lat="42.83938" lon="-1.59147">
        <ele>436</ele>
        <time>2021-03-07 10:28:09</time>
      </trkpt>
      <trkpt lat="42.83936" lon="-1.5915">
        <ele>436.6</ele>
        <time>2021-03-07 10:28:10</time>
      </trkpt>
      <trkpt lat="42.83935" lon="-1.59154">
        <ele>436.8</ele>
        <time>2021-03-07 10:28:11</time>
      </trkpt>
      <trkpt lat="42.83934" lon="-1.59158">
        <ele>437.2</ele>
        <time>2021-03-07 10:28:12</time>
      </trkpt>
      <trkpt lat="42.83932" lon="-1.59161">
        <ele>437.4</ele>
        <time>2021-03-07 10:28:13</time>
      </trkpt>
      <trkpt lat="42.83931" lon="-1.59165">
        <ele>437.6</ele>
        <time>2021-03-07 10:28:14</time>
      </trkpt>
      <trkpt lat="42.83929" lon="-1.59168">
        <ele>437.8</ele>
        <time>2021-03-07 10:28:15</time>
      </trkpt>
      <trkpt lat="42.83928" lon="-1.59172">
        <ele>438</ele>
        <time>2021-03-07 10:28:16</time>
      </trkpt>
      <trkpt lat="42.83927" lon="-1.59175">
        <ele>438.2</ele>
        <time>2021-03-07 10:28:17</time>
      </trkpt>
      <trkpt lat="42.83925" lon="-1.59179">
        <ele>438.4</ele>
        <time>2021-03-07 10:28:18</time>
      </trkpt>
      <trkpt lat="42.83924" lon="-1.59182">
        <ele>438.6</ele>
        <time>2021-03-07 10:28:19</time>
      </trkpt>
      <trkpt lat="42.83922" lon="-1.59185">
        <ele>438.8</ele>
        <time>2021-03-07 10:28:20</time>
      </trkpt>
      <trkpt lat="42.83921" lon="-1.59189">
        <ele>439</ele>
        <time>2021-03-07 10:28:21</time>
      </trkpt>
      <trkpt lat="42.8392" lon="-1.59193">
        <ele>439.2</ele>
        <time>2021-03-07 10:28:22</time>
      </trkpt>
      <trkpt lat="42.83919" lon="-1.59197">
        <ele>439.6</ele>
        <time>2021-03-07 10:28:23</time>
      </trkpt>
      <trkpt lat="42.83918" lon="-1.592">
        <ele>439.8</ele>
        <time>2021-03-07 10:28:24</time>
      </trkpt>
      <trkpt lat="42.83917" lon="-1.59204">
        <ele>440.2</ele>
        <time>2021-03-07 10:28:25</time>
      </trkpt>
      <trkpt lat="42.83915" lon="-1.59208">
        <ele>440.2</ele>
        <time>2021-03-07 10:28:26</time>
      </trkpt>
      <trkpt lat="42.83914" lon="-1.59211">
        <ele>440.4</ele>
        <time>2021-03-07 10:28:27</time>
      </trkpt>
      <trkpt lat="42.83913" lon="-1.59215">
        <ele>440.6</ele>
        <time>2021-03-07 10:28:28</time>
      </trkpt>
      <trkpt lat="42.83912" lon="-1.59218">
        <ele>440.6</ele>
        <time>2021-03-07 10:28:29</time>
      </trkpt>
      <trkpt lat="42.8391" lon="-1.59222">
        <ele>441</ele>
        <time>2021-03-07 10:28:30</time>
      </trkpt>
      <trkpt lat="42.83909" lon="-1.59225">
        <ele>441.4</ele>
        <time>2021-03-07 10:28:31</time>
      </trkpt>
      <trkpt lat="42.83908" lon="-1.59229">
        <ele>441.6</ele>
        <time>2021-03-07 10:28:32</time>
      </trkpt>
      <trkpt lat="42.83907" lon="-1.59233">
        <ele>441.8</ele>
        <time>2021-03-07 10:28:33</time>
      </trkpt>
      <trkpt lat="42.83905" lon="-1.59237">
        <ele>441.8</ele>
        <time>2021-03-07 10:28:34</time>
      </trkpt>
      <trkpt lat="42.83904" lon="-1.59241">
        <ele>442</ele>
        <time>2021-03-07 10:28:35</time>
      </trkpt>
      <trkpt lat="42.83903" lon="-1.59245">
        <ele>442</ele>
        <time>2021-03-07 10:28:36</time>
      </trkpt>
      <trkpt lat="42.83901" lon="-1.59249">
        <ele>442</ele>
        <time>2021-03-07 10:28:37</time>
      </trkpt>
      <trkpt lat="42.839" lon="-1.59253">
        <ele>442.2</ele>
        <time>2021-03-07 10:28:38</time>
      </trkpt>
      <trkpt lat="42.83899" lon="-1.59257">
        <ele>442.4</ele>
        <time>2021-03-07 10:28:39</time>
      </trkpt>
      <trkpt lat="42.83897" lon="-1.59261">
        <ele>442.6</ele>
        <time>2021-03-07 10:28:40</time>
      </trkpt>
      <trkpt lat="42.83896" lon="-1.59265">
        <ele>442.8</ele>
        <time>2021-03-07 10:28:41</time>
      </trkpt>
      <trkpt lat="42.83895" lon="-1.59269">
        <ele>443</ele>
        <time>2021-03-07 10:28:42</time>
      </trkpt>
      <trkpt lat="42.83894" lon="-1.59273">
        <ele>443.2</ele>
        <time>2021-03-07 10:28:43</time>
      </trkpt>
      <trkpt lat="42.83892" lon="-1.59278">
        <ele>443.6</ele>
        <time>2021-03-07 10:28:44</time>
      </trkpt>
      <trkpt lat="42.83891" lon="-1.59282">
        <ele>443.8</ele>
        <time>2021-03-07 10:28:45</time>
      </trkpt>
      <trkpt lat="42.8389" lon="-1.59286">
        <ele>444</ele>
        <time>2021-03-07 10:28:46</time>
      </trkpt>
      <trkpt lat="42.83889" lon="-1.5929">
        <ele>444.2</ele>
        <time>2021-03-07 10:28:47</time>
      </trkpt>
      <trkpt lat="42.83888" lon="-1.59295">
        <ele>444.2</ele>
        <time>2021-03-07 10:28:48</time>
      </trkpt>
      <trkpt lat="42.83887" lon="-1.59299">
        <ele>444.4</ele>
        <time>2021-03-07 10:28:49</time>
      </trkpt>
      <trkpt lat="42.83885" lon="-1.59303">
        <ele>444.4</ele>
        <time>2021-03-07 10:28:50</time>
      </trkpt>
      <trkpt lat="42.83884" lon="-1.59308">
        <ele>444.6</ele>
        <time>2021-03-07 10:28:51</time>
      </trkpt>
      <trkpt lat="42.83883" lon="-1.59312">
        <ele>445</ele>
        <time>2021-03-07 10:28:52</time>
      </trkpt>
      <trkpt lat="42.83882" lon="-1.59317">
        <ele>445.2</ele>
        <time>2021-03-07 10:28:53</time>
      </trkpt>
      <trkpt lat="42.83881" lon="-1.59321">
        <ele>445.2</ele>
        <time>2021-03-07 10:28:54</time>
      </trkpt>
      <trkpt lat="42.8388" lon="-1.59326">
        <ele>445.2</ele>
        <time>2021-03-07 10:28:55</time>
      </trkpt>
      <trkpt lat="42.83879" lon="-1.59331">
        <ele>445.4</ele>
        <time>2021-03-07 10:28:56</time>
      </trkpt>
      <trkpt lat="42.83878" lon="-1.59336">
        <ele>445.6</ele>
        <time>2021-03-07 10:28:57</time>
      </trkpt>
      <trkpt lat="42.83877" lon="-1.59341">
        <ele>446</ele>
        <time>2021-03-07 10:28:58</time>
      </trkpt>
      <trkpt lat="42.83876" lon="-1.59346">
        <ele>446</ele>
        <time>2021-03-07 10:28:59</time>
      </trkpt>
      <trkpt lat="42.83875" lon="-1.5935">
        <ele>446.4</ele>
        <time>2021-03-07 10:29:00</time>
      </trkpt>
      <trkpt lat="42.83874" lon="-1.59355">
        <ele>446.4</ele>
        <time>2021-03-07 10:29:01</time>
      </trkpt>
      <trkpt lat="42.83873" lon="-1.5936">
        <ele>446.6</ele>
        <time>2021-03-07 10:29:02</time>
      </trkpt>
      <trkpt lat="42.83873" lon="-1.59365">
        <ele>446.6</ele>
        <time>2021-03-07 10:29:03</time>
      </trkpt>
      <trkpt lat="42.83872" lon="-1.59371">
        <ele>446.6</ele>
        <time>2021-03-07 10:29:04</time>
      </trkpt>
      <trkpt lat="42.83872" lon="-1.59376">
        <ele>446.8</ele>
        <time>2021-03-07 10:29:05</time>
      </trkpt>
      <trkpt lat="42.83871" lon="-1.59381">
        <ele>447</ele>
        <time>2021-03-07 10:29:06</time>
      </trkpt>
      <trkpt lat="42.83871" lon="-1.59386">
        <ele>447.2</ele>
        <time>2021-03-07 10:29:07</time>
      </trkpt>
      <trkpt lat="42.8387" lon="-1.59392">
        <ele>447.4</ele>
        <time>2021-03-07 10:29:08</time>
      </trkpt>
      <trkpt lat="42.83869" lon="-1.59397">
        <ele>447.6</ele>
        <time>2021-03-07 10:29:09</time>
      </trkpt>
      <trkpt lat="42.83869" lon="-1.59403">
        <ele>447.8</ele>
        <time>2021-03-07 10:29:10</time>
      </trkpt>
      <trkpt lat="42.83868" lon="-1.59408">
        <ele>448</ele>
        <time>2021-03-07 10:29:11</time>
      </trkpt>
      <trkpt lat="42.83868" lon="-1.59414">
        <ele>448</ele>
        <time>2021-03-07 10:29:12</time>
      </trkpt>
      <trkpt lat="42.83868" lon="-1.59421">
        <ele>448.4</ele>
        <time>2021-03-07 10:29:13</time>
      </trkpt>
      <trkpt lat="42.83867" lon="-1.59427">
        <ele>448.6</ele>
        <time>2021-03-07 10:29:14</time>
      </trkpt>
      <trkpt lat="42.83867" lon="-1.59433">
        <ele>448.8</ele>
        <time>2021-03-07 10:29:15</time>
      </trkpt>
      <trkpt lat="42.83866" lon="-1.5944">
        <ele>448.8</ele>
        <time>2021-03-07 10:29:16</time>
      </trkpt>
      <trkpt lat="42.83866" lon="-1.59446">
        <ele>448.8</ele>
        <time>2021-03-07 10:29:17</time>
      </trkpt>
      <trkpt lat="42.83866" lon="-1.59453">
        <ele>448.8</ele>
        <time>2021-03-07 10:29:18</time>
      </trkpt>
      <trkpt lat="42.83866" lon="-1.5946">
        <ele>449</ele>
        <time>2021-03-07 10:29:19</time>
      </trkpt>
      <trkpt lat="42.83866" lon="-1.59467">
        <ele>449</ele>
        <time>2021-03-07 10:29:20</time>
      </trkpt>
      <trkpt lat="42.83866" lon="-1.59474">
        <ele>449.2</ele>
        <time>2021-03-07 10:29:21</time>
      </trkpt>
      <trkpt lat="42.83866" lon="-1.59481">
        <ele>449.6</ele>
        <time>2021-03-07 10:29:22</time>
      </trkpt>
      <trkpt lat="42.83867" lon="-1.59488">
        <ele>449.6</ele>
        <time>2021-03-07 10:29:23</time>
      </trkpt>
      <trkpt lat="42.83867" lon="-1.59495">
        <ele>449.8</ele>
        <time>2021-03-07 10:29:24</time>
      </trkpt>
      <trkpt lat="42.83868" lon="-1.59502">
        <ele>449.8</ele>
        <time>2021-03-07 10:29:25</time>
      </trkpt>
      <trkpt lat="42.83868" lon="-1.59509">
        <ele>449.8</ele>
        <time>2021-03-07 10:29:26</time>
      </trkpt>
      <trkpt lat="42.83869" lon="-1.59517">
        <ele>449.6</ele>
        <time>2021-03-07 10:29:27</time>
      </trkpt>
      <trkpt lat="42.83869" lon="-1.59525">
        <ele>449.8</ele>
        <time>2021-03-07 10:29:28</time>
      </trkpt>
      <trkpt lat="42.8387" lon="-1.59533">
        <ele>449.8</ele>
        <time>2021-03-07 10:29:29</time>
      </trkpt>
      <trkpt lat="42.83871" lon="-1.59541">
        <ele>449.8</ele>
        <time>2021-03-07 10:29:30</time>
      </trkpt>
      <trkpt lat="42.83871" lon="-1.5955">
        <ele>449.8</ele>
        <time>2021-03-07 10:29:31</time>
      </trkpt>
      <trkpt lat="42.83872" lon="-1.59559">
        <ele>449.8</ele>
        <time>2021-03-07 10:29:32</time>
      </trkpt>
      <trkpt lat="42.83873" lon="-1.59567">
        <ele>449.8</ele>
        <time>2021-03-07 10:29:33</time>
      </trkpt>
      <trkpt lat="42.83873" lon="-1.59577">
        <ele>449.8</ele>
        <time>2021-03-07 10:29:34</time>
      </trkpt>
      <trkpt lat="42.83873" lon="-1.59587">
        <ele>449.8</ele>
        <time>2021-03-07 10:29:35</time>
      </trkpt>
      <trkpt lat="42.83875" lon="-1.59596">
        <ele>449.6</ele>
        <time>2021-03-07 10:29:36</time>
      </trkpt>
      <trkpt lat="42.83876" lon="-1.59607">
        <ele>449.4</ele>
        <time>2021-03-07 10:29:37</time>
      </trkpt>
      <trkpt lat="42.83877" lon="-1.59618">
        <ele>449.2</ele>
        <time>2021-03-07 10:29:38</time>
      </trkpt>
      <trkpt lat="42.83878" lon="-1.59628">
        <ele>449.2</ele>
        <time>2021-03-07 10:29:39</time>
      </trkpt>
      <trkpt lat="42.83879" lon="-1.5964">
        <ele>448.8</ele>
        <time>2021-03-07 10:29:40</time>
      </trkpt>
      <trkpt lat="42.83879" lon="-1.59652">
        <ele>448.6</ele>
        <time>2021-03-07 10:29:41</time>
      </trkpt>
      <trkpt lat="42.8388" lon="-1.59663">
        <ele>448.4</ele>
        <time>2021-03-07 10:29:42</time>
      </trkpt>
      <trkpt lat="42.83882" lon="-1.59675">
        <ele>448.4</ele>
        <time>2021-03-07 10:29:43</time>
      </trkpt>
      <trkpt lat="42.83883" lon="-1.59688">
        <ele>448.2</ele>
        <time>2021-03-07 10:29:44</time>
      </trkpt>
      <trkpt lat="42.83884" lon="-1.597">
        <ele>447.8</ele>
        <time>2021-03-07 10:29:45</time>
      </trkpt>
      <trkpt lat="42.83886" lon="-1.59713">
        <ele>447.6</ele>
        <time>2021-03-07 10:29:46</time>
      </trkpt>
      <trkpt lat="42.83887" lon="-1.59726">
        <ele>447.2</ele>
        <time>2021-03-07 10:29:47</time>
      </trkpt>
      <trkpt lat="42.83889" lon="-1.59739">
        <ele>447</ele>
        <time>2021-03-07 10:29:48</time>
      </trkpt>
      <trkpt lat="42.83891" lon="-1.59753">
        <ele>446.6</ele>
        <time>2021-03-07 10:29:49</time>
      </trkpt>
      <trkpt lat="42.83893" lon="-1.59767">
        <ele>446.2</ele>
        <time>2021-03-07 10:29:50</time>
      </trkpt>
      <trkpt lat="42.83895" lon="-1.59782">
        <ele>445</ele>
        <time>2021-03-07 10:29:51</time>
      </trkpt>
      <trkpt lat="42.83897" lon="-1.59797">
        <ele>444.6</ele>
        <time>2021-03-07 10:29:52</time>
      </trkpt>
      <trkpt lat="42.83898" lon="-1.59812">
        <ele>444</ele>
        <time>2021-03-07 10:29:53</time>
      </trkpt>
      <trkpt lat="42.839" lon="-1.59827">
        <ele>443.4</ele>
        <time>2021-03-07 10:29:54</time>
      </trkpt>
      <trkpt lat="42.83901" lon="-1.59843">
        <ele>443</ele>
        <time>2021-03-07 10:29:55</time>
      </trkpt>
      <trkpt lat="42.83903" lon="-1.59859">
        <ele>442.2</ele>
        <time>2021-03-07 10:29:56</time>
      </trkpt>
      <trkpt lat="42.83904" lon="-1.59876">
        <ele>441.6</ele>
        <time>2021-03-07 10:29:57</time>
      </trkpt>
      <trkpt lat="42.83904" lon="-1.59892">
        <ele>440.8</ele>
        <time>2021-03-07 10:29:58</time>
      </trkpt>
      <trkpt lat="42.83905" lon="-1.59909">
        <ele>439.8</ele>
        <time>2021-03-07 10:29:59</time>
      </trkpt>
      <trkpt lat="42.83905" lon="-1.59926">
        <ele>438.8</ele>
        <time>2021-03-07 10:30:00</time>
      </trkpt>
      <trkpt lat="42.83905" lon="-1.59944">
        <ele>437.6</ele>
        <time>2021-03-07 10:30:01</time>
      </trkpt>
      <trkpt lat="42.83905" lon="-1.59962">
        <ele>436.8</ele>
        <time>2021-03-07 10:30:02</time>
      </trkpt>
      <trkpt lat="42.83904" lon="-1.59979">
        <ele>436</ele>
        <time>2021-03-07 10:30:03</time>
      </trkpt>
      <trkpt lat="42.83904" lon="-1.59997">
        <ele>435</ele>
        <time>2021-03-07 10:30:04</time>
      </trkpt>
      <trkpt lat="42.83903" lon="-1.60015">
        <ele>434</ele>
        <time>2021-03-07 10:30:05</time>
      </trkpt>
      <trkpt lat="42.83901" lon="-1.60033">
        <ele>433</ele>
        <time>2021-03-07 10:30:06</time>
      </trkpt>
      <trkpt lat="42.839" lon="-1.60052">
        <ele>432</ele>
        <time>2021-03-07 10:30:07</time>
      </trkpt>
      <trkpt lat="42.83899" lon="-1.6007">
        <ele>431</ele>
        <time>2021-03-07 10:30:08</time>
      </trkpt>
      <trkpt lat="42.83897" lon="-1.60088">
        <ele>429.8</ele>
        <time>2021-03-07 10:30:09</time>
      </trkpt>
      <trkpt lat="42.83895" lon="-1.60107">
        <ele>428.6</ele>
        <time>2021-03-07 10:30:10</time>
      </trkpt>
      <trkpt lat="42.83892" lon="-1.60125">
        <ele>427.4</ele>
        <time>2021-03-07 10:30:11</time>
      </trkpt>
      <trkpt lat="42.8389" lon="-1.60143">
        <ele>426.4</ele>
        <time>2021-03-07 10:30:12</time>
      </trkpt>
      <trkpt lat="42.83887" lon="-1.60162">
        <ele>425.4</ele>
        <time>2021-03-07 10:30:13</time>
      </trkpt>
      <trkpt lat="42.83884" lon="-1.60181">
        <ele>424.2</ele>
        <time>2021-03-07 10:30:14</time>
      </trkpt>
      <trkpt lat="42.83882" lon="-1.60199">
        <ele>423.2</ele>
        <time>2021-03-07 10:30:15</time>
      </trkpt>
      <trkpt lat="42.83879" lon="-1.60218">
        <ele>422.2</ele>
        <time>2021-03-07 10:30:16</time>
      </trkpt>
      <trkpt lat="42.83876" lon="-1.60237">
        <ele>420.8</ele>
        <time>2021-03-07 10:30:17</time>
      </trkpt>
      <trkpt lat="42.83873" lon="-1.60256">
        <ele>419.6</ele>
        <time>2021-03-07 10:30:18</time>
      </trkpt>
      <trkpt lat="42.8387" lon="-1.60275">
        <ele>418.8</ele>
        <time>2021-03-07 10:30:19</time>
      </trkpt>
      <trkpt lat="42.83868" lon="-1.60294">
        <ele>416.2</ele>
        <time>2021-03-07 10:30:20</time>
      </trkpt>
      <trkpt lat="42.83866" lon="-1.60313">
        <ele>415.4</ele>
        <time>2021-03-07 10:30:21</time>
      </trkpt>
      <trkpt lat="42.83864" lon="-1.60332">
        <ele>414.6</ele>
        <time>2021-03-07 10:30:22</time>
      </trkpt>
      <trkpt lat="42.83862" lon="-1.6035">
        <ele>413.6</ele>
        <time>2021-03-07 10:30:23</time>
      </trkpt>
      <trkpt lat="42.83861" lon="-1.60369">
        <ele>412.4</ele>
        <time>2021-03-07 10:30:24</time>
      </trkpt>
      <trkpt lat="42.83859" lon="-1.60388">
        <ele>411.4</ele>
        <time>2021-03-07 10:30:25</time>
      </trkpt>
      <trkpt lat="42.83858" lon="-1.60406">
        <ele>410</ele>
        <time>2021-03-07 10:30:26</time>
      </trkpt>
      <trkpt lat="42.83858" lon="-1.60424">
        <ele>408.8</ele>
        <time>2021-03-07 10:30:27</time>
      </trkpt>
      <trkpt lat="42.83857" lon="-1.60442">
        <ele>407.6</ele>
        <time>2021-03-07 10:30:28</time>
      </trkpt>
      <trkpt lat="42.83857" lon="-1.6046">
        <ele>406.4</ele>
        <time>2021-03-07 10:30:29</time>
      </trkpt>
      <trkpt lat="42.83857" lon="-1.60477">
        <ele>405.6</ele>
        <time>2021-03-07 10:30:30</time>
      </trkpt>
      <trkpt lat="42.83857" lon="-1.60494">
        <ele>405</ele>
        <time>2021-03-07 10:30:31</time>
      </trkpt>
      <trkpt lat="42.83857" lon="-1.60511">
        <ele>404</ele>
        <time>2021-03-07 10:30:32</time>
      </trkpt>
      <trkpt lat="42.83858" lon="-1.60527">
        <ele>403.2</ele>
        <time>2021-03-07 10:30:33</time>
      </trkpt>
      <trkpt lat="42.83858" lon="-1.60543">
        <ele>402.8</ele>
        <time>2021-03-07 10:30:34</time>
      </trkpt>
      <trkpt lat="42.83859" lon="-1.60558">
        <ele>402.6</ele>
        <time>2021-03-07 10:30:35</time>
      </trkpt>
      <trkpt lat="42.8386" lon="-1.60573">
        <ele>402.4</ele>
        <time>2021-03-07 10:30:36</time>
      </trkpt>
      <trkpt lat="42.83861" lon="-1.60588">
        <ele>402.4</ele>
        <time>2021-03-07 10:30:37</time>
      </trkpt>
      <trkpt lat="42.83862" lon="-1.60602">
        <ele>402.2</ele>
        <time>2021-03-07 10:30:38</time>
      </trkpt>
      <trkpt lat="42.83863" lon="-1.60615">
        <ele>402.2</ele>
        <time>2021-03-07 10:30:39</time>
      </trkpt>
      <trkpt lat="42.83865" lon="-1.60629">
        <ele>402</ele>
        <time>2021-03-07 10:30:40</time>
      </trkpt>
      <trkpt lat="42.83866" lon="-1.60641">
        <ele>402</ele>
        <time>2021-03-07 10:30:41</time>
      </trkpt>
      <trkpt lat="42.83868" lon="-1.60654">
        <ele>402</ele>
        <time>2021-03-07 10:30:42</time>
      </trkpt>
      <trkpt lat="42.8387" lon="-1.60666">
        <ele>402</ele>
        <time>2021-03-07 10:30:43</time>
      </trkpt>
      <trkpt lat="42.83871" lon="-1.60678">
        <ele>402.2</ele>
        <time>2021-03-07 10:30:44</time>
      </trkpt>
      <trkpt lat="42.83873" lon="-1.6069">
        <ele>402.6</ele>
        <time>2021-03-07 10:30:45</time>
      </trkpt>
      <trkpt lat="42.83875" lon="-1.60701">
        <ele>402.8</ele>
        <time>2021-03-07 10:30:46</time>
      </trkpt>
      <trkpt lat="42.83877" lon="-1.60712">
        <ele>403.2</ele>
        <time>2021-03-07 10:30:47</time>
      </trkpt>
      <trkpt lat="42.83879" lon="-1.60724">
        <ele>403.4</ele>
        <time>2021-03-07 10:30:48</time>
      </trkpt>
      <trkpt lat="42.83881" lon="-1.60735">
        <ele>403.8</ele>
        <time>2021-03-07 10:30:49</time>
      </trkpt>
      <trkpt lat="42.83883" lon="-1.60746">
        <ele>404.6</ele>
        <time>2021-03-07 10:30:50</time>
      </trkpt>
      <trkpt lat="42.83886" lon="-1.60757">
        <ele>405</ele>
        <time>2021-03-07 10:30:51</time>
      </trkpt>
      <trkpt lat="42.83889" lon="-1.60768">
        <ele>405.4</ele>
        <time>2021-03-07 10:30:52</time>
      </trkpt>
      <trkpt lat="42.83893" lon="-1.60779">
        <ele>405.6</ele>
        <time>2021-03-07 10:30:53</time>
      </trkpt>
      <trkpt lat="42.83898" lon="-1.60788">
        <ele>406</ele>
        <time>2021-03-07 10:30:54</time>
      </trkpt>
      <trkpt lat="42.83903" lon="-1.60796">
        <ele>406.2</ele>
        <time>2021-03-07 10:30:55</time>
      </trkpt>
      <trkpt lat="42.8391" lon="-1.60803">
        <ele>406.4</ele>
        <time>2021-03-07 10:30:56</time>
      </trkpt>
      <trkpt lat="42.83917" lon="-1.6081">
        <ele>406.4</ele>
        <time>2021-03-07 10:30:57</time>
      </trkpt>
      <trkpt lat="42.83923" lon="-1.60818">
        <ele>406.6</ele>
        <time>2021-03-07 10:30:58</time>
      </trkpt>
      <trkpt lat="42.83929" lon="-1.60826">
        <ele>406.6</ele>
        <time>2021-03-07 10:30:59</time>
      </trkpt>
      <trkpt lat="42.83934" lon="-1.60834">
        <ele>406.8</ele>
        <time>2021-03-07 10:31:00</time>
      </trkpt>
      <trkpt lat="42.8394" lon="-1.60843">
        <ele>407</ele>
        <time>2021-03-07 10:31:01</time>
      </trkpt>
      <trkpt lat="42.83946" lon="-1.60851">
        <ele>407</ele>
        <time>2021-03-07 10:31:02</time>
      </trkpt>
      <trkpt lat="42.83951" lon="-1.60859">
        <ele>407.2</ele>
        <time>2021-03-07 10:31:03</time>
      </trkpt>
      <trkpt lat="42.83957" lon="-1.60867">
        <ele>407.2</ele>
        <time>2021-03-07 10:31:04</time>
      </trkpt>
      <trkpt lat="42.83964" lon="-1.60875">
        <ele>407.4</ele>
        <time>2021-03-07 10:31:05</time>
      </trkpt>
      <trkpt lat="42.8397" lon="-1.60881">
        <ele>407.6</ele>
        <time>2021-03-07 10:31:06</time>
      </trkpt>
      <trkpt lat="42.83977" lon="-1.60889">
        <ele>407.8</ele>
        <time>2021-03-07 10:31:07</time>
      </trkpt>
      <trkpt lat="42.83984" lon="-1.60895">
        <ele>407.8</ele>
        <time>2021-03-07 10:31:08</time>
      </trkpt>
      <trkpt lat="42.83991" lon="-1.60901">
        <ele>408</ele>
        <time>2021-03-07 10:31:09</time>
      </trkpt>
      <trkpt lat="42.83999" lon="-1.60906">
        <ele>408</ele>
        <time>2021-03-07 10:31:10</time>
      </trkpt>
      <trkpt lat="42.84006" lon="-1.60911">
        <ele>408</ele>
        <time>2021-03-07 10:31:11</time>
      </trkpt>
      <trkpt lat="42.84014" lon="-1.60917">
        <ele>408.2</ele>
        <time>2021-03-07 10:31:12</time>
      </trkpt>
      <trkpt lat="42.84021" lon="-1.60922">
        <ele>408.2</ele>
        <time>2021-03-07 10:31:13</time>
      </trkpt>
      <trkpt lat="42.84029" lon="-1.60927">
        <ele>408.2</ele>
        <time>2021-03-07 10:31:14</time>
      </trkpt>
      <trkpt lat="42.84036" lon="-1.60933">
        <ele>408.2</ele>
        <time>2021-03-07 10:31:15</time>
      </trkpt>
      <trkpt lat="42.84043" lon="-1.60938">
        <ele>408.2</ele>
        <time>2021-03-07 10:31:16</time>
      </trkpt>
      <trkpt lat="42.8405" lon="-1.60944">
        <ele>408.2</ele>
        <time>2021-03-07 10:31:17</time>
      </trkpt>
      <trkpt lat="42.84057" lon="-1.60949">
        <ele>408.2</ele>
        <time>2021-03-07 10:31:18</time>
      </trkpt>
      <trkpt lat="42.84064" lon="-1.60955">
        <ele>408.2</ele>
        <time>2021-03-07 10:31:19</time>
      </trkpt>
      <trkpt lat="42.84071" lon="-1.60959">
        <ele>408.2</ele>
        <time>2021-03-07 10:31:20</time>
      </trkpt>
      <trkpt lat="42.84078" lon="-1.60964">
        <ele>408</ele>
        <time>2021-03-07 10:31:21</time>
      </trkpt>
      <trkpt lat="42.84085" lon="-1.60969">
        <ele>408.4</ele>
        <time>2021-03-07 10:31:22</time>
      </trkpt>
      <trkpt lat="42.84092" lon="-1.60974">
        <ele>408.4</ele>
        <time>2021-03-07 10:31:23</time>
      </trkpt>
      <trkpt lat="42.84098" lon="-1.60979">
        <ele>408.2</ele>
        <time>2021-03-07 10:31:24</time>
      </trkpt>
      <trkpt lat="42.84105" lon="-1.60984">
        <ele>408.2</ele>
        <time>2021-03-07 10:31:25</time>
      </trkpt>
      <trkpt lat="42.84112" lon="-1.60989">
        <ele>408.4</ele>
        <time>2021-03-07 10:31:26</time>
      </trkpt>
      <trkpt lat="42.84118" lon="-1.60994">
        <ele>408.4</ele>
        <time>2021-03-07 10:31:27</time>
      </trkpt>
      <trkpt lat="42.84125" lon="-1.60999">
        <ele>408.4</ele>
        <time>2021-03-07 10:31:28</time>
      </trkpt>
      <trkpt lat="42.84131" lon="-1.61003">
        <ele>408.4</ele>
        <time>2021-03-07 10:31:29</time>
      </trkpt>
      <trkpt lat="42.84138" lon="-1.61008">
        <ele>408.4</ele>
        <time>2021-03-07 10:31:30</time>
      </trkpt>
      <trkpt lat="42.84144" lon="-1.61013">
        <ele>408.6</ele>
        <time>2021-03-07 10:31:31</time>
      </trkpt>
      <trkpt lat="42.8415" lon="-1.61017">
        <ele>408.6</ele>
        <time>2021-03-07 10:31:32</time>
      </trkpt>
      <trkpt lat="42.84157" lon="-1.61022">
        <ele>408.8</ele>
        <time>2021-03-07 10:31:33</time>
      </trkpt>
      <trkpt lat="42.84163" lon="-1.61026">
        <ele>408.8</ele>
        <time>2021-03-07 10:31:34</time>
      </trkpt>
      <trkpt lat="42.8417" lon="-1.61031">
        <ele>408.8</ele>
        <time>2021-03-07 10:31:35</time>
      </trkpt>
      <trkpt lat="42.84176" lon="-1.61035">
        <ele>408.8</ele>
        <time>2021-03-07 10:31:36</time>
      </trkpt>
      <trkpt lat="42.84182" lon="-1.6104">
        <ele>409</ele>
        <time>2021-03-07 10:31:37</time>
      </trkpt>
      <trkpt lat="42.84188" lon="-1.61045">
        <ele>409</ele>
        <time>2021-03-07 10:31:38</time>
      </trkpt>
      <trkpt lat="42.84195" lon="-1.61049">
        <ele>409.2</ele>
        <time>2021-03-07 10:31:39</time>
      </trkpt>
      <trkpt lat="42.84201" lon="-1.61054">
        <ele>409.2</ele>
        <time>2021-03-07 10:31:40</time>
      </trkpt>
      <trkpt lat="42.84208" lon="-1.61058">
        <ele>409.2</ele>
        <time>2021-03-07 10:31:41</time>
      </trkpt>
      <trkpt lat="42.84214" lon="-1.61063">
        <ele>409.4</ele>
        <time>2021-03-07 10:31:42</time>
      </trkpt>
      <trkpt lat="42.8422" lon="-1.61068">
        <ele>409.4</ele>
        <time>2021-03-07 10:31:43</time>
      </trkpt>
      <trkpt lat="42.84227" lon="-1.61073">
        <ele>409.4</ele>
        <time>2021-03-07 10:31:44</time>
      </trkpt>
      <trkpt lat="42.84233" lon="-1.61078">
        <ele>409.8</ele>
        <time>2021-03-07 10:31:45</time>
      </trkpt>
      <trkpt lat="42.84239" lon="-1.61083">
        <ele>410</ele>
        <time>2021-03-07 10:31:46</time>
      </trkpt>
      <trkpt lat="42.84245" lon="-1.61088">
        <ele>410.2</ele>
        <time>2021-03-07 10:31:47</time>
      </trkpt>
      <trkpt lat="42.84252" lon="-1.61092">
        <ele>410.6</ele>
        <time>2021-03-07 10:31:48</time>
      </trkpt>
      <trkpt lat="42.84258" lon="-1.61097">
        <ele>410.6</ele>
        <time>2021-03-07 10:31:49</time>
      </trkpt>
      <trkpt lat="42.84264" lon="-1.61102">
        <ele>410.6</ele>
        <time>2021-03-07 10:31:50</time>
      </trkpt>
      <trkpt lat="42.8427" lon="-1.61107">
        <ele>410.8</ele>
        <time>2021-03-07 10:31:51</time>
      </trkpt>
      <trkpt lat="42.84276" lon="-1.61112">
        <ele>410.8</ele>
        <time>2021-03-07 10:31:52</time>
      </trkpt>
      <trkpt lat="42.84282" lon="-1.61119">
        <ele>411</ele>
        <time>2021-03-07 10:31:53</time>
      </trkpt>
      <trkpt lat="42.84288" lon="-1.61125">
        <ele>411</ele>
        <time>2021-03-07 10:31:54</time>
      </trkpt>
      <trkpt lat="42.84293" lon="-1.61132">
        <ele>411</ele>
        <time>2021-03-07 10:31:55</time>
      </trkpt>
      <trkpt lat="42.84298" lon="-1.6114">
        <ele>411</ele>
        <time>2021-03-07 10:31:56</time>
      </trkpt>
      <trkpt lat="42.84302" lon="-1.61149">
        <ele>411</ele>
        <time>2021-03-07 10:31:57</time>
      </trkpt>
      <trkpt lat="42.84306" lon="-1.61157">
        <ele>411</ele>
        <time>2021-03-07 10:31:58</time>
      </trkpt>
      <trkpt lat="42.8431" lon="-1.61166">
        <ele>411</ele>
        <time>2021-03-07 10:31:59</time>
      </trkpt>
      <trkpt lat="42.84314" lon="-1.61176">
        <ele>411</ele>
        <time>2021-03-07 10:32:00</time>
      </trkpt>
      <trkpt lat="42.84317" lon="-1.61185">
        <ele>411</ele>
        <time>2021-03-07 10:32:01</time>
      </trkpt>
      <trkpt lat="42.84319" lon="-1.61195">
        <ele>410.6</ele>
        <time>2021-03-07 10:32:02</time>
      </trkpt>
      <trkpt lat="42.84322" lon="-1.61205">
        <ele>410.6</ele>
        <time>2021-03-07 10:32:03</time>
      </trkpt>
      <trkpt lat="42.84324" lon="-1.61216">
        <ele>410.4</ele>
        <time>2021-03-07 10:32:04</time>
      </trkpt>
      <trkpt lat="42.84327" lon="-1.61226">
        <ele>410.4</ele>
        <time>2021-03-07 10:32:05</time>
      </trkpt>
      <trkpt lat="42.8433" lon="-1.61237">
        <ele>410.4</ele>
        <time>2021-03-07 10:32:06</time>
      </trkpt>
      <trkpt lat="42.84333" lon="-1.61248">
        <ele>410.4</ele>
        <time>2021-03-07 10:32:07</time>
      </trkpt>
      <trkpt lat="42.84335" lon="-1.61258">
        <ele>410.2</ele>
        <time>2021-03-07 10:32:08</time>
      </trkpt>
      <trkpt lat="42.84338" lon="-1.61269">
        <ele>410</ele>
        <time>2021-03-07 10:32:09</time>
      </trkpt>
      <trkpt lat="42.84341" lon="-1.61281">
        <ele>410</ele>
        <time>2021-03-07 10:32:10</time>
      </trkpt>
      <trkpt lat="42.84343" lon="-1.61292">
        <ele>409.8</ele>
        <time>2021-03-07 10:32:11</time>
      </trkpt>
      <trkpt lat="42.84346" lon="-1.61304">
        <ele>409.8</ele>
        <time>2021-03-07 10:32:12</time>
      </trkpt>
      <trkpt lat="42.84349" lon="-1.61315">
        <ele>409.6</ele>
        <time>2021-03-07 10:32:13</time>
      </trkpt>
      <trkpt lat="42.84351" lon="-1.61327">
        <ele>409.6</ele>
        <time>2021-03-07 10:32:14</time>
      </trkpt>
      <trkpt lat="42.84354" lon="-1.61338">
        <ele>409.2</ele>
        <time>2021-03-07 10:32:15</time>
      </trkpt>
      <trkpt lat="42.84357" lon="-1.6135">
        <ele>409</ele>
        <time>2021-03-07 10:32:16</time>
      </trkpt>
      <trkpt lat="42.84359" lon="-1.61361">
        <ele>408.4</ele>
        <time>2021-03-07 10:32:17</time>
      </trkpt>
      <trkpt lat="42.84363" lon="-1.61372">
        <ele>408</ele>
        <time>2021-03-07 10:32:18</time>
      </trkpt>
      <trkpt lat="42.84366" lon="-1.61382">
        <ele>407.8</ele>
        <time>2021-03-07 10:32:19</time>
      </trkpt>
      <trkpt lat="42.8437" lon="-1.61392">
        <ele>407.8</ele>
        <time>2021-03-07 10:32:20</time>
      </trkpt>
      <trkpt lat="42.84374" lon="-1.61403">
        <ele>407.4</ele>
        <time>2021-03-07 10:32:21</time>
      </trkpt>
      <trkpt lat="42.84377" lon="-1.61413">
        <ele>407.4</ele>
        <time>2021-03-07 10:32:22</time>
      </trkpt>
      <trkpt lat="42.84381" lon="-1.61423">
        <ele>407.6</ele>
        <time>2021-03-07 10:32:23</time>
      </trkpt>
      <trkpt lat="42.84385" lon="-1.61433">
        <ele>407.2</ele>
        <time>2021-03-07 10:32:24</time>
      </trkpt>
      <trkpt lat="42.84389" lon="-1.61444">
        <ele>407.2</ele>
        <time>2021-03-07 10:32:25</time>
      </trkpt>
      <trkpt lat="42.84393" lon="-1.61454">
        <ele>407.2</ele>
        <time>2021-03-07 10:32:26</time>
      </trkpt>
      <trkpt lat="42.84397" lon="-1.61464">
        <ele>407.2</ele>
        <time>2021-03-07 10:32:27</time>
      </trkpt>
      <trkpt lat="42.84401" lon="-1.61475">
        <ele>407.2</ele>
        <time>2021-03-07 10:32:28</time>
      </trkpt>
      <trkpt lat="42.84405" lon="-1.61486">
        <ele>407.2</ele>
        <time>2021-03-07 10:32:29</time>
      </trkpt>
      <trkpt lat="42.84409" lon="-1.61496">
        <ele>407.2</ele>
        <time>2021-03-07 10:32:30</time>
      </trkpt>
      <trkpt lat="42.84413" lon="-1.61507">
        <ele>407.2</ele>
        <time>2021-03-07 10:32:31</time>
      </trkpt>
      <trkpt lat="42.84417" lon="-1.61518">
        <ele>407</ele>
        <time>2021-03-07 10:32:32</time>
      </trkpt>
      <trkpt lat="42.84421" lon="-1.61528">
        <ele>407</ele>
        <time>2021-03-07 10:32:33</time>
      </trkpt>
      <trkpt lat="42.84425" lon="-1.61539">
        <ele>407</ele>
        <time>2021-03-07 10:32:34</time>
      </trkpt>
      <trkpt lat="42.84429" lon="-1.6155">
        <ele>407</ele>
        <time>2021-03-07 10:32:35</time>
      </trkpt>
      <trkpt lat="42.84433" lon="-1.61561">
        <ele>407</ele>
        <time>2021-03-07 10:32:36</time>
      </trkpt>
      <trkpt lat="42.84437" lon="-1.61571">
        <ele>406.8</ele>
        <time>2021-03-07 10:32:37</time>
      </trkpt>
      <trkpt lat="42.84441" lon="-1.61582">
        <ele>406.8</ele>
        <time>2021-03-07 10:32:38</time>
      </trkpt>
      <trkpt lat="42.84444" lon="-1.61592">
        <ele>406.6</ele>
        <time>2021-03-07 10:32:39</time>
      </trkpt>
      <trkpt lat="42.84448" lon="-1.61603">
        <ele>406.6</ele>
        <time>2021-03-07 10:32:40</time>
      </trkpt>
      <trkpt lat="42.84452" lon="-1.61613">
        <ele>406.4</ele>
        <time>2021-03-07 10:32:41</time>
      </trkpt>
      <trkpt lat="42.84455" lon="-1.61623">
        <ele>406.4</ele>
        <time>2021-03-07 10:32:42</time>
      </trkpt>
      <trkpt lat="42.84459" lon="-1.61633">
        <ele>406.4</ele>
        <time>2021-03-07 10:32:43</time>
      </trkpt>
      <trkpt lat="42.84463" lon="-1.61643">
        <ele>406.4</ele>
        <time>2021-03-07 10:32:44</time>
      </trkpt>
      <trkpt lat="42.84466" lon="-1.61653">
        <ele>406.4</ele>
        <time>2021-03-07 10:32:45</time>
      </trkpt>
      <trkpt lat="42.8447" lon="-1.61663">
        <ele>406.4</ele>
        <time>2021-03-07 10:32:46</time>
      </trkpt>
      <trkpt lat="42.84473" lon="-1.61673">
        <ele>406.2</ele>
        <time>2021-03-07 10:32:47</time>
      </trkpt>
      <trkpt lat="42.84477" lon="-1.61682">
        <ele>406.2</ele>
        <time>2021-03-07 10:32:48</time>
      </trkpt>
      <trkpt lat="42.8448" lon="-1.61692">
        <ele>406.4</ele>
        <time>2021-03-07 10:32:49</time>
      </trkpt>
      <trkpt lat="42.84483" lon="-1.61701">
        <ele>406.4</ele>
        <time>2021-03-07 10:32:50</time>
      </trkpt>
      <trkpt lat="42.84487" lon="-1.6171">
        <ele>406.6</ele>
        <time>2021-03-07 10:32:51</time>
      </trkpt>
      <trkpt lat="42.8449" lon="-1.6172">
        <ele>406.8</ele>
        <time>2021-03-07 10:32:52</time>
      </trkpt>
      <trkpt lat="42.84493" lon="-1.61728">
        <ele>406.8</ele>
        <time>2021-03-07 10:32:53</time>
      </trkpt>
      <trkpt lat="42.84496" lon="-1.61737">
        <ele>407</ele>
        <time>2021-03-07 10:32:54</time>
      </trkpt>
      <trkpt lat="42.84499" lon="-1.61746">
        <ele>407.2</ele>
        <time>2021-03-07 10:32:55</time>
      </trkpt>
      <trkpt lat="42.84502" lon="-1.61755">
        <ele>407.4</ele>
        <time>2021-03-07 10:32:56</time>
      </trkpt>
      <trkpt lat="42.84506" lon="-1.61763">
        <ele>407.6</ele>
        <time>2021-03-07 10:32:57</time>
      </trkpt>
      <trkpt lat="42.84509" lon="-1.61772">
        <ele>407.8</ele>
        <time>2021-03-07 10:32:58</time>
      </trkpt>
      <trkpt lat="42.84512" lon="-1.61781">
        <ele>407.8</ele>
        <time>2021-03-07 10:32:59</time>
      </trkpt>
      <trkpt lat="42.84515" lon="-1.6179">
        <ele>408</ele>
        <time>2021-03-07 10:33:00</time>
      </trkpt>
      <trkpt lat="42.84518" lon="-1.61799">
        <ele>408.2</ele>
        <time>2021-03-07 10:33:01</time>
      </trkpt>
      <trkpt lat="42.84521" lon="-1.61807">
        <ele>408.2</ele>
        <time>2021-03-07 10:33:02</time>
      </trkpt>
      <trkpt lat="42.84525" lon="-1.61816">
        <ele>408.6</ele>
        <time>2021-03-07 10:33:03</time>
      </trkpt>
      <trkpt lat="42.84528" lon="-1.61824">
        <ele>408.8</ele>
        <time>2021-03-07 10:33:04</time>
      </trkpt>
      <trkpt lat="42.84532" lon="-1.61833">
        <ele>409</ele>
        <time>2021-03-07 10:33:05</time>
      </trkpt>
      <trkpt lat="42.84535" lon="-1.61841">
        <ele>409.2</ele>
        <time>2021-03-07 10:33:06</time>
      </trkpt>
      <trkpt lat="42.84538" lon="-1.61849">
        <ele>409.2</ele>
        <time>2021-03-07 10:33:07</time>
      </trkpt>
      <trkpt lat="42.84541" lon="-1.61858">
        <ele>409.4</ele>
        <time>2021-03-07 10:33:08</time>
      </trkpt>
      <trkpt lat="42.84544" lon="-1.61866">
        <ele>409.6</ele>
        <time>2021-03-07 10:33:09</time>
      </trkpt>
      <trkpt lat="42.84547" lon="-1.61874">
        <ele>410</ele>
        <time>2021-03-07 10:33:10</time>
      </trkpt>
      <trkpt lat="42.84551" lon="-1.61882">
        <ele>410</ele>
        <time>2021-03-07 10:33:11</time>
      </trkpt>
      <trkpt lat="42.84554" lon="-1.61889">
        <ele>410</ele>
        <time>2021-03-07 10:33:12</time>
      </trkpt>
      <trkpt lat="42.84557" lon="-1.61897">
        <ele>410.2</ele>
        <time>2021-03-07 10:33:13</time>
      </trkpt>
      <trkpt lat="42.84561" lon="-1.61905">
        <ele>410.4</ele>
        <time>2021-03-07 10:33:14</time>
      </trkpt>
      <trkpt lat="42.84564" lon="-1.61912">
        <ele>410.4</ele>
        <time>2021-03-07 10:33:15</time>
      </trkpt>
      <trkpt lat="42.84568" lon="-1.6192">
        <ele>410.6</ele>
        <time>2021-03-07 10:33:16</time>
      </trkpt>
      <trkpt lat="42.84571" lon="-1.61927">
        <ele>410.8</ele>
        <time>2021-03-07 10:33:17</time>
      </trkpt>
      <trkpt lat="42.84574" lon="-1.61934">
        <ele>410.8</ele>
        <time>2021-03-07 10:33:18</time>
      </trkpt>
      <trkpt lat="42.84578" lon="-1.61942">
        <ele>410.8</ele>
        <time>2021-03-07 10:33:19</time>
      </trkpt>
      <trkpt lat="42.84581" lon="-1.61949">
        <ele>411</ele>
        <time>2021-03-07 10:33:20</time>
      </trkpt>
      <trkpt lat="42.84584" lon="-1.61956">
        <ele>411.2</ele>
        <time>2021-03-07 10:33:21</time>
      </trkpt>
      <trkpt lat="42.84587" lon="-1.61963">
        <ele>411.4</ele>
        <time>2021-03-07 10:33:22</time>
      </trkpt>
      <trkpt lat="42.84591" lon="-1.6197">
        <ele>411.6</ele>
        <time>2021-03-07 10:33:23</time>
      </trkpt>
      <trkpt lat="42.84594" lon="-1.61977">
        <ele>411.6</ele>
        <time>2021-03-07 10:33:24</time>
      </trkpt>
      <trkpt lat="42.84598" lon="-1.61983">
        <ele>411.8</ele>
        <time>2021-03-07 10:33:25</time>
      </trkpt>
      <trkpt lat="42.84601" lon="-1.61989">
        <ele>412.2</ele>
        <time>2021-03-07 10:33:26</time>
      </trkpt>
      <trkpt lat="42.84605" lon="-1.61995">
        <ele>412.4</ele>
        <time>2021-03-07 10:33:27</time>
      </trkpt>
      <trkpt lat="42.84609" lon="-1.62">
        <ele>412.6</ele>
        <time>2021-03-07 10:33:28</time>
      </trkpt>
      <trkpt lat="42.84615" lon="-1.62004">
        <ele>412.6</ele>
        <time>2021-03-07 10:33:29</time>
      </trkpt>
      <trkpt lat="42.8462" lon="-1.62006">
        <ele>412.6</ele>
        <time>2021-03-07 10:33:30</time>
      </trkpt>
      <trkpt lat="42.84625" lon="-1.62009">
        <ele>412.6</ele>
        <time>2021-03-07 10:33:31</time>
      </trkpt>
      <trkpt lat="42.84631" lon="-1.62013">
        <ele>412.8</ele>
        <time>2021-03-07 10:33:32</time>
      </trkpt>
      <trkpt lat="42.84635" lon="-1.62018">
        <ele>413</ele>
        <time>2021-03-07 10:33:33</time>
      </trkpt>
      <trkpt lat="42.84638" lon="-1.62025">
        <ele>413.2</ele>
        <time>2021-03-07 10:33:34</time>
      </trkpt>
      <trkpt lat="42.8464" lon="-1.62032">
        <ele>413.4</ele>
        <time>2021-03-07 10:33:35</time>
      </trkpt>
      <trkpt lat="42.84643" lon="-1.62039">
        <ele>413.6</ele>
        <time>2021-03-07 10:33:36</time>
      </trkpt>
      <trkpt lat="42.84647" lon="-1.62045">
        <ele>413.6</ele>
        <time>2021-03-07 10:33:37</time>
      </trkpt>
      <trkpt lat="42.84651" lon="-1.6205">
        <ele>413.6</ele>
        <time>2021-03-07 10:33:38</time>
      </trkpt>
      <trkpt lat="42.84656" lon="-1.62055">
        <ele>413.8</ele>
        <time>2021-03-07 10:33:39</time>
      </trkpt>
      <trkpt lat="42.84661" lon="-1.6206">
        <ele>413.8</ele>
        <time>2021-03-07 10:33:40</time>
      </trkpt>
      <trkpt lat="42.84666" lon="-1.62065">
        <ele>413.8</ele>
        <time>2021-03-07 10:33:41</time>
      </trkpt>
      <trkpt lat="42.84671" lon="-1.6207">
        <ele>413.8</ele>
        <time>2021-03-07 10:33:42</time>
      </trkpt>
      <trkpt lat="42.84676" lon="-1.62075">
        <ele>413.8</ele>
        <time>2021-03-07 10:33:43</time>
      </trkpt>
      <trkpt lat="42.84682" lon="-1.6208">
        <ele>413.8</ele>
        <time>2021-03-07 10:33:44</time>
      </trkpt>
      <trkpt lat="42.84687" lon="-1.62085">
        <ele>413.8</ele>
        <time>2021-03-07 10:33:45</time>
      </trkpt>
      <trkpt lat="42.84692" lon="-1.62089">
        <ele>413.8</ele>
        <time>2021-03-07 10:33:46</time>
      </trkpt>
      <trkpt lat="42.84698" lon="-1.62094">
        <ele>413.8</ele>
        <time>2021-03-07 10:33:47</time>
      </trkpt>
      <trkpt lat="42.84703" lon="-1.62098">
        <ele>413.8</ele>
        <time>2021-03-07 10:33:48</time>
      </trkpt>
      <trkpt lat="42.84709" lon="-1.62102">
        <ele>413.8</ele>
        <time>2021-03-07 10:33:49</time>
      </trkpt>
      <trkpt lat="42.84714" lon="-1.62107">
        <ele>413.8</ele>
        <time>2021-03-07 10:33:50</time>
      </trkpt>
      <trkpt lat="42.8472" lon="-1.62111">
        <ele>413.8</ele>
        <time>2021-03-07 10:33:51</time>
      </trkpt>
      <trkpt lat="42.84725" lon="-1.62115">
        <ele>413.8</ele>
        <time>2021-03-07 10:33:52</time>
      </trkpt>
      <trkpt lat="42.8473" lon="-1.62119">
        <ele>413.8</ele>
        <time>2021-03-07 10:33:53</time>
      </trkpt>
      <trkpt lat="42.84736" lon="-1.62123">
        <ele>413.8</ele>
        <time>2021-03-07 10:33:54</time>
      </trkpt>
      <trkpt lat="42.84741" lon="-1.62128">
        <ele>413.8</ele>
        <time>2021-03-07 10:33:55</time>
      </trkpt>
      <trkpt lat="42.84746" lon="-1.62132">
        <ele>414</ele>
        <time>2021-03-07 10:33:56</time>
      </trkpt>
      <trkpt lat="42.84752" lon="-1.62135">
        <ele>414</ele>
        <time>2021-03-07 10:33:57</time>
      </trkpt>
      <trkpt lat="42.84757" lon="-1.62139">
        <ele>414.2</ele>
        <time>2021-03-07 10:33:58</time>
      </trkpt>
      <trkpt lat="42.84763" lon="-1.62143">
        <ele>414.2</ele>
        <time>2021-03-07 10:33:59</time>
      </trkpt>
      <trkpt lat="42.84769" lon="-1.62146">
        <ele>414.4</ele>
        <time>2021-03-07 10:34:00</time>
      </trkpt>
      <trkpt lat="42.84775" lon="-1.62149">
        <ele>414.4</ele>
        <time>2021-03-07 10:34:01</time>
      </trkpt>
      <trkpt lat="42.8478" lon="-1.62153">
        <ele>414.4</ele>
        <time>2021-03-07 10:34:02</time>
      </trkpt>
      <trkpt lat="42.84786" lon="-1.62156">
        <ele>414.4</ele>
        <time>2021-03-07 10:34:03</time>
      </trkpt>
      <trkpt lat="42.84792" lon="-1.6216">
        <ele>414.4</ele>
        <time>2021-03-07 10:34:04</time>
      </trkpt>
      <trkpt lat="42.84797" lon="-1.62164">
        <ele>414.4</ele>
        <time>2021-03-07 10:34:05</time>
      </trkpt>
      <trkpt lat="42.84803" lon="-1.62167">
        <ele>414.6</ele>
        <time>2021-03-07 10:34:06</time>
      </trkpt>
      <trkpt lat="42.84809" lon="-1.6217">
        <ele>414.6</ele>
        <time>2021-03-07 10:34:07</time>
      </trkpt>
      <trkpt lat="42.84815" lon="-1.62173">
        <ele>414.8</ele>
        <time>2021-03-07 10:34:08</time>
      </trkpt>
      <trkpt lat="42.84821" lon="-1.62176">
        <ele>414.8</ele>
        <time>2021-03-07 10:34:09</time>
      </trkpt>
      <trkpt lat="42.84827" lon="-1.62178">
        <ele>415</ele>
        <time>2021-03-07 10:34:10</time>
      </trkpt>
      <trkpt lat="42.84832" lon="-1.62181">
        <ele>415</ele>
        <time>2021-03-07 10:34:11</time>
      </trkpt>
      <trkpt lat="42.84838" lon="-1.62183">
        <ele>415.2</ele>
        <time>2021-03-07 10:34:12</time>
      </trkpt>
      <trkpt lat="42.84844" lon="-1.62185">
        <ele>415.2</ele>
        <time>2021-03-07 10:34:13</time>
      </trkpt>
      <trkpt lat="42.8485" lon="-1.62188">
        <ele>415.4</ele>
        <time>2021-03-07 10:34:14</time>
      </trkpt>
      <trkpt lat="42.84855" lon="-1.6219">
        <ele>415.6</ele>
        <time>2021-03-07 10:34:15</time>
      </trkpt>
      <trkpt lat="42.84861" lon="-1.62192">
        <ele>415.8</ele>
        <time>2021-03-07 10:34:16</time>
      </trkpt>
      <trkpt lat="42.84867" lon="-1.62194">
        <ele>415.8</ele>
        <time>2021-03-07 10:34:17</time>
      </trkpt>
      <trkpt lat="42.84873" lon="-1.62196">
        <ele>415.8</ele>
        <time>2021-03-07 10:34:18</time>
      </trkpt>
      <trkpt lat="42.84878" lon="-1.62198">
        <ele>416.2</ele>
        <time>2021-03-07 10:34:19</time>
      </trkpt>
      <trkpt lat="42.84884" lon="-1.622">
        <ele>416.6</ele>
        <time>2021-03-07 10:34:20</time>
      </trkpt>
      <trkpt lat="42.8489" lon="-1.62202">
        <ele>417</ele>
        <time>2021-03-07 10:34:21</time>
      </trkpt>
      <trkpt lat="42.84896" lon="-1.62205">
        <ele>417.2</ele>
        <time>2021-03-07 10:34:22</time>
      </trkpt>
      <trkpt lat="42.84902" lon="-1.62207">
        <ele>417.2</ele>
        <time>2021-03-07 10:34:23</time>
      </trkpt>
      <trkpt lat="42.84908" lon="-1.6221">
        <ele>417.4</ele>
        <time>2021-03-07 10:34:24</time>
      </trkpt>
      <trkpt lat="42.84914" lon="-1.62212">
        <ele>417.4</ele>
        <time>2021-03-07 10:34:25</time>
      </trkpt>
      <trkpt lat="42.84919" lon="-1.62214">
        <ele>417.6</ele>
        <time>2021-03-07 10:34:26</time>
      </trkpt>
      <trkpt lat="42.84925" lon="-1.62216">
        <ele>417.6</ele>
        <time>2021-03-07 10:34:27</time>
      </trkpt>
      <trkpt lat="42.8493" lon="-1.62217">
        <ele>417.8</ele>
        <time>2021-03-07 10:34:28</time>
      </trkpt>
      <trkpt lat="42.84935" lon="-1.62219">
        <ele>417.8</ele>
        <time>2021-03-07 10:34:29</time>
      </trkpt>
      <trkpt lat="42.8494" lon="-1.6222">
        <ele>418</ele>
        <time>2021-03-07 10:34:30</time>
      </trkpt>
      <trkpt lat="42.84945" lon="-1.62222">
        <ele>418</ele>
        <time>2021-03-07 10:34:31</time>
      </trkpt>
      <trkpt lat="42.84949" lon="-1.62223">
        <ele>418</ele>
        <time>2021-03-07 10:34:32</time>
      </trkpt>
      <trkpt lat="42.84953" lon="-1.62224">
        <ele>418.4</ele>
        <time>2021-03-07 10:34:33</time>
      </trkpt>
      <trkpt lat="42.84957" lon="-1.62225">
        <ele>418.4</ele>
        <time>2021-03-07 10:34:34</time>
      </trkpt>
      <trkpt lat="42.84961" lon="-1.62226">
        <ele>418.6</ele>
        <time>2021-03-07 10:34:35</time>
      </trkpt>
      <trkpt lat="42.84983" lon="-1.62234">
        <ele>420</ele>
        <time>2021-03-07 10:35:22</time>
      </trkpt>
      <trkpt lat="42.84986" lon="-1.62235">
        <ele>420</ele>
        <time>2021-03-07 10:35:23</time>
      </trkpt>
      <trkpt lat="42.84989" lon="-1.62236">
        <ele>420</ele>
        <time>2021-03-07 10:35:24</time>
      </trkpt>
      <trkpt lat="42.84992" lon="-1.62237">
        <ele>420</ele>
        <time>2021-03-07 10:35:25</time>
      </trkpt>
      <trkpt lat="42.84997" lon="-1.62238">
        <ele>420</ele>
        <time>2021-03-07 10:35:26</time>
      </trkpt>
      <trkpt lat="42.85001" lon="-1.62239">
        <ele>420</ele>
        <time>2021-03-07 10:35:27</time>
      </trkpt>
      <trkpt lat="42.85006" lon="-1.62241">
        <ele>420</ele>
        <time>2021-03-07 10:35:28</time>
      </trkpt>
      <trkpt lat="42.85011" lon="-1.62243">
        <ele>420</ele>
        <time>2021-03-07 10:35:29</time>
      </trkpt>
      <trkpt lat="42.85016" lon="-1.62244">
        <ele>420</ele>
        <time>2021-03-07 10:35:30</time>
      </trkpt>
      <trkpt lat="42.85021" lon="-1.62246">
        <ele>420</ele>
        <time>2021-03-07 10:35:31</time>
      </trkpt>
      <trkpt lat="42.85026" lon="-1.62248">
        <ele>420</ele>
        <time>2021-03-07 10:35:32</time>
      </trkpt>
      <trkpt lat="42.85031" lon="-1.6225">
        <ele>420</ele>
        <time>2021-03-07 10:35:33</time>
      </trkpt>
      <trkpt lat="42.85037" lon="-1.62252">
        <ele>420</ele>
        <time>2021-03-07 10:35:34</time>
      </trkpt>
      <trkpt lat="42.85043" lon="-1.62254">
        <ele>419.8</ele>
        <time>2021-03-07 10:35:35</time>
      </trkpt>
      <trkpt lat="42.85048" lon="-1.62255">
        <ele>419.8</ele>
        <time>2021-03-07 10:35:36</time>
      </trkpt>
      <trkpt lat="42.85055" lon="-1.62258">
        <ele>419.8</ele>
        <time>2021-03-07 10:35:37</time>
      </trkpt>
      <trkpt lat="42.85061" lon="-1.6226">
        <ele>419.8</ele>
        <time>2021-03-07 10:35:38</time>
      </trkpt>
      <trkpt lat="42.85068" lon="-1.62263">
        <ele>419.8</ele>
        <time>2021-03-07 10:35:39</time>
      </trkpt>
      <trkpt lat="42.85075" lon="-1.62266">
        <ele>419.8</ele>
        <time>2021-03-07 10:35:40</time>
      </trkpt>
      <trkpt lat="42.85082" lon="-1.62269">
        <ele>419.6</ele>
        <time>2021-03-07 10:35:41</time>
      </trkpt>
      <trkpt lat="42.85089" lon="-1.62272">
        <ele>419.4</ele>
        <time>2021-03-07 10:35:42</time>
      </trkpt>
      <trkpt lat="42.85096" lon="-1.62273">
        <ele>419.2</ele>
        <time>2021-03-07 10:35:43</time>
      </trkpt>
      <trkpt lat="42.85103" lon="-1.62272">
        <ele>419.2</ele>
        <time>2021-03-07 10:35:44</time>
      </trkpt>
      <trkpt lat="42.8511" lon="-1.6227">
        <ele>418.8</ele>
        <time>2021-03-07 10:35:45</time>
      </trkpt>
      <trkpt lat="42.85116" lon="-1.62268">
        <ele>418.6</ele>
        <time>2021-03-07 10:35:46</time>
      </trkpt>
      <trkpt lat="42.85123" lon="-1.62265">
        <ele>418.4</ele>
        <time>2021-03-07 10:35:47</time>
      </trkpt>
      <trkpt lat="42.85129" lon="-1.62262">
        <ele>418.4</ele>
        <time>2021-03-07 10:35:48</time>
      </trkpt>
      <trkpt lat="42.85136" lon="-1.62259">
        <ele>418.2</ele>
        <time>2021-03-07 10:35:49</time>
      </trkpt>
      <trkpt lat="42.85143" lon="-1.62257">
        <ele>418.2</ele>
        <time>2021-03-07 10:35:50</time>
      </trkpt>
      <trkpt lat="42.85149" lon="-1.62254">
        <ele>418.2</ele>
        <time>2021-03-07 10:35:51</time>
      </trkpt>
      <trkpt lat="42.85156" lon="-1.62252">
        <ele>418.2</ele>
        <time>2021-03-07 10:35:52</time>
      </trkpt>
      <trkpt lat="42.85163" lon="-1.62249">
        <ele>418.2</ele>
        <time>2021-03-07 10:35:53</time>
      </trkpt>
      <trkpt lat="42.85169" lon="-1.62247">
        <ele>418.2</ele>
        <time>2021-03-07 10:35:54</time>
      </trkpt>
      <trkpt lat="42.85176" lon="-1.62245">
        <ele>418.2</ele>
        <time>2021-03-07 10:35:55</time>
      </trkpt>
      <trkpt lat="42.85183" lon="-1.62242">
        <ele>418.4</ele>
        <time>2021-03-07 10:35:56</time>
      </trkpt>
      <trkpt lat="42.85189" lon="-1.6224">
        <ele>418.4</ele>
        <time>2021-03-07 10:35:57</time>
      </trkpt>
      <trkpt lat="42.85196" lon="-1.62238">
        <ele>418.4</ele>
        <time>2021-03-07 10:35:58</time>
      </trkpt>
      <trkpt lat="42.85203" lon="-1.62236">
        <ele>418.8</ele>
        <time>2021-03-07 10:35:59</time>
      </trkpt>
      <trkpt lat="42.85209" lon="-1.62234">
        <ele>419</ele>
        <time>2021-03-07 10:36:00</time>
      </trkpt>
      <trkpt lat="42.85216" lon="-1.62232">
        <ele>419</ele>
        <time>2021-03-07 10:36:01</time>
      </trkpt>
      <trkpt lat="42.85223" lon="-1.62229">
        <ele>419</ele>
        <time>2021-03-07 10:36:02</time>
      </trkpt>
      <trkpt lat="42.85229" lon="-1.62227">
        <ele>419</ele>
        <time>2021-03-07 10:36:03</time>
      </trkpt>
      <trkpt lat="42.85236" lon="-1.62225">
        <ele>419.2</ele>
        <time>2021-03-07 10:36:04</time>
      </trkpt>
      <trkpt lat="42.85242" lon="-1.62223">
        <ele>419.4</ele>
        <time>2021-03-07 10:36:05</time>
      </trkpt>
      <trkpt lat="42.85249" lon="-1.62221">
        <ele>419.2</ele>
        <time>2021-03-07 10:36:06</time>
      </trkpt>
      <trkpt lat="42.85256" lon="-1.62219">
        <ele>419.2</ele>
        <time>2021-03-07 10:36:07</time>
      </trkpt>
      <trkpt lat="42.85262" lon="-1.62217">
        <ele>419.4</ele>
        <time>2021-03-07 10:36:08</time>
      </trkpt>
      <trkpt lat="42.85269" lon="-1.62214">
        <ele>419.4</ele>
        <time>2021-03-07 10:36:09</time>
      </trkpt>
      <trkpt lat="42.85275" lon="-1.62212">
        <ele>419.6</ele>
        <time>2021-03-07 10:36:10</time>
      </trkpt>
      <trkpt lat="42.85282" lon="-1.62209">
        <ele>419.8</ele>
        <time>2021-03-07 10:36:11</time>
      </trkpt>
      <trkpt lat="42.85288" lon="-1.62206">
        <ele>419.8</ele>
        <time>2021-03-07 10:36:12</time>
      </trkpt>
      <trkpt lat="42.85295" lon="-1.62203">
        <ele>419.8</ele>
        <time>2021-03-07 10:36:13</time>
      </trkpt>
      <trkpt lat="42.85301" lon="-1.622">
        <ele>420</ele>
        <time>2021-03-07 10:36:14</time>
      </trkpt>
      <trkpt lat="42.85307" lon="-1.62196">
        <ele>420</ele>
        <time>2021-03-07 10:36:15</time>
      </trkpt>
      <trkpt lat="42.85313" lon="-1.62192">
        <ele>420.2</ele>
        <time>2021-03-07 10:36:16</time>
      </trkpt>
      <trkpt lat="42.85319" lon="-1.62189">
        <ele>420.2</ele>
        <time>2021-03-07 10:36:17</time>
      </trkpt>
      <trkpt lat="42.85326" lon="-1.62185">
        <ele>420.4</ele>
        <time>2021-03-07 10:36:18</time>
      </trkpt>
      <trkpt lat="42.85331" lon="-1.62181">
        <ele>420.4</ele>
        <time>2021-03-07 10:36:19</time>
      </trkpt>
      <trkpt lat="42.85337" lon="-1.62176">
        <ele>420.6</ele>
        <time>2021-03-07 10:36:20</time>
      </trkpt>
      <trkpt lat="42.85343" lon="-1.62171">
        <ele>420.6</ele>
        <time>2021-03-07 10:36:21</time>
      </trkpt>
      <trkpt lat="42.85349" lon="-1.62167">
        <ele>420.8</ele>
        <time>2021-03-07 10:36:22</time>
      </trkpt>
      <trkpt lat="42.85355" lon="-1.62162">
        <ele>420.8</ele>
        <time>2021-03-07 10:36:23</time>
      </trkpt>
      <trkpt lat="42.85361" lon="-1.62157">
        <ele>420.8</ele>
        <time>2021-03-07 10:36:24</time>
      </trkpt>
      <trkpt lat="42.85367" lon="-1.62152">
        <ele>421</ele>
        <time>2021-03-07 10:36:25</time>
      </trkpt>
      <trkpt lat="42.85372" lon="-1.62147">
        <ele>421</ele>
        <time>2021-03-07 10:36:26</time>
      </trkpt>
      <trkpt lat="42.85378" lon="-1.62142">
        <ele>421.2</ele>
        <time>2021-03-07 10:36:27</time>
      </trkpt>
      <trkpt lat="42.85384" lon="-1.62137">
        <ele>421.2</ele>
        <time>2021-03-07 10:36:28</time>
      </trkpt>
      <trkpt lat="42.85389" lon="-1.62132">
        <ele>421.4</ele>
        <time>2021-03-07 10:36:29</time>
      </trkpt>
      <trkpt lat="42.85395" lon="-1.62127">
        <ele>421.6</ele>
        <time>2021-03-07 10:36:30</time>
      </trkpt>
      <trkpt lat="42.85401" lon="-1.62122">
        <ele>421.8</ele>
        <time>2021-03-07 10:36:31</time>
      </trkpt>
      <trkpt lat="42.85406" lon="-1.62116">
        <ele>422</ele>
        <time>2021-03-07 10:36:32</time>
      </trkpt>
      <trkpt lat="42.85412" lon="-1.62111">
        <ele>422.2</ele>
        <time>2021-03-07 10:36:33</time>
      </trkpt>
      <trkpt lat="42.85417" lon="-1.62105">
        <ele>422.4</ele>
        <time>2021-03-07 10:36:34</time>
      </trkpt>
      <trkpt lat="42.85423" lon="-1.621">
        <ele>422.4</ele>
        <time>2021-03-07 10:36:35</time>
      </trkpt>
      <trkpt lat="42.85429" lon="-1.62094">
        <ele>422.6</ele>
        <time>2021-03-07 10:36:36</time>
      </trkpt>
      <trkpt lat="42.85434" lon="-1.62089">
        <ele>422.6</ele>
        <time>2021-03-07 10:36:37</time>
      </trkpt>
      <trkpt lat="42.8544" lon="-1.62083">
        <ele>423</ele>
        <time>2021-03-07 10:36:38</time>
      </trkpt>
      <trkpt lat="42.85446" lon="-1.62077">
        <ele>423</ele>
        <time>2021-03-07 10:36:39</time>
      </trkpt>
      <trkpt lat="42.85451" lon="-1.62071">
        <ele>422.8</ele>
        <time>2021-03-07 10:36:40</time>
      </trkpt>
      <trkpt lat="42.85456" lon="-1.62065">
        <ele>423</ele>
        <time>2021-03-07 10:36:41</time>
      </trkpt>
      <trkpt lat="42.85462" lon="-1.62059">
        <ele>423</ele>
        <time>2021-03-07 10:36:42</time>
      </trkpt>
      <trkpt lat="42.85468" lon="-1.62054">
        <ele>423</ele>
        <time>2021-03-07 10:36:43</time>
      </trkpt>
      <trkpt lat="42.85474" lon="-1.62048">
        <ele>423</ele>
        <time>2021-03-07 10:36:44</time>
      </trkpt>
      <trkpt lat="42.85479" lon="-1.62042">
        <ele>423</ele>
        <time>2021-03-07 10:36:45</time>
      </trkpt>
      <trkpt lat="42.85485" lon="-1.62037">
        <ele>423</ele>
        <time>2021-03-07 10:36:46</time>
      </trkpt>
      <trkpt lat="42.85491" lon="-1.62031">
        <ele>423.2</ele>
        <time>2021-03-07 10:36:47</time>
      </trkpt>
      <trkpt lat="42.85496" lon="-1.62025">
        <ele>423.2</ele>
        <time>2021-03-07 10:36:48</time>
      </trkpt>
      <trkpt lat="42.85502" lon="-1.6202">
        <ele>423.2</ele>
        <time>2021-03-07 10:36:49</time>
      </trkpt>
      <trkpt lat="42.85508" lon="-1.62014">
        <ele>423.4</ele>
        <time>2021-03-07 10:36:50</time>
      </trkpt>
      <trkpt lat="42.85513" lon="-1.62008">
        <ele>423.4</ele>
        <time>2021-03-07 10:36:51</time>
      </trkpt>
      <trkpt lat="42.85519" lon="-1.62003">
        <ele>423.6</ele>
        <time>2021-03-07 10:36:52</time>
      </trkpt>
      <trkpt lat="42.85525" lon="-1.61997">
        <ele>423.6</ele>
        <time>2021-03-07 10:36:53</time>
      </trkpt>
      <trkpt lat="42.85531" lon="-1.61992">
        <ele>423.6</ele>
        <time>2021-03-07 10:36:54</time>
      </trkpt>
      <trkpt lat="42.85537" lon="-1.61986">
        <ele>423.6</ele>
        <time>2021-03-07 10:36:55</time>
      </trkpt>
      <trkpt lat="42.85542" lon="-1.6198">
        <ele>423.8</ele>
        <time>2021-03-07 10:36:56</time>
      </trkpt>
      <trkpt lat="42.85548" lon="-1.61975">
        <ele>423.8</ele>
        <time>2021-03-07 10:36:57</time>
      </trkpt>
      <trkpt lat="42.85554" lon="-1.61969">
        <ele>424</ele>
        <time>2021-03-07 10:36:58</time>
      </trkpt>
      <trkpt lat="42.8556" lon="-1.61963">
        <ele>424.2</ele>
        <time>2021-03-07 10:36:59</time>
      </trkpt>
      <trkpt lat="42.85566" lon="-1.61957">
        <ele>424.2</ele>
        <time>2021-03-07 10:37:00</time>
      </trkpt>
      <trkpt lat="42.85571" lon="-1.61951">
        <ele>424.2</ele>
        <time>2021-03-07 10:37:01</time>
      </trkpt>
      <trkpt lat="42.85577" lon="-1.61946">
        <ele>424.2</ele>
        <time>2021-03-07 10:37:02</time>
      </trkpt>
      <trkpt lat="42.85583" lon="-1.6194">
        <ele>424.2</ele>
        <time>2021-03-07 10:37:03</time>
      </trkpt>
      <trkpt lat="42.85589" lon="-1.61934">
        <ele>424.4</ele>
        <time>2021-03-07 10:37:04</time>
      </trkpt>
      <trkpt lat="42.85594" lon="-1.61928">
        <ele>424.4</ele>
        <time>2021-03-07 10:37:05</time>
      </trkpt>
      <trkpt lat="42.856" lon="-1.61923">
        <ele>424.4</ele>
        <time>2021-03-07 10:37:06</time>
      </trkpt>
      <trkpt lat="42.85606" lon="-1.61917">
        <ele>424.4</ele>
        <time>2021-03-07 10:37:07</time>
      </trkpt>
      <trkpt lat="42.85612" lon="-1.61911">
        <ele>424.4</ele>
        <time>2021-03-07 10:37:08</time>
      </trkpt>
      <trkpt lat="42.85618" lon="-1.61906">
        <ele>424.4</ele>
        <time>2021-03-07 10:37:09</time>
      </trkpt>
      <trkpt lat="42.85624" lon="-1.619">
        <ele>424.4</ele>
        <time>2021-03-07 10:37:10</time>
      </trkpt>
      <trkpt lat="42.85629" lon="-1.61894">
        <ele>424.4</ele>
        <time>2021-03-07 10:37:11</time>
      </trkpt>
      <trkpt lat="42.85635" lon="-1.61888">
        <ele>424.4</ele>
        <time>2021-03-07 10:37:12</time>
      </trkpt>
      <trkpt lat="42.85641" lon="-1.61882">
        <ele>424.6</ele>
        <time>2021-03-07 10:37:13</time>
      </trkpt>
      <trkpt lat="42.85647" lon="-1.61876">
        <ele>424.6</ele>
        <time>2021-03-07 10:37:14</time>
      </trkpt>
      <trkpt lat="42.85652" lon="-1.61871">
        <ele>424.6</ele>
        <time>2021-03-07 10:37:15</time>
      </trkpt>
      <trkpt lat="42.85658" lon="-1.61865">
        <ele>424.6</ele>
        <time>2021-03-07 10:37:16</time>
      </trkpt>
      <trkpt lat="42.85664" lon="-1.61859">
        <ele>424.6</ele>
        <time>2021-03-07 10:37:17</time>
      </trkpt>
      <trkpt lat="42.8567" lon="-1.61853">
        <ele>424.6</ele>
        <time>2021-03-07 10:37:18</time>
      </trkpt>
      <trkpt lat="42.85675" lon="-1.61848">
        <ele>424.6</ele>
        <time>2021-03-07 10:37:19</time>
      </trkpt>
      <trkpt lat="42.85681" lon="-1.61842">
        <ele>424.8</ele>
        <time>2021-03-07 10:37:20</time>
      </trkpt>
      <trkpt lat="42.85687" lon="-1.61836">
        <ele>424.8</ele>
        <time>2021-03-07 10:37:21</time>
      </trkpt>
      <trkpt lat="42.85693" lon="-1.6183">
        <ele>424.8</ele>
        <time>2021-03-07 10:37:22</time>
      </trkpt>
      <trkpt lat="42.85699" lon="-1.61824">
        <ele>424.8</ele>
        <time>2021-03-07 10:37:23</time>
      </trkpt>
      <trkpt lat="42.85705" lon="-1.61819">
        <ele>424.8</ele>
        <time>2021-03-07 10:37:24</time>
      </trkpt>
      <trkpt lat="42.85711" lon="-1.61813">
        <ele>425</ele>
        <time>2021-03-07 10:37:25</time>
      </trkpt>
      <trkpt lat="42.85717" lon="-1.61807">
        <ele>424.8</ele>
        <time>2021-03-07 10:37:26</time>
      </trkpt>
      <trkpt lat="42.85723" lon="-1.61801">
        <ele>425</ele>
        <time>2021-03-07 10:37:27</time>
      </trkpt>
      <trkpt lat="42.85729" lon="-1.61795">
        <ele>425</ele>
        <time>2021-03-07 10:37:28</time>
      </trkpt>
      <trkpt lat="42.85735" lon="-1.61789">
        <ele>425</ele>
        <time>2021-03-07 10:37:29</time>
      </trkpt>
      <trkpt lat="42.85741" lon="-1.61782">
        <ele>425.2</ele>
        <time>2021-03-07 10:37:30</time>
      </trkpt>
      <trkpt lat="42.85747" lon="-1.61776">
        <ele>425.2</ele>
        <time>2021-03-07 10:37:31</time>
      </trkpt>
      <trkpt lat="42.85754" lon="-1.6177">
        <ele>425.2</ele>
        <time>2021-03-07 10:37:32</time>
      </trkpt>
      <trkpt lat="42.8576" lon="-1.61764">
        <ele>425.2</ele>
        <time>2021-03-07 10:37:33</time>
      </trkpt>
      <trkpt lat="42.85766" lon="-1.61758">
        <ele>425.2</ele>
        <time>2021-03-07 10:37:34</time>
      </trkpt>
      <trkpt lat="42.85772" lon="-1.61752">
        <ele>425.2</ele>
        <time>2021-03-07 10:37:35</time>
      </trkpt>
      <trkpt lat="42.85779" lon="-1.61745">
        <ele>425.2</ele>
        <time>2021-03-07 10:37:36</time>
      </trkpt>
      <trkpt lat="42.85785" lon="-1.61739">
        <ele>425.2</ele>
        <time>2021-03-07 10:37:37</time>
      </trkpt>
      <trkpt lat="42.85791" lon="-1.61732">
        <ele>425.2</ele>
        <time>2021-03-07 10:37:38</time>
      </trkpt>
      <trkpt lat="42.85798" lon="-1.61726">
        <ele>425.2</ele>
        <time>2021-03-07 10:37:39</time>
      </trkpt>
      <trkpt lat="42.85804" lon="-1.6172">
        <ele>425.2</ele>
        <time>2021-03-07 10:37:40</time>
      </trkpt>
      <trkpt lat="42.85811" lon="-1.61713">
        <ele>425.2</ele>
        <time>2021-03-07 10:37:41</time>
      </trkpt>
      <trkpt lat="42.85817" lon="-1.61707">
        <ele>425.2</ele>
        <time>2021-03-07 10:37:42</time>
      </trkpt>
      <trkpt lat="42.85824" lon="-1.61701">
        <ele>425.2</ele>
        <time>2021-03-07 10:37:43</time>
      </trkpt>
      <trkpt lat="42.8583" lon="-1.61694">
        <ele>425.2</ele>
        <time>2021-03-07 10:37:44</time>
      </trkpt>
      <trkpt lat="42.85837" lon="-1.61688">
        <ele>425.2</ele>
        <time>2021-03-07 10:37:45</time>
      </trkpt>
      <trkpt lat="42.85843" lon="-1.61681">
        <ele>425.2</ele>
        <time>2021-03-07 10:37:46</time>
      </trkpt>
      <trkpt lat="42.8585" lon="-1.61675">
        <ele>425.2</ele>
        <time>2021-03-07 10:37:47</time>
      </trkpt>
      <trkpt lat="42.85856" lon="-1.61668">
        <ele>425.2</ele>
        <time>2021-03-07 10:37:48</time>
      </trkpt>
      <trkpt lat="42.85863" lon="-1.61662">
        <ele>425.2</ele>
        <time>2021-03-07 10:37:49</time>
      </trkpt>
      <trkpt lat="42.85869" lon="-1.61656">
        <ele>425.2</ele>
        <time>2021-03-07 10:37:50</time>
      </trkpt>
      <trkpt lat="42.85875" lon="-1.6165">
        <ele>425.2</ele>
        <time>2021-03-07 10:37:51</time>
      </trkpt>
      <trkpt lat="42.85882" lon="-1.61643">
        <ele>425.2</ele>
        <time>2021-03-07 10:37:52</time>
      </trkpt>
      <trkpt lat="42.85888" lon="-1.61637">
        <ele>425.2</ele>
        <time>2021-03-07 10:37:53</time>
      </trkpt>
      <trkpt lat="42.85894" lon="-1.61631">
        <ele>425</ele>
        <time>2021-03-07 10:37:54</time>
      </trkpt>
      <trkpt lat="42.85901" lon="-1.61624">
        <ele>425</ele>
        <time>2021-03-07 10:37:55</time>
      </trkpt>
      <trkpt lat="42.85907" lon="-1.61618">
        <ele>425</ele>
        <time>2021-03-07 10:37:56</time>
      </trkpt>
      <trkpt lat="42.85913" lon="-1.61612">
        <ele>425</ele>
        <time>2021-03-07 10:37:57</time>
      </trkpt>
      <trkpt lat="42.8592" lon="-1.61606">
        <ele>425</ele>
        <time>2021-03-07 10:37:58</time>
      </trkpt>
      <trkpt lat="42.85926" lon="-1.616">
        <ele>425</ele>
        <time>2021-03-07 10:37:59</time>
      </trkpt>
      <trkpt lat="42.85932" lon="-1.61593">
        <ele>425</ele>
        <time>2021-03-07 10:38:00</time>
      </trkpt>
      <trkpt lat="42.85938" lon="-1.61587">
        <ele>425.2</ele>
        <time>2021-03-07 10:38:01</time>
      </trkpt>
      <trkpt lat="42.85945" lon="-1.61581">
        <ele>425.4</ele>
        <time>2021-03-07 10:38:02</time>
      </trkpt>
      <trkpt lat="42.85951" lon="-1.61574">
        <ele>425.4</ele>
        <time>2021-03-07 10:38:03</time>
      </trkpt>
      <trkpt lat="42.85957" lon="-1.61568">
        <ele>425.8</ele>
        <time>2021-03-07 10:38:04</time>
      </trkpt>
      <trkpt lat="42.85963" lon="-1.61561">
        <ele>426</ele>
        <time>2021-03-07 10:38:05</time>
      </trkpt>
      <trkpt lat="42.85969" lon="-1.61555">
        <ele>426.2</ele>
        <time>2021-03-07 10:38:06</time>
      </trkpt>
      <trkpt lat="42.85976" lon="-1.61548">
        <ele>426.4</ele>
        <time>2021-03-07 10:38:07</time>
      </trkpt>
      <trkpt lat="42.85982" lon="-1.61542">
        <ele>426.4</ele>
        <time>2021-03-07 10:38:08</time>
      </trkpt>
      <trkpt lat="42.85988" lon="-1.61535">
        <ele>426.8</ele>
        <time>2021-03-07 10:38:09</time>
      </trkpt>
      <trkpt lat="42.85994" lon="-1.61529">
        <ele>426.8</ele>
        <time>2021-03-07 10:38:10</time>
      </trkpt>
      <trkpt lat="42.86" lon="-1.61523">
        <ele>427</ele>
        <time>2021-03-07 10:38:11</time>
      </trkpt>
      <trkpt lat="42.86006" lon="-1.61517">
        <ele>427.2</ele>
        <time>2021-03-07 10:38:12</time>
      </trkpt>
      <trkpt lat="42.86012" lon="-1.6151">
        <ele>427.2</ele>
        <time>2021-03-07 10:38:13</time>
      </trkpt>
      <trkpt lat="42.86019" lon="-1.61504">
        <ele>427.2</ele>
        <time>2021-03-07 10:38:14</time>
      </trkpt>
      <trkpt lat="42.86025" lon="-1.61498">
        <ele>427.4</ele>
        <time>2021-03-07 10:38:15</time>
      </trkpt>
      <trkpt lat="42.86031" lon="-1.61491">
        <ele>427.8</ele>
        <time>2021-03-07 10:38:16</time>
      </trkpt>
      <trkpt lat="42.86036" lon="-1.61485">
        <ele>428</ele>
        <time>2021-03-07 10:38:17</time>
      </trkpt>
      <trkpt lat="42.86042" lon="-1.61478">
        <ele>428</ele>
        <time>2021-03-07 10:38:18</time>
      </trkpt>
      <trkpt lat="42.86048" lon="-1.61472">
        <ele>428.2</ele>
        <time>2021-03-07 10:38:19</time>
      </trkpt>
      <trkpt lat="42.86054" lon="-1.61466">
        <ele>428.2</ele>
        <time>2021-03-07 10:38:20</time>
      </trkpt>
      <trkpt lat="42.8606" lon="-1.61459">
        <ele>428.4</ele>
        <time>2021-03-07 10:38:21</time>
      </trkpt>
      <trkpt lat="42.86066" lon="-1.61453">
        <ele>428.4</ele>
        <time>2021-03-07 10:38:22</time>
      </trkpt>
      <trkpt lat="42.86072" lon="-1.61446">
        <ele>428.6</ele>
        <time>2021-03-07 10:38:23</time>
      </trkpt>
      <trkpt lat="42.86078" lon="-1.6144">
        <ele>428.8</ele>
        <time>2021-03-07 10:38:24</time>
      </trkpt>
      <trkpt lat="42.86084" lon="-1.61434">
        <ele>428.8</ele>
        <time>2021-03-07 10:38:25</time>
      </trkpt>
      <trkpt lat="42.8609" lon="-1.61427">
        <ele>429</ele>
        <time>2021-03-07 10:38:26</time>
      </trkpt>
      <trkpt lat="42.86096" lon="-1.61421">
        <ele>429</ele>
        <time>2021-03-07 10:38:27</time>
      </trkpt>
      <trkpt lat="42.86101" lon="-1.61415">
        <ele>429</ele>
        <time>2021-03-07 10:38:28</time>
      </trkpt>
      <trkpt lat="42.86107" lon="-1.61408">
        <ele>429.4</ele>
        <time>2021-03-07 10:38:29</time>
      </trkpt>
      <trkpt lat="42.86113" lon="-1.61402">
        <ele>429.6</ele>
        <time>2021-03-07 10:38:30</time>
      </trkpt>
      <trkpt lat="42.86118" lon="-1.61397">
        <ele>429.6</ele>
        <time>2021-03-07 10:38:31</time>
      </trkpt>
      <trkpt lat="42.86124" lon="-1.61391">
        <ele>429.6</ele>
        <time>2021-03-07 10:38:32</time>
      </trkpt>
      <trkpt lat="42.86128" lon="-1.61386">
        <ele>429.6</ele>
        <time>2021-03-07 10:38:33</time>
      </trkpt>
      <trkpt lat="42.86133" lon="-1.61381">
        <ele>429.8</ele>
        <time>2021-03-07 10:38:34</time>
      </trkpt>
      <trkpt lat="42.86137" lon="-1.61377">
        <ele>429.8</ele>
        <time>2021-03-07 10:38:35</time>
      </trkpt>
      <trkpt lat="42.86141" lon="-1.61373">
        <ele>430</ele>
        <time>2021-03-07 10:38:36</time>
      </trkpt>
      <trkpt lat="42.86145" lon="-1.61368">
        <ele>430</ele>
        <time>2021-03-07 10:38:37</time>
      </trkpt>
      <trkpt lat="42.86149" lon="-1.61364">
        <ele>430</ele>
        <time>2021-03-07 10:38:38</time>
      </trkpt>
      <trkpt lat="42.86154" lon="-1.6136">
        <ele>430.4</ele>
        <time>2021-03-07 10:38:39</time>
      </trkpt>
      <trkpt lat="42.86159" lon="-1.61356">
        <ele>430.6</ele>
        <time>2021-03-07 10:38:40</time>
      </trkpt>
      <trkpt lat="42.86163" lon="-1.61351">
        <ele>430.6</ele>
        <time>2021-03-07 10:38:41</time>
      </trkpt>
      <trkpt lat="42.86168" lon="-1.61346">
        <ele>430.8</ele>
        <time>2021-03-07 10:38:42</time>
      </trkpt>
      <trkpt lat="42.86172" lon="-1.61342">
        <ele>431</ele>
        <time>2021-03-07 10:38:43</time>
      </trkpt>
      <trkpt lat="42.86177" lon="-1.61337">
        <ele>431.2</ele>
        <time>2021-03-07 10:38:44</time>
      </trkpt>
      <trkpt lat="42.86181" lon="-1.61332">
        <ele>431.2</ele>
        <time>2021-03-07 10:38:45</time>
      </trkpt>
      <trkpt lat="42.86186" lon="-1.61328">
        <ele>431.2</ele>
        <time>2021-03-07 10:38:46</time>
      </trkpt>
      <trkpt lat="42.86191" lon="-1.61324">
        <ele>431.4</ele>
        <time>2021-03-07 10:38:47</time>
      </trkpt>
      <trkpt lat="42.86195" lon="-1.61319">
        <ele>431.4</ele>
        <time>2021-03-07 10:38:48</time>
      </trkpt>
      <trkpt lat="42.862" lon="-1.61315">
        <ele>431.4</ele>
        <time>2021-03-07 10:38:49</time>
      </trkpt>
      <trkpt lat="42.86205" lon="-1.6131">
        <ele>431.6</ele>
        <time>2021-03-07 10:38:50</time>
      </trkpt>
      <trkpt lat="42.8621" lon="-1.61305">
        <ele>431.6</ele>
        <time>2021-03-07 10:38:51</time>
      </trkpt>
      <trkpt lat="42.86215" lon="-1.61301">
        <ele>431.6</ele>
        <time>2021-03-07 10:38:52</time>
      </trkpt>
      <trkpt lat="42.86219" lon="-1.61296">
        <ele>431.6</ele>
        <time>2021-03-07 10:38:53</time>
      </trkpt>
      <trkpt lat="42.86224" lon="-1.61291">
        <ele>431.8</ele>
        <time>2021-03-07 10:38:54</time>
      </trkpt>
      <trkpt lat="42.86229" lon="-1.61286">
        <ele>431.8</ele>
        <time>2021-03-07 10:38:55</time>
      </trkpt>
      <trkpt lat="42.86234" lon="-1.61282">
        <ele>432</ele>
        <time>2021-03-07 10:38:56</time>
      </trkpt>
      <trkpt lat="42.86239" lon="-1.61277">
        <ele>432</ele>
        <time>2021-03-07 10:38:57</time>
      </trkpt>
      <trkpt lat="42.86244" lon="-1.61273">
        <ele>432</ele>
        <time>2021-03-07 10:38:58</time>
      </trkpt>
      <trkpt lat="42.86249" lon="-1.61269">
        <ele>432.2</ele>
        <time>2021-03-07 10:38:59</time>
      </trkpt>
      <trkpt lat="42.86254" lon="-1.61264">
        <ele>432</ele>
        <time>2021-03-07 10:39:00</time>
      </trkpt>
      <trkpt lat="42.8626" lon="-1.6126">
        <ele>432</ele>
        <time>2021-03-07 10:39:01</time>
      </trkpt>
      <trkpt lat="42.86265" lon="-1.61256">
        <ele>432</ele>
        <time>2021-03-07 10:39:02</time>
      </trkpt>
      <trkpt lat="42.86271" lon="-1.61252">
        <ele>432</ele>
        <time>2021-03-07 10:39:03</time>
      </trkpt>
      <trkpt lat="42.86276" lon="-1.61248">
        <ele>432.2</ele>
        <time>2021-03-07 10:39:04</time>
      </trkpt>
      <trkpt lat="42.86282" lon="-1.61245">
        <ele>432.2</ele>
        <time>2021-03-07 10:39:05</time>
      </trkpt>
      <trkpt lat="42.86288" lon="-1.61241">
        <ele>432.2</ele>
        <time>2021-03-07 10:39:06</time>
      </trkpt>
      <trkpt lat="42.86294" lon="-1.61237">
        <ele>432.2</ele>
        <time>2021-03-07 10:39:07</time>
      </trkpt>
      <trkpt lat="42.863" lon="-1.61234">
        <ele>432.4</ele>
        <time>2021-03-07 10:39:08</time>
      </trkpt>
      <trkpt lat="42.86307" lon="-1.6123">
        <ele>432.4</ele>
        <time>2021-03-07 10:39:09</time>
      </trkpt>
      <trkpt lat="42.86313" lon="-1.61227">
        <ele>432.4</ele>
        <time>2021-03-07 10:39:10</time>
      </trkpt>
      <trkpt lat="42.8632" lon="-1.61224">
        <ele>432.4</ele>
        <time>2021-03-07 10:39:11</time>
      </trkpt>
      <trkpt lat="42.86327" lon="-1.61221">
        <ele>432.4</ele>
        <time>2021-03-07 10:39:12</time>
      </trkpt>
      <trkpt lat="42.86334" lon="-1.61219">
        <ele>432.4</ele>
        <time>2021-03-07 10:39:13</time>
      </trkpt>
      <trkpt lat="42.86341" lon="-1.61216">
        <ele>432.4</ele>
        <time>2021-03-07 10:39:14</time>
      </trkpt>
      <trkpt lat="42.86348" lon="-1.61214">
        <ele>432.4</ele>
        <time>2021-03-07 10:39:15</time>
      </trkpt>
      <trkpt lat="42.86356" lon="-1.61212">
        <ele>432.4</ele>
        <time>2021-03-07 10:39:16</time>
      </trkpt>
      <trkpt lat="42.86363" lon="-1.6121">
        <ele>432.4</ele>
        <time>2021-03-07 10:39:17</time>
      </trkpt>
      <trkpt lat="42.86371" lon="-1.61209">
        <ele>432.4</ele>
        <time>2021-03-07 10:39:18</time>
      </trkpt>
      <trkpt lat="42.86379" lon="-1.61208">
        <ele>432.4</ele>
        <time>2021-03-07 10:39:19</time>
      </trkpt>
      <trkpt lat="42.86387" lon="-1.61208">
        <ele>432.4</ele>
        <time>2021-03-07 10:39:20</time>
      </trkpt>
      <trkpt lat="42.86396" lon="-1.61207">
        <ele>432.2</ele>
        <time>2021-03-07 10:39:21</time>
      </trkpt>
      <trkpt lat="42.86404" lon="-1.61207">
        <ele>431.8</ele>
        <time>2021-03-07 10:39:22</time>
      </trkpt>
      <trkpt lat="42.86413" lon="-1.61208">
        <ele>431.6</ele>
        <time>2021-03-07 10:39:23</time>
      </trkpt>
      <trkpt lat="42.86421" lon="-1.61208">
        <ele>431.4</ele>
        <time>2021-03-07 10:39:24</time>
      </trkpt>
      <trkpt lat="42.8643" lon="-1.61209">
        <ele>431.2</ele>
        <time>2021-03-07 10:39:25</time>
      </trkpt>
      <trkpt lat="42.86439" lon="-1.6121">
        <ele>431</ele>
        <time>2021-03-07 10:39:26</time>
      </trkpt>
      <trkpt lat="42.86448" lon="-1.61211">
        <ele>430.8</ele>
        <time>2021-03-07 10:39:27</time>
      </trkpt>
      <trkpt lat="42.86458" lon="-1.61212">
        <ele>430.6</ele>
        <time>2021-03-07 10:39:28</time>
      </trkpt>
      <trkpt lat="42.86467" lon="-1.61213">
        <ele>430</ele>
        <time>2021-03-07 10:39:29</time>
      </trkpt>
      <trkpt lat="42.86477" lon="-1.61215">
        <ele>429.6</ele>
        <time>2021-03-07 10:39:30</time>
      </trkpt>
      <trkpt lat="42.86487" lon="-1.61216">
        <ele>429.4</ele>
        <time>2021-03-07 10:39:31</time>
      </trkpt>
      <trkpt lat="42.86497" lon="-1.61216">
        <ele>429.2</ele>
        <time>2021-03-07 10:39:32</time>
      </trkpt>
      <trkpt lat="42.86507" lon="-1.61217">
        <ele>429</ele>
        <time>2021-03-07 10:39:33</time>
      </trkpt>
      <trkpt lat="42.86518" lon="-1.61217">
        <ele>428.4</ele>
        <time>2021-03-07 10:39:34</time>
      </trkpt>
      <trkpt lat="42.86528" lon="-1.61216">
        <ele>428</ele>
        <time>2021-03-07 10:39:35</time>
      </trkpt>
      <trkpt lat="42.86539" lon="-1.61215">
        <ele>427.6</ele>
        <time>2021-03-07 10:39:36</time>
      </trkpt>
      <trkpt lat="42.86549" lon="-1.61214">
        <ele>427.2</ele>
        <time>2021-03-07 10:39:37</time>
      </trkpt>
      <trkpt lat="42.86559" lon="-1.61212">
        <ele>426.6</ele>
        <time>2021-03-07 10:39:38</time>
      </trkpt>
      <trkpt lat="42.8657" lon="-1.61209">
        <ele>426.2</ele>
        <time>2021-03-07 10:39:39</time>
      </trkpt>
      <trkpt lat="42.8658" lon="-1.61207">
        <ele>425.8</ele>
        <time>2021-03-07 10:39:40</time>
      </trkpt>
      <trkpt lat="42.8659" lon="-1.61204">
        <ele>425.2</ele>
        <time>2021-03-07 10:39:41</time>
      </trkpt>
      <trkpt lat="42.866" lon="-1.612">
        <ele>425</ele>
        <time>2021-03-07 10:39:42</time>
      </trkpt>
      <trkpt lat="42.86609" lon="-1.61197">
        <ele>424.2</ele>
        <time>2021-03-07 10:39:43</time>
      </trkpt>
      <trkpt lat="42.86619" lon="-1.61193">
        <ele>423.8</ele>
        <time>2021-03-07 10:39:44</time>
      </trkpt>
      <trkpt lat="42.86628" lon="-1.61189">
        <ele>423.4</ele>
        <time>2021-03-07 10:39:45</time>
      </trkpt>
      <trkpt lat="42.86637" lon="-1.61185">
        <ele>423.2</ele>
        <time>2021-03-07 10:39:46</time>
      </trkpt>
      <trkpt lat="42.86645" lon="-1.61181">
        <ele>423</ele>
        <time>2021-03-07 10:39:47</time>
      </trkpt>
      <trkpt lat="42.86654" lon="-1.61178">
        <ele>423</ele>
        <time>2021-03-07 10:39:48</time>
      </trkpt>
      <trkpt lat="42.86662" lon="-1.61174">
        <ele>423</ele>
        <time>2021-03-07 10:39:49</time>
      </trkpt>
      <trkpt lat="42.8667" lon="-1.6117">
        <ele>423</ele>
        <time>2021-03-07 10:39:50</time>
      </trkpt>
      <trkpt lat="42.86678" lon="-1.61167">
        <ele>423</ele>
        <time>2021-03-07 10:39:51</time>
      </trkpt>
      <trkpt lat="42.86686" lon="-1.61163">
        <ele>423</ele>
        <time>2021-03-07 10:39:52</time>
      </trkpt>
      <trkpt lat="42.86693" lon="-1.61159">
        <ele>423</ele>
        <time>2021-03-07 10:39:53</time>
      </trkpt>
      <trkpt lat="42.86701" lon="-1.61155">
        <ele>423</ele>
        <time>2021-03-07 10:39:54</time>
      </trkpt>
      <trkpt lat="42.86708" lon="-1.61152">
        <ele>423</ele>
        <time>2021-03-07 10:39:55</time>
      </trkpt>
      <trkpt lat="42.86715" lon="-1.61149">
        <ele>423.4</ele>
        <time>2021-03-07 10:39:56</time>
      </trkpt>
      <trkpt lat="42.86722" lon="-1.61145">
        <ele>423.6</ele>
        <time>2021-03-07 10:39:57</time>
      </trkpt>
      <trkpt lat="42.86729" lon="-1.61142">
        <ele>423.8</ele>
        <time>2021-03-07 10:39:58</time>
      </trkpt>
      <trkpt lat="42.86736" lon="-1.61139">
        <ele>424.2</ele>
        <time>2021-03-07 10:39:59</time>
      </trkpt>
      <trkpt lat="42.86743" lon="-1.61136">
        <ele>424.6</ele>
        <time>2021-03-07 10:40:00</time>
      </trkpt>
      <trkpt lat="42.8675" lon="-1.61132">
        <ele>425</ele>
        <time>2021-03-07 10:40:01</time>
      </trkpt>
      <trkpt lat="42.86757" lon="-1.61129">
        <ele>425.2</ele>
        <time>2021-03-07 10:40:02</time>
      </trkpt>
      <trkpt lat="42.86763" lon="-1.61126">
        <ele>425.8</ele>
        <time>2021-03-07 10:40:03</time>
      </trkpt>
      <trkpt lat="42.8677" lon="-1.61123">
        <ele>426</ele>
        <time>2021-03-07 10:40:04</time>
      </trkpt>
      <trkpt lat="42.86776" lon="-1.61119">
        <ele>426.4</ele>
        <time>2021-03-07 10:40:05</time>
      </trkpt>
      <trkpt lat="42.86783" lon="-1.61116">
        <ele>426.4</ele>
        <time>2021-03-07 10:40:06</time>
      </trkpt>
      <trkpt lat="42.8679" lon="-1.61113">
        <ele>426.4</ele>
        <time>2021-03-07 10:40:07</time>
      </trkpt>
      <trkpt lat="42.86796" lon="-1.6111">
        <ele>426.6</ele>
        <time>2021-03-07 10:40:08</time>
      </trkpt>
      <trkpt lat="42.86803" lon="-1.61107">
        <ele>426.6</ele>
        <time>2021-03-07 10:40:09</time>
      </trkpt>
      <trkpt lat="42.8681" lon="-1.61104">
        <ele>426.6</ele>
        <time>2021-03-07 10:40:10</time>
      </trkpt>
      <trkpt lat="42.86817" lon="-1.61101">
        <ele>426.8</ele>
        <time>2021-03-07 10:40:11</time>
      </trkpt>
      <trkpt lat="42.86823" lon="-1.61098">
        <ele>426.8</ele>
        <time>2021-03-07 10:40:12</time>
      </trkpt>
      <trkpt lat="42.8683" lon="-1.61095">
        <ele>426.8</ele>
        <time>2021-03-07 10:40:13</time>
      </trkpt>
      <trkpt lat="42.86837" lon="-1.61091">
        <ele>426.8</ele>
        <time>2021-03-07 10:40:14</time>
      </trkpt>
      <trkpt lat="42.86844" lon="-1.61088">
        <ele>427</ele>
        <time>2021-03-07 10:40:15</time>
      </trkpt>
      <trkpt lat="42.86851" lon="-1.61085">
        <ele>427</ele>
        <time>2021-03-07 10:40:16</time>
      </trkpt>
      <trkpt lat="42.86858" lon="-1.61081">
        <ele>427</ele>
        <time>2021-03-07 10:40:17</time>
      </trkpt>
      <trkpt lat="42.86865" lon="-1.61078">
        <ele>427</ele>
        <time>2021-03-07 10:40:18</time>
      </trkpt>
      <trkpt lat="42.86871" lon="-1.61074">
        <ele>427.2</ele>
        <time>2021-03-07 10:40:19</time>
      </trkpt>
      <trkpt lat="42.86877" lon="-1.6107">
        <ele>427.2</ele>
        <time>2021-03-07 10:40:20</time>
      </trkpt>
      <trkpt lat="42.86884" lon="-1.61066">
        <ele>427.2</ele>
        <time>2021-03-07 10:40:21</time>
      </trkpt>
      <trkpt lat="42.8689" lon="-1.61062">
        <ele>427.2</ele>
        <time>2021-03-07 10:40:22</time>
      </trkpt>
      <trkpt lat="42.86897" lon="-1.61058">
        <ele>427.2</ele>
        <time>2021-03-07 10:40:23</time>
      </trkpt>
      <trkpt lat="42.86904" lon="-1.61053">
        <ele>427.2</ele>
        <time>2021-03-07 10:40:24</time>
      </trkpt>
      <trkpt lat="42.8691" lon="-1.61049">
        <ele>427.4</ele>
        <time>2021-03-07 10:40:25</time>
      </trkpt>
      <trkpt lat="42.86917" lon="-1.61044">
        <ele>427.4</ele>
        <time>2021-03-07 10:40:26</time>
      </trkpt>
      <trkpt lat="42.86924" lon="-1.61038">
        <ele>427.4</ele>
        <time>2021-03-07 10:40:27</time>
      </trkpt>
      <trkpt lat="42.86931" lon="-1.61033">
        <ele>427.4</ele>
        <time>2021-03-07 10:40:28</time>
      </trkpt>
      <trkpt lat="42.86938" lon="-1.61028">
        <ele>427.4</ele>
        <time>2021-03-07 10:40:29</time>
      </trkpt>
      <trkpt lat="42.86945" lon="-1.61022">
        <ele>427.4</ele>
        <time>2021-03-07 10:40:30</time>
      </trkpt>
      <trkpt lat="42.86951" lon="-1.61016">
        <ele>427.4</ele>
        <time>2021-03-07 10:40:31</time>
      </trkpt>
      <trkpt lat="42.86958" lon="-1.6101">
        <ele>427.2</ele>
        <time>2021-03-07 10:40:32</time>
      </trkpt>
      <trkpt lat="42.86964" lon="-1.61004">
        <ele>427.2</ele>
        <time>2021-03-07 10:40:33</time>
      </trkpt>
      <trkpt lat="42.8697" lon="-1.60998">
        <ele>427.2</ele>
        <time>2021-03-07 10:40:34</time>
      </trkpt>
      <trkpt lat="42.86977" lon="-1.60991">
        <ele>427</ele>
        <time>2021-03-07 10:40:35</time>
      </trkpt>
      <trkpt lat="42.86985" lon="-1.60985">
        <ele>426.8</ele>
        <time>2021-03-07 10:40:36</time>
      </trkpt>
      <trkpt lat="42.86992" lon="-1.60979">
        <ele>426.8</ele>
        <time>2021-03-07 10:40:37</time>
      </trkpt>
      <trkpt lat="42.86999" lon="-1.60973">
        <ele>426.8</ele>
        <time>2021-03-07 10:40:38</time>
      </trkpt>
      <trkpt lat="42.87007" lon="-1.60967">
        <ele>426.6</ele>
        <time>2021-03-07 10:40:39</time>
      </trkpt>
      <trkpt lat="42.87014" lon="-1.60961">
        <ele>426.6</ele>
        <time>2021-03-07 10:40:40</time>
      </trkpt>
      <trkpt lat="42.87022" lon="-1.60956">
        <ele>426.4</ele>
        <time>2021-03-07 10:40:41</time>
      </trkpt>
      <trkpt lat="42.87029" lon="-1.60951">
        <ele>426.4</ele>
        <time>2021-03-07 10:40:42</time>
      </trkpt>
      <trkpt lat="42.87037" lon="-1.60947">
        <ele>426.2</ele>
        <time>2021-03-07 10:40:43</time>
      </trkpt>
      <trkpt lat="42.87045" lon="-1.60943">
        <ele>426.2</ele>
        <time>2021-03-07 10:40:44</time>
      </trkpt>
      <trkpt lat="42.87052" lon="-1.6094">
        <ele>426.2</ele>
        <time>2021-03-07 10:40:45</time>
      </trkpt>
      <trkpt lat="42.8706" lon="-1.60937">
        <ele>426.2</ele>
        <time>2021-03-07 10:40:46</time>
      </trkpt>
      <trkpt lat="42.87068" lon="-1.60934">
        <ele>426.2</ele>
        <time>2021-03-07 10:40:47</time>
      </trkpt>
      <trkpt lat="42.87075" lon="-1.60932">
        <ele>426</ele>
        <time>2021-03-07 10:40:48</time>
      </trkpt>
      <trkpt lat="42.87083" lon="-1.6093">
        <ele>426</ele>
        <time>2021-03-07 10:40:49</time>
      </trkpt>
      <trkpt lat="42.87091" lon="-1.60928">
        <ele>426</ele>
        <time>2021-03-07 10:40:50</time>
      </trkpt>
      <trkpt lat="42.87098" lon="-1.60927">
        <ele>426</ele>
        <time>2021-03-07 10:40:51</time>
      </trkpt>
      <trkpt lat="42.87105" lon="-1.60927">
        <ele>426</ele>
        <time>2021-03-07 10:40:52</time>
      </trkpt>
      <trkpt lat="42.87113" lon="-1.60926">
        <ele>426</ele>
        <time>2021-03-07 10:40:53</time>
      </trkpt>
      <trkpt lat="42.8712" lon="-1.60926">
        <ele>426</ele>
        <time>2021-03-07 10:40:54</time>
      </trkpt>
      <trkpt lat="42.87127" lon="-1.60926">
        <ele>426</ele>
        <time>2021-03-07 10:40:55</time>
      </trkpt>
      <trkpt lat="42.87134" lon="-1.60926">
        <ele>426</ele>
        <time>2021-03-07 10:40:56</time>
      </trkpt>
      <trkpt lat="42.87141" lon="-1.60926">
        <ele>426</ele>
        <time>2021-03-07 10:40:57</time>
      </trkpt>
      <trkpt lat="42.87149" lon="-1.60926">
        <ele>426</ele>
        <time>2021-03-07 10:40:58</time>
      </trkpt>
      <trkpt lat="42.87156" lon="-1.60927">
        <ele>426</ele>
        <time>2021-03-07 10:40:59</time>
      </trkpt>
      <trkpt lat="42.87163" lon="-1.60928">
        <ele>426</ele>
        <time>2021-03-07 10:41:00</time>
      </trkpt>
      <trkpt lat="42.8717" lon="-1.60929">
        <ele>426.2</ele>
        <time>2021-03-07 10:41:01</time>
      </trkpt>
      <trkpt lat="42.87177" lon="-1.6093">
        <ele>426.4</ele>
        <time>2021-03-07 10:41:02</time>
      </trkpt>
      <trkpt lat="42.87184" lon="-1.60931">
        <ele>426.4</ele>
        <time>2021-03-07 10:41:03</time>
      </trkpt>
      <trkpt lat="42.87191" lon="-1.60932">
        <ele>426.4</ele>
        <time>2021-03-07 10:41:04</time>
      </trkpt>
      <trkpt lat="42.87198" lon="-1.60933">
        <ele>426.6</ele>
        <time>2021-03-07 10:41:05</time>
      </trkpt>
      <trkpt lat="42.87205" lon="-1.60934">
        <ele>426.8</ele>
        <time>2021-03-07 10:41:06</time>
      </trkpt>
      <trkpt lat="42.87212" lon="-1.60936">
        <ele>426.8</ele>
        <time>2021-03-07 10:41:07</time>
      </trkpt>
      <trkpt lat="42.87218" lon="-1.60937">
        <ele>426.8</ele>
        <time>2021-03-07 10:41:08</time>
      </trkpt>
      <trkpt lat="42.87225" lon="-1.60938">
        <ele>427</ele>
        <time>2021-03-07 10:41:09</time>
      </trkpt>
      <trkpt lat="42.87232" lon="-1.60939">
        <ele>427</ele>
        <time>2021-03-07 10:41:10</time>
      </trkpt>
      <trkpt lat="42.87238" lon="-1.6094">
        <ele>427</ele>
        <time>2021-03-07 10:41:11</time>
      </trkpt>
      <trkpt lat="42.87245" lon="-1.60941">
        <ele>427</ele>
        <time>2021-03-07 10:41:12</time>
      </trkpt>
      <trkpt lat="42.87251" lon="-1.60942">
        <ele>427</ele>
        <time>2021-03-07 10:41:13</time>
      </trkpt>
      <trkpt lat="42.87258" lon="-1.60943">
        <ele>427</ele>
        <time>2021-03-07 10:41:14</time>
      </trkpt>
      <trkpt lat="42.87264" lon="-1.60944">
        <ele>427.2</ele>
        <time>2021-03-07 10:41:15</time>
      </trkpt>
      <trkpt lat="42.87271" lon="-1.60945">
        <ele>427.2</ele>
        <time>2021-03-07 10:41:16</time>
      </trkpt>
      <trkpt lat="42.87277" lon="-1.60946">
        <ele>427.2</ele>
        <time>2021-03-07 10:41:17</time>
      </trkpt>
      <trkpt lat="42.87284" lon="-1.60946">
        <ele>427.4</ele>
        <time>2021-03-07 10:41:18</time>
      </trkpt>
      <trkpt lat="42.8729" lon="-1.60947">
        <ele>427.4</ele>
        <time>2021-03-07 10:41:19</time>
      </trkpt>
      <trkpt lat="42.87297" lon="-1.60947">
        <ele>427.4</ele>
        <time>2021-03-07 10:41:20</time>
      </trkpt>
      <trkpt lat="42.87303" lon="-1.60947">
        <ele>427.4</ele>
        <time>2021-03-07 10:41:21</time>
      </trkpt>
      <trkpt lat="42.8731" lon="-1.60947">
        <ele>427.6</ele>
        <time>2021-03-07 10:41:22</time>
      </trkpt>
      <trkpt lat="42.87317" lon="-1.60947">
        <ele>427.6</ele>
        <time>2021-03-07 10:41:23</time>
      </trkpt>
      <trkpt lat="42.87323" lon="-1.60947">
        <ele>427.4</ele>
        <time>2021-03-07 10:41:24</time>
      </trkpt>
      <trkpt lat="42.8733" lon="-1.60946">
        <ele>427.4</ele>
        <time>2021-03-07 10:41:25</time>
      </trkpt>
      <trkpt lat="42.87336" lon="-1.60945">
        <ele>427.6</ele>
        <time>2021-03-07 10:41:26</time>
      </trkpt>
      <trkpt lat="42.87342" lon="-1.60944">
        <ele>427.4</ele>
        <time>2021-03-07 10:41:27</time>
      </trkpt>
      <trkpt lat="42.87348" lon="-1.60943">
        <ele>427.4</ele>
        <time>2021-03-07 10:41:28</time>
      </trkpt>
      <trkpt lat="42.87354" lon="-1.60942">
        <ele>427.6</ele>
        <time>2021-03-07 10:41:29</time>
      </trkpt>
      <trkpt lat="42.8736" lon="-1.6094">
        <ele>427.6</ele>
        <time>2021-03-07 10:41:30</time>
      </trkpt>
      <trkpt lat="42.87366" lon="-1.60939">
        <ele>427.6</ele>
        <time>2021-03-07 10:41:31</time>
      </trkpt>
      <trkpt lat="42.87372" lon="-1.60937">
        <ele>427.6</ele>
        <time>2021-03-07 10:41:32</time>
      </trkpt>
      <trkpt lat="42.87379" lon="-1.60935">
        <ele>427.6</ele>
        <time>2021-03-07 10:41:33</time>
      </trkpt>
      <trkpt lat="42.87385" lon="-1.60933">
        <ele>427.6</ele>
        <time>2021-03-07 10:41:34</time>
      </trkpt>
      <trkpt lat="42.87391" lon="-1.60931">
        <ele>427.6</ele>
        <time>2021-03-07 10:41:35</time>
      </trkpt>
      <trkpt lat="42.87397" lon="-1.60929">
        <ele>427.6</ele>
        <time>2021-03-07 10:41:36</time>
      </trkpt>
      <trkpt lat="42.87403" lon="-1.60926">
        <ele>427.8</ele>
        <time>2021-03-07 10:41:37</time>
      </trkpt>
      <trkpt lat="42.87409" lon="-1.60924">
        <ele>427.8</ele>
        <time>2021-03-07 10:41:38</time>
      </trkpt>
      <trkpt lat="42.87415" lon="-1.60921">
        <ele>428</ele>
        <time>2021-03-07 10:41:39</time>
      </trkpt>
      <trkpt lat="42.87421" lon="-1.60918">
        <ele>428</ele>
        <time>2021-03-07 10:41:40</time>
      </trkpt>
      <trkpt lat="42.87428" lon="-1.60915">
        <ele>428</ele>
        <time>2021-03-07 10:41:41</time>
      </trkpt>
      <trkpt lat="42.87435" lon="-1.60912">
        <ele>428.2</ele>
        <time>2021-03-07 10:41:42</time>
      </trkpt>
      <trkpt lat="42.87442" lon="-1.60909">
        <ele>428.2</ele>
        <time>2021-03-07 10:41:43</time>
      </trkpt>
      <trkpt lat="42.87448" lon="-1.60906">
        <ele>428.2</ele>
        <time>2021-03-07 10:41:44</time>
      </trkpt>
      <trkpt lat="42.87455" lon="-1.60902">
        <ele>428.2</ele>
        <time>2021-03-07 10:41:45</time>
      </trkpt>
      <trkpt lat="42.87462" lon="-1.60899">
        <ele>428.4</ele>
        <time>2021-03-07 10:41:46</time>
      </trkpt>
      <trkpt lat="42.87469" lon="-1.60896">
        <ele>428.4</ele>
        <time>2021-03-07 10:41:47</time>
      </trkpt>
      <trkpt lat="42.87475" lon="-1.60893">
        <ele>428.4</ele>
        <time>2021-03-07 10:41:48</time>
      </trkpt>
      <trkpt lat="42.87482" lon="-1.6089">
        <ele>428.4</ele>
        <time>2021-03-07 10:41:49</time>
      </trkpt>
      <trkpt lat="42.87488" lon="-1.60887">
        <ele>428.4</ele>
        <time>2021-03-07 10:41:50</time>
      </trkpt>
      <trkpt lat="42.87495" lon="-1.60884">
        <ele>428.4</ele>
        <time>2021-03-07 10:41:51</time>
      </trkpt>
      <trkpt lat="42.87502" lon="-1.60882">
        <ele>428.2</ele>
        <time>2021-03-07 10:41:52</time>
      </trkpt>
      <trkpt lat="42.8751" lon="-1.60879">
        <ele>428.2</ele>
        <time>2021-03-07 10:41:53</time>
      </trkpt>
      <trkpt lat="42.87517" lon="-1.60877">
        <ele>428.2</ele>
        <time>2021-03-07 10:41:54</time>
      </trkpt>
      <trkpt lat="42.87523" lon="-1.60874">
        <ele>428.2</ele>
        <time>2021-03-07 10:41:55</time>
      </trkpt>
      <trkpt lat="42.87531" lon="-1.60871">
        <ele>428.2</ele>
        <time>2021-03-07 10:41:56</time>
      </trkpt>
      <trkpt lat="42.87538" lon="-1.60869">
        <ele>428</ele>
        <time>2021-03-07 10:41:57</time>
      </trkpt>
      <trkpt lat="42.87545" lon="-1.60867">
        <ele>428</ele>
        <time>2021-03-07 10:41:58</time>
      </trkpt>
      <trkpt lat="42.87552" lon="-1.60864">
        <ele>428</ele>
        <time>2021-03-07 10:41:59</time>
      </trkpt>
      <trkpt lat="42.87559" lon="-1.60862">
        <ele>428</ele>
        <time>2021-03-07 10:42:00</time>
      </trkpt>
      <trkpt lat="42.87566" lon="-1.60859">
        <ele>428</ele>
        <time>2021-03-07 10:42:01</time>
      </trkpt>
      <trkpt lat="42.87572" lon="-1.60857">
        <ele>428</ele>
        <time>2021-03-07 10:42:02</time>
      </trkpt>
      <trkpt lat="42.87579" lon="-1.60854">
        <ele>428</ele>
        <time>2021-03-07 10:42:03</time>
      </trkpt>
      <trkpt lat="42.87586" lon="-1.60852">
        <ele>428</ele>
        <time>2021-03-07 10:42:04</time>
      </trkpt>
      <trkpt lat="42.87593" lon="-1.6085">
        <ele>428</ele>
        <time>2021-03-07 10:42:05</time>
      </trkpt>
      <trkpt lat="42.876" lon="-1.60848">
        <ele>428</ele>
        <time>2021-03-07 10:42:06</time>
      </trkpt>
      <trkpt lat="42.87606" lon="-1.60846">
        <ele>428.4</ele>
        <time>2021-03-07 10:42:07</time>
      </trkpt>
      <trkpt lat="42.87613" lon="-1.60844">
        <ele>428.6</ele>
        <time>2021-03-07 10:42:08</time>
      </trkpt>
      <trkpt lat="42.87619" lon="-1.60842">
        <ele>429</ele>
        <time>2021-03-07 10:42:09</time>
      </trkpt>
      <trkpt lat="42.87626" lon="-1.60841">
        <ele>429.2</ele>
        <time>2021-03-07 10:42:10</time>
      </trkpt>
      <trkpt lat="42.87633" lon="-1.60839">
        <ele>429.4</ele>
        <time>2021-03-07 10:42:11</time>
      </trkpt>
      <trkpt lat="42.87639" lon="-1.60837">
        <ele>429.6</ele>
        <time>2021-03-07 10:42:12</time>
      </trkpt>
      <trkpt lat="42.87646" lon="-1.60835">
        <ele>429.8</ele>
        <time>2021-03-07 10:42:13</time>
      </trkpt>
      <trkpt lat="42.87653" lon="-1.60833">
        <ele>430</ele>
        <time>2021-03-07 10:42:14</time>
      </trkpt>
      <trkpt lat="42.87659" lon="-1.60831">
        <ele>430.2</ele>
        <time>2021-03-07 10:42:15</time>
      </trkpt>
      <trkpt lat="42.87666" lon="-1.60829">
        <ele>430.2</ele>
        <time>2021-03-07 10:42:16</time>
      </trkpt>
      <trkpt lat="42.87673" lon="-1.60828">
        <ele>430.4</ele>
        <time>2021-03-07 10:42:17</time>
      </trkpt>
      <trkpt lat="42.87679" lon="-1.60826">
        <ele>430.4</ele>
        <time>2021-03-07 10:42:18</time>
      </trkpt>
      <trkpt lat="42.87686" lon="-1.60824">
        <ele>430.4</ele>
        <time>2021-03-07 10:42:19</time>
      </trkpt>
      <trkpt lat="42.87693" lon="-1.60822">
        <ele>430.4</ele>
        <time>2021-03-07 10:42:20</time>
      </trkpt>
      <trkpt lat="42.877" lon="-1.60821">
        <ele>430.4</ele>
        <time>2021-03-07 10:42:21</time>
      </trkpt>
      <trkpt lat="42.87706" lon="-1.60819">
        <ele>430.6</ele>
        <time>2021-03-07 10:42:22</time>
      </trkpt>
      <trkpt lat="42.87713" lon="-1.60817">
        <ele>430.6</ele>
        <time>2021-03-07 10:42:23</time>
      </trkpt>
      <trkpt lat="42.8772" lon="-1.60816">
        <ele>430.6</ele>
        <time>2021-03-07 10:42:24</time>
      </trkpt>
      <trkpt lat="42.87726" lon="-1.60814">
        <ele>430.6</ele>
        <time>2021-03-07 10:42:25</time>
      </trkpt>
      <trkpt lat="42.87732" lon="-1.60812">
        <ele>430.8</ele>
        <time>2021-03-07 10:42:26</time>
      </trkpt>
      <trkpt lat="42.87739" lon="-1.6081">
        <ele>431.2</ele>
        <time>2021-03-07 10:42:27</time>
      </trkpt>
      <trkpt lat="42.87745" lon="-1.60809">
        <ele>431.4</ele>
        <time>2021-03-07 10:42:28</time>
      </trkpt>
      <trkpt lat="42.87751" lon="-1.60808">
        <ele>431.6</ele>
        <time>2021-03-07 10:42:29</time>
      </trkpt>
      <trkpt lat="42.87757" lon="-1.60806">
        <ele>431.8</ele>
        <time>2021-03-07 10:42:30</time>
      </trkpt>
      <trkpt lat="42.87763" lon="-1.60804">
        <ele>432</ele>
        <time>2021-03-07 10:42:31</time>
      </trkpt>
      <trkpt lat="42.87769" lon="-1.60803">
        <ele>432.2</ele>
        <time>2021-03-07 10:42:32</time>
      </trkpt>
      <trkpt lat="42.87775" lon="-1.60801">
        <ele>432.2</ele>
        <time>2021-03-07 10:42:33</time>
      </trkpt>
      <trkpt lat="42.87781" lon="-1.608">
        <ele>432.4</ele>
        <time>2021-03-07 10:42:34</time>
      </trkpt>
      <trkpt lat="42.87787" lon="-1.60798">
        <ele>432.6</ele>
        <time>2021-03-07 10:42:35</time>
      </trkpt>
      <trkpt lat="42.87793" lon="-1.60797">
        <ele>433</ele>
        <time>2021-03-07 10:42:36</time>
      </trkpt>
      <trkpt lat="42.87798" lon="-1.60795">
        <ele>433.2</ele>
        <time>2021-03-07 10:42:37</time>
      </trkpt>
      <trkpt lat="42.87804" lon="-1.60794">
        <ele>433.4</ele>
        <time>2021-03-07 10:42:38</time>
      </trkpt>
      <trkpt lat="42.8781" lon="-1.60792">
        <ele>433.6</ele>
        <time>2021-03-07 10:42:39</time>
      </trkpt>
      <trkpt lat="42.87815" lon="-1.60791">
        <ele>433.8</ele>
        <time>2021-03-07 10:42:40</time>
      </trkpt>
      <trkpt lat="42.87821" lon="-1.60789">
        <ele>434</ele>
        <time>2021-03-07 10:42:41</time>
      </trkpt>
      <trkpt lat="42.87827" lon="-1.60788">
        <ele>434.2</ele>
        <time>2021-03-07 10:42:42</time>
      </trkpt>
      <trkpt lat="42.87832" lon="-1.60786">
        <ele>434.4</ele>
        <time>2021-03-07 10:42:43</time>
      </trkpt>
      <trkpt lat="42.87838" lon="-1.60785">
        <ele>434.4</ele>
        <time>2021-03-07 10:42:44</time>
      </trkpt>
      <trkpt lat="42.87844" lon="-1.60783">
        <ele>434.6</ele>
        <time>2021-03-07 10:42:45</time>
      </trkpt>
      <trkpt lat="42.87849" lon="-1.60781">
        <ele>434.8</ele>
        <time>2021-03-07 10:42:46</time>
      </trkpt>
      <trkpt lat="42.87855" lon="-1.60779">
        <ele>435</ele>
        <time>2021-03-07 10:42:47</time>
      </trkpt>
      <trkpt lat="42.87861" lon="-1.60778">
        <ele>435.2</ele>
        <time>2021-03-07 10:42:48</time>
      </trkpt>
      <trkpt lat="42.87866" lon="-1.60776">
        <ele>435.4</ele>
        <time>2021-03-07 10:42:49</time>
      </trkpt>
      <trkpt lat="42.87872" lon="-1.60774">
        <ele>435.6</ele>
        <time>2021-03-07 10:42:50</time>
      </trkpt>
      <trkpt lat="42.87878" lon="-1.60772">
        <ele>435.6</ele>
        <time>2021-03-07 10:42:51</time>
      </trkpt>
      <trkpt lat="42.87884" lon="-1.6077">
        <ele>435.6</ele>
        <time>2021-03-07 10:42:52</time>
      </trkpt>
      <trkpt lat="42.8789" lon="-1.60768">
        <ele>435.8</ele>
        <time>2021-03-07 10:42:53</time>
      </trkpt>
      <trkpt lat="42.87896" lon="-1.60766">
        <ele>436</ele>
        <time>2021-03-07 10:42:54</time>
      </trkpt>
      <trkpt lat="42.87902" lon="-1.60764">
        <ele>436</ele>
        <time>2021-03-07 10:42:55</time>
      </trkpt>
      <trkpt lat="42.87909" lon="-1.60761">
        <ele>436</ele>
        <time>2021-03-07 10:42:56</time>
      </trkpt>
      <trkpt lat="42.87915" lon="-1.60759">
        <ele>436.2</ele>
        <time>2021-03-07 10:42:57</time>
      </trkpt>
      <trkpt lat="42.87921" lon="-1.60756">
        <ele>436.4</ele>
        <time>2021-03-07 10:42:58</time>
      </trkpt>
      <trkpt lat="42.87927" lon="-1.60753">
        <ele>436.4</ele>
        <time>2021-03-07 10:42:59</time>
      </trkpt>
      <trkpt lat="42.87933" lon="-1.6075">
        <ele>436.6</ele>
        <time>2021-03-07 10:43:00</time>
      </trkpt>
      <trkpt lat="42.87939" lon="-1.60747">
        <ele>436.6</ele>
        <time>2021-03-07 10:43:01</time>
      </trkpt>
      <trkpt lat="42.87945" lon="-1.60744">
        <ele>436.6</ele>
        <time>2021-03-07 10:43:02</time>
      </trkpt>
      <trkpt lat="42.87951" lon="-1.60741">
        <ele>436.8</ele>
        <time>2021-03-07 10:43:03</time>
      </trkpt>
      <trkpt lat="42.87957" lon="-1.60737">
        <ele>436.8</ele>
        <time>2021-03-07 10:43:04</time>
      </trkpt>
      <trkpt lat="42.87963" lon="-1.60734">
        <ele>436.8</ele>
        <time>2021-03-07 10:43:05</time>
      </trkpt>
      <trkpt lat="42.8797" lon="-1.60731">
        <ele>436.8</ele>
        <time>2021-03-07 10:43:06</time>
      </trkpt>
      <trkpt lat="42.87976" lon="-1.60727">
        <ele>437</ele>
        <time>2021-03-07 10:43:07</time>
      </trkpt>
      <trkpt lat="42.87982" lon="-1.60723">
        <ele>437</ele>
        <time>2021-03-07 10:43:08</time>
      </trkpt>
      <trkpt lat="42.87989" lon="-1.60719">
        <ele>437</ele>
        <time>2021-03-07 10:43:09</time>
      </trkpt>
      <trkpt lat="42.87996" lon="-1.60715">
        <ele>437</ele>
        <time>2021-03-07 10:43:10</time>
      </trkpt>
      <trkpt lat="42.88002" lon="-1.60711">
        <ele>437</ele>
        <time>2021-03-07 10:43:11</time>
      </trkpt>
      <trkpt lat="42.88009" lon="-1.60706">
        <ele>437</ele>
        <time>2021-03-07 10:43:12</time>
      </trkpt>
      <trkpt lat="42.88016" lon="-1.60702">
        <ele>437</ele>
        <time>2021-03-07 10:43:13</time>
      </trkpt>
      <trkpt lat="42.88023" lon="-1.60698">
        <ele>437</ele>
        <time>2021-03-07 10:43:14</time>
      </trkpt>
      <trkpt lat="42.8803" lon="-1.60694">
        <ele>437</ele>
        <time>2021-03-07 10:43:15</time>
      </trkpt>
      <trkpt lat="42.88036" lon="-1.6069">
        <ele>437</ele>
        <time>2021-03-07 10:43:16</time>
      </trkpt>
      <trkpt lat="42.88043" lon="-1.60685">
        <ele>436.8</ele>
        <time>2021-03-07 10:43:17</time>
      </trkpt>
      <trkpt lat="42.8805" lon="-1.60681">
        <ele>436.6</ele>
        <time>2021-03-07 10:43:18</time>
      </trkpt>
      <trkpt lat="42.88056" lon="-1.60677">
        <ele>436.4</ele>
        <time>2021-03-07 10:43:19</time>
      </trkpt>
      <trkpt lat="42.88063" lon="-1.60673">
        <ele>436.4</ele>
        <time>2021-03-07 10:43:20</time>
      </trkpt>
      <trkpt lat="42.8807" lon="-1.60669">
        <ele>436.2</ele>
        <time>2021-03-07 10:43:21</time>
      </trkpt>
      <trkpt lat="42.88077" lon="-1.60665">
        <ele>436.2</ele>
        <time>2021-03-07 10:43:22</time>
      </trkpt>
      <trkpt lat="42.88083" lon="-1.6066">
        <ele>436.2</ele>
        <time>2021-03-07 10:43:23</time>
      </trkpt>
      <trkpt lat="42.8809" lon="-1.60656">
        <ele>436.2</ele>
        <time>2021-03-07 10:43:24</time>
      </trkpt>
      <trkpt lat="42.88096" lon="-1.60652">
        <ele>436.2</ele>
        <time>2021-03-07 10:43:25</time>
      </trkpt>
      <trkpt lat="42.88103" lon="-1.60648">
        <ele>436.2</ele>
        <time>2021-03-07 10:43:26</time>
      </trkpt>
      <trkpt lat="42.88109" lon="-1.60644">
        <ele>436.2</ele>
        <time>2021-03-07 10:43:27</time>
      </trkpt>
      <trkpt lat="42.88116" lon="-1.6064">
        <ele>436.2</ele>
        <time>2021-03-07 10:43:28</time>
      </trkpt>
      <trkpt lat="42.88123" lon="-1.60636">
        <ele>436.4</ele>
        <time>2021-03-07 10:43:29</time>
      </trkpt>
      <trkpt lat="42.88129" lon="-1.60632">
        <ele>436.4</ele>
        <time>2021-03-07 10:43:30</time>
      </trkpt>
      <trkpt lat="42.88135" lon="-1.60628">
        <ele>436.4</ele>
        <time>2021-03-07 10:43:31</time>
      </trkpt>
      <trkpt lat="42.88142" lon="-1.60624">
        <ele>436.6</ele>
        <time>2021-03-07 10:43:32</time>
      </trkpt>
      <trkpt lat="42.88148" lon="-1.60621">
        <ele>436.8</ele>
        <time>2021-03-07 10:43:33</time>
      </trkpt>
      <trkpt lat="42.88154" lon="-1.60617">
        <ele>437</ele>
        <time>2021-03-07 10:43:34</time>
      </trkpt>
      <trkpt lat="42.8816" lon="-1.60613">
        <ele>437</ele>
        <time>2021-03-07 10:43:35</time>
      </trkpt>
      <trkpt lat="42.88167" lon="-1.60609">
        <ele>437.2</ele>
        <time>2021-03-07 10:43:36</time>
      </trkpt>
      <trkpt lat="42.88173" lon="-1.60606">
        <ele>437.2</ele>
        <time>2021-03-07 10:43:37</time>
      </trkpt>
      <trkpt lat="42.88179" lon="-1.60602">
        <ele>437.4</ele>
        <time>2021-03-07 10:43:38</time>
      </trkpt>
      <trkpt lat="42.88185" lon="-1.60598">
        <ele>437.4</ele>
        <time>2021-03-07 10:43:39</time>
      </trkpt>
      <trkpt lat="42.8819" lon="-1.60594">
        <ele>437.4</ele>
        <time>2021-03-07 10:43:40</time>
      </trkpt>
      <trkpt lat="42.88196" lon="-1.60591">
        <ele>437.8</ele>
        <time>2021-03-07 10:43:41</time>
      </trkpt>
      <trkpt lat="42.88202" lon="-1.60587">
        <ele>437.8</ele>
        <time>2021-03-07 10:43:42</time>
      </trkpt>
      <trkpt lat="42.88208" lon="-1.60583">
        <ele>438</ele>
        <time>2021-03-07 10:43:43</time>
      </trkpt>
      <trkpt lat="42.88214" lon="-1.60579">
        <ele>438.2</ele>
        <time>2021-03-07 10:43:44</time>
      </trkpt>
      <trkpt lat="42.88221" lon="-1.60576">
        <ele>438.4</ele>
        <time>2021-03-07 10:43:45</time>
      </trkpt>
      <trkpt lat="42.88227" lon="-1.60572">
        <ele>438.8</ele>
        <time>2021-03-07 10:43:46</time>
      </trkpt>
      <trkpt lat="42.88233" lon="-1.60568">
        <ele>439</ele>
        <time>2021-03-07 10:43:47</time>
      </trkpt>
      <trkpt lat="42.88239" lon="-1.60564">
        <ele>439.2</ele>
        <time>2021-03-07 10:43:48</time>
      </trkpt>
      <trkpt lat="42.88245" lon="-1.6056">
        <ele>439.2</ele>
        <time>2021-03-07 10:43:49</time>
      </trkpt>
      <trkpt lat="42.88251" lon="-1.60556">
        <ele>439.4</ele>
        <time>2021-03-07 10:43:50</time>
      </trkpt>
      <trkpt lat="42.88258" lon="-1.60552">
        <ele>439.6</ele>
        <time>2021-03-07 10:43:51</time>
      </trkpt>
      <trkpt lat="42.88264" lon="-1.60548">
        <ele>439.6</ele>
        <time>2021-03-07 10:43:52</time>
      </trkpt>
      <trkpt lat="42.8827" lon="-1.60544">
        <ele>439.8</ele>
        <time>2021-03-07 10:43:53</time>
      </trkpt>
      <trkpt lat="42.88277" lon="-1.6054">
        <ele>439.8</ele>
        <time>2021-03-07 10:43:54</time>
      </trkpt>
      <trkpt lat="42.88283" lon="-1.60536">
        <ele>439.8</ele>
        <time>2021-03-07 10:43:55</time>
      </trkpt>
      <trkpt lat="42.8829" lon="-1.60531">
        <ele>440</ele>
        <time>2021-03-07 10:43:56</time>
      </trkpt>
      <trkpt lat="42.88296" lon="-1.60527">
        <ele>440</ele>
        <time>2021-03-07 10:43:57</time>
      </trkpt>
      <trkpt lat="42.88303" lon="-1.60523">
        <ele>440.2</ele>
        <time>2021-03-07 10:43:58</time>
      </trkpt>
      <trkpt lat="42.8831" lon="-1.60519">
        <ele>440.2</ele>
        <time>2021-03-07 10:43:59</time>
      </trkpt>
      <trkpt lat="42.88316" lon="-1.60514">
        <ele>440.2</ele>
        <time>2021-03-07 10:44:00</time>
      </trkpt>
      <trkpt lat="42.88323" lon="-1.60509">
        <ele>440.2</ele>
        <time>2021-03-07 10:44:01</time>
      </trkpt>
      <trkpt lat="42.8833" lon="-1.60504">
        <ele>440.2</ele>
        <time>2021-03-07 10:44:02</time>
      </trkpt>
      <trkpt lat="42.88337" lon="-1.60499">
        <ele>440.4</ele>
        <time>2021-03-07 10:44:03</time>
      </trkpt>
      <trkpt lat="42.88344" lon="-1.60494">
        <ele>440.4</ele>
        <time>2021-03-07 10:44:04</time>
      </trkpt>
      <trkpt lat="42.88351" lon="-1.60489">
        <ele>440.4</ele>
        <time>2021-03-07 10:44:05</time>
      </trkpt>
      <trkpt lat="42.88358" lon="-1.60484">
        <ele>440.4</ele>
        <time>2021-03-07 10:44:06</time>
      </trkpt>
      <trkpt lat="42.88365" lon="-1.60478">
        <ele>440</ele>
        <time>2021-03-07 10:44:07</time>
      </trkpt>
      <trkpt lat="42.88372" lon="-1.60473">
        <ele>440</ele>
        <time>2021-03-07 10:44:08</time>
      </trkpt>
      <trkpt lat="42.88378" lon="-1.60467">
        <ele>440</ele>
        <time>2021-03-07 10:44:09</time>
      </trkpt>
      <trkpt lat="42.88385" lon="-1.60461">
        <ele>439.8</ele>
        <time>2021-03-07 10:44:10</time>
      </trkpt>
      <trkpt lat="42.88392" lon="-1.60456">
        <ele>439.8</ele>
        <time>2021-03-07 10:44:11</time>
      </trkpt>
      <trkpt lat="42.88398" lon="-1.60452">
        <ele>439.8</ele>
        <time>2021-03-07 10:44:12</time>
      </trkpt>
      <trkpt lat="42.88405" lon="-1.60447">
        <ele>439.6</ele>
        <time>2021-03-07 10:44:13</time>
      </trkpt>
      <trkpt lat="42.88411" lon="-1.60443">
        <ele>439.4</ele>
        <time>2021-03-07 10:44:14</time>
      </trkpt>
      <trkpt lat="42.88418" lon="-1.60439">
        <ele>439.4</ele>
        <time>2021-03-07 10:44:15</time>
      </trkpt>
      <trkpt lat="42.88424" lon="-1.60434">
        <ele>439.2</ele>
        <time>2021-03-07 10:44:16</time>
      </trkpt>
      <trkpt lat="42.88431" lon="-1.6043">
        <ele>439.2</ele>
        <time>2021-03-07 10:44:17</time>
      </trkpt>
      <trkpt lat="42.88438" lon="-1.60425">
        <ele>439</ele>
        <time>2021-03-07 10:44:18</time>
      </trkpt>
      <trkpt lat="42.88446" lon="-1.6042">
        <ele>439</ele>
        <time>2021-03-07 10:44:19</time>
      </trkpt>
      <trkpt lat="42.88453" lon="-1.60416">
        <ele>438.8</ele>
        <time>2021-03-07 10:44:20</time>
      </trkpt>
      <trkpt lat="42.88461" lon="-1.60413">
        <ele>438.8</ele>
        <time>2021-03-07 10:44:21</time>
      </trkpt>
      <trkpt lat="42.88469" lon="-1.60409">
        <ele>438.8</ele>
        <time>2021-03-07 10:44:22</time>
      </trkpt>
      <trkpt lat="42.88477" lon="-1.60406">
        <ele>438.6</ele>
        <time>2021-03-07 10:44:23</time>
      </trkpt>
      <trkpt lat="42.88485" lon="-1.60403">
        <ele>438.6</ele>
        <time>2021-03-07 10:44:24</time>
      </trkpt>
      <trkpt lat="42.88493" lon="-1.60401">
        <ele>438.4</ele>
        <time>2021-03-07 10:44:25</time>
      </trkpt>
      <trkpt lat="42.88502" lon="-1.60399">
        <ele>438.2</ele>
        <time>2021-03-07 10:44:26</time>
      </trkpt>
      <trkpt lat="42.8851" lon="-1.60398">
        <ele>438</ele>
        <time>2021-03-07 10:44:27</time>
      </trkpt>
      <trkpt lat="42.88519" lon="-1.60397">
        <ele>437.4</ele>
        <time>2021-03-07 10:44:28</time>
      </trkpt>
      <trkpt lat="42.88528" lon="-1.60397">
        <ele>437.2</ele>
        <time>2021-03-07 10:44:29</time>
      </trkpt>
      <trkpt lat="42.88536" lon="-1.60397">
        <ele>437.2</ele>
        <time>2021-03-07 10:44:30</time>
      </trkpt>
      <trkpt lat="42.88545" lon="-1.60397">
        <ele>436.8</ele>
        <time>2021-03-07 10:44:31</time>
      </trkpt>
      <trkpt lat="42.88554" lon="-1.60397">
        <ele>436.6</ele>
        <time>2021-03-07 10:44:32</time>
      </trkpt>
      <trkpt lat="42.88563" lon="-1.60398">
        <ele>436.2</ele>
        <time>2021-03-07 10:44:33</time>
      </trkpt>
      <trkpt lat="42.88572" lon="-1.60399">
        <ele>436</ele>
        <time>2021-03-07 10:44:34</time>
      </trkpt>
      <trkpt lat="42.8858" lon="-1.60401">
        <ele>435.6</ele>
        <time>2021-03-07 10:44:35</time>
      </trkpt>
      <trkpt lat="42.88589" lon="-1.60403">
        <ele>435.4</ele>
        <time>2021-03-07 10:44:36</time>
      </trkpt>
      <trkpt lat="42.88598" lon="-1.60405">
        <ele>435</ele>
        <time>2021-03-07 10:44:37</time>
      </trkpt>
      <trkpt lat="42.88606" lon="-1.60407">
        <ele>434.6</ele>
        <time>2021-03-07 10:44:38</time>
      </trkpt>
      <trkpt lat="42.88614" lon="-1.60409">
        <ele>434.4</ele>
        <time>2021-03-07 10:44:39</time>
      </trkpt>
      <trkpt lat="42.88622" lon="-1.60412">
        <ele>434.2</ele>
        <time>2021-03-07 10:44:40</time>
      </trkpt>
      <trkpt lat="42.8863" lon="-1.60415">
        <ele>434.2</ele>
        <time>2021-03-07 10:44:41</time>
      </trkpt>
      <trkpt lat="42.88638" lon="-1.60418">
        <ele>434.2</ele>
        <time>2021-03-07 10:44:42</time>
      </trkpt>
      <trkpt lat="42.88646" lon="-1.60421">
        <ele>434</ele>
        <time>2021-03-07 10:44:43</time>
      </trkpt>
      <trkpt lat="42.88654" lon="-1.60424">
        <ele>434</ele>
        <time>2021-03-07 10:44:44</time>
      </trkpt>
      <trkpt lat="42.88662" lon="-1.60427">
        <ele>434</ele>
        <time>2021-03-07 10:44:45</time>
      </trkpt>
      <trkpt lat="42.88669" lon="-1.60431">
        <ele>434</ele>
        <time>2021-03-07 10:44:46</time>
      </trkpt>
      <trkpt lat="42.88677" lon="-1.60434">
        <ele>434</ele>
        <time>2021-03-07 10:44:47</time>
      </trkpt>
      <trkpt lat="42.88685" lon="-1.60437">
        <ele>434</ele>
        <time>2021-03-07 10:44:48</time>
      </trkpt>
      <trkpt lat="42.88693" lon="-1.60441">
        <ele>434</ele>
        <time>2021-03-07 10:44:49</time>
      </trkpt>
      <trkpt lat="42.88701" lon="-1.60444">
        <ele>434</ele>
        <time>2021-03-07 10:44:50</time>
      </trkpt>
      <trkpt lat="42.88708" lon="-1.60448">
        <ele>434</ele>
        <time>2021-03-07 10:44:51</time>
      </trkpt>
      <trkpt lat="42.88716" lon="-1.60451">
        <ele>434</ele>
        <time>2021-03-07 10:44:52</time>
      </trkpt>
      <trkpt lat="42.88724" lon="-1.60454">
        <ele>434</ele>
        <time>2021-03-07 10:44:53</time>
      </trkpt>
      <trkpt lat="42.88732" lon="-1.60457">
        <ele>434</ele>
        <time>2021-03-07 10:44:54</time>
      </trkpt>
      <trkpt lat="42.88739" lon="-1.60461">
        <ele>434</ele>
        <time>2021-03-07 10:44:55</time>
      </trkpt>
      <trkpt lat="42.88747" lon="-1.60464">
        <ele>434</ele>
        <time>2021-03-07 10:44:56</time>
      </trkpt>
      <trkpt lat="42.88754" lon="-1.60468">
        <ele>434</ele>
        <time>2021-03-07 10:44:57</time>
      </trkpt>
      <trkpt lat="42.88762" lon="-1.60471">
        <ele>434</ele>
        <time>2021-03-07 10:44:58</time>
      </trkpt>
      <trkpt lat="42.88769" lon="-1.60474">
        <ele>434</ele>
        <time>2021-03-07 10:44:59</time>
      </trkpt>
      <trkpt lat="42.88776" lon="-1.60478">
        <ele>434</ele>
        <time>2021-03-07 10:45:00</time>
      </trkpt>
      <trkpt lat="42.88784" lon="-1.60481">
        <ele>434.2</ele>
        <time>2021-03-07 10:45:01</time>
      </trkpt>
      <trkpt lat="42.88791" lon="-1.60484">
        <ele>434.2</ele>
        <time>2021-03-07 10:45:02</time>
      </trkpt>
      <trkpt lat="42.88798" lon="-1.60488">
        <ele>434.2</ele>
        <time>2021-03-07 10:45:03</time>
      </trkpt>
      <trkpt lat="42.88806" lon="-1.60491">
        <ele>434.2</ele>
        <time>2021-03-07 10:45:04</time>
      </trkpt>
      <trkpt lat="42.88813" lon="-1.60494">
        <ele>434.2</ele>
        <time>2021-03-07 10:45:05</time>
      </trkpt>
      <trkpt lat="42.8882" lon="-1.60497">
        <ele>434.4</ele>
        <time>2021-03-07 10:45:06</time>
      </trkpt>
      <trkpt lat="42.88827" lon="-1.60501">
        <ele>434.4</ele>
        <time>2021-03-07 10:45:07</time>
      </trkpt>
      <trkpt lat="42.88835" lon="-1.60504">
        <ele>434.6</ele>
        <time>2021-03-07 10:45:08</time>
      </trkpt>
      <trkpt lat="42.88842" lon="-1.60507">
        <ele>434.6</ele>
        <time>2021-03-07 10:45:09</time>
      </trkpt>
      <trkpt lat="42.88849" lon="-1.60511">
        <ele>434.8</ele>
        <time>2021-03-07 10:45:10</time>
      </trkpt>
      <trkpt lat="42.88857" lon="-1.60514">
        <ele>435</ele>
        <time>2021-03-07 10:45:11</time>
      </trkpt>
      <trkpt lat="42.88864" lon="-1.60517">
        <ele>435.2</ele>
        <time>2021-03-07 10:45:12</time>
      </trkpt>
      <trkpt lat="42.88872" lon="-1.6052">
        <ele>435.4</ele>
        <time>2021-03-07 10:45:13</time>
      </trkpt>
      <trkpt lat="42.88879" lon="-1.60524">
        <ele>435.6</ele>
        <time>2021-03-07 10:45:14</time>
      </trkpt>
      <trkpt lat="42.88886" lon="-1.60527">
        <ele>435.6</ele>
        <time>2021-03-07 10:45:15</time>
      </trkpt>
      <trkpt lat="42.88894" lon="-1.60529">
        <ele>435.6</ele>
        <time>2021-03-07 10:45:16</time>
      </trkpt>
      <trkpt lat="42.88901" lon="-1.60532">
        <ele>435.6</ele>
        <time>2021-03-07 10:45:17</time>
      </trkpt>
      <trkpt lat="42.88908" lon="-1.60536">
        <ele>435.6</ele>
        <time>2021-03-07 10:45:18</time>
      </trkpt>
      <trkpt lat="42.88915" lon="-1.60539">
        <ele>435.6</ele>
        <time>2021-03-07 10:45:19</time>
      </trkpt>
      <trkpt lat="42.88922" lon="-1.60542">
        <ele>435.6</ele>
        <time>2021-03-07 10:45:20</time>
      </trkpt>
      <trkpt lat="42.88929" lon="-1.60545">
        <ele>435.6</ele>
        <time>2021-03-07 10:45:21</time>
      </trkpt>
      <trkpt lat="42.88936" lon="-1.60548">
        <ele>435.6</ele>
        <time>2021-03-07 10:45:22</time>
      </trkpt>
      <trkpt lat="42.88943" lon="-1.60551">
        <ele>435.8</ele>
        <time>2021-03-07 10:45:23</time>
      </trkpt>
      <trkpt lat="42.8895" lon="-1.60554">
        <ele>435.8</ele>
        <time>2021-03-07 10:45:24</time>
      </trkpt>
      <trkpt lat="42.88957" lon="-1.60557">
        <ele>435.8</ele>
        <time>2021-03-07 10:45:25</time>
      </trkpt>
      <trkpt lat="42.88963" lon="-1.6056">
        <ele>435.8</ele>
        <time>2021-03-07 10:45:26</time>
      </trkpt>
      <trkpt lat="42.8897" lon="-1.60563">
        <ele>435.6</ele>
        <time>2021-03-07 10:45:27</time>
      </trkpt>
      <trkpt lat="42.88977" lon="-1.60566">
        <ele>435.8</ele>
        <time>2021-03-07 10:45:28</time>
      </trkpt>
      <trkpt lat="42.88983" lon="-1.60569">
        <ele>435.8</ele>
        <time>2021-03-07 10:45:29</time>
      </trkpt>
      <trkpt lat="42.8899" lon="-1.60571">
        <ele>436</ele>
        <time>2021-03-07 10:45:30</time>
      </trkpt>
      <trkpt lat="42.88996" lon="-1.60574">
        <ele>436</ele>
        <time>2021-03-07 10:45:31</time>
      </trkpt>
      <trkpt lat="42.89003" lon="-1.60577">
        <ele>436.2</ele>
        <time>2021-03-07 10:45:32</time>
      </trkpt>
      <trkpt lat="42.89009" lon="-1.6058">
        <ele>436.4</ele>
        <time>2021-03-07 10:45:33</time>
      </trkpt>
      <trkpt lat="42.89016" lon="-1.60583">
        <ele>436.6</ele>
        <time>2021-03-07 10:45:34</time>
      </trkpt>
      <trkpt lat="42.89022" lon="-1.60586">
        <ele>436.8</ele>
        <time>2021-03-07 10:45:35</time>
      </trkpt>
      <trkpt lat="42.89028" lon="-1.60589">
        <ele>436.8</ele>
        <time>2021-03-07 10:45:36</time>
      </trkpt>
      <trkpt lat="42.89035" lon="-1.60592">
        <ele>436.8</ele>
        <time>2021-03-07 10:45:37</time>
      </trkpt>
      <trkpt lat="42.89041" lon="-1.60595">
        <ele>437</ele>
        <time>2021-03-07 10:45:38</time>
      </trkpt>
      <trkpt lat="42.89048" lon="-1.60598">
        <ele>437</ele>
        <time>2021-03-07 10:45:39</time>
      </trkpt>
      <trkpt lat="42.89054" lon="-1.60602">
        <ele>437</ele>
        <time>2021-03-07 10:45:40</time>
      </trkpt>
      <trkpt lat="42.8906" lon="-1.60605">
        <ele>437.2</ele>
        <time>2021-03-07 10:45:41</time>
      </trkpt>
      <trkpt lat="42.89067" lon="-1.60608">
        <ele>437.4</ele>
        <time>2021-03-07 10:45:42</time>
      </trkpt>
      <trkpt lat="42.89073" lon="-1.60612">
        <ele>437.4</ele>
        <time>2021-03-07 10:45:43</time>
      </trkpt>
      <trkpt lat="42.8908" lon="-1.60615">
        <ele>437.6</ele>
        <time>2021-03-07 10:45:44</time>
      </trkpt>
      <trkpt lat="42.89087" lon="-1.60618">
        <ele>437.8</ele>
        <time>2021-03-07 10:45:45</time>
      </trkpt>
      <trkpt lat="42.89093" lon="-1.60621">
        <ele>437.8</ele>
        <time>2021-03-07 10:45:46</time>
      </trkpt>
      <trkpt lat="42.891" lon="-1.60625">
        <ele>437.8</ele>
        <time>2021-03-07 10:45:47</time>
      </trkpt>
      <trkpt lat="42.89107" lon="-1.60629">
        <ele>437.8</ele>
        <time>2021-03-07 10:45:48</time>
      </trkpt>
      <trkpt lat="42.89114" lon="-1.60632">
        <ele>437.8</ele>
        <time>2021-03-07 10:45:49</time>
      </trkpt>
      <trkpt lat="42.89121" lon="-1.60636">
        <ele>437.8</ele>
        <time>2021-03-07 10:45:50</time>
      </trkpt>
      <trkpt lat="42.89128" lon="-1.6064">
        <ele>437.8</ele>
        <time>2021-03-07 10:45:51</time>
      </trkpt>
      <trkpt lat="42.89135" lon="-1.60644">
        <ele>437.8</ele>
        <time>2021-03-07 10:45:52</time>
      </trkpt>
      <trkpt lat="42.89142" lon="-1.60647">
        <ele>437.8</ele>
        <time>2021-03-07 10:45:53</time>
      </trkpt>
      <trkpt lat="42.89149" lon="-1.60651">
        <ele>437.8</ele>
        <time>2021-03-07 10:45:54</time>
      </trkpt>
      <trkpt lat="42.89156" lon="-1.60654">
        <ele>437.8</ele>
        <time>2021-03-07 10:45:55</time>
      </trkpt>
      <trkpt lat="42.89164" lon="-1.60658">
        <ele>437.4</ele>
        <time>2021-03-07 10:45:56</time>
      </trkpt>
      <trkpt lat="42.89171" lon="-1.60662">
        <ele>437.2</ele>
        <time>2021-03-07 10:45:57</time>
      </trkpt>
      <trkpt lat="42.89178" lon="-1.60666">
        <ele>437.2</ele>
        <time>2021-03-07 10:45:58</time>
      </trkpt>
      <trkpt lat="42.89185" lon="-1.60669">
        <ele>437.2</ele>
        <time>2021-03-07 10:45:59</time>
      </trkpt>
      <trkpt lat="42.89192" lon="-1.60673">
        <ele>437.2</ele>
        <time>2021-03-07 10:46:00</time>
      </trkpt>
      <trkpt lat="42.89199" lon="-1.60676">
        <ele>437</ele>
        <time>2021-03-07 10:46:01</time>
      </trkpt>
      <trkpt lat="42.89206" lon="-1.6068">
        <ele>437</ele>
        <time>2021-03-07 10:46:02</time>
      </trkpt>
      <trkpt lat="42.89213" lon="-1.60684">
        <ele>437</ele>
        <time>2021-03-07 10:46:03</time>
      </trkpt>
      <trkpt lat="42.8922" lon="-1.60687">
        <ele>437</ele>
        <time>2021-03-07 10:46:04</time>
      </trkpt>
      <trkpt lat="42.89227" lon="-1.60691">
        <ele>437</ele>
        <time>2021-03-07 10:46:05</time>
      </trkpt>
      <trkpt lat="42.89234" lon="-1.60695">
        <ele>437</ele>
        <time>2021-03-07 10:46:06</time>
      </trkpt>
      <trkpt lat="42.89241" lon="-1.60698">
        <ele>437</ele>
        <time>2021-03-07 10:46:07</time>
      </trkpt>
      <trkpt lat="42.89248" lon="-1.60702">
        <ele>437</ele>
        <time>2021-03-07 10:46:08</time>
      </trkpt>
      <trkpt lat="42.89254" lon="-1.60706">
        <ele>437</ele>
        <time>2021-03-07 10:46:09</time>
      </trkpt>
      <trkpt lat="42.89261" lon="-1.6071">
        <ele>437</ele>
        <time>2021-03-07 10:46:10</time>
      </trkpt>
      <trkpt lat="42.89268" lon="-1.60714">
        <ele>437</ele>
        <time>2021-03-07 10:46:11</time>
      </trkpt>
      <trkpt lat="42.89275" lon="-1.60718">
        <ele>437</ele>
        <time>2021-03-07 10:46:12</time>
      </trkpt>
      <trkpt lat="42.89281" lon="-1.60723">
        <ele>437</ele>
        <time>2021-03-07 10:46:13</time>
      </trkpt>
      <trkpt lat="42.89288" lon="-1.60727">
        <ele>437</ele>
        <time>2021-03-07 10:46:14</time>
      </trkpt>
      <trkpt lat="42.89294" lon="-1.60732">
        <ele>437.2</ele>
        <time>2021-03-07 10:46:15</time>
      </trkpt>
      <trkpt lat="42.89301" lon="-1.60736">
        <ele>437.4</ele>
        <time>2021-03-07 10:46:16</time>
      </trkpt>
      <trkpt lat="42.89307" lon="-1.6074">
        <ele>437.4</ele>
        <time>2021-03-07 10:46:17</time>
      </trkpt>
      <trkpt lat="42.89313" lon="-1.60745">
        <ele>437.6</ele>
        <time>2021-03-07 10:46:18</time>
      </trkpt>
      <trkpt lat="42.8932" lon="-1.60749">
        <ele>437.6</ele>
        <time>2021-03-07 10:46:19</time>
      </trkpt>
      <trkpt lat="42.89326" lon="-1.60754">
        <ele>437.8</ele>
        <time>2021-03-07 10:46:20</time>
      </trkpt>
      <trkpt lat="42.89332" lon="-1.60758">
        <ele>437.8</ele>
        <time>2021-03-07 10:46:21</time>
      </trkpt>
      <trkpt lat="42.89338" lon="-1.60762">
        <ele>437.8</ele>
        <time>2021-03-07 10:46:22</time>
      </trkpt>
      <trkpt lat="42.89344" lon="-1.60767">
        <ele>437.8</ele>
        <time>2021-03-07 10:46:23</time>
      </trkpt>
      <trkpt lat="42.8935" lon="-1.60771">
        <ele>437.8</ele>
        <time>2021-03-07 10:46:24</time>
      </trkpt>
      <trkpt lat="42.89356" lon="-1.60775">
        <ele>438</ele>
        <time>2021-03-07 10:46:25</time>
      </trkpt>
      <trkpt lat="42.89362" lon="-1.6078">
        <ele>438</ele>
        <time>2021-03-07 10:46:26</time>
      </trkpt>
      <trkpt lat="42.89368" lon="-1.60784">
        <ele>438</ele>
        <time>2021-03-07 10:46:27</time>
      </trkpt>
      <trkpt lat="42.89374" lon="-1.60788">
        <ele>438.2</ele>
        <time>2021-03-07 10:46:28</time>
      </trkpt>
      <trkpt lat="42.8938" lon="-1.60792">
        <ele>438.4</ele>
        <time>2021-03-07 10:46:29</time>
      </trkpt>
      <trkpt lat="42.89385" lon="-1.60796">
        <ele>438.6</ele>
        <time>2021-03-07 10:46:30</time>
      </trkpt>
      <trkpt lat="42.89391" lon="-1.608">
        <ele>438.8</ele>
        <time>2021-03-07 10:46:31</time>
      </trkpt>
      <trkpt lat="42.89396" lon="-1.60804">
        <ele>438.8</ele>
        <time>2021-03-07 10:46:32</time>
      </trkpt>
      <trkpt lat="42.89402" lon="-1.60808">
        <ele>439</ele>
        <time>2021-03-07 10:46:33</time>
      </trkpt>
      <trkpt lat="42.89407" lon="-1.60812">
        <ele>439.2</ele>
        <time>2021-03-07 10:46:34</time>
      </trkpt>
      <trkpt lat="42.89413" lon="-1.60816">
        <ele>439.2</ele>
        <time>2021-03-07 10:46:35</time>
      </trkpt>
      <trkpt lat="42.89418" lon="-1.6082">
        <ele>439.4</ele>
        <time>2021-03-07 10:46:36</time>
      </trkpt>
      <trkpt lat="42.89423" lon="-1.60824">
        <ele>439.4</ele>
        <time>2021-03-07 10:46:37</time>
      </trkpt>
      <trkpt lat="42.89428" lon="-1.60827">
        <ele>439.8</ele>
        <time>2021-03-07 10:46:38</time>
      </trkpt>
      <trkpt lat="42.89433" lon="-1.60831">
        <ele>440</ele>
        <time>2021-03-07 10:46:39</time>
      </trkpt>
      <trkpt lat="42.89438" lon="-1.60835">
        <ele>440.2</ele>
        <time>2021-03-07 10:46:40</time>
      </trkpt>
      <trkpt lat="42.89443" lon="-1.60838">
        <ele>440.2</ele>
        <time>2021-03-07 10:46:41</time>
      </trkpt>
      <trkpt lat="42.89448" lon="-1.60842">
        <ele>440.4</ele>
        <time>2021-03-07 10:46:42</time>
      </trkpt>
      <trkpt lat="42.89453" lon="-1.60845">
        <ele>440.4</ele>
        <time>2021-03-07 10:46:43</time>
      </trkpt>
      <trkpt lat="42.89458" lon="-1.60849">
        <ele>440.8</ele>
        <time>2021-03-07 10:46:44</time>
      </trkpt>
      <trkpt lat="42.89463" lon="-1.60852">
        <ele>441</ele>
        <time>2021-03-07 10:46:45</time>
      </trkpt>
      <trkpt lat="42.89468" lon="-1.60855">
        <ele>441.2</ele>
        <time>2021-03-07 10:46:46</time>
      </trkpt>
      <trkpt lat="42.89473" lon="-1.60859">
        <ele>441.4</ele>
        <time>2021-03-07 10:46:47</time>
      </trkpt>
      <trkpt lat="42.89478" lon="-1.60862">
        <ele>441.6</ele>
        <time>2021-03-07 10:46:48</time>
      </trkpt>
      <trkpt lat="42.89483" lon="-1.60865">
        <ele>441.8</ele>
        <time>2021-03-07 10:46:49</time>
      </trkpt>
      <trkpt lat="42.89488" lon="-1.60869">
        <ele>442</ele>
        <time>2021-03-07 10:46:50</time>
      </trkpt>
      <trkpt lat="42.89493" lon="-1.60872">
        <ele>442.2</ele>
        <time>2021-03-07 10:46:51</time>
      </trkpt>
      <trkpt lat="42.89498" lon="-1.60875">
        <ele>442.4</ele>
        <time>2021-03-07 10:46:52</time>
      </trkpt>
      <trkpt lat="42.89503" lon="-1.60878">
        <ele>442.6</ele>
        <time>2021-03-07 10:46:53</time>
      </trkpt>
      <trkpt lat="42.89508" lon="-1.60881">
        <ele>442.8</ele>
        <time>2021-03-07 10:46:54</time>
      </trkpt>
      <trkpt lat="42.89514" lon="-1.60884">
        <ele>443</ele>
        <time>2021-03-07 10:46:55</time>
      </trkpt>
      <trkpt lat="42.89519" lon="-1.60886">
        <ele>443.2</ele>
        <time>2021-03-07 10:46:56</time>
      </trkpt>
      <trkpt lat="42.89524" lon="-1.60889">
        <ele>443.2</ele>
        <time>2021-03-07 10:46:57</time>
      </trkpt>
      <trkpt lat="42.8953" lon="-1.60891">
        <ele>443.4</ele>
        <time>2021-03-07 10:46:58</time>
      </trkpt>
      <trkpt lat="42.89535" lon="-1.60894">
        <ele>443.6</ele>
        <time>2021-03-07 10:46:59</time>
      </trkpt>
      <trkpt lat="42.89541" lon="-1.60896">
        <ele>443.8</ele>
        <time>2021-03-07 10:47:00</time>
      </trkpt>
      <trkpt lat="42.89546" lon="-1.60897">
        <ele>444</ele>
        <time>2021-03-07 10:47:01</time>
      </trkpt>
      <trkpt lat="42.89552" lon="-1.60899">
        <ele>444</ele>
        <time>2021-03-07 10:47:02</time>
      </trkpt>
      <trkpt lat="42.89557" lon="-1.60901">
        <ele>444.2</ele>
        <time>2021-03-07 10:47:03</time>
      </trkpt>
      <trkpt lat="42.89563" lon="-1.60902">
        <ele>444.4</ele>
        <time>2021-03-07 10:47:04</time>
      </trkpt>
      <trkpt lat="42.89569" lon="-1.60903">
        <ele>444.4</ele>
        <time>2021-03-07 10:47:05</time>
      </trkpt>
      <trkpt lat="42.89574" lon="-1.60904">
        <ele>444.6</ele>
        <time>2021-03-07 10:47:06</time>
      </trkpt>
      <trkpt lat="42.8958" lon="-1.60905">
        <ele>444.8</ele>
        <time>2021-03-07 10:47:07</time>
      </trkpt>
      <trkpt lat="42.89586" lon="-1.60906">
        <ele>445</ele>
        <time>2021-03-07 10:47:08</time>
      </trkpt>
      <trkpt lat="42.89591" lon="-1.60907">
        <ele>445</ele>
        <time>2021-03-07 10:47:09</time>
      </trkpt>
      <trkpt lat="42.89597" lon="-1.60907">
        <ele>445</ele>
        <time>2021-03-07 10:47:10</time>
      </trkpt>
      <trkpt lat="42.89603" lon="-1.60908">
        <ele>445.2</ele>
        <time>2021-03-07 10:47:11</time>
      </trkpt>
      <trkpt lat="42.89609" lon="-1.60908">
        <ele>445.2</ele>
        <time>2021-03-07 10:47:12</time>
      </trkpt>
      <trkpt lat="42.89615" lon="-1.60908">
        <ele>445.2</ele>
        <time>2021-03-07 10:47:13</time>
      </trkpt>
      <trkpt lat="42.89621" lon="-1.60909">
        <ele>445.4</ele>
        <time>2021-03-07 10:47:14</time>
      </trkpt>
      <trkpt lat="42.89627" lon="-1.60909">
        <ele>445.4</ele>
        <time>2021-03-07 10:47:15</time>
      </trkpt>
      <trkpt lat="42.89633" lon="-1.60909">
        <ele>445.4</ele>
        <time>2021-03-07 10:47:16</time>
      </trkpt>
      <trkpt lat="42.8964" lon="-1.60909">
        <ele>445.4</ele>
        <time>2021-03-07 10:47:17</time>
      </trkpt>
      <trkpt lat="42.89646" lon="-1.60909">
        <ele>445.6</ele>
        <time>2021-03-07 10:47:18</time>
      </trkpt>
      <trkpt lat="42.89652" lon="-1.60909">
        <ele>445.6</ele>
        <time>2021-03-07 10:47:19</time>
      </trkpt>
      <trkpt lat="42.89658" lon="-1.60909">
        <ele>445.6</ele>
        <time>2021-03-07 10:47:20</time>
      </trkpt>
      <trkpt lat="42.89665" lon="-1.60908">
        <ele>445.8</ele>
        <time>2021-03-07 10:47:21</time>
      </trkpt>
      <trkpt lat="42.89671" lon="-1.60908">
        <ele>445.8</ele>
        <time>2021-03-07 10:47:22</time>
      </trkpt>
      <trkpt lat="42.89678" lon="-1.60908">
        <ele>445.8</ele>
        <time>2021-03-07 10:47:23</time>
      </trkpt>
      <trkpt lat="42.89684" lon="-1.60908">
        <ele>446</ele>
        <time>2021-03-07 10:47:24</time>
      </trkpt>
      <trkpt lat="42.89691" lon="-1.60909">
        <ele>446</ele>
        <time>2021-03-07 10:47:25</time>
      </trkpt>
      <trkpt lat="42.89697" lon="-1.60909">
        <ele>446.2</ele>
        <time>2021-03-07 10:47:26</time>
      </trkpt>
      <trkpt lat="42.89704" lon="-1.6091">
        <ele>446.2</ele>
        <time>2021-03-07 10:47:27</time>
      </trkpt>
      <trkpt lat="42.89711" lon="-1.6091">
        <ele>446.2</ele>
        <time>2021-03-07 10:47:28</time>
      </trkpt>
      <trkpt lat="42.89717" lon="-1.60911">
        <ele>446.2</ele>
        <time>2021-03-07 10:47:29</time>
      </trkpt>
      <trkpt lat="42.89724" lon="-1.60912">
        <ele>446.2</ele>
        <time>2021-03-07 10:47:30</time>
      </trkpt>
      <trkpt lat="42.89731" lon="-1.60914">
        <ele>446.4</ele>
        <time>2021-03-07 10:47:31</time>
      </trkpt>
      <trkpt lat="42.89737" lon="-1.60915">
        <ele>446.4</ele>
        <time>2021-03-07 10:47:32</time>
      </trkpt>
      <trkpt lat="42.89744" lon="-1.60916">
        <ele>446.4</ele>
        <time>2021-03-07 10:47:33</time>
      </trkpt>
      <trkpt lat="42.8975" lon="-1.60918">
        <ele>446.4</ele>
        <time>2021-03-07 10:47:34</time>
      </trkpt>
      <trkpt lat="42.89757" lon="-1.60919">
        <ele>446.4</ele>
        <time>2021-03-07 10:47:35</time>
      </trkpt>
      <trkpt lat="42.89764" lon="-1.60921">
        <ele>446.4</ele>
        <time>2021-03-07 10:47:36</time>
      </trkpt>
      <trkpt lat="42.89771" lon="-1.60922">
        <ele>446.4</ele>
        <time>2021-03-07 10:47:37</time>
      </trkpt>
      <trkpt lat="42.89777" lon="-1.60923">
        <ele>446.6</ele>
        <time>2021-03-07 10:47:38</time>
      </trkpt>
      <trkpt lat="42.89784" lon="-1.60925">
        <ele>446.6</ele>
        <time>2021-03-07 10:47:39</time>
      </trkpt>
      <trkpt lat="42.89791" lon="-1.60926">
        <ele>446.6</ele>
        <time>2021-03-07 10:47:40</time>
      </trkpt>
      <trkpt lat="42.89798" lon="-1.60927">
        <ele>446.6</ele>
        <time>2021-03-07 10:47:41</time>
      </trkpt>
      <trkpt lat="42.89805" lon="-1.60929">
        <ele>446.6</ele>
        <time>2021-03-07 10:47:42</time>
      </trkpt>
      <trkpt lat="42.89812" lon="-1.60931">
        <ele>446.8</ele>
        <time>2021-03-07 10:47:43</time>
      </trkpt>
      <trkpt lat="42.89819" lon="-1.60932">
        <ele>446.8</ele>
        <time>2021-03-07 10:47:44</time>
      </trkpt>
      <trkpt lat="42.89825" lon="-1.60934">
        <ele>446.8</ele>
        <time>2021-03-07 10:47:45</time>
      </trkpt>
      <trkpt lat="42.89832" lon="-1.60936">
        <ele>447</ele>
        <time>2021-03-07 10:47:46</time>
      </trkpt>
      <trkpt lat="42.89839" lon="-1.60937">
        <ele>447</ele>
        <time>2021-03-07 10:47:47</time>
      </trkpt>
      <trkpt lat="42.89846" lon="-1.60939">
        <ele>447</ele>
        <time>2021-03-07 10:47:48</time>
      </trkpt>
      <trkpt lat="42.89853" lon="-1.60941">
        <ele>447</ele>
        <time>2021-03-07 10:47:49</time>
      </trkpt>
      <trkpt lat="42.89859" lon="-1.60942">
        <ele>447</ele>
        <time>2021-03-07 10:47:50</time>
      </trkpt>
      <trkpt lat="42.89866" lon="-1.60944">
        <ele>447</ele>
        <time>2021-03-07 10:47:51</time>
      </trkpt>
      <trkpt lat="42.89873" lon="-1.60946">
        <ele>447</ele>
        <time>2021-03-07 10:47:52</time>
      </trkpt>
      <trkpt lat="42.8988" lon="-1.60947">
        <ele>447.2</ele>
        <time>2021-03-07 10:47:53</time>
      </trkpt>
      <trkpt lat="42.89887" lon="-1.60949">
        <ele>447</ele>
        <time>2021-03-07 10:47:54</time>
      </trkpt>
      <trkpt lat="42.89894" lon="-1.60951">
        <ele>447</ele>
        <time>2021-03-07 10:47:55</time>
      </trkpt>
      <trkpt lat="42.89901" lon="-1.60952">
        <ele>447</ele>
        <time>2021-03-07 10:47:56</time>
      </trkpt>
      <trkpt lat="42.89907" lon="-1.60954">
        <ele>447</ele>
        <time>2021-03-07 10:47:57</time>
      </trkpt>
      <trkpt lat="42.89914" lon="-1.60956">
        <ele>447.2</ele>
        <time>2021-03-07 10:47:58</time>
      </trkpt>
      <trkpt lat="42.89921" lon="-1.60958">
        <ele>447.2</ele>
        <time>2021-03-07 10:47:59</time>
      </trkpt>
      <trkpt lat="42.89928" lon="-1.6096">
        <ele>447.4</ele>
        <time>2021-03-07 10:48:00</time>
      </trkpt>
      <trkpt lat="42.89935" lon="-1.60962">
        <ele>447.6</ele>
        <time>2021-03-07 10:48:01</time>
      </trkpt>
      <trkpt lat="42.89942" lon="-1.60965">
        <ele>447.8</ele>
        <time>2021-03-07 10:48:02</time>
      </trkpt>
      <trkpt lat="42.89948" lon="-1.60967">
        <ele>448</ele>
        <time>2021-03-07 10:48:03</time>
      </trkpt>
      <trkpt lat="42.89955" lon="-1.6097">
        <ele>448.2</ele>
        <time>2021-03-07 10:48:04</time>
      </trkpt>
      <trkpt lat="42.89962" lon="-1.60973">
        <ele>448.4</ele>
        <time>2021-03-07 10:48:05</time>
      </trkpt>
      <trkpt lat="42.89968" lon="-1.60976">
        <ele>448.6</ele>
        <time>2021-03-07 10:48:06</time>
      </trkpt>
      <trkpt lat="42.89975" lon="-1.60979">
        <ele>448.8</ele>
        <time>2021-03-07 10:48:07</time>
      </trkpt>
      <trkpt lat="42.89982" lon="-1.60983">
        <ele>448.8</ele>
        <time>2021-03-07 10:48:08</time>
      </trkpt>
      <trkpt lat="42.89988" lon="-1.60987">
        <ele>449</ele>
        <time>2021-03-07 10:48:09</time>
      </trkpt>
      <trkpt lat="42.89995" lon="-1.60991">
        <ele>449</ele>
        <time>2021-03-07 10:48:10</time>
      </trkpt>
      <trkpt lat="42.90001" lon="-1.60996">
        <ele>449</ele>
        <time>2021-03-07 10:48:11</time>
      </trkpt>
      <trkpt lat="42.90008" lon="-1.61">
        <ele>449</ele>
        <time>2021-03-07 10:48:12</time>
      </trkpt>
      <trkpt lat="42.90015" lon="-1.61004">
        <ele>449.2</ele>
        <time>2021-03-07 10:48:13</time>
      </trkpt>
      <trkpt lat="42.90022" lon="-1.61009">
        <ele>449.4</ele>
        <time>2021-03-07 10:48:14</time>
      </trkpt>
      <trkpt lat="42.90028" lon="-1.61014">
        <ele>449.6</ele>
        <time>2021-03-07 10:48:15</time>
      </trkpt>
      <trkpt lat="42.90035" lon="-1.61019">
        <ele>449.6</ele>
        <time>2021-03-07 10:48:16</time>
      </trkpt>
      <trkpt lat="42.90042" lon="-1.61025">
        <ele>449.8</ele>
        <time>2021-03-07 10:48:17</time>
      </trkpt>
      <trkpt lat="42.90048" lon="-1.6103">
        <ele>449.8</ele>
        <time>2021-03-07 10:48:18</time>
      </trkpt>
      <trkpt lat="42.90055" lon="-1.61035">
        <ele>449.8</ele>
        <time>2021-03-07 10:48:19</time>
      </trkpt>
      <trkpt lat="42.90062" lon="-1.6104">
        <ele>449.8</ele>
        <time>2021-03-07 10:48:20</time>
      </trkpt>
      <trkpt lat="42.90069" lon="-1.61045">
        <ele>449.8</ele>
        <time>2021-03-07 10:48:21</time>
      </trkpt>
      <trkpt lat="42.90075" lon="-1.61051">
        <ele>449.8</ele>
        <time>2021-03-07 10:48:22</time>
      </trkpt>
      <trkpt lat="42.90082" lon="-1.61056">
        <ele>449.8</ele>
        <time>2021-03-07 10:48:23</time>
      </trkpt>
      <trkpt lat="42.90089" lon="-1.61062">
        <ele>449.8</ele>
        <time>2021-03-07 10:48:24</time>
      </trkpt>
      <trkpt lat="42.90095" lon="-1.61067">
        <ele>449.8</ele>
        <time>2021-03-07 10:48:25</time>
      </trkpt>
      <trkpt lat="42.90102" lon="-1.61073">
        <ele>449.8</ele>
        <time>2021-03-07 10:48:26</time>
      </trkpt>
      <trkpt lat="42.90108" lon="-1.61078">
        <ele>449.8</ele>
        <time>2021-03-07 10:48:27</time>
      </trkpt>
      <trkpt lat="42.90115" lon="-1.61084">
        <ele>449.8</ele>
        <time>2021-03-07 10:48:28</time>
      </trkpt>
      <trkpt lat="42.90122" lon="-1.61089">
        <ele>449.8</ele>
        <time>2021-03-07 10:48:29</time>
      </trkpt>
      <trkpt lat="42.90128" lon="-1.61094">
        <ele>449.8</ele>
        <time>2021-03-07 10:48:30</time>
      </trkpt>
      <trkpt lat="42.90135" lon="-1.611">
        <ele>449.8</ele>
        <time>2021-03-07 10:48:31</time>
      </trkpt>
      <trkpt lat="42.90142" lon="-1.61105">
        <ele>450</ele>
        <time>2021-03-07 10:48:32</time>
      </trkpt>
      <trkpt lat="42.90149" lon="-1.61111">
        <ele>450</ele>
        <time>2021-03-07 10:48:33</time>
      </trkpt>
      <trkpt lat="42.90156" lon="-1.61116">
        <ele>450</ele>
        <time>2021-03-07 10:48:34</time>
      </trkpt>
      <trkpt lat="42.90163" lon="-1.61122">
        <ele>450.2</ele>
        <time>2021-03-07 10:48:35</time>
      </trkpt>
      <trkpt lat="42.9017" lon="-1.61127">
        <ele>450.2</ele>
        <time>2021-03-07 10:48:36</time>
      </trkpt>
      <trkpt lat="42.90177" lon="-1.61133">
        <ele>450.2</ele>
        <time>2021-03-07 10:48:37</time>
      </trkpt>
      <trkpt lat="42.90184" lon="-1.61138">
        <ele>450.2</ele>
        <time>2021-03-07 10:48:38</time>
      </trkpt>
      <trkpt lat="42.90191" lon="-1.61144">
        <ele>450.2</ele>
        <time>2021-03-07 10:48:39</time>
      </trkpt>
      <trkpt lat="42.90198" lon="-1.6115">
        <ele>450.2</ele>
        <time>2021-03-07 10:48:40</time>
      </trkpt>
      <trkpt lat="42.90205" lon="-1.61155">
        <ele>450.2</ele>
        <time>2021-03-07 10:48:41</time>
      </trkpt>
      <trkpt lat="42.90212" lon="-1.61161">
        <ele>450.2</ele>
        <time>2021-03-07 10:48:42</time>
      </trkpt>
      <trkpt lat="42.9022" lon="-1.61166">
        <ele>450.2</ele>
        <time>2021-03-07 10:48:43</time>
      </trkpt>
      <trkpt lat="42.90227" lon="-1.61171">
        <ele>450.2</ele>
        <time>2021-03-07 10:48:44</time>
      </trkpt>
      <trkpt lat="42.90234" lon="-1.61176">
        <ele>450.2</ele>
        <time>2021-03-07 10:48:45</time>
      </trkpt>
      <trkpt lat="42.90242" lon="-1.61181">
        <ele>450.2</ele>
        <time>2021-03-07 10:48:46</time>
      </trkpt>
      <trkpt lat="42.90249" lon="-1.61186">
        <ele>450.2</ele>
        <time>2021-03-07 10:48:47</time>
      </trkpt>
      <trkpt lat="42.90257" lon="-1.6119">
        <ele>450.2</ele>
        <time>2021-03-07 10:48:48</time>
      </trkpt>
      <trkpt lat="42.90264" lon="-1.61195">
        <ele>450.2</ele>
        <time>2021-03-07 10:48:49</time>
      </trkpt>
      <trkpt lat="42.90272" lon="-1.61199">
        <ele>450.2</ele>
        <time>2021-03-07 10:48:50</time>
      </trkpt>
      <trkpt lat="42.9028" lon="-1.61202">
        <ele>450.2</ele>
        <time>2021-03-07 10:48:51</time>
      </trkpt>
      <trkpt lat="42.90287" lon="-1.61206">
        <ele>450.2</ele>
        <time>2021-03-07 10:48:52</time>
      </trkpt>
      <trkpt lat="42.90295" lon="-1.61209">
        <ele>450.2</ele>
        <time>2021-03-07 10:48:53</time>
      </trkpt>
      <trkpt lat="42.90304" lon="-1.61212">
        <ele>450.2</ele>
        <time>2021-03-07 10:48:54</time>
      </trkpt>
      <trkpt lat="42.90312" lon="-1.61214">
        <ele>450.2</ele>
        <time>2021-03-07 10:48:55</time>
      </trkpt>
      <trkpt lat="42.9032" lon="-1.61216">
        <ele>450.2</ele>
        <time>2021-03-07 10:48:56</time>
      </trkpt>
      <trkpt lat="42.90328" lon="-1.61218">
        <ele>450.2</ele>
        <time>2021-03-07 10:48:57</time>
      </trkpt>
      <trkpt lat="42.90337" lon="-1.61219">
        <ele>450.2</ele>
        <time>2021-03-07 10:48:58</time>
      </trkpt>
      <trkpt lat="42.90345" lon="-1.6122">
        <ele>450.2</ele>
        <time>2021-03-07 10:48:59</time>
      </trkpt>
      <trkpt lat="42.90353" lon="-1.61221">
        <ele>450</ele>
        <time>2021-03-07 10:49:00</time>
      </trkpt>
      <trkpt lat="42.90362" lon="-1.61221">
        <ele>450</ele>
        <time>2021-03-07 10:49:01</time>
      </trkpt>
      <trkpt lat="42.9037" lon="-1.61221">
        <ele>449.8</ele>
        <time>2021-03-07 10:49:02</time>
      </trkpt>
      <trkpt lat="42.90379" lon="-1.61221">
        <ele>449.6</ele>
        <time>2021-03-07 10:49:03</time>
      </trkpt>
      <trkpt lat="42.90387" lon="-1.6122">
        <ele>449.6</ele>
        <time>2021-03-07 10:49:04</time>
      </trkpt>
      <trkpt lat="42.90396" lon="-1.6122">
        <ele>449.6</ele>
        <time>2021-03-07 10:49:05</time>
      </trkpt>
      <trkpt lat="42.90404" lon="-1.61219">
        <ele>449.4</ele>
        <time>2021-03-07 10:49:06</time>
      </trkpt>
      <trkpt lat="42.90413" lon="-1.61219">
        <ele>449.4</ele>
        <time>2021-03-07 10:49:07</time>
      </trkpt>
      <trkpt lat="42.90421" lon="-1.61218">
        <ele>449.4</ele>
        <time>2021-03-07 10:49:08</time>
      </trkpt>
      <trkpt lat="42.9043" lon="-1.61218">
        <ele>449.4</ele>
        <time>2021-03-07 10:49:09</time>
      </trkpt>
      <trkpt lat="42.90438" lon="-1.61218">
        <ele>449.2</ele>
        <time>2021-03-07 10:49:10</time>
      </trkpt>
      <trkpt lat="42.90447" lon="-1.61218">
        <ele>449.2</ele>
        <time>2021-03-07 10:49:11</time>
      </trkpt>
      <trkpt lat="42.90455" lon="-1.61218">
        <ele>449.2</ele>
        <time>2021-03-07 10:49:12</time>
      </trkpt>
      <trkpt lat="42.90464" lon="-1.61218">
        <ele>449.2</ele>
        <time>2021-03-07 10:49:13</time>
      </trkpt>
      <trkpt lat="42.90473" lon="-1.61218">
        <ele>449.2</ele>
        <time>2021-03-07 10:49:14</time>
      </trkpt>
      <trkpt lat="42.90482" lon="-1.61218">
        <ele>449</ele>
        <time>2021-03-07 10:49:15</time>
      </trkpt>
      <trkpt lat="42.90491" lon="-1.61218">
        <ele>449</ele>
        <time>2021-03-07 10:49:16</time>
      </trkpt>
      <trkpt lat="42.90501" lon="-1.61217">
        <ele>449</ele>
        <time>2021-03-07 10:49:17</time>
      </trkpt>
      <trkpt lat="42.9051" lon="-1.61216">
        <ele>449</ele>
        <time>2021-03-07 10:49:18</time>
      </trkpt>
      <trkpt lat="42.9052" lon="-1.61215">
        <ele>448.8</ele>
        <time>2021-03-07 10:49:19</time>
      </trkpt>
      <trkpt lat="42.90529" lon="-1.61216">
        <ele>448.8</ele>
        <time>2021-03-07 10:49:20</time>
      </trkpt>
      <trkpt lat="42.90539" lon="-1.61218">
        <ele>448.6</ele>
        <time>2021-03-07 10:49:21</time>
      </trkpt>
      <trkpt lat="42.90548" lon="-1.61221">
        <ele>448.4</ele>
        <time>2021-03-07 10:49:22</time>
      </trkpt>
      <trkpt lat="42.90556" lon="-1.61227">
        <ele>448</ele>
        <time>2021-03-07 10:49:23</time>
      </trkpt>
      <trkpt lat="42.90564" lon="-1.61232">
        <ele>447.4</ele>
        <time>2021-03-07 10:49:24</time>
      </trkpt>
      <trkpt lat="42.90573" lon="-1.61236">
        <ele>447</ele>
        <time>2021-03-07 10:49:25</time>
      </trkpt>
      <trkpt lat="42.90582" lon="-1.61239">
        <ele>446.8</ele>
        <time>2021-03-07 10:49:26</time>
      </trkpt>
      <trkpt lat="42.90591" lon="-1.61242">
        <ele>446.6</ele>
        <time>2021-03-07 10:49:27</time>
      </trkpt>
      <trkpt lat="42.90599" lon="-1.61245">
        <ele>446.4</ele>
        <time>2021-03-07 10:49:28</time>
      </trkpt>
      <trkpt lat="42.90608" lon="-1.61247">
        <ele>446.2</ele>
        <time>2021-03-07 10:49:29</time>
      </trkpt>
      <trkpt lat="42.90617" lon="-1.61249">
        <ele>446.2</ele>
        <time>2021-03-07 10:49:30</time>
      </trkpt>
      <trkpt lat="42.90625" lon="-1.61251">
        <ele>446.2</ele>
        <time>2021-03-07 10:49:31</time>
      </trkpt>
      <trkpt lat="42.90633" lon="-1.61253">
        <ele>446.2</ele>
        <time>2021-03-07 10:49:32</time>
      </trkpt>
      <trkpt lat="42.90642" lon="-1.61254">
        <ele>446.2</ele>
        <time>2021-03-07 10:49:33</time>
      </trkpt>
      <trkpt lat="42.9065" lon="-1.61254">
        <ele>446.2</ele>
        <time>2021-03-07 10:49:34</time>
      </trkpt>
      <trkpt lat="42.90658" lon="-1.61255">
        <ele>446.2</ele>
        <time>2021-03-07 10:49:35</time>
      </trkpt>
      <trkpt lat="42.90666" lon="-1.61254">
        <ele>446.2</ele>
        <time>2021-03-07 10:49:36</time>
      </trkpt>
      <trkpt lat="42.90674" lon="-1.61253">
        <ele>446.2</ele>
        <time>2021-03-07 10:49:37</time>
      </trkpt>
      <trkpt lat="42.90681" lon="-1.61251">
        <ele>446.2</ele>
        <time>2021-03-07 10:49:38</time>
      </trkpt>
      <trkpt lat="42.90688" lon="-1.61249">
        <ele>446.2</ele>
        <time>2021-03-07 10:49:39</time>
      </trkpt>
      <trkpt lat="42.90696" lon="-1.61247">
        <ele>446.2</ele>
        <time>2021-03-07 10:49:40</time>
      </trkpt>
      <trkpt lat="42.90703" lon="-1.61244">
        <ele>446.2</ele>
        <time>2021-03-07 10:49:41</time>
      </trkpt>
      <trkpt lat="42.9071" lon="-1.61242">
        <ele>446.2</ele>
        <time>2021-03-07 10:49:42</time>
      </trkpt>
      <trkpt lat="42.90717" lon="-1.6124">
        <ele>446.4</ele>
        <time>2021-03-07 10:49:43</time>
      </trkpt>
      <trkpt lat="42.90725" lon="-1.61238">
        <ele>446.6</ele>
        <time>2021-03-07 10:49:44</time>
      </trkpt>
      <trkpt lat="42.90732" lon="-1.61236">
        <ele>446.6</ele>
        <time>2021-03-07 10:49:45</time>
      </trkpt>
      <trkpt lat="42.9074" lon="-1.61234">
        <ele>446.6</ele>
        <time>2021-03-07 10:49:46</time>
      </trkpt>
      <trkpt lat="42.90748" lon="-1.61232">
        <ele>446.8</ele>
        <time>2021-03-07 10:49:47</time>
      </trkpt>
      <trkpt lat="42.90755" lon="-1.6123">
        <ele>447</ele>
        <time>2021-03-07 10:49:48</time>
      </trkpt>
      <trkpt lat="42.90763" lon="-1.61228">
        <ele>447.2</ele>
        <time>2021-03-07 10:49:49</time>
      </trkpt>
      <trkpt lat="42.90771" lon="-1.61225">
        <ele>447.2</ele>
        <time>2021-03-07 10:49:50</time>
      </trkpt>
      <trkpt lat="42.90779" lon="-1.61224">
        <ele>447.2</ele>
        <time>2021-03-07 10:49:51</time>
      </trkpt>
      <trkpt lat="42.90786" lon="-1.61226">
        <ele>447.2</ele>
        <time>2021-03-07 10:49:52</time>
      </trkpt>
      <trkpt lat="42.90794" lon="-1.6123">
        <ele>447</ele>
        <time>2021-03-07 10:49:53</time>
      </trkpt>
      <trkpt lat="42.90801" lon="-1.61237">
        <ele>447.2</ele>
        <time>2021-03-07 10:49:54</time>
      </trkpt>
      <trkpt lat="42.90803" lon="-1.61247">
        <ele>447.2</ele>
        <time>2021-03-07 10:49:55</time>
      </trkpt>
      <trkpt lat="42.90805" lon="-1.61257">
        <ele>447.2</ele>
        <time>2021-03-07 10:49:56</time>
      </trkpt>
      <trkpt lat="42.90807" lon="-1.61266">
        <ele>447.2</ele>
        <time>2021-03-07 10:49:57</time>
      </trkpt>
      <trkpt lat="42.90811" lon="-1.61276">
        <ele>447.2</ele>
        <time>2021-03-07 10:49:58</time>
      </trkpt>
      <trkpt lat="42.90816" lon="-1.61282">
        <ele>447</ele>
        <time>2021-03-07 10:49:59</time>
      </trkpt>
      <trkpt lat="42.90823" lon="-1.61286">
        <ele>447</ele>
        <time>2021-03-07 10:50:00</time>
      </trkpt>
      <trkpt lat="42.90829" lon="-1.61289">
        <ele>446.8</ele>
        <time>2021-03-07 10:50:01</time>
      </trkpt>
      <trkpt lat="42.90835" lon="-1.61291">
        <ele>446.8</ele>
        <time>2021-03-07 10:50:02</time>
      </trkpt>
      <trkpt lat="42.90842" lon="-1.61293">
        <ele>446.8</ele>
        <time>2021-03-07 10:50:03</time>
      </trkpt>
      <trkpt lat="42.90849" lon="-1.61294">
        <ele>446.8</ele>
        <time>2021-03-07 10:50:04</time>
      </trkpt>
      <trkpt lat="42.90856" lon="-1.61296">
        <ele>446.8</ele>
        <time>2021-03-07 10:50:05</time>
      </trkpt>
      <trkpt lat="42.90863" lon="-1.61297">
        <ele>446.8</ele>
        <time>2021-03-07 10:50:06</time>
      </trkpt>
      <trkpt lat="42.90869" lon="-1.61299">
        <ele>446.8</ele>
        <time>2021-03-07 10:50:07</time>
      </trkpt>
      <trkpt lat="42.90876" lon="-1.61301">
        <ele>446.8</ele>
        <time>2021-03-07 10:50:08</time>
      </trkpt>
      <trkpt lat="42.90882" lon="-1.61303">
        <ele>446.8</ele>
        <time>2021-03-07 10:50:09</time>
      </trkpt>
      <trkpt lat="42.90889" lon="-1.61305">
        <ele>446.8</ele>
        <time>2021-03-07 10:50:10</time>
      </trkpt>
      <trkpt lat="42.90895" lon="-1.61307">
        <ele>446.8</ele>
        <time>2021-03-07 10:50:11</time>
      </trkpt>
      <trkpt lat="42.90901" lon="-1.61309">
        <ele>446.8</ele>
        <time>2021-03-07 10:50:12</time>
      </trkpt>
      <trkpt lat="42.90907" lon="-1.61311">
        <ele>447</ele>
        <time>2021-03-07 10:50:13</time>
      </trkpt>
      <trkpt lat="42.90912" lon="-1.61313">
        <ele>447.2</ele>
        <time>2021-03-07 10:50:14</time>
      </trkpt>
      <trkpt lat="42.90918" lon="-1.61315">
        <ele>447.2</ele>
        <time>2021-03-07 10:50:15</time>
      </trkpt>
      <trkpt lat="42.90923" lon="-1.61317">
        <ele>447.4</ele>
        <time>2021-03-07 10:50:16</time>
      </trkpt>
      <trkpt lat="42.90928" lon="-1.61319">
        <ele>447.4</ele>
        <time>2021-03-07 10:50:17</time>
      </trkpt>
      <trkpt lat="42.90933" lon="-1.61321">
        <ele>447.6</ele>
        <time>2021-03-07 10:50:18</time>
      </trkpt>
      <trkpt lat="42.90938" lon="-1.61324">
        <ele>448.2</ele>
        <time>2021-03-07 10:50:19</time>
      </trkpt>
      <trkpt lat="42.90942" lon="-1.61326">
        <ele>448.4</ele>
        <time>2021-03-07 10:50:20</time>
      </trkpt>
      <trkpt lat="42.90947" lon="-1.61328">
        <ele>448.6</ele>
        <time>2021-03-07 10:50:21</time>
      </trkpt>
      <trkpt lat="42.90951" lon="-1.6133">
        <ele>448.8</ele>
        <time>2021-03-07 10:50:22</time>
      </trkpt>
      <trkpt lat="42.90955" lon="-1.61333">
        <ele>449</ele>
        <time>2021-03-07 10:50:23</time>
      </trkpt>
      <trkpt lat="42.90959" lon="-1.61335">
        <ele>449.4</ele>
        <time>2021-03-07 10:50:24</time>
      </trkpt>
      <trkpt lat="42.90964" lon="-1.61338">
        <ele>449.6</ele>
        <time>2021-03-07 10:50:25</time>
      </trkpt>
      <trkpt lat="42.90968" lon="-1.61341">
        <ele>450</ele>
        <time>2021-03-07 10:50:26</time>
      </trkpt>
      <trkpt lat="42.90972" lon="-1.61343">
        <ele>450.4</ele>
        <time>2021-03-07 10:50:27</time>
      </trkpt>
      <trkpt lat="42.90975" lon="-1.61346">
        <ele>450.6</ele>
        <time>2021-03-07 10:50:28</time>
      </trkpt>
      <trkpt lat="42.90979" lon="-1.61349">
        <ele>450.8</ele>
        <time>2021-03-07 10:50:29</time>
      </trkpt>
      <trkpt lat="42.90983" lon="-1.61352">
        <ele>451</ele>
        <time>2021-03-07 10:50:30</time>
      </trkpt>
      <trkpt lat="42.90987" lon="-1.61355">
        <ele>451.2</ele>
        <time>2021-03-07 10:50:31</time>
      </trkpt>
      <trkpt lat="42.9099" lon="-1.61358">
        <ele>451.4</ele>
        <time>2021-03-07 10:50:32</time>
      </trkpt>
      <trkpt lat="42.90994" lon="-1.61361">
        <ele>451.8</ele>
        <time>2021-03-07 10:50:33</time>
      </trkpt>
      <trkpt lat="42.90998" lon="-1.61364">
        <ele>452</ele>
        <time>2021-03-07 10:50:34</time>
      </trkpt>
      <trkpt lat="42.91001" lon="-1.61367">
        <ele>452.2</ele>
        <time>2021-03-07 10:50:35</time>
      </trkpt>
      <trkpt lat="42.91005" lon="-1.6137">
        <ele>452.2</ele>
        <time>2021-03-07 10:50:36</time>
      </trkpt>
      <trkpt lat="42.91008" lon="-1.61374">
        <ele>452.4</ele>
        <time>2021-03-07 10:50:37</time>
      </trkpt>
      <trkpt lat="42.91012" lon="-1.61377">
        <ele>452.6</ele>
        <time>2021-03-07 10:50:38</time>
      </trkpt>
      <trkpt lat="42.91016" lon="-1.6138">
        <ele>452.8</ele>
        <time>2021-03-07 10:50:39</time>
      </trkpt>
      <trkpt lat="42.91019" lon="-1.61384">
        <ele>453.2</ele>
        <time>2021-03-07 10:50:40</time>
      </trkpt>
      <trkpt lat="42.91023" lon="-1.61387">
        <ele>453.4</ele>
        <time>2021-03-07 10:50:41</time>
      </trkpt>
      <trkpt lat="42.91026" lon="-1.61391">
        <ele>453.6</ele>
        <time>2021-03-07 10:50:42</time>
      </trkpt>
      <trkpt lat="42.91029" lon="-1.61395">
        <ele>453.6</ele>
        <time>2021-03-07 10:50:43</time>
      </trkpt>
      <trkpt lat="42.91033" lon="-1.61398">
        <ele>453.8</ele>
        <time>2021-03-07 10:50:44</time>
      </trkpt>
      <trkpt lat="42.91036" lon="-1.61401">
        <ele>453.8</ele>
        <time>2021-03-07 10:50:45</time>
      </trkpt>
      <trkpt lat="42.9104" lon="-1.61405">
        <ele>454</ele>
        <time>2021-03-07 10:50:46</time>
      </trkpt>
      <trkpt lat="42.91043" lon="-1.61408">
        <ele>454.2</ele>
        <time>2021-03-07 10:50:47</time>
      </trkpt>
      <trkpt lat="42.91046" lon="-1.61412">
        <ele>454.4</ele>
        <time>2021-03-07 10:50:48</time>
      </trkpt>
      <trkpt lat="42.9105" lon="-1.61416">
        <ele>454.6</ele>
        <time>2021-03-07 10:50:49</time>
      </trkpt>
      <trkpt lat="42.91053" lon="-1.61419">
        <ele>454.8</ele>
        <time>2021-03-07 10:50:50</time>
      </trkpt>
      <trkpt lat="42.91056" lon="-1.61423">
        <ele>455.2</ele>
        <time>2021-03-07 10:50:51</time>
      </trkpt>
      <trkpt lat="42.91059" lon="-1.61427">
        <ele>455.2</ele>
        <time>2021-03-07 10:50:52</time>
      </trkpt>
      <trkpt lat="42.91063" lon="-1.6143">
        <ele>455.4</ele>
        <time>2021-03-07 10:50:53</time>
      </trkpt>
      <trkpt lat="42.91066" lon="-1.61434">
        <ele>455.6</ele>
        <time>2021-03-07 10:50:54</time>
      </trkpt>
      <trkpt lat="42.91069" lon="-1.61438">
        <ele>455.8</ele>
        <time>2021-03-07 10:50:55</time>
      </trkpt>
      <trkpt lat="42.91072" lon="-1.61442">
        <ele>456</ele>
        <time>2021-03-07 10:50:56</time>
      </trkpt>
      <trkpt lat="42.91075" lon="-1.61446">
        <ele>456.2</ele>
        <time>2021-03-07 10:50:57</time>
      </trkpt>
      <trkpt lat="42.91078" lon="-1.61449">
        <ele>456.2</ele>
        <time>2021-03-07 10:50:58</time>
      </trkpt>
      <trkpt lat="42.91082" lon="-1.61453">
        <ele>456.4</ele>
        <time>2021-03-07 10:50:59</time>
      </trkpt>
      <trkpt lat="42.91085" lon="-1.61456">
        <ele>456.6</ele>
        <time>2021-03-07 10:51:00</time>
      </trkpt>
      <trkpt lat="42.91088" lon="-1.6146">
        <ele>456.6</ele>
        <time>2021-03-07 10:51:01</time>
      </trkpt>
      <trkpt lat="42.91091" lon="-1.61463">
        <ele>456.8</ele>
        <time>2021-03-07 10:51:02</time>
      </trkpt>
      <trkpt lat="42.91094" lon="-1.61467">
        <ele>457</ele>
        <time>2021-03-07 10:51:03</time>
      </trkpt>
      <trkpt lat="42.91097" lon="-1.6147">
        <ele>457.2</ele>
        <time>2021-03-07 10:51:04</time>
      </trkpt>
      <trkpt lat="42.911" lon="-1.61474">
        <ele>457.4</ele>
        <time>2021-03-07 10:51:05</time>
      </trkpt>
      <trkpt lat="42.91104" lon="-1.61477">
        <ele>457.6</ele>
        <time>2021-03-07 10:51:06</time>
      </trkpt>
      <trkpt lat="42.91107" lon="-1.61481">
        <ele>457.8</ele>
        <time>2021-03-07 10:51:07</time>
      </trkpt>
      <trkpt lat="42.9111" lon="-1.61485">
        <ele>458</ele>
        <time>2021-03-07 10:51:08</time>
      </trkpt>
      <trkpt lat="42.91113" lon="-1.61489">
        <ele>458.2</ele>
        <time>2021-03-07 10:51:09</time>
      </trkpt>
      <trkpt lat="42.91116" lon="-1.61492">
        <ele>458.4</ele>
        <time>2021-03-07 10:51:10</time>
      </trkpt>
      <trkpt lat="42.9112" lon="-1.61496">
        <ele>458.4</ele>
        <time>2021-03-07 10:51:11</time>
      </trkpt>
      <trkpt lat="42.91123" lon="-1.615">
        <ele>458.6</ele>
        <time>2021-03-07 10:51:12</time>
      </trkpt>
      <trkpt lat="42.91127" lon="-1.61504">
        <ele>458.8</ele>
        <time>2021-03-07 10:51:13</time>
      </trkpt>
      <trkpt lat="42.9113" lon="-1.61508">
        <ele>459</ele>
        <time>2021-03-07 10:51:14</time>
      </trkpt>
      <trkpt lat="42.91133" lon="-1.61511">
        <ele>459.2</ele>
        <time>2021-03-07 10:51:15</time>
      </trkpt>
      <trkpt lat="42.91137" lon="-1.61515">
        <ele>459.6</ele>
        <time>2021-03-07 10:51:16</time>
      </trkpt>
      <trkpt lat="42.9114" lon="-1.61519">
        <ele>459.8</ele>
        <time>2021-03-07 10:51:17</time>
      </trkpt>
      <trkpt lat="42.91143" lon="-1.61523">
        <ele>460</ele>
        <time>2021-03-07 10:51:18</time>
      </trkpt>
      <trkpt lat="42.91146" lon="-1.61527">
        <ele>460.2</ele>
        <time>2021-03-07 10:51:19</time>
      </trkpt>
      <trkpt lat="42.9115" lon="-1.61531">
        <ele>460.4</ele>
        <time>2021-03-07 10:51:20</time>
      </trkpt>
      <trkpt lat="42.91153" lon="-1.61535">
        <ele>460.6</ele>
        <time>2021-03-07 10:51:21</time>
      </trkpt>
      <trkpt lat="42.91157" lon="-1.61539">
        <ele>460.6</ele>
        <time>2021-03-07 10:51:22</time>
      </trkpt>
      <trkpt lat="42.9116" lon="-1.61543">
        <ele>460.8</ele>
        <time>2021-03-07 10:51:23</time>
      </trkpt>
      <trkpt lat="42.91163" lon="-1.61547">
        <ele>460.8</ele>
        <time>2021-03-07 10:51:24</time>
      </trkpt>
      <trkpt lat="42.91167" lon="-1.61551">
        <ele>461</ele>
        <time>2021-03-07 10:51:25</time>
      </trkpt>
      <trkpt lat="42.9117" lon="-1.61555">
        <ele>461.2</ele>
        <time>2021-03-07 10:51:26</time>
      </trkpt>
      <trkpt lat="42.91174" lon="-1.61558">
        <ele>461.4</ele>
        <time>2021-03-07 10:51:27</time>
      </trkpt>
      <trkpt lat="42.91177" lon="-1.61562">
        <ele>461.6</ele>
        <time>2021-03-07 10:51:28</time>
      </trkpt>
      <trkpt lat="42.9118" lon="-1.61567">
        <ele>461.8</ele>
        <time>2021-03-07 10:51:29</time>
      </trkpt>
      <trkpt lat="42.91184" lon="-1.61571">
        <ele>462</ele>
        <time>2021-03-07 10:51:30</time>
      </trkpt>
      <trkpt lat="42.91187" lon="-1.61575">
        <ele>462</ele>
        <time>2021-03-07 10:51:31</time>
      </trkpt>
      <trkpt lat="42.91191" lon="-1.61579">
        <ele>462.2</ele>
        <time>2021-03-07 10:51:32</time>
      </trkpt>
      <trkpt lat="42.91194" lon="-1.61583">
        <ele>462.2</ele>
        <time>2021-03-07 10:51:33</time>
      </trkpt>
      <trkpt lat="42.91198" lon="-1.61587">
        <ele>462.4</ele>
        <time>2021-03-07 10:51:34</time>
      </trkpt>
      <trkpt lat="42.91201" lon="-1.61591">
        <ele>462.4</ele>
        <time>2021-03-07 10:51:35</time>
      </trkpt>
      <trkpt lat="42.91205" lon="-1.61596">
        <ele>462.6</ele>
        <time>2021-03-07 10:51:36</time>
      </trkpt>
      <trkpt lat="42.91208" lon="-1.616">
        <ele>462.8</ele>
        <time>2021-03-07 10:51:37</time>
      </trkpt>
      <trkpt lat="42.91212" lon="-1.61604">
        <ele>463</ele>
        <time>2021-03-07 10:51:38</time>
      </trkpt>
      <trkpt lat="42.91216" lon="-1.61608">
        <ele>463.2</ele>
        <time>2021-03-07 10:51:39</time>
      </trkpt>
      <trkpt lat="42.91219" lon="-1.61612">
        <ele>463.4</ele>
        <time>2021-03-07 10:51:40</time>
      </trkpt>
      <trkpt lat="42.91223" lon="-1.61616">
        <ele>463.4</ele>
        <time>2021-03-07 10:51:41</time>
      </trkpt>
      <trkpt lat="42.91227" lon="-1.61621">
        <ele>463.6</ele>
        <time>2021-03-07 10:51:42</time>
      </trkpt>
      <trkpt lat="42.9123" lon="-1.61625">
        <ele>463.8</ele>
        <time>2021-03-07 10:51:43</time>
      </trkpt>
      <trkpt lat="42.91234" lon="-1.61629">
        <ele>463.6</ele>
        <time>2021-03-07 10:51:44</time>
      </trkpt>
      <trkpt lat="42.91238" lon="-1.61633">
        <ele>463.8</ele>
        <time>2021-03-07 10:51:45</time>
      </trkpt>
      <trkpt lat="42.91242" lon="-1.61637">
        <ele>463.8</ele>
        <time>2021-03-07 10:51:46</time>
      </trkpt>
      <trkpt lat="42.91246" lon="-1.6164">
        <ele>464</ele>
        <time>2021-03-07 10:51:47</time>
      </trkpt>
      <trkpt lat="42.9125" lon="-1.61644">
        <ele>464.4</ele>
        <time>2021-03-07 10:51:48</time>
      </trkpt>
      <trkpt lat="42.91254" lon="-1.61648">
        <ele>464.6</ele>
        <time>2021-03-07 10:51:49</time>
      </trkpt>
      <trkpt lat="42.91258" lon="-1.61652">
        <ele>464.8</ele>
        <time>2021-03-07 10:51:50</time>
      </trkpt>
      <trkpt lat="42.91262" lon="-1.61655">
        <ele>464.8</ele>
        <time>2021-03-07 10:51:51</time>
      </trkpt>
      <trkpt lat="42.91266" lon="-1.61658">
        <ele>464.8</ele>
        <time>2021-03-07 10:51:52</time>
      </trkpt>
      <trkpt lat="42.91271" lon="-1.61662">
        <ele>465</ele>
        <time>2021-03-07 10:51:53</time>
      </trkpt>
      <trkpt lat="42.91275" lon="-1.61665">
        <ele>465.2</ele>
        <time>2021-03-07 10:51:54</time>
      </trkpt>
      <trkpt lat="42.91279" lon="-1.61668">
        <ele>465.2</ele>
        <time>2021-03-07 10:51:55</time>
      </trkpt>
      <trkpt lat="42.91284" lon="-1.61671">
        <ele>465.2</ele>
        <time>2021-03-07 10:51:56</time>
      </trkpt>
      <trkpt lat="42.91289" lon="-1.61674">
        <ele>465.4</ele>
        <time>2021-03-07 10:51:57</time>
      </trkpt>
      <trkpt lat="42.91294" lon="-1.61677">
        <ele>465.6</ele>
        <time>2021-03-07 10:51:58</time>
      </trkpt>
      <trkpt lat="42.91298" lon="-1.6168">
        <ele>465.8</ele>
        <time>2021-03-07 10:51:59</time>
      </trkpt>
      <trkpt lat="42.91303" lon="-1.61683">
        <ele>465.8</ele>
        <time>2021-03-07 10:52:00</time>
      </trkpt>
      <trkpt lat="42.91308" lon="-1.61686">
        <ele>466</ele>
        <time>2021-03-07 10:52:01</time>
      </trkpt>
      <trkpt lat="42.91313" lon="-1.61689">
        <ele>466</ele>
        <time>2021-03-07 10:52:02</time>
      </trkpt>
      <trkpt lat="42.91318" lon="-1.61693">
        <ele>466</ele>
        <time>2021-03-07 10:52:03</time>
      </trkpt>
      <trkpt lat="42.91323" lon="-1.61696">
        <ele>466</ele>
        <time>2021-03-07 10:52:04</time>
      </trkpt>
      <trkpt lat="42.91328" lon="-1.61699">
        <ele>466.2</ele>
        <time>2021-03-07 10:52:05</time>
      </trkpt>
      <trkpt lat="42.91334" lon="-1.61702">
        <ele>466.2</ele>
        <time>2021-03-07 10:52:06</time>
      </trkpt>
      <trkpt lat="42.91339" lon="-1.61705">
        <ele>466.4</ele>
        <time>2021-03-07 10:52:07</time>
      </trkpt>
      <trkpt lat="42.91345" lon="-1.61708">
        <ele>466.4</ele>
        <time>2021-03-07 10:52:08</time>
      </trkpt>
      <trkpt lat="42.9135" lon="-1.6171">
        <ele>466.4</ele>
        <time>2021-03-07 10:52:09</time>
      </trkpt>
      <trkpt lat="42.91355" lon="-1.61712">
        <ele>466.4</ele>
        <time>2021-03-07 10:52:10</time>
      </trkpt>
      <trkpt lat="42.9136" lon="-1.61714">
        <ele>466.4</ele>
        <time>2021-03-07 10:52:11</time>
      </trkpt>
      <trkpt lat="42.91365" lon="-1.61717">
        <ele>466.4</ele>
        <time>2021-03-07 10:52:12</time>
      </trkpt>
      <trkpt lat="42.91379" lon="-1.61748">
        <ele>468.2</ele>
        <time>2021-03-07 10:52:35</time>
      </trkpt>
      <trkpt lat="42.91381" lon="-1.61752">
        <ele>468</ele>
        <time>2021-03-07 10:52:36</time>
      </trkpt>
      <trkpt lat="42.91382" lon="-1.61757">
        <ele>468</ele>
        <time>2021-03-07 10:52:37</time>
      </trkpt>
      <trkpt lat="42.91384" lon="-1.61763">
        <ele>468.2</ele>
        <time>2021-03-07 10:52:38</time>
      </trkpt>
      <trkpt lat="42.91386" lon="-1.61768">
        <ele>468.2</ele>
        <time>2021-03-07 10:52:39</time>
      </trkpt>
      <trkpt lat="42.91388" lon="-1.61774">
        <ele>468</ele>
        <time>2021-03-07 10:52:40</time>
      </trkpt>
      <trkpt lat="42.9139" lon="-1.6178">
        <ele>467.8</ele>
        <time>2021-03-07 10:52:41</time>
      </trkpt>
      <trkpt lat="42.91392" lon="-1.61787">
        <ele>467.8</ele>
        <time>2021-03-07 10:52:42</time>
      </trkpt>
      <trkpt lat="42.91395" lon="-1.61794">
        <ele>467.8</ele>
        <time>2021-03-07 10:52:43</time>
      </trkpt>
      <trkpt lat="42.91398" lon="-1.61801">
        <ele>467.6</ele>
        <time>2021-03-07 10:52:44</time>
      </trkpt>
      <trkpt lat="42.91401" lon="-1.61809">
        <ele>466.8</ele>
        <time>2021-03-07 10:52:45</time>
      </trkpt>
      <trkpt lat="42.91404" lon="-1.61816">
        <ele>466.4</ele>
        <time>2021-03-07 10:52:46</time>
      </trkpt>
      <trkpt lat="42.91407" lon="-1.61825">
        <ele>466.2</ele>
        <time>2021-03-07 10:52:47</time>
      </trkpt>
      <trkpt lat="42.9141" lon="-1.61833">
        <ele>465.6</ele>
        <time>2021-03-07 10:52:48</time>
      </trkpt>
      <trkpt lat="42.91414" lon="-1.6184">
        <ele>465.2</ele>
        <time>2021-03-07 10:52:49</time>
      </trkpt>
      <trkpt lat="42.91419" lon="-1.61848">
        <ele>464.8</ele>
        <time>2021-03-07 10:52:50</time>
      </trkpt>
      <trkpt lat="42.91425" lon="-1.61854">
        <ele>464.6</ele>
        <time>2021-03-07 10:52:51</time>
      </trkpt>
      <trkpt lat="42.91431" lon="-1.61859">
        <ele>464.4</ele>
        <time>2021-03-07 10:52:52</time>
      </trkpt>
      <trkpt lat="42.91438" lon="-1.61864">
        <ele>464.2</ele>
        <time>2021-03-07 10:52:53</time>
      </trkpt>
      <trkpt lat="42.91446" lon="-1.61869">
        <ele>464</ele>
        <time>2021-03-07 10:52:54</time>
      </trkpt>
      <trkpt lat="42.91454" lon="-1.61874">
        <ele>463.8</ele>
        <time>2021-03-07 10:52:55</time>
      </trkpt>
      <trkpt lat="42.91462" lon="-1.61879">
        <ele>463.4</ele>
        <time>2021-03-07 10:52:56</time>
      </trkpt>
      <trkpt lat="42.9147" lon="-1.61885">
        <ele>463.2</ele>
        <time>2021-03-07 10:52:57</time>
      </trkpt>
      <trkpt lat="42.91479" lon="-1.61891">
        <ele>462.6</ele>
        <time>2021-03-07 10:52:58</time>
      </trkpt>
      <trkpt lat="42.91488" lon="-1.61896">
        <ele>462.2</ele>
        <time>2021-03-07 10:52:59</time>
      </trkpt>
      <trkpt lat="42.91497" lon="-1.61902">
        <ele>461.8</ele>
        <time>2021-03-07 10:53:00</time>
      </trkpt>
      <trkpt lat="42.91506" lon="-1.61908">
        <ele>461.4</ele>
        <time>2021-03-07 10:53:01</time>
      </trkpt>
      <trkpt lat="42.91516" lon="-1.61914">
        <ele>461</ele>
        <time>2021-03-07 10:53:02</time>
      </trkpt>
      <trkpt lat="42.91526" lon="-1.61919">
        <ele>460.4</ele>
        <time>2021-03-07 10:53:03</time>
      </trkpt>
      <trkpt lat="42.91536" lon="-1.61923">
        <ele>459.8</ele>
        <time>2021-03-07 10:53:04</time>
      </trkpt>
      <trkpt lat="42.91547" lon="-1.61925">
        <ele>459</ele>
        <time>2021-03-07 10:53:05</time>
      </trkpt>
      <trkpt lat="42.91558" lon="-1.61927">
        <ele>458.2</ele>
        <time>2021-03-07 10:53:06</time>
      </trkpt>
      <trkpt lat="42.91568" lon="-1.61929">
        <ele>457.4</ele>
        <time>2021-03-07 10:53:07</time>
      </trkpt>
      <trkpt lat="42.91579" lon="-1.6193">
        <ele>456.6</ele>
        <time>2021-03-07 10:53:08</time>
      </trkpt>
      <trkpt lat="42.91589" lon="-1.61931">
        <ele>456</ele>
        <time>2021-03-07 10:53:09</time>
      </trkpt>
      <trkpt lat="42.91599" lon="-1.61932">
        <ele>455.2</ele>
        <time>2021-03-07 10:53:10</time>
      </trkpt>
      <trkpt lat="42.9161" lon="-1.61935">
        <ele>454.6</ele>
        <time>2021-03-07 10:53:11</time>
      </trkpt>
      <trkpt lat="42.9162" lon="-1.61937">
        <ele>453.8</ele>
        <time>2021-03-07 10:53:12</time>
      </trkpt>
      <trkpt lat="42.9163" lon="-1.6194">
        <ele>452.4</ele>
        <time>2021-03-07 10:53:13</time>
      </trkpt>
      <trkpt lat="42.91639" lon="-1.61944">
        <ele>452.2</ele>
        <time>2021-03-07 10:53:14</time>
      </trkpt>
      <trkpt lat="42.91649" lon="-1.61948">
        <ele>452</ele>
        <time>2021-03-07 10:53:15</time>
      </trkpt>
      <trkpt lat="42.91658" lon="-1.61952">
        <ele>451.8</ele>
        <time>2021-03-07 10:53:16</time>
      </trkpt>
      <trkpt lat="42.91667" lon="-1.61956">
        <ele>451.8</ele>
        <time>2021-03-07 10:53:17</time>
      </trkpt>
      <trkpt lat="42.91676" lon="-1.6196">
        <ele>451.8</ele>
        <time>2021-03-07 10:53:18</time>
      </trkpt>
      <trkpt lat="42.91685" lon="-1.61963">
        <ele>451.6</ele>
        <time>2021-03-07 10:53:19</time>
      </trkpt>
      <trkpt lat="42.91694" lon="-1.61967">
        <ele>451.6</ele>
        <time>2021-03-07 10:53:20</time>
      </trkpt>
      <trkpt lat="42.91702" lon="-1.61971">
        <ele>451.6</ele>
        <time>2021-03-07 10:53:21</time>
      </trkpt>
      <trkpt lat="42.9171" lon="-1.61974">
        <ele>451.6</ele>
        <time>2021-03-07 10:53:22</time>
      </trkpt>
      <trkpt lat="42.91718" lon="-1.61978">
        <ele>451.6</ele>
        <time>2021-03-07 10:53:23</time>
      </trkpt>
      <trkpt lat="42.91726" lon="-1.61982">
        <ele>451.6</ele>
        <time>2021-03-07 10:53:24</time>
      </trkpt>
      <trkpt lat="42.91734" lon="-1.61985">
        <ele>451.8</ele>
        <time>2021-03-07 10:53:25</time>
      </trkpt>
      <trkpt lat="42.91742" lon="-1.61988">
        <ele>451.8</ele>
        <time>2021-03-07 10:53:26</time>
      </trkpt>
      <trkpt lat="42.91749" lon="-1.61991">
        <ele>451.8</ele>
        <time>2021-03-07 10:53:27</time>
      </trkpt>
      <trkpt lat="42.91757" lon="-1.61995">
        <ele>451.8</ele>
        <time>2021-03-07 10:53:28</time>
      </trkpt>
      <trkpt lat="42.91764" lon="-1.61999">
        <ele>452</ele>
        <time>2021-03-07 10:53:29</time>
      </trkpt>
      <trkpt lat="42.91771" lon="-1.62003">
        <ele>452.4</ele>
        <time>2021-03-07 10:53:30</time>
      </trkpt>
      <trkpt lat="42.91778" lon="-1.62009">
        <ele>452.6</ele>
        <time>2021-03-07 10:53:31</time>
      </trkpt>
      <trkpt lat="42.91785" lon="-1.62014">
        <ele>452.8</ele>
        <time>2021-03-07 10:53:32</time>
      </trkpt>
      <trkpt lat="42.91792" lon="-1.6202">
        <ele>452.8</ele>
        <time>2021-03-07 10:53:33</time>
      </trkpt>
      <trkpt lat="42.91797" lon="-1.62028">
        <ele>453</ele>
        <time>2021-03-07 10:53:34</time>
      </trkpt>
      <trkpt lat="42.91803" lon="-1.62036">
        <ele>453</ele>
        <time>2021-03-07 10:53:35</time>
      </trkpt>
      <trkpt lat="42.91807" lon="-1.62044">
        <ele>453</ele>
        <time>2021-03-07 10:53:36</time>
      </trkpt>
      <trkpt lat="42.91812" lon="-1.62053">
        <ele>453</ele>
        <time>2021-03-07 10:53:37</time>
      </trkpt>
      <trkpt lat="42.91816" lon="-1.62062">
        <ele>453</ele>
        <time>2021-03-07 10:53:38</time>
      </trkpt>
      <trkpt lat="42.9182" lon="-1.62071">
        <ele>453</ele>
        <time>2021-03-07 10:53:39</time>
      </trkpt>
      <trkpt lat="42.91825" lon="-1.6208">
        <ele>453</ele>
        <time>2021-03-07 10:53:40</time>
      </trkpt>
      <trkpt lat="42.91829" lon="-1.62088">
        <ele>453</ele>
        <time>2021-03-07 10:53:41</time>
      </trkpt>
      <trkpt lat="42.91834" lon="-1.62096">
        <ele>453</ele>
        <time>2021-03-07 10:53:42</time>
      </trkpt>
      <trkpt lat="42.91838" lon="-1.62104">
        <ele>453</ele>
        <time>2021-03-07 10:53:43</time>
      </trkpt>
      <trkpt lat="42.91843" lon="-1.6211">
        <ele>453</ele>
        <time>2021-03-07 10:53:44</time>
      </trkpt>
      <trkpt lat="42.91847" lon="-1.62117">
        <ele>453</ele>
        <time>2021-03-07 10:53:45</time>
      </trkpt>
      <trkpt lat="42.9185" lon="-1.62125">
        <ele>453</ele>
        <time>2021-03-07 10:53:46</time>
      </trkpt>
      <trkpt lat="42.91854" lon="-1.62134">
        <ele>453</ele>
        <time>2021-03-07 10:53:47</time>
      </trkpt>
      <trkpt lat="42.91857" lon="-1.62143">
        <ele>453</ele>
        <time>2021-03-07 10:53:48</time>
      </trkpt>
      <trkpt lat="42.9186" lon="-1.62152">
        <ele>453</ele>
        <time>2021-03-07 10:53:49</time>
      </trkpt>
      <trkpt lat="42.91863" lon="-1.62162">
        <ele>453</ele>
        <time>2021-03-07 10:53:50</time>
      </trkpt>
      <trkpt lat="42.91867" lon="-1.62171">
        <ele>453</ele>
        <time>2021-03-07 10:53:51</time>
      </trkpt>
      <trkpt lat="42.9187" lon="-1.6218">
        <ele>452.8</ele>
        <time>2021-03-07 10:53:52</time>
      </trkpt>
      <trkpt lat="42.91874" lon="-1.6219">
        <ele>452.8</ele>
        <time>2021-03-07 10:53:53</time>
      </trkpt>
      <trkpt lat="42.91877" lon="-1.62199">
        <ele>452.8</ele>
        <time>2021-03-07 10:53:54</time>
      </trkpt>
      <trkpt lat="42.9188" lon="-1.62208">
        <ele>452.8</ele>
        <time>2021-03-07 10:53:55</time>
      </trkpt>
      <trkpt lat="42.91884" lon="-1.62216">
        <ele>452.8</ele>
        <time>2021-03-07 10:53:56</time>
      </trkpt>
      <trkpt lat="42.91887" lon="-1.62225">
        <ele>452.8</ele>
        <time>2021-03-07 10:53:57</time>
      </trkpt>
      <trkpt lat="42.91891" lon="-1.62234">
        <ele>452.8</ele>
        <time>2021-03-07 10:53:58</time>
      </trkpt>
      <trkpt lat="42.91894" lon="-1.62243">
        <ele>452.8</ele>
        <time>2021-03-07 10:53:59</time>
      </trkpt>
      <trkpt lat="42.91898" lon="-1.62251">
        <ele>452.8</ele>
        <time>2021-03-07 10:54:00</time>
      </trkpt>
      <trkpt lat="42.91901" lon="-1.6226">
        <ele>452.8</ele>
        <time>2021-03-07 10:54:01</time>
      </trkpt>
      <trkpt lat="42.91904" lon="-1.62269">
        <ele>452.8</ele>
        <time>2021-03-07 10:54:02</time>
      </trkpt>
      <trkpt lat="42.91908" lon="-1.62277">
        <ele>452.8</ele>
        <time>2021-03-07 10:54:03</time>
      </trkpt>
      <trkpt lat="42.91912" lon="-1.62285">
        <ele>452.8</ele>
        <time>2021-03-07 10:54:04</time>
      </trkpt>
      <trkpt lat="42.91915" lon="-1.62293">
        <ele>452.8</ele>
        <time>2021-03-07 10:54:05</time>
      </trkpt>
      <trkpt lat="42.91918" lon="-1.62301">
        <ele>452.8</ele>
        <time>2021-03-07 10:54:06</time>
      </trkpt>
      <trkpt lat="42.91922" lon="-1.62309">
        <ele>453</ele>
        <time>2021-03-07 10:54:07</time>
      </trkpt>
      <trkpt lat="42.91925" lon="-1.62317">
        <ele>453</ele>
        <time>2021-03-07 10:54:08</time>
      </trkpt>
      <trkpt lat="42.91929" lon="-1.62325">
        <ele>453</ele>
        <time>2021-03-07 10:54:09</time>
      </trkpt>
      <trkpt lat="42.91932" lon="-1.62333">
        <ele>453.2</ele>
        <time>2021-03-07 10:54:10</time>
      </trkpt>
      <trkpt lat="42.91936" lon="-1.62341">
        <ele>453.2</ele>
        <time>2021-03-07 10:54:11</time>
      </trkpt>
      <trkpt lat="42.91939" lon="-1.62349">
        <ele>453.4</ele>
        <time>2021-03-07 10:54:12</time>
      </trkpt>
      <trkpt lat="42.91943" lon="-1.62356">
        <ele>453.4</ele>
        <time>2021-03-07 10:54:13</time>
      </trkpt>
      <trkpt lat="42.91946" lon="-1.62364">
        <ele>453.4</ele>
        <time>2021-03-07 10:54:14</time>
      </trkpt>
      <trkpt lat="42.9195" lon="-1.62372">
        <ele>453.6</ele>
        <time>2021-03-07 10:54:15</time>
      </trkpt>
      <trkpt lat="42.91953" lon="-1.62379">
        <ele>453.8</ele>
        <time>2021-03-07 10:54:16</time>
      </trkpt>
      <trkpt lat="42.91956" lon="-1.62387">
        <ele>453.8</ele>
        <time>2021-03-07 10:54:17</time>
      </trkpt>
      <trkpt lat="42.9196" lon="-1.62395">
        <ele>453.8</ele>
        <time>2021-03-07 10:54:18</time>
      </trkpt>
      <trkpt lat="42.91963" lon="-1.62403">
        <ele>454</ele>
        <time>2021-03-07 10:54:19</time>
      </trkpt>
      <trkpt lat="42.91967" lon="-1.6241">
        <ele>454</ele>
        <time>2021-03-07 10:54:20</time>
      </trkpt>
      <trkpt lat="42.91971" lon="-1.62418">
        <ele>454.2</ele>
        <time>2021-03-07 10:54:21</time>
      </trkpt>
      <trkpt lat="42.91974" lon="-1.62426">
        <ele>454.4</ele>
        <time>2021-03-07 10:54:22</time>
      </trkpt>
      <trkpt lat="42.91978" lon="-1.62433">
        <ele>454.4</ele>
        <time>2021-03-07 10:54:23</time>
      </trkpt>
      <trkpt lat="42.91982" lon="-1.62441">
        <ele>454.6</ele>
        <time>2021-03-07 10:54:24</time>
      </trkpt>
      <trkpt lat="42.91986" lon="-1.62448">
        <ele>454.6</ele>
        <time>2021-03-07 10:54:25</time>
      </trkpt>
      <trkpt lat="42.9199" lon="-1.62455">
        <ele>454.8</ele>
        <time>2021-03-07 10:54:26</time>
      </trkpt>
      <trkpt lat="42.91994" lon="-1.62463">
        <ele>455</ele>
        <time>2021-03-07 10:54:27</time>
      </trkpt>
      <trkpt lat="42.91998" lon="-1.6247">
        <ele>455</ele>
        <time>2021-03-07 10:54:28</time>
      </trkpt>
      <trkpt lat="42.92002" lon="-1.62477">
        <ele>455.2</ele>
        <time>2021-03-07 10:54:29</time>
      </trkpt>
      <trkpt lat="42.92006" lon="-1.62485">
        <ele>455.2</ele>
        <time>2021-03-07 10:54:30</time>
      </trkpt>
      <trkpt lat="42.9201" lon="-1.62492">
        <ele>455.4</ele>
        <time>2021-03-07 10:54:31</time>
      </trkpt>
      <trkpt lat="42.92014" lon="-1.62499">
        <ele>455.6</ele>
        <time>2021-03-07 10:54:32</time>
      </trkpt>
      <trkpt lat="42.92018" lon="-1.62506">
        <ele>455.6</ele>
        <time>2021-03-07 10:54:33</time>
      </trkpt>
      <trkpt lat="42.92022" lon="-1.62513">
        <ele>455.6</ele>
        <time>2021-03-07 10:54:34</time>
      </trkpt>
      <trkpt lat="42.92026" lon="-1.6252">
        <ele>455.6</ele>
        <time>2021-03-07 10:54:35</time>
      </trkpt>
      <trkpt lat="42.92031" lon="-1.62527">
        <ele>455.6</ele>
        <time>2021-03-07 10:54:36</time>
      </trkpt>
      <trkpt lat="42.92035" lon="-1.62534">
        <ele>455.8</ele>
        <time>2021-03-07 10:54:37</time>
      </trkpt>
      <trkpt lat="42.92039" lon="-1.62541">
        <ele>455.8</ele>
        <time>2021-03-07 10:54:38</time>
      </trkpt>
      <trkpt lat="42.92044" lon="-1.62548">
        <ele>455.8</ele>
        <time>2021-03-07 10:54:39</time>
      </trkpt>
      <trkpt lat="42.92048" lon="-1.62555">
        <ele>455.8</ele>
        <time>2021-03-07 10:54:40</time>
      </trkpt>
      <trkpt lat="42.92052" lon="-1.62562">
        <ele>455.8</ele>
        <time>2021-03-07 10:54:41</time>
      </trkpt>
      <trkpt lat="42.92056" lon="-1.62568">
        <ele>456</ele>
        <time>2021-03-07 10:54:42</time>
      </trkpt>
      <trkpt lat="42.9206" lon="-1.62575">
        <ele>456</ele>
        <time>2021-03-07 10:54:43</time>
      </trkpt>
      <trkpt lat="42.92065" lon="-1.62582">
        <ele>456</ele>
        <time>2021-03-07 10:54:44</time>
      </trkpt>
      <trkpt lat="42.92069" lon="-1.62589">
        <ele>456</ele>
        <time>2021-03-07 10:54:45</time>
      </trkpt>
      <trkpt lat="42.92073" lon="-1.62595">
        <ele>456</ele>
        <time>2021-03-07 10:54:46</time>
      </trkpt>
      <trkpt lat="42.92077" lon="-1.62602">
        <ele>456.2</ele>
        <time>2021-03-07 10:54:47</time>
      </trkpt>
      <trkpt lat="42.92081" lon="-1.62609">
        <ele>456.2</ele>
        <time>2021-03-07 10:54:48</time>
      </trkpt>
      <trkpt lat="42.92085" lon="-1.62616">
        <ele>456.2</ele>
        <time>2021-03-07 10:54:49</time>
      </trkpt>
      <trkpt lat="42.92089" lon="-1.62623">
        <ele>456.2</ele>
        <time>2021-03-07 10:54:50</time>
      </trkpt>
      <trkpt lat="42.92092" lon="-1.62629">
        <ele>456.4</ele>
        <time>2021-03-07 10:54:51</time>
      </trkpt>
      <trkpt lat="42.92097" lon="-1.62636">
        <ele>456.6</ele>
        <time>2021-03-07 10:54:52</time>
      </trkpt>
      <trkpt lat="42.92101" lon="-1.62642">
        <ele>456.6</ele>
        <time>2021-03-07 10:54:53</time>
      </trkpt>
      <trkpt lat="42.92106" lon="-1.62648">
        <ele>456.8</ele>
        <time>2021-03-07 10:54:54</time>
      </trkpt>
      <trkpt lat="42.92111" lon="-1.62653">
        <ele>456.8</ele>
        <time>2021-03-07 10:54:55</time>
      </trkpt>
      <trkpt lat="42.92116" lon="-1.62659">
        <ele>457</ele>
        <time>2021-03-07 10:54:56</time>
      </trkpt>
      <trkpt lat="42.92121" lon="-1.62663">
        <ele>457.2</ele>
        <time>2021-03-07 10:54:57</time>
      </trkpt>
      <trkpt lat="42.92127" lon="-1.62668">
        <ele>457.4</ele>
        <time>2021-03-07 10:54:58</time>
      </trkpt>
      <trkpt lat="42.92133" lon="-1.62671">
        <ele>457.4</ele>
        <time>2021-03-07 10:54:59</time>
      </trkpt>
      <trkpt lat="42.92139" lon="-1.62674">
        <ele>457.6</ele>
        <time>2021-03-07 10:55:00</time>
      </trkpt>
      <trkpt lat="42.92145" lon="-1.62676">
        <ele>457.6</ele>
        <time>2021-03-07 10:55:01</time>
      </trkpt>
      <trkpt lat="42.92151" lon="-1.62677">
        <ele>457.6</ele>
        <time>2021-03-07 10:55:02</time>
      </trkpt>
      <trkpt lat="42.92157" lon="-1.62678">
        <ele>457.8</ele>
        <time>2021-03-07 10:55:03</time>
      </trkpt>
      <trkpt lat="42.92163" lon="-1.62678">
        <ele>457.8</ele>
        <time>2021-03-07 10:55:04</time>
      </trkpt>
      <trkpt lat="42.92169" lon="-1.62679">
        <ele>457.8</ele>
        <time>2021-03-07 10:55:05</time>
      </trkpt>
      <trkpt lat="42.92175" lon="-1.62678">
        <ele>458</ele>
        <time>2021-03-07 10:55:06</time>
      </trkpt>
      <trkpt lat="42.92181" lon="-1.62678">
        <ele>458</ele>
        <time>2021-03-07 10:55:07</time>
      </trkpt>
      <trkpt lat="42.92187" lon="-1.62677">
        <ele>458.2</ele>
        <time>2021-03-07 10:55:08</time>
      </trkpt>
      <trkpt lat="42.92192" lon="-1.62677">
        <ele>458.4</ele>
        <time>2021-03-07 10:55:09</time>
      </trkpt>
      <trkpt lat="42.92198" lon="-1.62678">
        <ele>458.4</ele>
        <time>2021-03-07 10:55:10</time>
      </trkpt>
      <trkpt lat="42.92203" lon="-1.62679">
        <ele>458.4</ele>
        <time>2021-03-07 10:55:11</time>
      </trkpt>
      <trkpt lat="42.92209" lon="-1.62681">
        <ele>458.6</ele>
        <time>2021-03-07 10:55:12</time>
      </trkpt>
      <trkpt lat="42.92215" lon="-1.62681">
        <ele>459</ele>
        <time>2021-03-07 10:55:13</time>
      </trkpt>
      <trkpt lat="42.92221" lon="-1.6268">
        <ele>459.2</ele>
        <time>2021-03-07 10:55:14</time>
      </trkpt>
      <trkpt lat="42.92227" lon="-1.62679">
        <ele>459.2</ele>
        <time>2021-03-07 10:55:15</time>
      </trkpt>
      <trkpt lat="42.92233" lon="-1.62679">
        <ele>459.4</ele>
        <time>2021-03-07 10:55:16</time>
      </trkpt>
      <trkpt lat="42.92238" lon="-1.62678">
        <ele>459.6</ele>
        <time>2021-03-07 10:55:17</time>
      </trkpt>
      <trkpt lat="42.92244" lon="-1.62677">
        <ele>459.8</ele>
        <time>2021-03-07 10:55:18</time>
      </trkpt>
      <trkpt lat="42.92249" lon="-1.62675">
        <ele>459.8</ele>
        <time>2021-03-07 10:55:19</time>
      </trkpt>
      <trkpt lat="42.92254" lon="-1.62674">
        <ele>460</ele>
        <time>2021-03-07 10:55:20</time>
      </trkpt>
      <trkpt lat="42.92259" lon="-1.62673">
        <ele>460</ele>
        <time>2021-03-07 10:55:21</time>
      </trkpt>
      <trkpt lat="42.92264" lon="-1.62672">
        <ele>460.2</ele>
        <time>2021-03-07 10:55:22</time>
      </trkpt>
      <trkpt lat="42.92269" lon="-1.62671">
        <ele>460.4</ele>
        <time>2021-03-07 10:55:23</time>
      </trkpt>
      <trkpt lat="42.92274" lon="-1.62671">
        <ele>460.4</ele>
        <time>2021-03-07 10:55:24</time>
      </trkpt>
      <trkpt lat="42.92279" lon="-1.6267">
        <ele>460.6</ele>
        <time>2021-03-07 10:55:25</time>
      </trkpt>
      <trkpt lat="42.92283" lon="-1.62669">
        <ele>460.8</ele>
        <time>2021-03-07 10:55:26</time>
      </trkpt>
      <trkpt lat="42.92288" lon="-1.62669">
        <ele>461.2</ele>
        <time>2021-03-07 10:55:27</time>
      </trkpt>
      <trkpt lat="42.92293" lon="-1.62669">
        <ele>461.4</ele>
        <time>2021-03-07 10:55:28</time>
      </trkpt>
      <trkpt lat="42.92298" lon="-1.62668">
        <ele>461.8</ele>
        <time>2021-03-07 10:55:29</time>
      </trkpt>
      <trkpt lat="42.92303" lon="-1.62669">
        <ele>462</ele>
        <time>2021-03-07 10:55:30</time>
      </trkpt>
      <trkpt lat="42.92307" lon="-1.62669">
        <ele>462.2</ele>
        <time>2021-03-07 10:55:31</time>
      </trkpt>
      <trkpt lat="42.92312" lon="-1.62669">
        <ele>462.4</ele>
        <time>2021-03-07 10:55:32</time>
      </trkpt>
      <trkpt lat="42.92317" lon="-1.62671">
        <ele>462.6</ele>
        <time>2021-03-07 10:55:33</time>
      </trkpt>
      <trkpt lat="42.92322" lon="-1.62672">
        <ele>462.8</ele>
        <time>2021-03-07 10:55:34</time>
      </trkpt>
      <trkpt lat="42.92328" lon="-1.62674">
        <ele>463</ele>
        <time>2021-03-07 10:55:35</time>
      </trkpt>
      <trkpt lat="42.92333" lon="-1.62675">
        <ele>463.2</ele>
        <time>2021-03-07 10:55:36</time>
      </trkpt>
      <trkpt lat="42.92339" lon="-1.62677">
        <ele>463.4</ele>
        <time>2021-03-07 10:55:37</time>
      </trkpt>
      <trkpt lat="42.92344" lon="-1.62679">
        <ele>463.6</ele>
        <time>2021-03-07 10:55:38</time>
      </trkpt>
      <trkpt lat="42.92349" lon="-1.6268">
        <ele>464</ele>
        <time>2021-03-07 10:55:39</time>
      </trkpt>
      <trkpt lat="42.92355" lon="-1.62682">
        <ele>464.2</ele>
        <time>2021-03-07 10:55:40</time>
      </trkpt>
      <trkpt lat="42.9236" lon="-1.62683">
        <ele>464.6</ele>
        <time>2021-03-07 10:55:41</time>
      </trkpt>
      <trkpt lat="42.92366" lon="-1.62685">
        <ele>464.8</ele>
        <time>2021-03-07 10:55:42</time>
      </trkpt>
      <trkpt lat="42.92371" lon="-1.62686">
        <ele>465</ele>
        <time>2021-03-07 10:55:43</time>
      </trkpt>
      <trkpt lat="42.92377" lon="-1.62688">
        <ele>465.2</ele>
        <time>2021-03-07 10:55:44</time>
      </trkpt>
      <trkpt lat="42.92382" lon="-1.6269">
        <ele>465.4</ele>
        <time>2021-03-07 10:55:45</time>
      </trkpt>
      <trkpt lat="42.92387" lon="-1.62692">
        <ele>465.6</ele>
        <time>2021-03-07 10:55:46</time>
      </trkpt>
      <trkpt lat="42.92393" lon="-1.62694">
        <ele>465.8</ele>
        <time>2021-03-07 10:55:47</time>
      </trkpt>
      <trkpt lat="42.92398" lon="-1.62696">
        <ele>466</ele>
        <time>2021-03-07 10:55:48</time>
      </trkpt>
      <trkpt lat="42.92403" lon="-1.62698">
        <ele>466</ele>
        <time>2021-03-07 10:55:49</time>
      </trkpt>
      <trkpt lat="42.92409" lon="-1.627">
        <ele>466.2</ele>
        <time>2021-03-07 10:55:50</time>
      </trkpt>
      <trkpt lat="42.92415" lon="-1.62702">
        <ele>466.2</ele>
        <time>2021-03-07 10:55:51</time>
      </trkpt>
      <trkpt lat="42.92421" lon="-1.62704">
        <ele>466.4</ele>
        <time>2021-03-07 10:55:52</time>
      </trkpt>
      <trkpt lat="42.92427" lon="-1.62705">
        <ele>466.4</ele>
        <time>2021-03-07 10:55:53</time>
      </trkpt>
      <trkpt lat="42.92433" lon="-1.62707">
        <ele>466.6</ele>
        <time>2021-03-07 10:55:54</time>
      </trkpt>
      <trkpt lat="42.92439" lon="-1.62709">
        <ele>466.6</ele>
        <time>2021-03-07 10:55:55</time>
      </trkpt>
      <trkpt lat="42.92446" lon="-1.62711">
        <ele>466.8</ele>
        <time>2021-03-07 10:55:56</time>
      </trkpt>
      <trkpt lat="42.92452" lon="-1.62713">
        <ele>466.8</ele>
        <time>2021-03-07 10:55:57</time>
      </trkpt>
      <trkpt lat="42.92459" lon="-1.62716">
        <ele>466.8</ele>
        <time>2021-03-07 10:55:58</time>
      </trkpt>
      <trkpt lat="42.92466" lon="-1.62718">
        <ele>466.8</ele>
        <time>2021-03-07 10:55:59</time>
      </trkpt>
      <trkpt lat="42.92472" lon="-1.62721">
        <ele>466.8</ele>
        <time>2021-03-07 10:56:00</time>
      </trkpt>
      <trkpt lat="42.92479" lon="-1.62724">
        <ele>466.8</ele>
        <time>2021-03-07 10:56:01</time>
      </trkpt>
      <trkpt lat="42.92486" lon="-1.62727">
        <ele>466.8</ele>
        <time>2021-03-07 10:56:02</time>
      </trkpt>
      <trkpt lat="42.92493" lon="-1.62731">
        <ele>466.8</ele>
        <time>2021-03-07 10:56:03</time>
      </trkpt>
      <trkpt lat="42.925" lon="-1.62734">
        <ele>466.8</ele>
        <time>2021-03-07 10:56:04</time>
      </trkpt>
      <trkpt lat="42.92507" lon="-1.62738">
        <ele>466.8</ele>
        <time>2021-03-07 10:56:05</time>
      </trkpt>
      <trkpt lat="42.92514" lon="-1.62743">
        <ele>466.8</ele>
        <time>2021-03-07 10:56:06</time>
      </trkpt>
      <trkpt lat="42.92522" lon="-1.62747">
        <ele>466.6</ele>
        <time>2021-03-07 10:56:07</time>
      </trkpt>
      <trkpt lat="42.92529" lon="-1.62752">
        <ele>466.6</ele>
        <time>2021-03-07 10:56:08</time>
      </trkpt>
      <trkpt lat="42.92537" lon="-1.62757">
        <ele>466.4</ele>
        <time>2021-03-07 10:56:09</time>
      </trkpt>
      <trkpt lat="42.92544" lon="-1.62762">
        <ele>466.2</ele>
        <time>2021-03-07 10:56:10</time>
      </trkpt>
      <trkpt lat="42.92552" lon="-1.62767">
        <ele>466.2</ele>
        <time>2021-03-07 10:56:11</time>
      </trkpt>
      <trkpt lat="42.9256" lon="-1.62772">
        <ele>466</ele>
        <time>2021-03-07 10:56:12</time>
      </trkpt>
      <trkpt lat="42.92567" lon="-1.62777">
        <ele>465.8</ele>
        <time>2021-03-07 10:56:13</time>
      </trkpt>
      <trkpt lat="42.92575" lon="-1.62783">
        <ele>465.6</ele>
        <time>2021-03-07 10:56:14</time>
      </trkpt>
      <trkpt lat="42.92583" lon="-1.62788">
        <ele>465.2</ele>
        <time>2021-03-07 10:56:15</time>
      </trkpt>
      <trkpt lat="42.92591" lon="-1.62793">
        <ele>464.8</ele>
        <time>2021-03-07 10:56:16</time>
      </trkpt>
      <trkpt lat="42.92599" lon="-1.62799">
        <ele>464.4</ele>
        <time>2021-03-07 10:56:17</time>
      </trkpt>
      <trkpt lat="42.92608" lon="-1.62804">
        <ele>464</ele>
        <time>2021-03-07 10:56:18</time>
      </trkpt>
      <trkpt lat="42.92616" lon="-1.62809">
        <ele>463.8</ele>
        <time>2021-03-07 10:56:19</time>
      </trkpt>
      <trkpt lat="42.92625" lon="-1.62815">
        <ele>463.6</ele>
        <time>2021-03-07 10:56:20</time>
      </trkpt>
      <trkpt lat="42.92633" lon="-1.6282">
        <ele>463.2</ele>
        <time>2021-03-07 10:56:21</time>
      </trkpt>
      <trkpt lat="42.92642" lon="-1.62825">
        <ele>463</ele>
        <time>2021-03-07 10:56:22</time>
      </trkpt>
      <trkpt lat="42.92651" lon="-1.62831">
        <ele>462.6</ele>
        <time>2021-03-07 10:56:23</time>
      </trkpt>
      <trkpt lat="42.92659" lon="-1.62837">
        <ele>462.4</ele>
        <time>2021-03-07 10:56:24</time>
      </trkpt>
      <trkpt lat="42.92668" lon="-1.62843">
        <ele>462</ele>
        <time>2021-03-07 10:56:25</time>
      </trkpt>
      <trkpt lat="42.92677" lon="-1.62849">
        <ele>461.6</ele>
        <time>2021-03-07 10:56:26</time>
      </trkpt>
      <trkpt lat="42.92685" lon="-1.62856">
        <ele>461.4</ele>
        <time>2021-03-07 10:56:27</time>
      </trkpt>
      <trkpt lat="42.92694" lon="-1.62863">
        <ele>461</ele>
        <time>2021-03-07 10:56:28</time>
      </trkpt>
      <trkpt lat="42.92702" lon="-1.6287">
        <ele>460.8</ele>
        <time>2021-03-07 10:56:29</time>
      </trkpt>
      <trkpt lat="42.9271" lon="-1.62878">
        <ele>460.4</ele>
        <time>2021-03-07 10:56:30</time>
      </trkpt>
      <trkpt lat="42.92718" lon="-1.62886">
        <ele>460</ele>
        <time>2021-03-07 10:56:31</time>
      </trkpt>
      <trkpt lat="42.92726" lon="-1.62894">
        <ele>459.6</ele>
        <time>2021-03-07 10:56:32</time>
      </trkpt>
      <trkpt lat="42.92733" lon="-1.62902">
        <ele>459.2</ele>
        <time>2021-03-07 10:56:33</time>
      </trkpt>
      <trkpt lat="42.9274" lon="-1.62911">
        <ele>459</ele>
        <time>2021-03-07 10:56:34</time>
      </trkpt>
      <trkpt lat="42.92747" lon="-1.6292">
        <ele>458.8</ele>
        <time>2021-03-07 10:56:35</time>
      </trkpt>
      <trkpt lat="42.92754" lon="-1.62928">
        <ele>458.4</ele>
        <time>2021-03-07 10:56:36</time>
      </trkpt>
      <trkpt lat="42.9276" lon="-1.62937">
        <ele>458</ele>
        <time>2021-03-07 10:56:37</time>
      </trkpt>
      <trkpt lat="42.92766" lon="-1.62946">
        <ele>457.8</ele>
        <time>2021-03-07 10:56:38</time>
      </trkpt>
      <trkpt lat="42.92772" lon="-1.62955">
        <ele>457.4</ele>
        <time>2021-03-07 10:56:39</time>
      </trkpt>
      <trkpt lat="42.92778" lon="-1.62964">
        <ele>457.4</ele>
        <time>2021-03-07 10:56:40</time>
      </trkpt>
      <trkpt lat="42.92783" lon="-1.62972">
        <ele>457.4</ele>
        <time>2021-03-07 10:56:41</time>
      </trkpt>
      <trkpt lat="42.92789" lon="-1.62981">
        <ele>457.4</ele>
        <time>2021-03-07 10:56:42</time>
      </trkpt>
      <trkpt lat="42.92794" lon="-1.6299">
        <ele>457.4</ele>
        <time>2021-03-07 10:56:43</time>
      </trkpt>
      <trkpt lat="42.928" lon="-1.62999">
        <ele>457.4</ele>
        <time>2021-03-07 10:56:44</time>
      </trkpt>
      <trkpt lat="42.92805" lon="-1.63007">
        <ele>457.4</ele>
        <time>2021-03-07 10:56:45</time>
      </trkpt>
      <trkpt lat="42.92811" lon="-1.63016">
        <ele>457.4</ele>
        <time>2021-03-07 10:56:46</time>
      </trkpt>
      <trkpt lat="42.92816" lon="-1.63025">
        <ele>457.4</ele>
        <time>2021-03-07 10:56:47</time>
      </trkpt>
      <trkpt lat="42.92821" lon="-1.63033">
        <ele>457.4</ele>
        <time>2021-03-07 10:56:48</time>
      </trkpt>
      <trkpt lat="42.92827" lon="-1.63042">
        <ele>457.4</ele>
        <time>2021-03-07 10:56:49</time>
      </trkpt>
      <trkpt lat="42.92832" lon="-1.63051">
        <ele>457.6</ele>
        <time>2021-03-07 10:56:50</time>
      </trkpt>
      <trkpt lat="42.92837" lon="-1.63059">
        <ele>457.6</ele>
        <time>2021-03-07 10:56:51</time>
      </trkpt>
      <trkpt lat="42.92842" lon="-1.63068">
        <ele>457.6</ele>
        <time>2021-03-07 10:56:52</time>
      </trkpt>
      <trkpt lat="42.92847" lon="-1.63076">
        <ele>457.8</ele>
        <time>2021-03-07 10:56:53</time>
      </trkpt>
      <trkpt lat="42.92852" lon="-1.63084">
        <ele>458</ele>
        <time>2021-03-07 10:56:54</time>
      </trkpt>
      <trkpt lat="42.92857" lon="-1.63092">
        <ele>458.2</ele>
        <time>2021-03-07 10:56:55</time>
      </trkpt>
      <trkpt lat="42.92862" lon="-1.63101">
        <ele>458.2</ele>
        <time>2021-03-07 10:56:56</time>
      </trkpt>
      <trkpt lat="42.92868" lon="-1.63109">
        <ele>458.4</ele>
        <time>2021-03-07 10:56:57</time>
      </trkpt>
      <trkpt lat="42.92873" lon="-1.63117">
        <ele>458.4</ele>
        <time>2021-03-07 10:56:58</time>
      </trkpt>
      <trkpt lat="42.92878" lon="-1.63125">
        <ele>458.4</ele>
        <time>2021-03-07 10:56:59</time>
      </trkpt>
      <trkpt lat="42.92883" lon="-1.63133">
        <ele>458.4</ele>
        <time>2021-03-07 10:57:00</time>
      </trkpt>
      <trkpt lat="42.92888" lon="-1.63141">
        <ele>458.6</ele>
        <time>2021-03-07 10:57:01</time>
      </trkpt>
      <trkpt lat="42.92893" lon="-1.63149">
        <ele>458.4</ele>
        <time>2021-03-07 10:57:02</time>
      </trkpt>
      <trkpt lat="42.92897" lon="-1.63158">
        <ele>458.4</ele>
        <time>2021-03-07 10:57:03</time>
      </trkpt>
      <trkpt lat="42.92902" lon="-1.63166">
        <ele>458.6</ele>
        <time>2021-03-07 10:57:04</time>
      </trkpt>
      <trkpt lat="42.92907" lon="-1.63174">
        <ele>458.6</ele>
        <time>2021-03-07 10:57:05</time>
      </trkpt>
      <trkpt lat="42.92912" lon="-1.63183">
        <ele>458.6</ele>
        <time>2021-03-07 10:57:06</time>
      </trkpt>
      <trkpt lat="42.92916" lon="-1.63192">
        <ele>458.6</ele>
        <time>2021-03-07 10:57:07</time>
      </trkpt>
      <trkpt lat="42.9292" lon="-1.63201">
        <ele>458.8</ele>
        <time>2021-03-07 10:57:08</time>
      </trkpt>
      <trkpt lat="42.92924" lon="-1.6321">
        <ele>458.8</ele>
        <time>2021-03-07 10:57:09</time>
      </trkpt>
      <trkpt lat="42.92927" lon="-1.63219">
        <ele>459</ele>
        <time>2021-03-07 10:57:10</time>
      </trkpt>
      <trkpt lat="42.9293" lon="-1.63229">
        <ele>459.2</ele>
        <time>2021-03-07 10:57:11</time>
      </trkpt>
      <trkpt lat="42.92934" lon="-1.63238">
        <ele>459.2</ele>
        <time>2021-03-07 10:57:12</time>
      </trkpt>
      <trkpt lat="42.92936" lon="-1.63248">
        <ele>459.4</ele>
        <time>2021-03-07 10:57:13</time>
      </trkpt>
      <trkpt lat="42.92938" lon="-1.63258">
        <ele>459.4</ele>
        <time>2021-03-07 10:57:14</time>
      </trkpt>
      <trkpt lat="42.9294" lon="-1.63268">
        <ele>459.4</ele>
        <time>2021-03-07 10:57:15</time>
      </trkpt>
      <trkpt lat="42.92942" lon="-1.63278">
        <ele>459.4</ele>
        <time>2021-03-07 10:57:16</time>
      </trkpt>
      <trkpt lat="42.92944" lon="-1.63289">
        <ele>459.4</ele>
        <time>2021-03-07 10:57:17</time>
      </trkpt>
      <trkpt lat="42.92946" lon="-1.63299">
        <ele>459.6</ele>
        <time>2021-03-07 10:57:18</time>
      </trkpt>
      <trkpt lat="42.92947" lon="-1.6331">
        <ele>459.6</ele>
        <time>2021-03-07 10:57:19</time>
      </trkpt>
      <trkpt lat="42.92949" lon="-1.6332">
        <ele>459.6</ele>
        <time>2021-03-07 10:57:20</time>
      </trkpt>
      <trkpt lat="42.9295" lon="-1.6333">
        <ele>459.6</ele>
        <time>2021-03-07 10:57:21</time>
      </trkpt>
      <trkpt lat="42.92952" lon="-1.63341">
        <ele>459.6</ele>
        <time>2021-03-07 10:57:22</time>
      </trkpt>
      <trkpt lat="42.92954" lon="-1.63351">
        <ele>459.6</ele>
        <time>2021-03-07 10:57:23</time>
      </trkpt>
      <trkpt lat="42.92955" lon="-1.63361">
        <ele>459.6</ele>
        <time>2021-03-07 10:57:24</time>
      </trkpt>
      <trkpt lat="42.92957" lon="-1.63371">
        <ele>459.6</ele>
        <time>2021-03-07 10:57:25</time>
      </trkpt>
      <trkpt lat="42.92958" lon="-1.63382">
        <ele>459.6</ele>
        <time>2021-03-07 10:57:26</time>
      </trkpt>
      <trkpt lat="42.9296" lon="-1.63392">
        <ele>459.6</ele>
        <time>2021-03-07 10:57:27</time>
      </trkpt>
      <trkpt lat="42.92961" lon="-1.63402">
        <ele>459.6</ele>
        <time>2021-03-07 10:57:28</time>
      </trkpt>
      <trkpt lat="42.92963" lon="-1.63411">
        <ele>459.6</ele>
        <time>2021-03-07 10:57:29</time>
      </trkpt>
      <trkpt lat="42.92964" lon="-1.63421">
        <ele>459.6</ele>
        <time>2021-03-07 10:57:30</time>
      </trkpt>
      <trkpt lat="42.92966" lon="-1.63431">
        <ele>459.6</ele>
        <time>2021-03-07 10:57:31</time>
      </trkpt>
      <trkpt lat="42.92967" lon="-1.6344">
        <ele>459.6</ele>
        <time>2021-03-07 10:57:32</time>
      </trkpt>
      <trkpt lat="42.92968" lon="-1.6345">
        <ele>459.6</ele>
        <time>2021-03-07 10:57:33</time>
      </trkpt>
      <trkpt lat="42.92969" lon="-1.63459">
        <ele>459.6</ele>
        <time>2021-03-07 10:57:34</time>
      </trkpt>
      <trkpt lat="42.92983" lon="-1.63541">
        <ele>463.8</ele>
        <time>2021-03-07 11:00:44</time>
      </trkpt>
      <trkpt lat="42.92984" lon="-1.63547">
        <ele>463.8</ele>
        <time>2021-03-07 11:00:45</time>
      </trkpt>
      <trkpt lat="42.92986" lon="-1.63554">
        <ele>463.6</ele>
        <time>2021-03-07 11:00:46</time>
      </trkpt>
      <trkpt lat="42.92988" lon="-1.63561">
        <ele>463.6</ele>
        <time>2021-03-07 11:00:47</time>
      </trkpt>
      <trkpt lat="42.9299" lon="-1.63568">
        <ele>463.6</ele>
        <time>2021-03-07 11:00:48</time>
      </trkpt>
      <trkpt lat="42.92993" lon="-1.63574">
        <ele>463.4</ele>
        <time>2021-03-07 11:00:49</time>
      </trkpt>
      <trkpt lat="42.92996" lon="-1.63581">
        <ele>463.4</ele>
        <time>2021-03-07 11:00:50</time>
      </trkpt>
      <trkpt lat="42.92999" lon="-1.63588">
        <ele>463.4</ele>
        <time>2021-03-07 11:00:51</time>
      </trkpt>
      <trkpt lat="42.93003" lon="-1.63594">
        <ele>463.4</ele>
        <time>2021-03-07 11:00:52</time>
      </trkpt>
      <trkpt lat="42.93007" lon="-1.636">
        <ele>463.4</ele>
        <time>2021-03-07 11:00:53</time>
      </trkpt>
      <trkpt lat="42.93011" lon="-1.63606">
        <ele>463.4</ele>
        <time>2021-03-07 11:00:54</time>
      </trkpt>
      <trkpt lat="42.93016" lon="-1.63611">
        <ele>463.4</ele>
        <time>2021-03-07 11:00:55</time>
      </trkpt>
      <trkpt lat="42.93021" lon="-1.63616">
        <ele>463.6</ele>
        <time>2021-03-07 11:00:56</time>
      </trkpt>
      <trkpt lat="42.93025" lon="-1.63621">
        <ele>463.6</ele>
        <time>2021-03-07 11:00:57</time>
      </trkpt>
      <trkpt lat="42.9303" lon="-1.63625">
        <ele>463.6</ele>
        <time>2021-03-07 11:00:58</time>
      </trkpt>
      <trkpt lat="42.93035" lon="-1.6363">
        <ele>463.6</ele>
        <time>2021-03-07 11:00:59</time>
      </trkpt>
      <trkpt lat="42.9304" lon="-1.63635">
        <ele>463.6</ele>
        <time>2021-03-07 11:01:00</time>
      </trkpt>
      <trkpt lat="42.93045" lon="-1.6364">
        <ele>463.8</ele>
        <time>2021-03-07 11:01:01</time>
      </trkpt>
      <trkpt lat="42.9305" lon="-1.63645">
        <ele>464</ele>
        <time>2021-03-07 11:01:02</time>
      </trkpt>
      <trkpt lat="42.93055" lon="-1.6365">
        <ele>464</ele>
        <time>2021-03-07 11:01:03</time>
      </trkpt>
      <trkpt lat="42.93059" lon="-1.63654">
        <ele>464.2</ele>
        <time>2021-03-07 11:01:04</time>
      </trkpt>
      <trkpt lat="42.93064" lon="-1.63658">
        <ele>464.4</ele>
        <time>2021-03-07 11:01:05</time>
      </trkpt>
      <trkpt lat="42.93069" lon="-1.63662">
        <ele>464.6</ele>
        <time>2021-03-07 11:01:06</time>
      </trkpt>
      <trkpt lat="42.93073" lon="-1.63666">
        <ele>464.6</ele>
        <time>2021-03-07 11:01:07</time>
      </trkpt>
      <trkpt lat="42.93078" lon="-1.6367">
        <ele>464.8</ele>
        <time>2021-03-07 11:01:08</time>
      </trkpt>
      <trkpt lat="42.93083" lon="-1.63672">
        <ele>464.8</ele>
        <time>2021-03-07 11:01:09</time>
      </trkpt>
      <trkpt lat="42.93088" lon="-1.63675">
        <ele>465</ele>
        <time>2021-03-07 11:01:10</time>
      </trkpt>
      <trkpt lat="42.93093" lon="-1.63676">
        <ele>465.2</ele>
        <time>2021-03-07 11:01:11</time>
      </trkpt>
      <trkpt lat="42.93098" lon="-1.63676">
        <ele>465.4</ele>
        <time>2021-03-07 11:01:12</time>
      </trkpt>
      <trkpt lat="42.93103" lon="-1.63676">
        <ele>465.8</ele>
        <time>2021-03-07 11:01:13</time>
      </trkpt>
      <trkpt lat="42.93108" lon="-1.63675">
        <ele>466</ele>
        <time>2021-03-07 11:01:14</time>
      </trkpt>
      <trkpt lat="42.93113" lon="-1.63674">
        <ele>466.2</ele>
        <time>2021-03-07 11:01:15</time>
      </trkpt>
      <trkpt lat="42.93119" lon="-1.63672">
        <ele>466.6</ele>
        <time>2021-03-07 11:01:16</time>
      </trkpt>
      <trkpt lat="42.93124" lon="-1.6367">
        <ele>467</ele>
        <time>2021-03-07 11:01:17</time>
      </trkpt>
      <trkpt lat="42.93129" lon="-1.63668">
        <ele>467.2</ele>
        <time>2021-03-07 11:01:18</time>
      </trkpt>
      <trkpt lat="42.93135" lon="-1.63665">
        <ele>467.4</ele>
        <time>2021-03-07 11:01:19</time>
      </trkpt>
      <trkpt lat="42.9314" lon="-1.63663">
        <ele>467.6</ele>
        <time>2021-03-07 11:01:20</time>
      </trkpt>
      <trkpt lat="42.93145" lon="-1.6366">
        <ele>467.8</ele>
        <time>2021-03-07 11:01:21</time>
      </trkpt>
      <trkpt lat="42.93151" lon="-1.63659">
        <ele>468.2</ele>
        <time>2021-03-07 11:01:22</time>
      </trkpt>
      <trkpt lat="42.93156" lon="-1.63657">
        <ele>468.4</ele>
        <time>2021-03-07 11:01:23</time>
      </trkpt>
      <trkpt lat="42.93162" lon="-1.63656">
        <ele>468.6</ele>
        <time>2021-03-07 11:01:24</time>
      </trkpt>
      <trkpt lat="42.93168" lon="-1.63656">
        <ele>468.8</ele>
        <time>2021-03-07 11:01:25</time>
      </trkpt>
      <trkpt lat="42.93174" lon="-1.63656">
        <ele>469</ele>
        <time>2021-03-07 11:01:26</time>
      </trkpt>
      <trkpt lat="42.93179" lon="-1.63656">
        <ele>469</ele>
        <time>2021-03-07 11:01:27</time>
      </trkpt>
      <trkpt lat="42.93185" lon="-1.63657">
        <ele>469.2</ele>
        <time>2021-03-07 11:01:28</time>
      </trkpt>
      <trkpt lat="42.93191" lon="-1.63658">
        <ele>469.4</ele>
        <time>2021-03-07 11:01:29</time>
      </trkpt>
      <trkpt lat="42.93197" lon="-1.63659">
        <ele>469.4</ele>
        <time>2021-03-07 11:01:30</time>
      </trkpt>
      <trkpt lat="42.93203" lon="-1.6366">
        <ele>469.6</ele>
        <time>2021-03-07 11:01:31</time>
      </trkpt>
      <trkpt lat="42.93208" lon="-1.63662">
        <ele>470</ele>
        <time>2021-03-07 11:01:32</time>
      </trkpt>
      <trkpt lat="42.93214" lon="-1.63664">
        <ele>470.2</ele>
        <time>2021-03-07 11:01:33</time>
      </trkpt>
      <trkpt lat="42.9322" lon="-1.63666">
        <ele>470.4</ele>
        <time>2021-03-07 11:01:34</time>
      </trkpt>
      <trkpt lat="42.93225" lon="-1.63668">
        <ele>470.4</ele>
        <time>2021-03-07 11:01:35</time>
      </trkpt>
      <trkpt lat="42.93231" lon="-1.6367">
        <ele>470.6</ele>
        <time>2021-03-07 11:01:36</time>
      </trkpt>
      <trkpt lat="42.93236" lon="-1.63672">
        <ele>470.6</ele>
        <time>2021-03-07 11:01:37</time>
      </trkpt>
      <trkpt lat="42.93242" lon="-1.63674">
        <ele>470.8</ele>
        <time>2021-03-07 11:01:38</time>
      </trkpt>
      <trkpt lat="42.93247" lon="-1.63676">
        <ele>471</ele>
        <time>2021-03-07 11:01:39</time>
      </trkpt>
      <trkpt lat="42.93253" lon="-1.63678">
        <ele>471</ele>
        <time>2021-03-07 11:01:40</time>
      </trkpt>
      <trkpt lat="42.93258" lon="-1.6368">
        <ele>471.2</ele>
        <time>2021-03-07 11:01:41</time>
      </trkpt>
      <trkpt lat="42.93263" lon="-1.63682">
        <ele>471.2</ele>
        <time>2021-03-07 11:01:42</time>
      </trkpt>
      <trkpt lat="42.93269" lon="-1.63684">
        <ele>471.4</ele>
        <time>2021-03-07 11:01:43</time>
      </trkpt>
      <trkpt lat="42.93274" lon="-1.63685">
        <ele>471.8</ele>
        <time>2021-03-07 11:01:44</time>
      </trkpt>
      <trkpt lat="42.9328" lon="-1.63687">
        <ele>472</ele>
        <time>2021-03-07 11:01:45</time>
      </trkpt>
      <trkpt lat="42.93285" lon="-1.63689">
        <ele>472.2</ele>
        <time>2021-03-07 11:01:46</time>
      </trkpt>
      <trkpt lat="42.93291" lon="-1.63691">
        <ele>472.4</ele>
        <time>2021-03-07 11:01:47</time>
      </trkpt>
      <trkpt lat="42.93297" lon="-1.63693">
        <ele>472.6</ele>
        <time>2021-03-07 11:01:48</time>
      </trkpt>
      <trkpt lat="42.93302" lon="-1.63695">
        <ele>473</ele>
        <time>2021-03-07 11:01:49</time>
      </trkpt>
      <trkpt lat="42.93308" lon="-1.63697">
        <ele>473.2</ele>
        <time>2021-03-07 11:01:50</time>
      </trkpt>
      <trkpt lat="42.93314" lon="-1.637">
        <ele>473.6</ele>
        <time>2021-03-07 11:01:51</time>
      </trkpt>
      <trkpt lat="42.9332" lon="-1.63702">
        <ele>473.6</ele>
        <time>2021-03-07 11:01:52</time>
      </trkpt>
      <trkpt lat="42.93326" lon="-1.63704">
        <ele>473.8</ele>
        <time>2021-03-07 11:01:53</time>
      </trkpt>
      <trkpt lat="42.93332" lon="-1.63706">
        <ele>474</ele>
        <time>2021-03-07 11:01:54</time>
      </trkpt>
      <trkpt lat="42.93338" lon="-1.63708">
        <ele>474</ele>
        <time>2021-03-07 11:01:55</time>
      </trkpt>
      <trkpt lat="42.93344" lon="-1.6371">
        <ele>474.2</ele>
        <time>2021-03-07 11:01:56</time>
      </trkpt>
      <trkpt lat="42.9335" lon="-1.63713">
        <ele>474.2</ele>
        <time>2021-03-07 11:01:57</time>
      </trkpt>
      <trkpt lat="42.93356" lon="-1.63715">
        <ele>474.4</ele>
        <time>2021-03-07 11:01:58</time>
      </trkpt>
      <trkpt lat="42.93362" lon="-1.63717">
        <ele>474.4</ele>
        <time>2021-03-07 11:01:59</time>
      </trkpt>
      <trkpt lat="42.93368" lon="-1.63719">
        <ele>474.6</ele>
        <time>2021-03-07 11:02:00</time>
      </trkpt>
      <trkpt lat="42.93374" lon="-1.63721">
        <ele>474.6</ele>
        <time>2021-03-07 11:02:01</time>
      </trkpt>
      <trkpt lat="42.9338" lon="-1.63723">
        <ele>474.8</ele>
        <time>2021-03-07 11:02:02</time>
      </trkpt>
      <trkpt lat="42.93387" lon="-1.63726">
        <ele>474.8</ele>
        <time>2021-03-07 11:02:03</time>
      </trkpt>
      <trkpt lat="42.93393" lon="-1.63728">
        <ele>475</ele>
        <time>2021-03-07 11:02:04</time>
      </trkpt>
      <trkpt lat="42.93399" lon="-1.6373">
        <ele>475</ele>
        <time>2021-03-07 11:02:05</time>
      </trkpt>
      <trkpt lat="42.93406" lon="-1.63733">
        <ele>475.2</ele>
        <time>2021-03-07 11:02:06</time>
      </trkpt>
      <trkpt lat="42.93412" lon="-1.63735">
        <ele>475.4</ele>
        <time>2021-03-07 11:02:07</time>
      </trkpt>
      <trkpt lat="42.93418" lon="-1.63737">
        <ele>475.4</ele>
        <time>2021-03-07 11:02:08</time>
      </trkpt>
      <trkpt lat="42.93424" lon="-1.63739">
        <ele>475.4</ele>
        <time>2021-03-07 11:02:09</time>
      </trkpt>
      <trkpt lat="42.9343" lon="-1.63742">
        <ele>475.4</ele>
        <time>2021-03-07 11:02:10</time>
      </trkpt>
      <trkpt lat="42.93436" lon="-1.63744">
        <ele>475.6</ele>
        <time>2021-03-07 11:02:11</time>
      </trkpt>
      <trkpt lat="42.93442" lon="-1.63746">
        <ele>475.6</ele>
        <time>2021-03-07 11:02:12</time>
      </trkpt>
      <trkpt lat="42.93447" lon="-1.63748">
        <ele>475.6</ele>
        <time>2021-03-07 11:02:13</time>
      </trkpt>
      <trkpt lat="42.93453" lon="-1.6375">
        <ele>475.8</ele>
        <time>2021-03-07 11:02:14</time>
      </trkpt>
      <trkpt lat="42.93458" lon="-1.63752">
        <ele>475.8</ele>
        <time>2021-03-07 11:02:15</time>
      </trkpt>
      <trkpt lat="42.93464" lon="-1.63754">
        <ele>475.8</ele>
        <time>2021-03-07 11:02:16</time>
      </trkpt>
      <trkpt lat="42.93469" lon="-1.63755">
        <ele>475.8</ele>
        <time>2021-03-07 11:02:17</time>
      </trkpt>
      <trkpt lat="42.93475" lon="-1.63757">
        <ele>476</ele>
        <time>2021-03-07 11:02:18</time>
      </trkpt>
      <trkpt lat="42.9348" lon="-1.63759">
        <ele>476.2</ele>
        <time>2021-03-07 11:02:19</time>
      </trkpt>
      <trkpt lat="42.93486" lon="-1.63761">
        <ele>476.6</ele>
        <time>2021-03-07 11:02:20</time>
      </trkpt>
      <trkpt lat="42.93491" lon="-1.63762">
        <ele>476.8</ele>
        <time>2021-03-07 11:02:21</time>
      </trkpt>
      <trkpt lat="42.93496" lon="-1.63764">
        <ele>476.8</ele>
        <time>2021-03-07 11:02:22</time>
      </trkpt>
      <trkpt lat="42.93501" lon="-1.63765">
        <ele>476.8</ele>
        <time>2021-03-07 11:02:23</time>
      </trkpt>
      <trkpt lat="42.93506" lon="-1.63767">
        <ele>477</ele>
        <time>2021-03-07 11:02:24</time>
      </trkpt>
      <trkpt lat="42.93511" lon="-1.63768">
        <ele>477.2</ele>
        <time>2021-03-07 11:02:25</time>
      </trkpt>
      <trkpt lat="42.93516" lon="-1.6377">
        <ele>477.4</ele>
        <time>2021-03-07 11:02:26</time>
      </trkpt>
      <trkpt lat="42.93521" lon="-1.63772">
        <ele>477.6</ele>
        <time>2021-03-07 11:02:27</time>
      </trkpt>
      <trkpt lat="42.93526" lon="-1.63773">
        <ele>478</ele>
        <time>2021-03-07 11:02:28</time>
      </trkpt>
      <trkpt lat="42.9353" lon="-1.63775">
        <ele>478</ele>
        <time>2021-03-07 11:02:29</time>
      </trkpt>
      <trkpt lat="42.93535" lon="-1.63776">
        <ele>478.4</ele>
        <time>2021-03-07 11:02:30</time>
      </trkpt>
      <trkpt lat="42.9354" lon="-1.63778">
        <ele>478.8</ele>
        <time>2021-03-07 11:02:31</time>
      </trkpt>
      <trkpt lat="42.93545" lon="-1.6378">
        <ele>479</ele>
        <time>2021-03-07 11:02:32</time>
      </trkpt>
      <trkpt lat="42.9355" lon="-1.63782">
        <ele>479.2</ele>
        <time>2021-03-07 11:02:33</time>
      </trkpt>
      <trkpt lat="42.93555" lon="-1.63784">
        <ele>479.4</ele>
        <time>2021-03-07 11:02:34</time>
      </trkpt>
      <trkpt lat="42.93559" lon="-1.63786">
        <ele>479.4</ele>
        <time>2021-03-07 11:02:35</time>
      </trkpt>
      <trkpt lat="42.93564" lon="-1.63788">
        <ele>479.4</ele>
        <time>2021-03-07 11:02:36</time>
      </trkpt>
      <trkpt lat="42.93569" lon="-1.6379">
        <ele>479.6</ele>
        <time>2021-03-07 11:02:37</time>
      </trkpt>
      <trkpt lat="42.93574" lon="-1.63792">
        <ele>479.8</ele>
        <time>2021-03-07 11:02:38</time>
      </trkpt>
      <trkpt lat="42.93579" lon="-1.63794">
        <ele>480</ele>
        <time>2021-03-07 11:02:39</time>
      </trkpt>
      <trkpt lat="42.93584" lon="-1.63796">
        <ele>480.4</ele>
        <time>2021-03-07 11:02:40</time>
      </trkpt>
      <trkpt lat="42.93588" lon="-1.63798">
        <ele>480.6</ele>
        <time>2021-03-07 11:02:41</time>
      </trkpt>
      <trkpt lat="42.93593" lon="-1.638">
        <ele>480.6</ele>
        <time>2021-03-07 11:02:42</time>
      </trkpt>
      <trkpt lat="42.93598" lon="-1.63802">
        <ele>480.8</ele>
        <time>2021-03-07 11:02:43</time>
      </trkpt>
      <trkpt lat="42.93603" lon="-1.63803">
        <ele>481</ele>
        <time>2021-03-07 11:02:44</time>
      </trkpt>
      <trkpt lat="42.93608" lon="-1.63805">
        <ele>481.4</ele>
        <time>2021-03-07 11:02:45</time>
      </trkpt>
      <trkpt lat="42.93613" lon="-1.63807">
        <ele>482</ele>
        <time>2021-03-07 11:02:46</time>
      </trkpt>
      <trkpt lat="42.93618" lon="-1.63809">
        <ele>482.4</ele>
        <time>2021-03-07 11:02:47</time>
      </trkpt>
      <trkpt lat="42.93623" lon="-1.63811">
        <ele>482.6</ele>
        <time>2021-03-07 11:02:48</time>
      </trkpt>
      <trkpt lat="42.93628" lon="-1.63812">
        <ele>482.8</ele>
        <time>2021-03-07 11:02:49</time>
      </trkpt>
      <trkpt lat="42.93633" lon="-1.63814">
        <ele>482.8</ele>
        <time>2021-03-07 11:02:50</time>
      </trkpt>
      <trkpt lat="42.93637" lon="-1.63816">
        <ele>483</ele>
        <time>2021-03-07 11:02:51</time>
      </trkpt>
      <trkpt lat="42.93642" lon="-1.63817">
        <ele>483.2</ele>
        <time>2021-03-07 11:02:52</time>
      </trkpt>
      <trkpt lat="42.93647" lon="-1.63819">
        <ele>483.2</ele>
        <time>2021-03-07 11:02:53</time>
      </trkpt>
      <trkpt lat="42.93652" lon="-1.63821">
        <ele>483.6</ele>
        <time>2021-03-07 11:02:54</time>
      </trkpt>
      <trkpt lat="42.93657" lon="-1.63823">
        <ele>483.8</ele>
        <time>2021-03-07 11:02:55</time>
      </trkpt>
      <trkpt lat="42.93662" lon="-1.63825">
        <ele>483.8</ele>
        <time>2021-03-07 11:02:56</time>
      </trkpt>
      <trkpt lat="42.93667" lon="-1.63827">
        <ele>484.2</ele>
        <time>2021-03-07 11:02:57</time>
      </trkpt>
      <trkpt lat="42.93672" lon="-1.63828">
        <ele>484.4</ele>
        <time>2021-03-07 11:02:58</time>
      </trkpt>
      <trkpt lat="42.93677" lon="-1.6383">
        <ele>484.4</ele>
        <time>2021-03-07 11:02:59</time>
      </trkpt>
      <trkpt lat="42.93682" lon="-1.63832">
        <ele>484.8</ele>
        <time>2021-03-07 11:03:00</time>
      </trkpt>
      <trkpt lat="42.93687" lon="-1.63833">
        <ele>485</ele>
        <time>2021-03-07 11:03:01</time>
      </trkpt>
      <trkpt lat="42.93692" lon="-1.63835">
        <ele>485.2</ele>
        <time>2021-03-07 11:03:02</time>
      </trkpt>
      <trkpt lat="42.93697" lon="-1.63837">
        <ele>485.2</ele>
        <time>2021-03-07 11:03:03</time>
      </trkpt>
      <trkpt lat="42.93702" lon="-1.63839">
        <ele>485.4</ele>
        <time>2021-03-07 11:03:04</time>
      </trkpt>
      <trkpt lat="42.93707" lon="-1.6384">
        <ele>485.4</ele>
        <time>2021-03-07 11:03:05</time>
      </trkpt>
      <trkpt lat="42.93712" lon="-1.63842">
        <ele>485.6</ele>
        <time>2021-03-07 11:03:06</time>
      </trkpt>
      <trkpt lat="42.93717" lon="-1.63844">
        <ele>485.8</ele>
        <time>2021-03-07 11:03:07</time>
      </trkpt>
      <trkpt lat="42.93722" lon="-1.63846">
        <ele>486</ele>
        <time>2021-03-07 11:03:08</time>
      </trkpt>
      <trkpt lat="42.93727" lon="-1.63848">
        <ele>486.2</ele>
        <time>2021-03-07 11:03:09</time>
      </trkpt>
      <trkpt lat="42.93732" lon="-1.6385">
        <ele>486.4</ele>
        <time>2021-03-07 11:03:10</time>
      </trkpt>
      <trkpt lat="42.93737" lon="-1.63851">
        <ele>486.6</ele>
        <time>2021-03-07 11:03:11</time>
      </trkpt>
      <trkpt lat="42.93742" lon="-1.63853">
        <ele>486.8</ele>
        <time>2021-03-07 11:03:12</time>
      </trkpt>
      <trkpt lat="42.93747" lon="-1.63855">
        <ele>486.8</ele>
        <time>2021-03-07 11:03:13</time>
      </trkpt>
      <trkpt lat="42.93752" lon="-1.63857">
        <ele>487</ele>
        <time>2021-03-07 11:03:14</time>
      </trkpt>
      <trkpt lat="42.93757" lon="-1.63858">
        <ele>487.2</ele>
        <time>2021-03-07 11:03:15</time>
      </trkpt>
      <trkpt lat="42.93762" lon="-1.6386">
        <ele>487.4</ele>
        <time>2021-03-07 11:03:16</time>
      </trkpt>
      <trkpt lat="42.93768" lon="-1.63862">
        <ele>487.6</ele>
        <time>2021-03-07 11:03:17</time>
      </trkpt>
      <trkpt lat="42.93773" lon="-1.63864">
        <ele>487.6</ele>
        <time>2021-03-07 11:03:18</time>
      </trkpt>
      <trkpt lat="42.93778" lon="-1.63865">
        <ele>487.8</ele>
        <time>2021-03-07 11:03:19</time>
      </trkpt>
      <trkpt lat="42.93784" lon="-1.63867">
        <ele>487.8</ele>
        <time>2021-03-07 11:03:20</time>
      </trkpt>
      <trkpt lat="42.93789" lon="-1.63869">
        <ele>488</ele>
        <time>2021-03-07 11:03:21</time>
      </trkpt>
      <trkpt lat="42.93794" lon="-1.63871">
        <ele>488.2</ele>
        <time>2021-03-07 11:03:22</time>
      </trkpt>
      <trkpt lat="42.938" lon="-1.63873">
        <ele>488.4</ele>
        <time>2021-03-07 11:03:23</time>
      </trkpt>
      <trkpt lat="42.93805" lon="-1.63875">
        <ele>488.6</ele>
        <time>2021-03-07 11:03:24</time>
      </trkpt>
      <trkpt lat="42.93811" lon="-1.63877">
        <ele>488.8</ele>
        <time>2021-03-07 11:03:25</time>
      </trkpt>
      <trkpt lat="42.93816" lon="-1.63879">
        <ele>488.8</ele>
        <time>2021-03-07 11:03:26</time>
      </trkpt>
      <trkpt lat="42.93821" lon="-1.63881">
        <ele>489</ele>
        <time>2021-03-07 11:03:27</time>
      </trkpt>
      <trkpt lat="42.93827" lon="-1.63883">
        <ele>489</ele>
        <time>2021-03-07 11:03:28</time>
      </trkpt>
      <trkpt lat="42.93832" lon="-1.63885">
        <ele>489.2</ele>
        <time>2021-03-07 11:03:29</time>
      </trkpt>
      <trkpt lat="42.93838" lon="-1.63887">
        <ele>489.4</ele>
        <time>2021-03-07 11:03:30</time>
      </trkpt>
      <trkpt lat="42.93843" lon="-1.6389">
        <ele>489.4</ele>
        <time>2021-03-07 11:03:31</time>
      </trkpt>
      <trkpt lat="42.93849" lon="-1.63892">
        <ele>489.6</ele>
        <time>2021-03-07 11:03:32</time>
      </trkpt>
      <trkpt lat="42.93855" lon="-1.63896">
        <ele>489.8</ele>
        <time>2021-03-07 11:03:33</time>
      </trkpt>
      <trkpt lat="42.93861" lon="-1.63899">
        <ele>489.8</ele>
        <time>2021-03-07 11:03:34</time>
      </trkpt>
      <trkpt lat="42.93867" lon="-1.63903">
        <ele>490</ele>
        <time>2021-03-07 11:03:35</time>
      </trkpt>
      <trkpt lat="42.93873" lon="-1.63907">
        <ele>490</ele>
        <time>2021-03-07 11:03:36</time>
      </trkpt>
      <trkpt lat="42.9388" lon="-1.63911">
        <ele>490</ele>
        <time>2021-03-07 11:03:37</time>
      </trkpt>
      <trkpt lat="42.93886" lon="-1.63916">
        <ele>490</ele>
        <time>2021-03-07 11:03:38</time>
      </trkpt>
      <trkpt lat="42.93892" lon="-1.63921">
        <ele>490</ele>
        <time>2021-03-07 11:03:39</time>
      </trkpt>
      <trkpt lat="42.93899" lon="-1.63926">
        <ele>490</ele>
        <time>2021-03-07 11:03:40</time>
      </trkpt>
      <trkpt lat="42.93905" lon="-1.63932">
        <ele>490</ele>
        <time>2021-03-07 11:03:41</time>
      </trkpt>
      <trkpt lat="42.93912" lon="-1.63937">
        <ele>490</ele>
        <time>2021-03-07 11:03:42</time>
      </trkpt>
      <trkpt lat="42.93918" lon="-1.63943">
        <ele>489.8</ele>
        <time>2021-03-07 11:03:43</time>
      </trkpt>
      <trkpt lat="42.93925" lon="-1.6395">
        <ele>489.6</ele>
        <time>2021-03-07 11:03:44</time>
      </trkpt>
      <trkpt lat="42.93932" lon="-1.63956">
        <ele>489.4</ele>
        <time>2021-03-07 11:03:45</time>
      </trkpt>
      <trkpt lat="42.93939" lon="-1.63962">
        <ele>489</ele>
        <time>2021-03-07 11:03:46</time>
      </trkpt>
      <trkpt lat="42.93946" lon="-1.63969">
        <ele>488.6</ele>
        <time>2021-03-07 11:03:47</time>
      </trkpt>
      <trkpt lat="42.93953" lon="-1.63976">
        <ele>488.4</ele>
        <time>2021-03-07 11:03:48</time>
      </trkpt>
      <trkpt lat="42.9396" lon="-1.63983">
        <ele>488</ele>
        <time>2021-03-07 11:03:49</time>
      </trkpt>
      <trkpt lat="42.93967" lon="-1.6399">
        <ele>487.8</ele>
        <time>2021-03-07 11:03:50</time>
      </trkpt>
      <trkpt lat="42.93974" lon="-1.63997">
        <ele>487.4</ele>
        <time>2021-03-07 11:03:51</time>
      </trkpt>
      <trkpt lat="42.93982" lon="-1.64004">
        <ele>487.2</ele>
        <time>2021-03-07 11:03:52</time>
      </trkpt>
      <trkpt lat="42.93989" lon="-1.64011">
        <ele>486.8</ele>
        <time>2021-03-07 11:03:53</time>
      </trkpt>
      <trkpt lat="42.93997" lon="-1.64018">
        <ele>486.6</ele>
        <time>2021-03-07 11:03:54</time>
      </trkpt>
      <trkpt lat="42.94004" lon="-1.64026">
        <ele>486</ele>
        <time>2021-03-07 11:03:55</time>
      </trkpt>
      <trkpt lat="42.94011" lon="-1.64033">
        <ele>485.6</ele>
        <time>2021-03-07 11:03:56</time>
      </trkpt>
      <trkpt lat="42.94019" lon="-1.6404">
        <ele>485.4</ele>
        <time>2021-03-07 11:03:57</time>
      </trkpt>
      <trkpt lat="42.94026" lon="-1.64048">
        <ele>485.2</ele>
        <time>2021-03-07 11:03:58</time>
      </trkpt>
      <trkpt lat="42.94034" lon="-1.64055">
        <ele>485</ele>
        <time>2021-03-07 11:03:59</time>
      </trkpt>
      <trkpt lat="42.94042" lon="-1.64063">
        <ele>484.6</ele>
        <time>2021-03-07 11:04:00</time>
      </trkpt>
      <trkpt lat="42.94049" lon="-1.6407">
        <ele>484.2</ele>
        <time>2021-03-07 11:04:01</time>
      </trkpt>
      <trkpt lat="42.94057" lon="-1.64078">
        <ele>483.8</ele>
        <time>2021-03-07 11:04:02</time>
      </trkpt>
      <trkpt lat="42.94064" lon="-1.64085">
        <ele>483.6</ele>
        <time>2021-03-07 11:04:03</time>
      </trkpt>
      <trkpt lat="42.94072" lon="-1.64092">
        <ele>483.2</ele>
        <time>2021-03-07 11:04:04</time>
      </trkpt>
      <trkpt lat="42.9408" lon="-1.641">
        <ele>482.8</ele>
        <time>2021-03-07 11:04:05</time>
      </trkpt>
      <trkpt lat="42.94088" lon="-1.64107">
        <ele>482.6</ele>
        <time>2021-03-07 11:04:06</time>
      </trkpt>
      <trkpt lat="42.94096" lon="-1.64114">
        <ele>482.4</ele>
        <time>2021-03-07 11:04:07</time>
      </trkpt>
      <trkpt lat="42.94105" lon="-1.6412">
        <ele>482.2</ele>
        <time>2021-03-07 11:04:08</time>
      </trkpt>
      <trkpt lat="42.94114" lon="-1.64126">
        <ele>482</ele>
        <time>2021-03-07 11:04:09</time>
      </trkpt>
      <trkpt lat="42.94123" lon="-1.6413">
        <ele>481.6</ele>
        <time>2021-03-07 11:04:10</time>
      </trkpt>
      <trkpt lat="42.94133" lon="-1.64132">
        <ele>481.4</ele>
        <time>2021-03-07 11:04:11</time>
      </trkpt>
      <trkpt lat="42.94143" lon="-1.64132">
        <ele>481</ele>
        <time>2021-03-07 11:04:12</time>
      </trkpt>
      <trkpt lat="42.94153" lon="-1.64132">
        <ele>480.8</ele>
        <time>2021-03-07 11:04:13</time>
      </trkpt>
      <trkpt lat="42.94162" lon="-1.64131">
        <ele>480.6</ele>
        <time>2021-03-07 11:04:14</time>
      </trkpt>
      <trkpt lat="42.94172" lon="-1.64129">
        <ele>480.2</ele>
        <time>2021-03-07 11:04:15</time>
      </trkpt>
      <trkpt lat="42.94182" lon="-1.64128">
        <ele>479.8</ele>
        <time>2021-03-07 11:04:16</time>
      </trkpt>
      <trkpt lat="42.94192" lon="-1.64126">
        <ele>479.6</ele>
        <time>2021-03-07 11:04:17</time>
      </trkpt>
      <trkpt lat="42.94201" lon="-1.64123">
        <ele>479.4</ele>
        <time>2021-03-07 11:04:18</time>
      </trkpt>
      <trkpt lat="42.94211" lon="-1.64121">
        <ele>478.8</ele>
        <time>2021-03-07 11:04:19</time>
      </trkpt>
      <trkpt lat="42.9422" lon="-1.6412">
        <ele>478.6</ele>
        <time>2021-03-07 11:04:20</time>
      </trkpt>
      <trkpt lat="42.9423" lon="-1.64117">
        <ele>478.4</ele>
        <time>2021-03-07 11:04:21</time>
      </trkpt>
      <trkpt lat="42.9424" lon="-1.64115">
        <ele>478.2</ele>
        <time>2021-03-07 11:04:22</time>
      </trkpt>
      <trkpt lat="42.94249" lon="-1.64114">
        <ele>478</ele>
        <time>2021-03-07 11:04:23</time>
      </trkpt>
      <trkpt lat="42.94259" lon="-1.64113">
        <ele>478</ele>
        <time>2021-03-07 11:04:24</time>
      </trkpt>
      <trkpt lat="42.94268" lon="-1.64113">
        <ele>478</ele>
        <time>2021-03-07 11:04:25</time>
      </trkpt>
      <trkpt lat="42.94278" lon="-1.64115">
        <ele>477.8</ele>
        <time>2021-03-07 11:04:26</time>
      </trkpt>
      <trkpt lat="42.94287" lon="-1.64118">
        <ele>477.8</ele>
        <time>2021-03-07 11:04:27</time>
      </trkpt>
      <trkpt lat="42.94295" lon="-1.64123">
        <ele>477.8</ele>
        <time>2021-03-07 11:04:28</time>
      </trkpt>
      <trkpt lat="42.94303" lon="-1.64129">
        <ele>477.8</ele>
        <time>2021-03-07 11:04:29</time>
      </trkpt>
      <trkpt lat="42.94309" lon="-1.64137">
        <ele>477.8</ele>
        <time>2021-03-07 11:04:30</time>
      </trkpt>
      <trkpt lat="42.94315" lon="-1.64146">
        <ele>477.8</ele>
        <time>2021-03-07 11:04:31</time>
      </trkpt>
      <trkpt lat="42.9432" lon="-1.64156">
        <ele>477.8</ele>
        <time>2021-03-07 11:04:32</time>
      </trkpt>
      <trkpt lat="42.94324" lon="-1.64167">
        <ele>477.8</ele>
        <time>2021-03-07 11:04:33</time>
      </trkpt>
      <trkpt lat="42.94326" lon="-1.64178">
        <ele>477.8</ele>
        <time>2021-03-07 11:04:34</time>
      </trkpt>
      <trkpt lat="42.94328" lon="-1.64189">
        <ele>477.8</ele>
        <time>2021-03-07 11:04:35</time>
      </trkpt>
      <trkpt lat="42.94329" lon="-1.64201">
        <ele>477.8</ele>
        <time>2021-03-07 11:04:36</time>
      </trkpt>
      <trkpt lat="42.94328" lon="-1.64212">
        <ele>477.8</ele>
        <time>2021-03-07 11:04:37</time>
      </trkpt>
      <trkpt lat="42.94328" lon="-1.64224">
        <ele>477.8</ele>
        <time>2021-03-07 11:04:38</time>
      </trkpt>
      <trkpt lat="42.94327" lon="-1.64235">
        <ele>477.8</ele>
        <time>2021-03-07 11:04:39</time>
      </trkpt>
      <trkpt lat="42.94327" lon="-1.64246">
        <ele>477.8</ele>
        <time>2021-03-07 11:04:40</time>
      </trkpt>
      <trkpt lat="42.94326" lon="-1.64257">
        <ele>477.8</ele>
        <time>2021-03-07 11:04:41</time>
      </trkpt>
      <trkpt lat="42.94325" lon="-1.64268">
        <ele>477.8</ele>
        <time>2021-03-07 11:04:42</time>
      </trkpt>
      <trkpt lat="42.94325" lon="-1.6428">
        <ele>477.8</ele>
        <time>2021-03-07 11:04:43</time>
      </trkpt>
      <trkpt lat="42.94324" lon="-1.64291">
        <ele>477.8</ele>
        <time>2021-03-07 11:04:44</time>
      </trkpt>
      <trkpt lat="42.94324" lon="-1.64302">
        <ele>477.8</ele>
        <time>2021-03-07 11:04:45</time>
      </trkpt>
      <trkpt lat="42.94323" lon="-1.64314">
        <ele>477.8</ele>
        <time>2021-03-07 11:04:46</time>
      </trkpt>
      <trkpt lat="42.94322" lon="-1.64325">
        <ele>477.8</ele>
        <time>2021-03-07 11:04:47</time>
      </trkpt>
      <trkpt lat="42.94322" lon="-1.64337">
        <ele>477.8</ele>
        <time>2021-03-07 11:04:48</time>
      </trkpt>
      <trkpt lat="42.94321" lon="-1.64348">
        <ele>477.8</ele>
        <time>2021-03-07 11:04:49</time>
      </trkpt>
      <trkpt lat="42.9432" lon="-1.6436">
        <ele>477.8</ele>
        <time>2021-03-07 11:04:50</time>
      </trkpt>
      <trkpt lat="42.9432" lon="-1.64371">
        <ele>477.6</ele>
        <time>2021-03-07 11:04:51</time>
      </trkpt>
      <trkpt lat="42.94319" lon="-1.64383">
        <ele>477.6</ele>
        <time>2021-03-07 11:04:52</time>
      </trkpt>
      <trkpt lat="42.94319" lon="-1.64395">
        <ele>477.4</ele>
        <time>2021-03-07 11:04:53</time>
      </trkpt>
      <trkpt lat="42.94318" lon="-1.64406">
        <ele>477.2</ele>
        <time>2021-03-07 11:04:54</time>
      </trkpt>
      <trkpt lat="42.94317" lon="-1.64417">
        <ele>477.2</ele>
        <time>2021-03-07 11:04:55</time>
      </trkpt>
      <trkpt lat="42.94317" lon="-1.64429">
        <ele>477</ele>
        <time>2021-03-07 11:04:56</time>
      </trkpt>
      <trkpt lat="42.94317" lon="-1.6444">
        <ele>477</ele>
        <time>2021-03-07 11:04:57</time>
      </trkpt>
      <trkpt lat="42.94316" lon="-1.64452">
        <ele>477</ele>
        <time>2021-03-07 11:04:58</time>
      </trkpt>
      <trkpt lat="42.94316" lon="-1.64464">
        <ele>477</ele>
        <time>2021-03-07 11:04:59</time>
      </trkpt>
      <trkpt lat="42.94315" lon="-1.64475">
        <ele>477</ele>
        <time>2021-03-07 11:05:00</time>
      </trkpt>
      <trkpt lat="42.94315" lon="-1.64487">
        <ele>476.8</ele>
        <time>2021-03-07 11:05:01</time>
      </trkpt>
      <trkpt lat="42.94316" lon="-1.64498">
        <ele>476.8</ele>
        <time>2021-03-07 11:05:02</time>
      </trkpt>
      <trkpt lat="42.94317" lon="-1.6451">
        <ele>476.8</ele>
        <time>2021-03-07 11:05:03</time>
      </trkpt>
      <trkpt lat="42.94319" lon="-1.64521">
        <ele>476.8</ele>
        <time>2021-03-07 11:05:04</time>
      </trkpt>
      <trkpt lat="42.94323" lon="-1.64531">
        <ele>476.8</ele>
        <time>2021-03-07 11:05:05</time>
      </trkpt>
      <trkpt lat="42.94327" lon="-1.64541">
        <ele>476.8</ele>
        <time>2021-03-07 11:05:06</time>
      </trkpt>
      <trkpt lat="42.94333" lon="-1.6455">
        <ele>476.6</ele>
        <time>2021-03-07 11:05:07</time>
      </trkpt>
      <trkpt lat="42.94339" lon="-1.64558">
        <ele>476.6</ele>
        <time>2021-03-07 11:05:08</time>
      </trkpt>
      <trkpt lat="42.94346" lon="-1.64565">
        <ele>476.4</ele>
        <time>2021-03-07 11:05:09</time>
      </trkpt>
      <trkpt lat="42.94353" lon="-1.64571">
        <ele>476.4</ele>
        <time>2021-03-07 11:05:10</time>
      </trkpt>
      <trkpt lat="42.94361" lon="-1.64577">
        <ele>476.4</ele>
        <time>2021-03-07 11:05:11</time>
      </trkpt>
      <trkpt lat="42.94368" lon="-1.64582">
        <ele>476.2</ele>
        <time>2021-03-07 11:05:12</time>
      </trkpt>
      <trkpt lat="42.94376" lon="-1.64587">
        <ele>476.2</ele>
        <time>2021-03-07 11:05:13</time>
      </trkpt>
      <trkpt lat="42.94384" lon="-1.64593">
        <ele>476.2</ele>
        <time>2021-03-07 11:05:14</time>
      </trkpt>
      <trkpt lat="42.94392" lon="-1.64598">
        <ele>476.2</ele>
        <time>2021-03-07 11:05:15</time>
      </trkpt>
      <trkpt lat="42.944" lon="-1.64603">
        <ele>476</ele>
        <time>2021-03-07 11:05:16</time>
      </trkpt>
      <trkpt lat="42.94408" lon="-1.64608">
        <ele>476</ele>
        <time>2021-03-07 11:05:17</time>
      </trkpt>
      <trkpt lat="42.94417" lon="-1.64613">
        <ele>476</ele>
        <time>2021-03-07 11:05:18</time>
      </trkpt>
      <trkpt lat="42.94425" lon="-1.64619">
        <ele>475.8</ele>
        <time>2021-03-07 11:05:19</time>
      </trkpt>
      <trkpt lat="42.94433" lon="-1.64624">
        <ele>475.8</ele>
        <time>2021-03-07 11:05:20</time>
      </trkpt>
      <trkpt lat="42.94442" lon="-1.6463">
        <ele>475.8</ele>
        <time>2021-03-07 11:05:21</time>
      </trkpt>
      <trkpt lat="42.9445" lon="-1.64635">
        <ele>475.6</ele>
        <time>2021-03-07 11:05:22</time>
      </trkpt>
      <trkpt lat="42.94458" lon="-1.6464">
        <ele>475.4</ele>
        <time>2021-03-07 11:05:23</time>
      </trkpt>
      <trkpt lat="42.94467" lon="-1.64646">
        <ele>475.2</ele>
        <time>2021-03-07 11:05:24</time>
      </trkpt>
      <trkpt lat="42.94475" lon="-1.64651">
        <ele>474.8</ele>
        <time>2021-03-07 11:05:25</time>
      </trkpt>
      <trkpt lat="42.94482" lon="-1.64656">
        <ele>474.4</ele>
        <time>2021-03-07 11:05:26</time>
      </trkpt>
      <trkpt lat="42.9449" lon="-1.6466">
        <ele>474.2</ele>
        <time>2021-03-07 11:05:27</time>
      </trkpt>
      <trkpt lat="42.94498" lon="-1.64666">
        <ele>474</ele>
        <time>2021-03-07 11:05:28</time>
      </trkpt>
      <trkpt lat="42.94506" lon="-1.64671">
        <ele>473.8</ele>
        <time>2021-03-07 11:05:29</time>
      </trkpt>
      <trkpt lat="42.94513" lon="-1.64675">
        <ele>473.8</ele>
        <time>2021-03-07 11:05:30</time>
      </trkpt>
      <trkpt lat="42.94521" lon="-1.6468">
        <ele>473.8</ele>
        <time>2021-03-07 11:05:31</time>
      </trkpt>
      <trkpt lat="42.94528" lon="-1.64684">
        <ele>473.8</ele>
        <time>2021-03-07 11:05:32</time>
      </trkpt>
      <trkpt lat="42.94535" lon="-1.64689">
        <ele>473.8</ele>
        <time>2021-03-07 11:05:33</time>
      </trkpt>
      <trkpt lat="42.94542" lon="-1.64693">
        <ele>473.8</ele>
        <time>2021-03-07 11:05:34</time>
      </trkpt>
      <trkpt lat="42.94549" lon="-1.64697">
        <ele>473.8</ele>
        <time>2021-03-07 11:05:35</time>
      </trkpt>
      <trkpt lat="42.94556" lon="-1.64701">
        <ele>473.8</ele>
        <time>2021-03-07 11:05:36</time>
      </trkpt>
      <trkpt lat="42.94563" lon="-1.64705">
        <ele>473.8</ele>
        <time>2021-03-07 11:05:37</time>
      </trkpt>
      <trkpt lat="42.94569" lon="-1.64709">
        <ele>474</ele>
        <time>2021-03-07 11:05:38</time>
      </trkpt>
      <trkpt lat="42.94576" lon="-1.64714">
        <ele>474.2</ele>
        <time>2021-03-07 11:05:39</time>
      </trkpt>
      <trkpt lat="42.94582" lon="-1.64718">
        <ele>474.2</ele>
        <time>2021-03-07 11:05:40</time>
      </trkpt>
      <trkpt lat="42.94589" lon="-1.64721">
        <ele>474.6</ele>
        <time>2021-03-07 11:05:41</time>
      </trkpt>
      <trkpt lat="42.94595" lon="-1.64725">
        <ele>474.8</ele>
        <time>2021-03-07 11:05:42</time>
      </trkpt>
      <trkpt lat="42.94602" lon="-1.64729">
        <ele>475</ele>
        <time>2021-03-07 11:05:43</time>
      </trkpt>
      <trkpt lat="42.94608" lon="-1.64733">
        <ele>475.2</ele>
        <time>2021-03-07 11:05:44</time>
      </trkpt>
      <trkpt lat="42.94614" lon="-1.64736">
        <ele>475.4</ele>
        <time>2021-03-07 11:05:45</time>
      </trkpt>
      <trkpt lat="42.94621" lon="-1.6474">
        <ele>475.6</ele>
        <time>2021-03-07 11:05:46</time>
      </trkpt>
      <trkpt lat="42.94627" lon="-1.64744">
        <ele>475.8</ele>
        <time>2021-03-07 11:05:47</time>
      </trkpt>
      <trkpt lat="42.94633" lon="-1.64747">
        <ele>476</ele>
        <time>2021-03-07 11:05:48</time>
      </trkpt>
      <trkpt lat="42.94639" lon="-1.64751">
        <ele>476</ele>
        <time>2021-03-07 11:05:49</time>
      </trkpt>
      <trkpt lat="42.94645" lon="-1.64755">
        <ele>476</ele>
        <time>2021-03-07 11:05:50</time>
      </trkpt>
      <trkpt lat="42.94651" lon="-1.64759">
        <ele>476.2</ele>
        <time>2021-03-07 11:05:51</time>
      </trkpt>
      <trkpt lat="42.94657" lon="-1.64762">
        <ele>476.4</ele>
        <time>2021-03-07 11:05:52</time>
      </trkpt>
      <trkpt lat="42.94663" lon="-1.64766">
        <ele>476.6</ele>
        <time>2021-03-07 11:05:53</time>
      </trkpt>
      <trkpt lat="42.9467" lon="-1.64769">
        <ele>476.6</ele>
        <time>2021-03-07 11:05:54</time>
      </trkpt>
      <trkpt lat="42.94676" lon="-1.64773">
        <ele>476.8</ele>
        <time>2021-03-07 11:05:55</time>
      </trkpt>
      <trkpt lat="42.94682" lon="-1.64776">
        <ele>477</ele>
        <time>2021-03-07 11:05:56</time>
      </trkpt>
      <trkpt lat="42.94689" lon="-1.6478">
        <ele>477</ele>
        <time>2021-03-07 11:05:57</time>
      </trkpt>
      <trkpt lat="42.94695" lon="-1.64784">
        <ele>477</ele>
        <time>2021-03-07 11:05:58</time>
      </trkpt>
      <trkpt lat="42.94702" lon="-1.64788">
        <ele>477</ele>
        <time>2021-03-07 11:05:59</time>
      </trkpt>
      <trkpt lat="42.94708" lon="-1.64792">
        <ele>477</ele>
        <time>2021-03-07 11:06:00</time>
      </trkpt>
      <trkpt lat="42.94715" lon="-1.64796">
        <ele>477</ele>
        <time>2021-03-07 11:06:01</time>
      </trkpt>
      <trkpt lat="42.94721" lon="-1.64801">
        <ele>477</ele>
        <time>2021-03-07 11:06:02</time>
      </trkpt>
      <trkpt lat="42.94728" lon="-1.64805">
        <ele>477</ele>
        <time>2021-03-07 11:06:03</time>
      </trkpt>
      <trkpt lat="42.94734" lon="-1.64809">
        <ele>477</ele>
        <time>2021-03-07 11:06:04</time>
      </trkpt>
      <trkpt lat="42.94741" lon="-1.64813">
        <ele>477</ele>
        <time>2021-03-07 11:06:05</time>
      </trkpt>
      <trkpt lat="42.94748" lon="-1.64818">
        <ele>477</ele>
        <time>2021-03-07 11:06:06</time>
      </trkpt>
      <trkpt lat="42.94754" lon="-1.64822">
        <ele>477</ele>
        <time>2021-03-07 11:06:07</time>
      </trkpt>
      <trkpt lat="42.94761" lon="-1.64826">
        <ele>477</ele>
        <time>2021-03-07 11:06:08</time>
      </trkpt>
      <trkpt lat="42.94768" lon="-1.64831">
        <ele>477</ele>
        <time>2021-03-07 11:06:09</time>
      </trkpt>
      <trkpt lat="42.94774" lon="-1.64835">
        <ele>477</ele>
        <time>2021-03-07 11:06:10</time>
      </trkpt>
      <trkpt lat="42.94781" lon="-1.6484">
        <ele>476.8</ele>
        <time>2021-03-07 11:06:11</time>
      </trkpt>
      <trkpt lat="42.94787" lon="-1.64845">
        <ele>476.8</ele>
        <time>2021-03-07 11:06:12</time>
      </trkpt>
      <trkpt lat="42.94793" lon="-1.64851">
        <ele>476.8</ele>
        <time>2021-03-07 11:06:13</time>
      </trkpt>
      <trkpt lat="42.94798" lon="-1.64857">
        <ele>476.8</ele>
        <time>2021-03-07 11:06:14</time>
      </trkpt>
      <trkpt lat="42.94804" lon="-1.64864">
        <ele>476.8</ele>
        <time>2021-03-07 11:06:15</time>
      </trkpt>
      <trkpt lat="42.94809" lon="-1.6487">
        <ele>476.8</ele>
        <time>2021-03-07 11:06:16</time>
      </trkpt>
      <trkpt lat="42.94814" lon="-1.64877">
        <ele>476.8</ele>
        <time>2021-03-07 11:06:17</time>
      </trkpt>
      <trkpt lat="42.94819" lon="-1.64884">
        <ele>476.8</ele>
        <time>2021-03-07 11:06:18</time>
      </trkpt>
      <trkpt lat="42.94824" lon="-1.64891">
        <ele>476.6</ele>
        <time>2021-03-07 11:06:19</time>
      </trkpt>
      <trkpt lat="42.94829" lon="-1.64898">
        <ele>476.6</ele>
        <time>2021-03-07 11:06:20</time>
      </trkpt>
      <trkpt lat="42.94835" lon="-1.64905">
        <ele>476.6</ele>
        <time>2021-03-07 11:06:21</time>
      </trkpt>
      <trkpt lat="42.9484" lon="-1.64912">
        <ele>476.6</ele>
        <time>2021-03-07 11:06:22</time>
      </trkpt>
      <trkpt lat="42.94845" lon="-1.64919">
        <ele>476.4</ele>
        <time>2021-03-07 11:06:23</time>
      </trkpt>
      <trkpt lat="42.9485" lon="-1.64926">
        <ele>476.4</ele>
        <time>2021-03-07 11:06:24</time>
      </trkpt>
      <trkpt lat="42.94856" lon="-1.64933">
        <ele>476.4</ele>
        <time>2021-03-07 11:06:25</time>
      </trkpt>
      <trkpt lat="42.94861" lon="-1.6494">
        <ele>476.4</ele>
        <time>2021-03-07 11:06:26</time>
      </trkpt>
      <trkpt lat="42.94866" lon="-1.64947">
        <ele>476.4</ele>
        <time>2021-03-07 11:06:27</time>
      </trkpt>
      <trkpt lat="42.94871" lon="-1.64954">
        <ele>476.4</ele>
        <time>2021-03-07 11:06:28</time>
      </trkpt>
      <trkpt lat="42.94876" lon="-1.64961">
        <ele>476.4</ele>
        <time>2021-03-07 11:06:29</time>
      </trkpt>
      <trkpt lat="42.94881" lon="-1.64968">
        <ele>476.4</ele>
        <time>2021-03-07 11:06:30</time>
      </trkpt>
      <trkpt lat="42.94887" lon="-1.64975">
        <ele>476.2</ele>
        <time>2021-03-07 11:06:31</time>
      </trkpt>
      <trkpt lat="42.94892" lon="-1.64982">
        <ele>476.2</ele>
        <time>2021-03-07 11:06:32</time>
      </trkpt>
      <trkpt lat="42.94897" lon="-1.64989">
        <ele>476.2</ele>
        <time>2021-03-07 11:06:33</time>
      </trkpt>
      <trkpt lat="42.94902" lon="-1.64996">
        <ele>476.2</ele>
        <time>2021-03-07 11:06:34</time>
      </trkpt>
      <trkpt lat="42.94907" lon="-1.65003">
        <ele>476</ele>
        <time>2021-03-07 11:06:35</time>
      </trkpt>
      <trkpt lat="42.94913" lon="-1.6501">
        <ele>476</ele>
        <time>2021-03-07 11:06:36</time>
      </trkpt>
      <trkpt lat="42.94918" lon="-1.65017">
        <ele>476</ele>
        <time>2021-03-07 11:06:37</time>
      </trkpt>
      <trkpt lat="42.94923" lon="-1.65024">
        <ele>476</ele>
        <time>2021-03-07 11:06:38</time>
      </trkpt>
      <trkpt lat="42.94929" lon="-1.65031">
        <ele>476</ele>
        <time>2021-03-07 11:06:39</time>
      </trkpt>
      <trkpt lat="42.94934" lon="-1.65038">
        <ele>476</ele>
        <time>2021-03-07 11:06:40</time>
      </trkpt>
      <trkpt lat="42.94939" lon="-1.65046">
        <ele>476</ele>
        <time>2021-03-07 11:06:41</time>
      </trkpt>
      <trkpt lat="42.94944" lon="-1.65053">
        <ele>476</ele>
        <time>2021-03-07 11:06:42</time>
      </trkpt>
      <trkpt lat="42.94949" lon="-1.6506">
        <ele>476</ele>
        <time>2021-03-07 11:06:43</time>
      </trkpt>
      <trkpt lat="42.94954" lon="-1.65066">
        <ele>476</ele>
        <time>2021-03-07 11:06:44</time>
      </trkpt>
      <trkpt lat="42.94959" lon="-1.65073">
        <ele>476</ele>
        <time>2021-03-07 11:06:45</time>
      </trkpt>
      <trkpt lat="42.94964" lon="-1.6508">
        <ele>476</ele>
        <time>2021-03-07 11:06:46</time>
      </trkpt>
      <trkpt lat="42.94969" lon="-1.65087">
        <ele>476</ele>
        <time>2021-03-07 11:06:47</time>
      </trkpt>
      <trkpt lat="42.94974" lon="-1.65094">
        <ele>476</ele>
        <time>2021-03-07 11:06:48</time>
      </trkpt>
      <trkpt lat="42.94979" lon="-1.651">
        <ele>476</ele>
        <time>2021-03-07 11:06:49</time>
      </trkpt>
      <trkpt lat="42.94984" lon="-1.65107">
        <ele>476.2</ele>
        <time>2021-03-07 11:06:50</time>
      </trkpt>
      <trkpt lat="42.94989" lon="-1.65114">
        <ele>476.2</ele>
        <time>2021-03-07 11:06:51</time>
      </trkpt>
      <trkpt lat="42.94994" lon="-1.6512">
        <ele>476.4</ele>
        <time>2021-03-07 11:06:52</time>
      </trkpt>
      <trkpt lat="42.94999" lon="-1.65127">
        <ele>476.6</ele>
        <time>2021-03-07 11:06:53</time>
      </trkpt>
      <trkpt lat="42.95004" lon="-1.65133">
        <ele>476.8</ele>
        <time>2021-03-07 11:06:54</time>
      </trkpt>
      <trkpt lat="42.95008" lon="-1.6514">
        <ele>476.8</ele>
        <time>2021-03-07 11:06:55</time>
      </trkpt>
      <trkpt lat="42.95013" lon="-1.65147">
        <ele>476.8</ele>
        <time>2021-03-07 11:06:56</time>
      </trkpt>
      <trkpt lat="42.95017" lon="-1.65153">
        <ele>476.8</ele>
        <time>2021-03-07 11:06:57</time>
      </trkpt>
      <trkpt lat="42.95021" lon="-1.6516">
        <ele>477</ele>
        <time>2021-03-07 11:06:58</time>
      </trkpt>
      <trkpt lat="42.95025" lon="-1.65167">
        <ele>477</ele>
        <time>2021-03-07 11:06:59</time>
      </trkpt>
      <trkpt lat="42.95029" lon="-1.65174">
        <ele>477.2</ele>
        <time>2021-03-07 11:07:00</time>
      </trkpt>
      <trkpt lat="42.95033" lon="-1.65181">
        <ele>477.2</ele>
        <time>2021-03-07 11:07:01</time>
      </trkpt>
      <trkpt lat="42.95037" lon="-1.65188">
        <ele>477.4</ele>
        <time>2021-03-07 11:07:02</time>
      </trkpt>
      <trkpt lat="42.9504" lon="-1.65195">
        <ele>477.4</ele>
        <time>2021-03-07 11:07:03</time>
      </trkpt>
      <trkpt lat="42.95044" lon="-1.65202">
        <ele>477.6</ele>
        <time>2021-03-07 11:07:04</time>
      </trkpt>
      <trkpt lat="42.95048" lon="-1.6521">
        <ele>477.8</ele>
        <time>2021-03-07 11:07:05</time>
      </trkpt>
      <trkpt lat="42.95051" lon="-1.65217">
        <ele>478</ele>
        <time>2021-03-07 11:07:06</time>
      </trkpt>
      <trkpt lat="42.95054" lon="-1.65224">
        <ele>478.2</ele>
        <time>2021-03-07 11:07:07</time>
      </trkpt>
      <trkpt lat="42.95058" lon="-1.65232">
        <ele>478.2</ele>
        <time>2021-03-07 11:07:08</time>
      </trkpt>
      <trkpt lat="42.95061" lon="-1.6524">
        <ele>478.4</ele>
        <time>2021-03-07 11:07:09</time>
      </trkpt>
      <trkpt lat="42.95064" lon="-1.65247">
        <ele>478.4</ele>
        <time>2021-03-07 11:07:10</time>
      </trkpt>
      <trkpt lat="42.95067" lon="-1.65255">
        <ele>478.6</ele>
        <time>2021-03-07 11:07:11</time>
      </trkpt>
      <trkpt lat="42.9507" lon="-1.65263">
        <ele>478.6</ele>
        <time>2021-03-07 11:07:12</time>
      </trkpt>
      <trkpt lat="42.95073" lon="-1.65271">
        <ele>478.6</ele>
        <time>2021-03-07 11:07:13</time>
      </trkpt>
      <trkpt lat="42.95075" lon="-1.6528">
        <ele>478.8</ele>
        <time>2021-03-07 11:07:14</time>
      </trkpt>
      <trkpt lat="42.95078" lon="-1.65288">
        <ele>479</ele>
        <time>2021-03-07 11:07:15</time>
      </trkpt>
      <trkpt lat="42.95081" lon="-1.65296">
        <ele>479</ele>
        <time>2021-03-07 11:07:16</time>
      </trkpt>
      <trkpt lat="42.95083" lon="-1.65305">
        <ele>479.2</ele>
        <time>2021-03-07 11:07:17</time>
      </trkpt>
      <trkpt lat="42.95086" lon="-1.65314">
        <ele>479.2</ele>
        <time>2021-03-07 11:07:18</time>
      </trkpt>
      <trkpt lat="42.95088" lon="-1.65323">
        <ele>479.2</ele>
        <time>2021-03-07 11:07:19</time>
      </trkpt>
      <trkpt lat="42.95091" lon="-1.65332">
        <ele>479.2</ele>
        <time>2021-03-07 11:07:20</time>
      </trkpt>
      <trkpt lat="42.95093" lon="-1.65341">
        <ele>479.2</ele>
        <time>2021-03-07 11:07:21</time>
      </trkpt>
      <trkpt lat="42.95096" lon="-1.6535">
        <ele>479.2</ele>
        <time>2021-03-07 11:07:22</time>
      </trkpt>
      <trkpt lat="42.95098" lon="-1.65358">
        <ele>479.2</ele>
        <time>2021-03-07 11:07:23</time>
      </trkpt>
      <trkpt lat="42.95101" lon="-1.65367">
        <ele>479.2</ele>
        <time>2021-03-07 11:07:24</time>
      </trkpt>
      <trkpt lat="42.95103" lon="-1.65376">
        <ele>479.2</ele>
        <time>2021-03-07 11:07:25</time>
      </trkpt>
      <trkpt lat="42.95106" lon="-1.65385">
        <ele>479.2</ele>
        <time>2021-03-07 11:07:26</time>
      </trkpt>
      <trkpt lat="42.95108" lon="-1.65394">
        <ele>479.2</ele>
        <time>2021-03-07 11:07:27</time>
      </trkpt>
      <trkpt lat="42.95111" lon="-1.65403">
        <ele>479.2</ele>
        <time>2021-03-07 11:07:28</time>
      </trkpt>
      <trkpt lat="42.95113" lon="-1.65412">
        <ele>479.4</ele>
        <time>2021-03-07 11:07:29</time>
      </trkpt>
      <trkpt lat="42.95116" lon="-1.65421">
        <ele>479.4</ele>
        <time>2021-03-07 11:07:30</time>
      </trkpt>
      <trkpt lat="42.95119" lon="-1.6543">
        <ele>479.4</ele>
        <time>2021-03-07 11:07:31</time>
      </trkpt>
      <trkpt lat="42.95121" lon="-1.65439">
        <ele>479.4</ele>
        <time>2021-03-07 11:07:32</time>
      </trkpt>
      <trkpt lat="42.95124" lon="-1.65449">
        <ele>479.4</ele>
        <time>2021-03-07 11:07:33</time>
      </trkpt>
      <trkpt lat="42.95126" lon="-1.65458">
        <ele>479.4</ele>
        <time>2021-03-07 11:07:34</time>
      </trkpt>
      <trkpt lat="42.95129" lon="-1.65467">
        <ele>479.2</ele>
        <time>2021-03-07 11:07:35</time>
      </trkpt>
      <trkpt lat="42.95132" lon="-1.65477">
        <ele>479.4</ele>
        <time>2021-03-07 11:07:36</time>
      </trkpt>
      <trkpt lat="42.95135" lon="-1.65486">
        <ele>479.4</ele>
        <time>2021-03-07 11:07:37</time>
      </trkpt>
      <trkpt lat="42.95138" lon="-1.65495">
        <ele>479.4</ele>
        <time>2021-03-07 11:07:38</time>
      </trkpt>
      <trkpt lat="42.95141" lon="-1.65505">
        <ele>479.4</ele>
        <time>2021-03-07 11:07:39</time>
      </trkpt>
      <trkpt lat="42.95144" lon="-1.65514">
        <ele>479.4</ele>
        <time>2021-03-07 11:07:40</time>
      </trkpt>
      <trkpt lat="42.95147" lon="-1.65523">
        <ele>479.4</ele>
        <time>2021-03-07 11:07:41</time>
      </trkpt>
      <trkpt lat="42.95151" lon="-1.65532">
        <ele>479.4</ele>
        <time>2021-03-07 11:07:42</time>
      </trkpt>
      <trkpt lat="42.95154" lon="-1.65541">
        <ele>479.6</ele>
        <time>2021-03-07 11:07:43</time>
      </trkpt>
      <trkpt lat="42.95158" lon="-1.65549">
        <ele>479.6</ele>
        <time>2021-03-07 11:07:44</time>
      </trkpt>
      <trkpt lat="42.95161" lon="-1.65558">
        <ele>479.6</ele>
        <time>2021-03-07 11:07:45</time>
      </trkpt>
      <trkpt lat="42.95165" lon="-1.65566">
        <ele>479.6</ele>
        <time>2021-03-07 11:07:46</time>
      </trkpt>
      <trkpt lat="42.95169" lon="-1.65575">
        <ele>479.6</ele>
        <time>2021-03-07 11:07:47</time>
      </trkpt>
      <trkpt lat="42.95173" lon="-1.65583">
        <ele>479.6</ele>
        <time>2021-03-07 11:07:48</time>
      </trkpt>
      <trkpt lat="42.95177" lon="-1.65591">
        <ele>479.6</ele>
        <time>2021-03-07 11:07:49</time>
      </trkpt>
      <trkpt lat="42.95182" lon="-1.65599">
        <ele>479.6</ele>
        <time>2021-03-07 11:07:50</time>
      </trkpt>
      <trkpt lat="42.95186" lon="-1.65607">
        <ele>479.6</ele>
        <time>2021-03-07 11:07:51</time>
      </trkpt>
      <trkpt lat="42.95191" lon="-1.65616">
        <ele>479.6</ele>
        <time>2021-03-07 11:07:52</time>
      </trkpt>
      <trkpt lat="42.95195" lon="-1.65624">
        <ele>479.6</ele>
        <time>2021-03-07 11:07:53</time>
      </trkpt>
      <trkpt lat="42.952" lon="-1.65632">
        <ele>479.6</ele>
        <time>2021-03-07 11:07:54</time>
      </trkpt>
      <trkpt lat="42.95205" lon="-1.6564">
        <ele>479.6</ele>
        <time>2021-03-07 11:07:55</time>
      </trkpt>
      <trkpt lat="42.95209" lon="-1.65648">
        <ele>479.6</ele>
        <time>2021-03-07 11:07:56</time>
      </trkpt>
      <trkpt lat="42.95214" lon="-1.65656">
        <ele>479.6</ele>
        <time>2021-03-07 11:07:57</time>
      </trkpt>
      <trkpt lat="42.95219" lon="-1.65663">
        <ele>479.6</ele>
        <time>2021-03-07 11:07:58</time>
      </trkpt>
      <trkpt lat="42.95224" lon="-1.65671">
        <ele>479.6</ele>
        <time>2021-03-07 11:07:59</time>
      </trkpt>
      <trkpt lat="42.95229" lon="-1.65679">
        <ele>479.6</ele>
        <time>2021-03-07 11:08:00</time>
      </trkpt>
      <trkpt lat="42.95234" lon="-1.65687">
        <ele>479.6</ele>
        <time>2021-03-07 11:08:01</time>
      </trkpt>
      <trkpt lat="42.95239" lon="-1.65695">
        <ele>479.6</ele>
        <time>2021-03-07 11:08:02</time>
      </trkpt>
      <trkpt lat="42.95244" lon="-1.65703">
        <ele>479.4</ele>
        <time>2021-03-07 11:08:03</time>
      </trkpt>
      <trkpt lat="42.95249" lon="-1.65711">
        <ele>479.4</ele>
        <time>2021-03-07 11:08:04</time>
      </trkpt>
      <trkpt lat="42.95254" lon="-1.65719">
        <ele>479.4</ele>
        <time>2021-03-07 11:08:05</time>
      </trkpt>
      <trkpt lat="42.95259" lon="-1.65726">
        <ele>479.4</ele>
        <time>2021-03-07 11:08:06</time>
      </trkpt>
      <trkpt lat="42.95265" lon="-1.65734">
        <ele>479.4</ele>
        <time>2021-03-07 11:08:07</time>
      </trkpt>
      <trkpt lat="42.9527" lon="-1.65742">
        <ele>479.4</ele>
        <time>2021-03-07 11:08:08</time>
      </trkpt>
      <trkpt lat="42.95275" lon="-1.6575">
        <ele>479.4</ele>
        <time>2021-03-07 11:08:09</time>
      </trkpt>
      <trkpt lat="42.9528" lon="-1.65758">
        <ele>479.4</ele>
        <time>2021-03-07 11:08:10</time>
      </trkpt>
      <trkpt lat="42.95285" lon="-1.65766">
        <ele>479.4</ele>
        <time>2021-03-07 11:08:11</time>
      </trkpt>
      <trkpt lat="42.9529" lon="-1.65774">
        <ele>479.4</ele>
        <time>2021-03-07 11:08:12</time>
      </trkpt>
      <trkpt lat="42.95295" lon="-1.65782">
        <ele>479.4</ele>
        <time>2021-03-07 11:08:13</time>
      </trkpt>
      <trkpt lat="42.953" lon="-1.65789">
        <ele>479.4</ele>
        <time>2021-03-07 11:08:14</time>
      </trkpt>
      <trkpt lat="42.95305" lon="-1.65797">
        <ele>479.4</ele>
        <time>2021-03-07 11:08:15</time>
      </trkpt>
      <trkpt lat="42.9531" lon="-1.65805">
        <ele>479.4</ele>
        <time>2021-03-07 11:08:16</time>
      </trkpt>
      <trkpt lat="42.95314" lon="-1.65813">
        <ele>479.4</ele>
        <time>2021-03-07 11:08:17</time>
      </trkpt>
      <trkpt lat="42.95319" lon="-1.65821">
        <ele>479.4</ele>
        <time>2021-03-07 11:08:18</time>
      </trkpt>
      <trkpt lat="42.95325" lon="-1.65829">
        <ele>479.4</ele>
        <time>2021-03-07 11:08:19</time>
      </trkpt>
      <trkpt lat="42.95329" lon="-1.65837">
        <ele>479.6</ele>
        <time>2021-03-07 11:08:20</time>
      </trkpt>
      <trkpt lat="42.95334" lon="-1.65845">
        <ele>479.8</ele>
        <time>2021-03-07 11:08:21</time>
      </trkpt>
      <trkpt lat="42.95339" lon="-1.65853">
        <ele>480</ele>
        <time>2021-03-07 11:08:22</time>
      </trkpt>
      <trkpt lat="42.95344" lon="-1.65861">
        <ele>480</ele>
        <time>2021-03-07 11:08:23</time>
      </trkpt>
      <trkpt lat="42.95349" lon="-1.65869">
        <ele>480.2</ele>
        <time>2021-03-07 11:08:24</time>
      </trkpt>
      <trkpt lat="42.95354" lon="-1.65877">
        <ele>480.2</ele>
        <time>2021-03-07 11:08:25</time>
      </trkpt>
      <trkpt lat="42.95359" lon="-1.65885">
        <ele>480.2</ele>
        <time>2021-03-07 11:08:26</time>
      </trkpt>
      <trkpt lat="42.95364" lon="-1.65893">
        <ele>480.4</ele>
        <time>2021-03-07 11:08:27</time>
      </trkpt>
      <trkpt lat="42.95369" lon="-1.65901">
        <ele>480.4</ele>
        <time>2021-03-07 11:08:28</time>
      </trkpt>
      <trkpt lat="42.95374" lon="-1.65909">
        <ele>480.6</ele>
        <time>2021-03-07 11:08:29</time>
      </trkpt>
      <trkpt lat="42.95379" lon="-1.65917">
        <ele>480.6</ele>
        <time>2021-03-07 11:08:30</time>
      </trkpt>
      <trkpt lat="42.95384" lon="-1.65925">
        <ele>480.6</ele>
        <time>2021-03-07 11:08:31</time>
      </trkpt>
      <trkpt lat="42.95389" lon="-1.65933">
        <ele>480.6</ele>
        <time>2021-03-07 11:08:32</time>
      </trkpt>
      <trkpt lat="42.95394" lon="-1.65941">
        <ele>480.6</ele>
        <time>2021-03-07 11:08:33</time>
      </trkpt>
      <trkpt lat="42.95399" lon="-1.65949">
        <ele>480.8</ele>
        <time>2021-03-07 11:08:34</time>
      </trkpt>
      <trkpt lat="42.95404" lon="-1.65956">
        <ele>480.8</ele>
        <time>2021-03-07 11:08:35</time>
      </trkpt>
      <trkpt lat="42.95409" lon="-1.65964">
        <ele>480.8</ele>
        <time>2021-03-07 11:08:36</time>
      </trkpt>
      <trkpt lat="42.95414" lon="-1.65972">
        <ele>480.8</ele>
        <time>2021-03-07 11:08:37</time>
      </trkpt>
      <trkpt lat="42.95419" lon="-1.6598">
        <ele>480.8</ele>
        <time>2021-03-07 11:08:38</time>
      </trkpt>
      <trkpt lat="42.95423" lon="-1.65988">
        <ele>480.8</ele>
        <time>2021-03-07 11:08:39</time>
      </trkpt>
      <trkpt lat="42.95428" lon="-1.65996">
        <ele>480.8</ele>
        <time>2021-03-07 11:08:40</time>
      </trkpt>
      <trkpt lat="42.95433" lon="-1.66004">
        <ele>481</ele>
        <time>2021-03-07 11:08:41</time>
      </trkpt>
      <trkpt lat="42.95438" lon="-1.66012">
        <ele>481</ele>
        <time>2021-03-07 11:08:42</time>
      </trkpt>
      <trkpt lat="42.95443" lon="-1.6602">
        <ele>481.2</ele>
        <time>2021-03-07 11:08:43</time>
      </trkpt>
      <trkpt lat="42.95448" lon="-1.66028">
        <ele>481.2</ele>
        <time>2021-03-07 11:08:44</time>
      </trkpt>
      <trkpt lat="42.95453" lon="-1.66036">
        <ele>481.2</ele>
        <time>2021-03-07 11:08:45</time>
      </trkpt>
      <trkpt lat="42.95458" lon="-1.66044">
        <ele>481.2</ele>
        <time>2021-03-07 11:08:46</time>
      </trkpt>
      <trkpt lat="42.95463" lon="-1.66052">
        <ele>481.4</ele>
        <time>2021-03-07 11:08:47</time>
      </trkpt>
      <trkpt lat="42.95468" lon="-1.6606">
        <ele>481.4</ele>
        <time>2021-03-07 11:08:48</time>
      </trkpt>
      <trkpt lat="42.95473" lon="-1.66068">
        <ele>481.4</ele>
        <time>2021-03-07 11:08:49</time>
      </trkpt>
      <trkpt lat="42.95478" lon="-1.66076">
        <ele>481.6</ele>
        <time>2021-03-07 11:08:50</time>
      </trkpt>
      <trkpt lat="42.95483" lon="-1.66084">
        <ele>481.6</ele>
        <time>2021-03-07 11:08:51</time>
      </trkpt>
      <trkpt lat="42.95488" lon="-1.66092">
        <ele>481.6</ele>
        <time>2021-03-07 11:08:52</time>
      </trkpt>
      <trkpt lat="42.95493" lon="-1.661">
        <ele>481.6</ele>
        <time>2021-03-07 11:08:53</time>
      </trkpt>
      <trkpt lat="42.95498" lon="-1.66108">
        <ele>481.6</ele>
        <time>2021-03-07 11:08:54</time>
      </trkpt>
      <trkpt lat="42.95503" lon="-1.66116">
        <ele>481.6</ele>
        <time>2021-03-07 11:08:55</time>
      </trkpt>
      <trkpt lat="42.95508" lon="-1.66123">
        <ele>481.8</ele>
        <time>2021-03-07 11:08:56</time>
      </trkpt>
      <trkpt lat="42.95512" lon="-1.66131">
        <ele>481.8</ele>
        <time>2021-03-07 11:08:57</time>
      </trkpt>
      <trkpt lat="42.95517" lon="-1.66139">
        <ele>481.8</ele>
        <time>2021-03-07 11:08:58</time>
      </trkpt>
      <trkpt lat="42.95522" lon="-1.66147">
        <ele>481.8</ele>
        <time>2021-03-07 11:08:59</time>
      </trkpt>
      <trkpt lat="42.95527" lon="-1.66155">
        <ele>481.8</ele>
        <time>2021-03-07 11:09:00</time>
      </trkpt>
      <trkpt lat="42.95532" lon="-1.66162">
        <ele>481.8</ele>
        <time>2021-03-07 11:09:01</time>
      </trkpt>
      <trkpt lat="42.95536" lon="-1.6617">
        <ele>482</ele>
        <time>2021-03-07 11:09:02</time>
      </trkpt>
      <trkpt lat="42.95541" lon="-1.66177">
        <ele>482</ele>
        <time>2021-03-07 11:09:03</time>
      </trkpt>
      <trkpt lat="42.95546" lon="-1.66185">
        <ele>482</ele>
        <time>2021-03-07 11:09:04</time>
      </trkpt>
      <trkpt lat="42.95551" lon="-1.66193">
        <ele>482</ele>
        <time>2021-03-07 11:09:05</time>
      </trkpt>
      <trkpt lat="42.95555" lon="-1.662">
        <ele>482</ele>
        <time>2021-03-07 11:09:06</time>
      </trkpt>
      <trkpt lat="42.9556" lon="-1.66208">
        <ele>482.2</ele>
        <time>2021-03-07 11:09:07</time>
      </trkpt>
      <trkpt lat="42.95565" lon="-1.66216">
        <ele>482.2</ele>
        <time>2021-03-07 11:09:08</time>
      </trkpt>
      <trkpt lat="42.9557" lon="-1.66223">
        <ele>482.4</ele>
        <time>2021-03-07 11:09:09</time>
      </trkpt>
      <trkpt lat="42.95575" lon="-1.66231">
        <ele>482.4</ele>
        <time>2021-03-07 11:09:10</time>
      </trkpt>
      <trkpt lat="42.9558" lon="-1.66239">
        <ele>482.6</ele>
        <time>2021-03-07 11:09:11</time>
      </trkpt>
      <trkpt lat="42.95585" lon="-1.66247">
        <ele>482.6</ele>
        <time>2021-03-07 11:09:12</time>
      </trkpt>
      <trkpt lat="42.9559" lon="-1.66255">
        <ele>482.6</ele>
        <time>2021-03-07 11:09:13</time>
      </trkpt>
      <trkpt lat="42.95595" lon="-1.66263">
        <ele>482.6</ele>
        <time>2021-03-07 11:09:14</time>
      </trkpt>
      <trkpt lat="42.95599" lon="-1.66271">
        <ele>482.8</ele>
        <time>2021-03-07 11:09:15</time>
      </trkpt>
      <trkpt lat="42.95604" lon="-1.66279">
        <ele>482.8</ele>
        <time>2021-03-07 11:09:16</time>
      </trkpt>
      <trkpt lat="42.95609" lon="-1.66286">
        <ele>482.8</ele>
        <time>2021-03-07 11:09:17</time>
      </trkpt>
      <trkpt lat="42.95614" lon="-1.66294">
        <ele>482.8</ele>
        <time>2021-03-07 11:09:18</time>
      </trkpt>
      <trkpt lat="42.95619" lon="-1.66302">
        <ele>482.8</ele>
        <time>2021-03-07 11:09:19</time>
      </trkpt>
      <trkpt lat="42.95624" lon="-1.6631">
        <ele>482.8</ele>
        <time>2021-03-07 11:09:20</time>
      </trkpt>
      <trkpt lat="42.95629" lon="-1.66318">
        <ele>483</ele>
        <time>2021-03-07 11:09:21</time>
      </trkpt>
      <trkpt lat="42.95634" lon="-1.66325">
        <ele>483</ele>
        <time>2021-03-07 11:09:22</time>
      </trkpt>
      <trkpt lat="42.95639" lon="-1.66333">
        <ele>483</ele>
        <time>2021-03-07 11:09:23</time>
      </trkpt>
      <trkpt lat="42.95644" lon="-1.66341">
        <ele>483</ele>
        <time>2021-03-07 11:09:24</time>
      </trkpt>
      <trkpt lat="42.95649" lon="-1.66349">
        <ele>483</ele>
        <time>2021-03-07 11:09:25</time>
      </trkpt>
      <trkpt lat="42.95654" lon="-1.66356">
        <ele>483</ele>
        <time>2021-03-07 11:09:26</time>
      </trkpt>
      <trkpt lat="42.95659" lon="-1.66364">
        <ele>483</ele>
        <time>2021-03-07 11:09:27</time>
      </trkpt>
      <trkpt lat="42.95663" lon="-1.66371">
        <ele>483.2</ele>
        <time>2021-03-07 11:09:28</time>
      </trkpt>
      <trkpt lat="42.95668" lon="-1.66379">
        <ele>483.2</ele>
        <time>2021-03-07 11:09:29</time>
      </trkpt>
      <trkpt lat="42.95672" lon="-1.66386">
        <ele>483.2</ele>
        <time>2021-03-07 11:09:30</time>
      </trkpt>
      <trkpt lat="42.95677" lon="-1.66393">
        <ele>483.2</ele>
        <time>2021-03-07 11:09:31</time>
      </trkpt>
      <trkpt lat="42.95682" lon="-1.66401">
        <ele>483.2</ele>
        <time>2021-03-07 11:09:32</time>
      </trkpt>
      <trkpt lat="42.95686" lon="-1.66408">
        <ele>483.4</ele>
        <time>2021-03-07 11:09:33</time>
      </trkpt>
      <trkpt lat="42.95691" lon="-1.66415">
        <ele>483.6</ele>
        <time>2021-03-07 11:09:34</time>
      </trkpt>
      <trkpt lat="42.95695" lon="-1.66422">
        <ele>483.6</ele>
        <time>2021-03-07 11:09:35</time>
      </trkpt>
      <trkpt lat="42.957" lon="-1.66429">
        <ele>483.8</ele>
        <time>2021-03-07 11:09:36</time>
      </trkpt>
      <trkpt lat="42.95704" lon="-1.66436">
        <ele>483.8</ele>
        <time>2021-03-07 11:09:37</time>
      </trkpt>
      <trkpt lat="42.95708" lon="-1.66443">
        <ele>484</ele>
        <time>2021-03-07 11:09:38</time>
      </trkpt>
      <trkpt lat="42.95713" lon="-1.6645">
        <ele>484.2</ele>
        <time>2021-03-07 11:09:39</time>
      </trkpt>
      <trkpt lat="42.95717" lon="-1.66457">
        <ele>484.4</ele>
        <time>2021-03-07 11:09:40</time>
      </trkpt>
      <trkpt lat="42.95721" lon="-1.66463">
        <ele>484.4</ele>
        <time>2021-03-07 11:09:41</time>
      </trkpt>
      <trkpt lat="42.95725" lon="-1.6647">
        <ele>484.6</ele>
        <time>2021-03-07 11:09:42</time>
      </trkpt>
      <trkpt lat="42.95729" lon="-1.66476">
        <ele>484.8</ele>
        <time>2021-03-07 11:09:43</time>
      </trkpt>
      <trkpt lat="42.95733" lon="-1.66482">
        <ele>485</ele>
        <time>2021-03-07 11:09:44</time>
      </trkpt>
      <trkpt lat="42.95737" lon="-1.66488">
        <ele>485.2</ele>
        <time>2021-03-07 11:09:45</time>
      </trkpt>
      <trkpt lat="42.95741" lon="-1.66494">
        <ele>485.4</ele>
        <time>2021-03-07 11:09:46</time>
      </trkpt>
      <trkpt lat="42.95744" lon="-1.66499">
        <ele>485.8</ele>
        <time>2021-03-07 11:09:47</time>
      </trkpt>
      <trkpt lat="42.95749" lon="-1.66503">
        <ele>486</ele>
        <time>2021-03-07 11:09:48</time>
      </trkpt>
      <trkpt lat="42.95753" lon="-1.66509">
        <ele>486.4</ele>
        <time>2021-03-07 11:09:49</time>
      </trkpt>
      <trkpt lat="42.95757" lon="-1.66515">
        <ele>486.8</ele>
        <time>2021-03-07 11:09:50</time>
      </trkpt>
      <trkpt lat="42.95761" lon="-1.66521">
        <ele>487</ele>
        <time>2021-03-07 11:09:51</time>
      </trkpt>
      <trkpt lat="42.95765" lon="-1.66527">
        <ele>487</ele>
        <time>2021-03-07 11:09:52</time>
      </trkpt>
      <trkpt lat="42.95769" lon="-1.66533">
        <ele>487</ele>
        <time>2021-03-07 11:09:53</time>
      </trkpt>
      <trkpt lat="42.95773" lon="-1.6654">
        <ele>487.2</ele>
        <time>2021-03-07 11:09:54</time>
      </trkpt>
      <trkpt lat="42.95778" lon="-1.66547">
        <ele>487.4</ele>
        <time>2021-03-07 11:09:55</time>
      </trkpt>
      <trkpt lat="42.95782" lon="-1.66554">
        <ele>487.6</ele>
        <time>2021-03-07 11:09:56</time>
      </trkpt>
      <trkpt lat="42.95787" lon="-1.6656">
        <ele>487.8</ele>
        <time>2021-03-07 11:09:57</time>
      </trkpt>
      <trkpt lat="42.95791" lon="-1.66567">
        <ele>487.8</ele>
        <time>2021-03-07 11:09:58</time>
      </trkpt>
      <trkpt lat="42.95795" lon="-1.66574">
        <ele>488</ele>
        <time>2021-03-07 11:09:59</time>
      </trkpt>
      <trkpt lat="42.958" lon="-1.66581">
        <ele>488</ele>
        <time>2021-03-07 11:10:00</time>
      </trkpt>
      <trkpt lat="42.95804" lon="-1.66588">
        <ele>488</ele>
        <time>2021-03-07 11:10:01</time>
      </trkpt>
      <trkpt lat="42.95809" lon="-1.66595">
        <ele>488</ele>
        <time>2021-03-07 11:10:02</time>
      </trkpt>
      <trkpt lat="42.95813" lon="-1.66601">
        <ele>488</ele>
        <time>2021-03-07 11:10:03</time>
      </trkpt>
      <trkpt lat="42.95817" lon="-1.66608">
        <ele>488</ele>
        <time>2021-03-07 11:10:04</time>
      </trkpt>
      <trkpt lat="42.95822" lon="-1.66614">
        <ele>488</ele>
        <time>2021-03-07 11:10:05</time>
      </trkpt>
      <trkpt lat="42.95827" lon="-1.66621">
        <ele>488</ele>
        <time>2021-03-07 11:10:06</time>
      </trkpt>
      <trkpt lat="42.95831" lon="-1.66628">
        <ele>488</ele>
        <time>2021-03-07 11:10:07</time>
      </trkpt>
      <trkpt lat="42.95836" lon="-1.66634">
        <ele>488</ele>
        <time>2021-03-07 11:10:08</time>
      </trkpt>
      <trkpt lat="42.9584" lon="-1.6664">
        <ele>488</ele>
        <time>2021-03-07 11:10:09</time>
      </trkpt>
      <trkpt lat="42.95845" lon="-1.66647">
        <ele>488</ele>
        <time>2021-03-07 11:10:10</time>
      </trkpt>
      <trkpt lat="42.9585" lon="-1.66655">
        <ele>488</ele>
        <time>2021-03-07 11:10:11</time>
      </trkpt>
      <trkpt lat="42.95856" lon="-1.66663">
        <ele>487.8</ele>
        <time>2021-03-07 11:10:12</time>
      </trkpt>
      <trkpt lat="42.9586" lon="-1.66671">
        <ele>487.8</ele>
        <time>2021-03-07 11:10:13</time>
      </trkpt>
      <trkpt lat="42.95865" lon="-1.66679">
        <ele>487.6</ele>
        <time>2021-03-07 11:10:14</time>
      </trkpt>
      <trkpt lat="42.95869" lon="-1.66687">
        <ele>487.6</ele>
        <time>2021-03-07 11:10:15</time>
      </trkpt>
      <trkpt lat="42.95874" lon="-1.66693">
        <ele>487.6</ele>
        <time>2021-03-07 11:10:16</time>
      </trkpt>
      <trkpt lat="42.95878" lon="-1.667">
        <ele>487.4</ele>
        <time>2021-03-07 11:10:17</time>
      </trkpt>
      <trkpt lat="42.95883" lon="-1.66706">
        <ele>487.4</ele>
        <time>2021-03-07 11:10:18</time>
      </trkpt>
      <trkpt lat="42.95888" lon="-1.66713">
        <ele>487.4</ele>
        <time>2021-03-07 11:10:19</time>
      </trkpt>
      <trkpt lat="42.95893" lon="-1.66719">
        <ele>487.4</ele>
        <time>2021-03-07 11:10:20</time>
      </trkpt>
      <trkpt lat="42.95898" lon="-1.66726">
        <ele>487.6</ele>
        <time>2021-03-07 11:10:21</time>
      </trkpt>
      <trkpt lat="42.95903" lon="-1.66733">
        <ele>487.6</ele>
        <time>2021-03-07 11:10:22</time>
      </trkpt>
      <trkpt lat="42.95908" lon="-1.66739">
        <ele>487.6</ele>
        <time>2021-03-07 11:10:23</time>
      </trkpt>
      <trkpt lat="42.95912" lon="-1.66745">
        <ele>487.6</ele>
        <time>2021-03-07 11:10:24</time>
      </trkpt>
      <trkpt lat="42.95917" lon="-1.66752">
        <ele>487.6</ele>
        <time>2021-03-07 11:10:25</time>
      </trkpt>
      <trkpt lat="42.95922" lon="-1.66759">
        <ele>487.6</ele>
        <time>2021-03-07 11:10:26</time>
      </trkpt>
      <trkpt lat="42.95927" lon="-1.66765">
        <ele>487.6</ele>
        <time>2021-03-07 11:10:27</time>
      </trkpt>
      <trkpt lat="42.95931" lon="-1.66771">
        <ele>487.6</ele>
        <time>2021-03-07 11:10:28</time>
      </trkpt>
      <trkpt lat="42.95935" lon="-1.66777">
        <ele>487.6</ele>
        <time>2021-03-07 11:10:29</time>
      </trkpt>
      <trkpt lat="42.9594" lon="-1.66784">
        <ele>487.6</ele>
        <time>2021-03-07 11:10:30</time>
      </trkpt>
      <trkpt lat="42.95944" lon="-1.66792">
        <ele>487.8</ele>
        <time>2021-03-07 11:10:31</time>
      </trkpt>
      <trkpt lat="42.95949" lon="-1.66801">
        <ele>488</ele>
        <time>2021-03-07 11:10:32</time>
      </trkpt>
      <trkpt lat="42.95953" lon="-1.66808">
        <ele>488.2</ele>
        <time>2021-03-07 11:10:33</time>
      </trkpt>
      <trkpt lat="42.95958" lon="-1.66815">
        <ele>488.2</ele>
        <time>2021-03-07 11:10:34</time>
      </trkpt>
      <trkpt lat="42.95963" lon="-1.66822">
        <ele>488.2</ele>
        <time>2021-03-07 11:10:35</time>
      </trkpt>
      <trkpt lat="42.95967" lon="-1.66828">
        <ele>488.4</ele>
        <time>2021-03-07 11:10:36</time>
      </trkpt>
      <trkpt lat="42.95972" lon="-1.66833">
        <ele>488.4</ele>
        <time>2021-03-07 11:10:37</time>
      </trkpt>
      <trkpt lat="42.95977" lon="-1.66839">
        <ele>488.4</ele>
        <time>2021-03-07 11:10:38</time>
      </trkpt>
      <trkpt lat="42.95982" lon="-1.66845">
        <ele>488.4</ele>
        <time>2021-03-07 11:10:39</time>
      </trkpt>
      <trkpt lat="42.95987" lon="-1.66851">
        <ele>488.4</ele>
        <time>2021-03-07 11:10:40</time>
      </trkpt>
      <trkpt lat="42.95992" lon="-1.66857">
        <ele>488.6</ele>
        <time>2021-03-07 11:10:41</time>
      </trkpt>
      <trkpt lat="42.95997" lon="-1.66864">
        <ele>488.6</ele>
        <time>2021-03-07 11:10:42</time>
      </trkpt>
      <trkpt lat="42.96001" lon="-1.6687">
        <ele>488.6</ele>
        <time>2021-03-07 11:10:43</time>
      </trkpt>
      <trkpt lat="42.96006" lon="-1.66878">
        <ele>488.8</ele>
        <time>2021-03-07 11:10:44</time>
      </trkpt>
      <trkpt lat="42.96011" lon="-1.66886">
        <ele>488.8</ele>
        <time>2021-03-07 11:10:45</time>
      </trkpt>
      <trkpt lat="42.96015" lon="-1.66894">
        <ele>488.8</ele>
        <time>2021-03-07 11:10:46</time>
      </trkpt>
      <trkpt lat="42.9602" lon="-1.66901">
        <ele>488.8</ele>
        <time>2021-03-07 11:10:47</time>
      </trkpt>
      <trkpt lat="42.96024" lon="-1.66907">
        <ele>488.8</ele>
        <time>2021-03-07 11:10:48</time>
      </trkpt>
      <trkpt lat="42.96029" lon="-1.66914">
        <ele>488.8</ele>
        <time>2021-03-07 11:10:49</time>
      </trkpt>
      <trkpt lat="42.96034" lon="-1.66923">
        <ele>488.8</ele>
        <time>2021-03-07 11:10:50</time>
      </trkpt>
      <trkpt lat="42.96039" lon="-1.6693">
        <ele>488.8</ele>
        <time>2021-03-07 11:10:51</time>
      </trkpt>
      <trkpt lat="42.96044" lon="-1.6694">
        <ele>488.8</ele>
        <time>2021-03-07 11:10:52</time>
      </trkpt>
      <trkpt lat="42.96049" lon="-1.66951">
        <ele>488.8</ele>
        <time>2021-03-07 11:10:53</time>
      </trkpt>
      <trkpt lat="42.96054" lon="-1.6696">
        <ele>488.8</ele>
        <time>2021-03-07 11:10:54</time>
      </trkpt>
      <trkpt lat="42.96059" lon="-1.66969">
        <ele>488.8</ele>
        <time>2021-03-07 11:10:55</time>
      </trkpt>
      <trkpt lat="42.96064" lon="-1.66979">
        <ele>488.6</ele>
        <time>2021-03-07 11:10:56</time>
      </trkpt>
      <trkpt lat="42.96069" lon="-1.66987">
        <ele>488.6</ele>
        <time>2021-03-07 11:10:57</time>
      </trkpt>
      <trkpt lat="42.96074" lon="-1.66996">
        <ele>488.4</ele>
        <time>2021-03-07 11:10:58</time>
      </trkpt>
      <trkpt lat="42.96079" lon="-1.67003">
        <ele>488.4</ele>
        <time>2021-03-07 11:10:59</time>
      </trkpt>
      <trkpt lat="42.96085" lon="-1.67013">
        <ele>488.4</ele>
        <time>2021-03-07 11:11:00</time>
      </trkpt>
      <trkpt lat="42.9609" lon="-1.67023">
        <ele>488.6</ele>
        <time>2021-03-07 11:11:01</time>
      </trkpt>
      <trkpt lat="42.96096" lon="-1.67033">
        <ele>488.4</ele>
        <time>2021-03-07 11:11:02</time>
      </trkpt>
      <trkpt lat="42.96101" lon="-1.67042">
        <ele>488.2</ele>
        <time>2021-03-07 11:11:03</time>
      </trkpt>
      <trkpt lat="42.96107" lon="-1.67052">
        <ele>488.2</ele>
        <time>2021-03-07 11:11:04</time>
      </trkpt>
      <trkpt lat="42.96112" lon="-1.67063">
        <ele>488</ele>
        <time>2021-03-07 11:11:05</time>
      </trkpt>
      <trkpt lat="42.96119" lon="-1.67073">
        <ele>487.8</ele>
        <time>2021-03-07 11:11:06</time>
      </trkpt>
      <trkpt lat="42.96125" lon="-1.67082">
        <ele>487.6</ele>
        <time>2021-03-07 11:11:07</time>
      </trkpt>
      <trkpt lat="42.96131" lon="-1.67092">
        <ele>487.6</ele>
        <time>2021-03-07 11:11:08</time>
      </trkpt>
      <trkpt lat="42.96136" lon="-1.67102">
        <ele>487.4</ele>
        <time>2021-03-07 11:11:09</time>
      </trkpt>
      <trkpt lat="42.96142" lon="-1.67112">
        <ele>487.2</ele>
        <time>2021-03-07 11:11:10</time>
      </trkpt>
      <trkpt lat="42.96147" lon="-1.67121">
        <ele>487</ele>
        <time>2021-03-07 11:11:11</time>
      </trkpt>
      <trkpt lat="42.96153" lon="-1.6713">
        <ele>486.8</ele>
        <time>2021-03-07 11:11:12</time>
      </trkpt>
      <trkpt lat="42.96158" lon="-1.67141">
        <ele>486.8</ele>
        <time>2021-03-07 11:11:13</time>
      </trkpt>
      <trkpt lat="42.96163" lon="-1.67151">
        <ele>486.6</ele>
        <time>2021-03-07 11:11:14</time>
      </trkpt>
      <trkpt lat="42.96169" lon="-1.67159">
        <ele>486.6</ele>
        <time>2021-03-07 11:11:15</time>
      </trkpt>
      <trkpt lat="42.96174" lon="-1.67168">
        <ele>486.6</ele>
        <time>2021-03-07 11:11:16</time>
      </trkpt>
      <trkpt lat="42.96179" lon="-1.67177">
        <ele>486.6</ele>
        <time>2021-03-07 11:11:17</time>
      </trkpt>
      <trkpt lat="42.96184" lon="-1.67186">
        <ele>486.6</ele>
        <time>2021-03-07 11:11:18</time>
      </trkpt>
      <trkpt lat="42.9619" lon="-1.67195">
        <ele>486.6</ele>
        <time>2021-03-07 11:11:19</time>
      </trkpt>
      <trkpt lat="42.96195" lon="-1.67204">
        <ele>486.6</ele>
        <time>2021-03-07 11:11:20</time>
      </trkpt>
      <trkpt lat="42.962" lon="-1.67213">
        <ele>486.6</ele>
        <time>2021-03-07 11:11:21</time>
      </trkpt>
      <trkpt lat="42.96205" lon="-1.6722">
        <ele>486.6</ele>
        <time>2021-03-07 11:11:22</time>
      </trkpt>
      <trkpt lat="42.9621" lon="-1.67229">
        <ele>486.6</ele>
        <time>2021-03-07 11:11:23</time>
      </trkpt>
      <trkpt lat="42.96215" lon="-1.67237">
        <ele>486.6</ele>
        <time>2021-03-07 11:11:24</time>
      </trkpt>
      <trkpt lat="42.9622" lon="-1.67246">
        <ele>486.6</ele>
        <time>2021-03-07 11:11:25</time>
      </trkpt>
      <trkpt lat="42.96225" lon="-1.67254">
        <ele>486.6</ele>
        <time>2021-03-07 11:11:26</time>
      </trkpt>
      <trkpt lat="42.9623" lon="-1.67263">
        <ele>486.8</ele>
        <time>2021-03-07 11:11:27</time>
      </trkpt>
      <trkpt lat="42.96234" lon="-1.67271">
        <ele>486.8</ele>
        <time>2021-03-07 11:11:28</time>
      </trkpt>
      <trkpt lat="42.9624" lon="-1.67279">
        <ele>486.8</ele>
        <time>2021-03-07 11:11:29</time>
      </trkpt>
      <trkpt lat="42.96246" lon="-1.67287">
        <ele>486.8</ele>
        <time>2021-03-07 11:11:30</time>
      </trkpt>
      <trkpt lat="42.96251" lon="-1.67294">
        <ele>486.8</ele>
        <time>2021-03-07 11:11:31</time>
      </trkpt>
      <trkpt lat="42.96256" lon="-1.67302">
        <ele>486.8</ele>
        <time>2021-03-07 11:11:32</time>
      </trkpt>
      <trkpt lat="42.96261" lon="-1.6731">
        <ele>487</ele>
        <time>2021-03-07 11:11:33</time>
      </trkpt>
      <trkpt lat="42.96266" lon="-1.67319">
        <ele>487.2</ele>
        <time>2021-03-07 11:11:34</time>
      </trkpt>
      <trkpt lat="42.96271" lon="-1.67327">
        <ele>487.2</ele>
        <time>2021-03-07 11:11:35</time>
      </trkpt>
      <trkpt lat="42.96276" lon="-1.67335">
        <ele>487.2</ele>
        <time>2021-03-07 11:11:36</time>
      </trkpt>
      <trkpt lat="42.96281" lon="-1.67343">
        <ele>487.2</ele>
        <time>2021-03-07 11:11:37</time>
      </trkpt>
      <trkpt lat="42.96286" lon="-1.67351">
        <ele>487.2</ele>
        <time>2021-03-07 11:11:38</time>
      </trkpt>
      <trkpt lat="42.96292" lon="-1.67359">
        <ele>487.2</ele>
        <time>2021-03-07 11:11:39</time>
      </trkpt>
      <trkpt lat="42.96296" lon="-1.67367">
        <ele>487.2</ele>
        <time>2021-03-07 11:11:40</time>
      </trkpt>
      <trkpt lat="42.96301" lon="-1.67375">
        <ele>487.2</ele>
        <time>2021-03-07 11:11:41</time>
      </trkpt>
      <trkpt lat="42.96305" lon="-1.67382">
        <ele>487.2</ele>
        <time>2021-03-07 11:11:42</time>
      </trkpt>
      <trkpt lat="42.96309" lon="-1.67389">
        <ele>487.2</ele>
        <time>2021-03-07 11:11:43</time>
      </trkpt>
      <trkpt lat="42.96313" lon="-1.67396">
        <ele>487.2</ele>
        <time>2021-03-07 11:11:44</time>
      </trkpt>
      <trkpt lat="42.96318" lon="-1.67402">
        <ele>487.2</ele>
        <time>2021-03-07 11:11:45</time>
      </trkpt>
      <trkpt lat="42.96322" lon="-1.67409">
        <ele>487.4</ele>
        <time>2021-03-07 11:11:46</time>
      </trkpt>
      <trkpt lat="42.96327" lon="-1.67415">
        <ele>487.4</ele>
        <time>2021-03-07 11:11:47</time>
      </trkpt>
      <trkpt lat="42.96332" lon="-1.67422">
        <ele>487.4</ele>
        <time>2021-03-07 11:11:48</time>
      </trkpt>
      <trkpt lat="42.96336" lon="-1.67428">
        <ele>487.6</ele>
        <time>2021-03-07 11:11:49</time>
      </trkpt>
      <trkpt lat="42.9634" lon="-1.67434">
        <ele>487.6</ele>
        <time>2021-03-07 11:11:50</time>
      </trkpt>
      <trkpt lat="42.96344" lon="-1.67441">
        <ele>487.8</ele>
        <time>2021-03-07 11:11:51</time>
      </trkpt>
      <trkpt lat="42.96348" lon="-1.67447">
        <ele>488</ele>
        <time>2021-03-07 11:11:52</time>
      </trkpt>
      <trkpt lat="42.96353" lon="-1.67454">
        <ele>488</ele>
        <time>2021-03-07 11:11:53</time>
      </trkpt>
      <trkpt lat="42.96358" lon="-1.67461">
        <ele>488.2</ele>
        <time>2021-03-07 11:11:54</time>
      </trkpt>
      <trkpt lat="42.9639" lon="-1.67509">
        <ele>490.2</ele>
        <time>2021-03-07 11:12:26</time>
      </trkpt>
      <trkpt lat="42.96393" lon="-1.67512">
        <ele>490.2</ele>
        <time>2021-03-07 11:12:27</time>
      </trkpt>
      <trkpt lat="42.96396" lon="-1.67515">
        <ele>490.2</ele>
        <time>2021-03-07 11:12:28</time>
      </trkpt>
      <trkpt lat="42.96401" lon="-1.67517">
        <ele>490.2</ele>
        <time>2021-03-07 11:12:29</time>
      </trkpt>
      <trkpt lat="42.96405" lon="-1.6752">
        <ele>490.2</ele>
        <time>2021-03-07 11:12:30</time>
      </trkpt>
      <trkpt lat="42.9641" lon="-1.67523">
        <ele>490</ele>
        <time>2021-03-07 11:12:31</time>
      </trkpt>
      <trkpt lat="42.96414" lon="-1.67527">
        <ele>490</ele>
        <time>2021-03-07 11:12:32</time>
      </trkpt>
      <trkpt lat="42.96419" lon="-1.6753">
        <ele>490</ele>
        <time>2021-03-07 11:12:33</time>
      </trkpt>
      <trkpt lat="42.96424" lon="-1.67534">
        <ele>490</ele>
        <time>2021-03-07 11:12:34</time>
      </trkpt>
      <trkpt lat="42.96429" lon="-1.67538">
        <ele>490</ele>
        <time>2021-03-07 11:12:35</time>
      </trkpt>
      <trkpt lat="42.96435" lon="-1.6754">
        <ele>490</ele>
        <time>2021-03-07 11:12:36</time>
      </trkpt>
      <trkpt lat="42.9644" lon="-1.67544">
        <ele>489.8</ele>
        <time>2021-03-07 11:12:37</time>
      </trkpt>
      <trkpt lat="42.96446" lon="-1.67547">
        <ele>489.8</ele>
        <time>2021-03-07 11:12:38</time>
      </trkpt>
      <trkpt lat="42.96451" lon="-1.67551">
        <ele>489.6</ele>
        <time>2021-03-07 11:12:39</time>
      </trkpt>
      <trkpt lat="42.96456" lon="-1.67554">
        <ele>489.6</ele>
        <time>2021-03-07 11:12:40</time>
      </trkpt>
      <trkpt lat="42.96461" lon="-1.67556">
        <ele>489.6</ele>
        <time>2021-03-07 11:12:41</time>
      </trkpt>
      <trkpt lat="42.96467" lon="-1.67558">
        <ele>489.6</ele>
        <time>2021-03-07 11:12:42</time>
      </trkpt>
      <trkpt lat="42.96471" lon="-1.6756">
        <ele>489.6</ele>
        <time>2021-03-07 11:12:43</time>
      </trkpt>
      <trkpt lat="42.96476" lon="-1.67562">
        <ele>489.6</ele>
        <time>2021-03-07 11:12:44</time>
      </trkpt>
      <trkpt lat="42.96482" lon="-1.67564">
        <ele>489.6</ele>
        <time>2021-03-07 11:12:45</time>
      </trkpt>
      <trkpt lat="42.96488" lon="-1.67567">
        <ele>489.6</ele>
        <time>2021-03-07 11:12:46</time>
      </trkpt>
      <trkpt lat="42.96495" lon="-1.6757">
        <ele>489.2</ele>
        <time>2021-03-07 11:12:47</time>
      </trkpt>
      <trkpt lat="42.965" lon="-1.67574">
        <ele>489.4</ele>
        <time>2021-03-07 11:12:48</time>
      </trkpt>
      <trkpt lat="42.96507" lon="-1.67578">
        <ele>489.4</ele>
        <time>2021-03-07 11:12:49</time>
      </trkpt>
      <trkpt lat="42.96513" lon="-1.67582">
        <ele>489.4</ele>
        <time>2021-03-07 11:12:50</time>
      </trkpt>
      <trkpt lat="42.9652" lon="-1.67585">
        <ele>489.4</ele>
        <time>2021-03-07 11:12:51</time>
      </trkpt>
      <trkpt lat="42.96527" lon="-1.67588">
        <ele>489.4</ele>
        <time>2021-03-07 11:12:52</time>
      </trkpt>
      <trkpt lat="42.96533" lon="-1.67591">
        <ele>489.4</ele>
        <time>2021-03-07 11:12:53</time>
      </trkpt>
      <trkpt lat="42.96539" lon="-1.67593">
        <ele>489.4</ele>
        <time>2021-03-07 11:12:54</time>
      </trkpt>
      <trkpt lat="42.96545" lon="-1.67596">
        <ele>489.4</ele>
        <time>2021-03-07 11:12:55</time>
      </trkpt>
      <trkpt lat="42.9655" lon="-1.67598">
        <ele>489.6</ele>
        <time>2021-03-07 11:12:56</time>
      </trkpt>
      <trkpt lat="42.96555" lon="-1.676">
        <ele>489.6</ele>
        <time>2021-03-07 11:12:57</time>
      </trkpt>
      <trkpt lat="42.96561" lon="-1.67603">
        <ele>489.6</ele>
        <time>2021-03-07 11:12:58</time>
      </trkpt>
      <trkpt lat="42.96567" lon="-1.67606">
        <ele>489.6</ele>
        <time>2021-03-07 11:12:59</time>
      </trkpt>
      <trkpt lat="42.96573" lon="-1.67609">
        <ele>489.6</ele>
        <time>2021-03-07 11:13:00</time>
      </trkpt>
      <trkpt lat="42.9658" lon="-1.67612">
        <ele>489.6</ele>
        <time>2021-03-07 11:13:01</time>
      </trkpt>
      <trkpt lat="42.96586" lon="-1.67615">
        <ele>489.6</ele>
        <time>2021-03-07 11:13:02</time>
      </trkpt>
      <trkpt lat="42.96593" lon="-1.67617">
        <ele>489.6</ele>
        <time>2021-03-07 11:13:03</time>
      </trkpt>
      <trkpt lat="42.966" lon="-1.6762">
        <ele>489.6</ele>
        <time>2021-03-07 11:13:04</time>
      </trkpt>
      <trkpt lat="42.96606" lon="-1.67622">
        <ele>489.8</ele>
        <time>2021-03-07 11:13:05</time>
      </trkpt>
      <trkpt lat="42.96613" lon="-1.67625">
        <ele>489.8</ele>
        <time>2021-03-07 11:13:06</time>
      </trkpt>
      <trkpt lat="42.96619" lon="-1.67628">
        <ele>489.8</ele>
        <time>2021-03-07 11:13:07</time>
      </trkpt>
      <trkpt lat="42.96626" lon="-1.6763">
        <ele>490</ele>
        <time>2021-03-07 11:13:08</time>
      </trkpt>
      <trkpt lat="42.96632" lon="-1.67632">
        <ele>490.2</ele>
        <time>2021-03-07 11:13:09</time>
      </trkpt>
      <trkpt lat="42.96638" lon="-1.67634">
        <ele>490.4</ele>
        <time>2021-03-07 11:13:10</time>
      </trkpt>
      <trkpt lat="42.96645" lon="-1.67636">
        <ele>490.4</ele>
        <time>2021-03-07 11:13:11</time>
      </trkpt>
      <trkpt lat="42.96652" lon="-1.67638">
        <ele>490.4</ele>
        <time>2021-03-07 11:13:12</time>
      </trkpt>
      <trkpt lat="42.96658" lon="-1.6764">
        <ele>490.6</ele>
        <time>2021-03-07 11:13:13</time>
      </trkpt>
      <trkpt lat="42.96665" lon="-1.67642">
        <ele>490.6</ele>
        <time>2021-03-07 11:13:14</time>
      </trkpt>
      <trkpt lat="42.96671" lon="-1.67645">
        <ele>490.6</ele>
        <time>2021-03-07 11:13:15</time>
      </trkpt>
      <trkpt lat="42.96677" lon="-1.67647">
        <ele>490.8</ele>
        <time>2021-03-07 11:13:16</time>
      </trkpt>
      <trkpt lat="42.96684" lon="-1.67648">
        <ele>490.8</ele>
        <time>2021-03-07 11:13:17</time>
      </trkpt>
      <trkpt lat="42.96681" lon="-1.67649">
        <ele>502.6</ele>
        <time>2021-03-07 11:41:25</time>
      </trkpt>
      <trkpt lat="42.96676" lon="-1.67647">
        <ele>502.4</ele>
        <time>2021-03-07 11:41:26</time>
      </trkpt>
      <trkpt lat="42.96671" lon="-1.67645">
        <ele>502.4</ele>
        <time>2021-03-07 11:41:27</time>
      </trkpt>
      <trkpt lat="42.96665" lon="-1.67643">
        <ele>502.2</ele>
        <time>2021-03-07 11:41:28</time>
      </trkpt>
      <trkpt lat="42.9666" lon="-1.67642">
        <ele>502.2</ele>
        <time>2021-03-07 11:41:29</time>
      </trkpt>
      <trkpt lat="42.96654" lon="-1.6764">
        <ele>502</ele>
        <time>2021-03-07 11:41:30</time>
      </trkpt>
      <trkpt lat="42.96648" lon="-1.67639">
        <ele>501.8</ele>
        <time>2021-03-07 11:41:31</time>
      </trkpt>
      <trkpt lat="42.96642" lon="-1.67637">
        <ele>501.8</ele>
        <time>2021-03-07 11:41:32</time>
      </trkpt>
      <trkpt lat="42.96636" lon="-1.67635">
        <ele>501.6</ele>
        <time>2021-03-07 11:41:33</time>
      </trkpt>
      <trkpt lat="42.9663" lon="-1.67633">
        <ele>501.6</ele>
        <time>2021-03-07 11:41:34</time>
      </trkpt>
      <trkpt lat="42.96624" lon="-1.67631">
        <ele>501.4</ele>
        <time>2021-03-07 11:41:35</time>
      </trkpt>
      <trkpt lat="42.96618" lon="-1.67629">
        <ele>501.2</ele>
        <time>2021-03-07 11:41:36</time>
      </trkpt>
      <trkpt lat="42.96612" lon="-1.67627">
        <ele>501</ele>
        <time>2021-03-07 11:41:37</time>
      </trkpt>
      <trkpt lat="42.96605" lon="-1.67626">
        <ele>500.6</ele>
        <time>2021-03-07 11:41:38</time>
      </trkpt>
      <trkpt lat="42.96599" lon="-1.67623">
        <ele>500.4</ele>
        <time>2021-03-07 11:41:39</time>
      </trkpt>
      <trkpt lat="42.96593" lon="-1.67621">
        <ele>500.4</ele>
        <time>2021-03-07 11:41:40</time>
      </trkpt>
      <trkpt lat="42.96586" lon="-1.67619">
        <ele>500.2</ele>
        <time>2021-03-07 11:41:41</time>
      </trkpt>
      <trkpt lat="42.9658" lon="-1.67617">
        <ele>500.2</ele>
        <time>2021-03-07 11:41:42</time>
      </trkpt>
      <trkpt lat="42.96573" lon="-1.67615">
        <ele>500</ele>
        <time>2021-03-07 11:41:43</time>
      </trkpt>
      <trkpt lat="42.96567" lon="-1.67613">
        <ele>500</ele>
        <time>2021-03-07 11:41:44</time>
      </trkpt>
      <trkpt lat="42.9656" lon="-1.6761">
        <ele>500</ele>
        <time>2021-03-07 11:41:45</time>
      </trkpt>
      <trkpt lat="42.96553" lon="-1.67608">
        <ele>500</ele>
        <time>2021-03-07 11:41:46</time>
      </trkpt>
      <trkpt lat="42.96547" lon="-1.67606">
        <ele>500</ele>
        <time>2021-03-07 11:41:47</time>
      </trkpt>
      <trkpt lat="42.9654" lon="-1.67603">
        <ele>500</ele>
        <time>2021-03-07 11:41:48</time>
      </trkpt>
      <trkpt lat="42.96533" lon="-1.67601">
        <ele>500</ele>
        <time>2021-03-07 11:41:49</time>
      </trkpt>
      <trkpt lat="42.96525" lon="-1.67598">
        <ele>500</ele>
        <time>2021-03-07 11:41:50</time>
      </trkpt>
      <trkpt lat="42.96518" lon="-1.67596">
        <ele>500</ele>
        <time>2021-03-07 11:41:51</time>
      </trkpt>
      <trkpt lat="42.96511" lon="-1.67593">
        <ele>500</ele>
        <time>2021-03-07 11:41:52</time>
      </trkpt>
      <trkpt lat="42.96504" lon="-1.67591">
        <ele>500</ele>
        <time>2021-03-07 11:41:53</time>
      </trkpt>
      <trkpt lat="42.96497" lon="-1.67588">
        <ele>500</ele>
        <time>2021-03-07 11:41:54</time>
      </trkpt>
      <trkpt lat="42.9649" lon="-1.67586">
        <ele>500</ele>
        <time>2021-03-07 11:41:55</time>
      </trkpt>
      <trkpt lat="42.96483" lon="-1.67583">
        <ele>500</ele>
        <time>2021-03-07 11:41:56</time>
      </trkpt>
      <trkpt lat="42.96476" lon="-1.67581">
        <ele>500</ele>
        <time>2021-03-07 11:41:57</time>
      </trkpt>
      <trkpt lat="42.96469" lon="-1.67579">
        <ele>500</ele>
        <time>2021-03-07 11:41:58</time>
      </trkpt>
      <trkpt lat="42.96463" lon="-1.67577">
        <ele>500</ele>
        <time>2021-03-07 11:41:59</time>
      </trkpt>
      <trkpt lat="42.96456" lon="-1.67574">
        <ele>500.2</ele>
        <time>2021-03-07 11:42:00</time>
      </trkpt>
      <trkpt lat="42.96449" lon="-1.67571">
        <ele>500.2</ele>
        <time>2021-03-07 11:42:01</time>
      </trkpt>
      <trkpt lat="42.96442" lon="-1.67568">
        <ele>500.2</ele>
        <time>2021-03-07 11:42:02</time>
      </trkpt>
      <trkpt lat="42.96436" lon="-1.67564">
        <ele>500.2</ele>
        <time>2021-03-07 11:42:03</time>
      </trkpt>
      <trkpt lat="42.96429" lon="-1.6756">
        <ele>500.2</ele>
        <time>2021-03-07 11:42:04</time>
      </trkpt>
      <trkpt lat="42.96422" lon="-1.67556">
        <ele>500</ele>
        <time>2021-03-07 11:42:05</time>
      </trkpt>
      <trkpt lat="42.96416" lon="-1.67551">
        <ele>500</ele>
        <time>2021-03-07 11:42:06</time>
      </trkpt>
      <trkpt lat="42.96409" lon="-1.67546">
        <ele>500</ele>
        <time>2021-03-07 11:42:07</time>
      </trkpt>
      <trkpt lat="42.96403" lon="-1.67542">
        <ele>500</ele>
        <time>2021-03-07 11:42:08</time>
      </trkpt>
      <trkpt lat="42.96397" lon="-1.67536">
        <ele>500</ele>
        <time>2021-03-07 11:42:09</time>
      </trkpt>
      <trkpt lat="42.96391" lon="-1.67531">
        <ele>500</ele>
        <time>2021-03-07 11:42:10</time>
      </trkpt>
      <trkpt lat="42.96386" lon="-1.67525">
        <ele>500</ele>
        <time>2021-03-07 11:42:11</time>
      </trkpt>
      <trkpt lat="42.9638" lon="-1.6752">
        <ele>500</ele>
        <time>2021-03-07 11:42:12</time>
      </trkpt>
      <trkpt lat="42.96375" lon="-1.67514">
        <ele>500</ele>
        <time>2021-03-07 11:42:13</time>
      </trkpt>
      <trkpt lat="42.9637" lon="-1.67508">
        <ele>499.8</ele>
        <time>2021-03-07 11:42:14</time>
      </trkpt>
      <trkpt lat="42.96365" lon="-1.67501">
        <ele>499.6</ele>
        <time>2021-03-07 11:42:15</time>
      </trkpt>
      <trkpt lat="42.9636" lon="-1.67494">
        <ele>499.4</ele>
        <time>2021-03-07 11:42:16</time>
      </trkpt>
      <trkpt lat="42.96355" lon="-1.67487">
        <ele>499.2</ele>
        <time>2021-03-07 11:42:17</time>
      </trkpt>
      <trkpt lat="42.9635" lon="-1.6748">
        <ele>499.2</ele>
        <time>2021-03-07 11:42:18</time>
      </trkpt>
      <trkpt lat="42.96345" lon="-1.67472">
        <ele>499</ele>
        <time>2021-03-07 11:42:19</time>
      </trkpt>
      <trkpt lat="42.9634" lon="-1.67465">
        <ele>498.8</ele>
        <time>2021-03-07 11:42:20</time>
      </trkpt>
      <trkpt lat="42.96335" lon="-1.67458">
        <ele>499</ele>
        <time>2021-03-07 11:42:21</time>
      </trkpt>
      <trkpt lat="42.9633" lon="-1.6745">
        <ele>498.8</ele>
        <time>2021-03-07 11:42:22</time>
      </trkpt>
      <trkpt lat="42.96325" lon="-1.67443">
        <ele>498.8</ele>
        <time>2021-03-07 11:42:23</time>
      </trkpt>
      <trkpt lat="42.96319" lon="-1.67436">
        <ele>498.8</ele>
        <time>2021-03-07 11:42:24</time>
      </trkpt>
      <trkpt lat="42.96314" lon="-1.67427">
        <ele>498.6</ele>
        <time>2021-03-07 11:42:25</time>
      </trkpt>
      <trkpt lat="42.96309" lon="-1.67419">
        <ele>498.4</ele>
        <time>2021-03-07 11:42:26</time>
      </trkpt>
      <trkpt lat="42.96304" lon="-1.67411">
        <ele>498.4</ele>
        <time>2021-03-07 11:42:27</time>
      </trkpt>
      <trkpt lat="42.96299" lon="-1.67403">
        <ele>498.4</ele>
        <time>2021-03-07 11:42:28</time>
      </trkpt>
      <trkpt lat="42.96294" lon="-1.67396">
        <ele>498.2</ele>
        <time>2021-03-07 11:42:29</time>
      </trkpt>
      <trkpt lat="42.96289" lon="-1.67388">
        <ele>498.2</ele>
        <time>2021-03-07 11:42:30</time>
      </trkpt>
      <trkpt lat="42.96284" lon="-1.67381">
        <ele>498</ele>
        <time>2021-03-07 11:42:31</time>
      </trkpt>
      <trkpt lat="42.96279" lon="-1.67373">
        <ele>498</ele>
        <time>2021-03-07 11:42:32</time>
      </trkpt>
      <trkpt lat="42.96273" lon="-1.67366">
        <ele>498</ele>
        <time>2021-03-07 11:42:33</time>
      </trkpt>
      <trkpt lat="42.96268" lon="-1.67357">
        <ele>498</ele>
        <time>2021-03-07 11:42:34</time>
      </trkpt>
      <trkpt lat="42.96263" lon="-1.67346">
        <ele>498</ele>
        <time>2021-03-07 11:42:35</time>
      </trkpt>
      <trkpt lat="42.96257" lon="-1.67335">
        <ele>498</ele>
        <time>2021-03-07 11:42:36</time>
      </trkpt>
      <trkpt lat="42.96252" lon="-1.67326">
        <ele>498</ele>
        <time>2021-03-07 11:42:37</time>
      </trkpt>
      <trkpt lat="42.96247" lon="-1.67318">
        <ele>498</ele>
        <time>2021-03-07 11:42:38</time>
      </trkpt>
      <trkpt lat="42.96242" lon="-1.6731">
        <ele>498</ele>
        <time>2021-03-07 11:42:39</time>
      </trkpt>
      <trkpt lat="42.96237" lon="-1.67302">
        <ele>498</ele>
        <time>2021-03-07 11:42:40</time>
      </trkpt>
      <trkpt lat="42.96232" lon="-1.67294">
        <ele>498</ele>
        <time>2021-03-07 11:42:41</time>
      </trkpt>
      <trkpt lat="42.96227" lon="-1.67286">
        <ele>498</ele>
        <time>2021-03-07 11:42:42</time>
      </trkpt>
      <trkpt lat="42.96222" lon="-1.67279">
        <ele>498.2</ele>
        <time>2021-03-07 11:42:43</time>
      </trkpt>
      <trkpt lat="42.96217" lon="-1.6727">
        <ele>498.2</ele>
        <time>2021-03-07 11:42:44</time>
      </trkpt>
      <trkpt lat="42.96212" lon="-1.67262">
        <ele>498.2</ele>
        <time>2021-03-07 11:42:45</time>
      </trkpt>
      <trkpt lat="42.96206" lon="-1.67254">
        <ele>498.2</ele>
        <time>2021-03-07 11:42:46</time>
      </trkpt>
      <trkpt lat="42.96201" lon="-1.67244">
        <ele>498.2</ele>
        <time>2021-03-07 11:42:47</time>
      </trkpt>
      <trkpt lat="42.96195" lon="-1.67236">
        <ele>498.2</ele>
        <time>2021-03-07 11:42:48</time>
      </trkpt>
      <trkpt lat="42.9619" lon="-1.67228">
        <ele>498.2</ele>
        <time>2021-03-07 11:42:49</time>
      </trkpt>
      <trkpt lat="42.96185" lon="-1.6722">
        <ele>498.2</ele>
        <time>2021-03-07 11:42:50</time>
      </trkpt>
      <trkpt lat="42.96179" lon="-1.67211">
        <ele>498.2</ele>
        <time>2021-03-07 11:42:51</time>
      </trkpt>
      <trkpt lat="42.96174" lon="-1.67201">
        <ele>498.2</ele>
        <time>2021-03-07 11:42:52</time>
      </trkpt>
      <trkpt lat="42.96168" lon="-1.67193">
        <ele>498</ele>
        <time>2021-03-07 11:42:53</time>
      </trkpt>
      <trkpt lat="42.96163" lon="-1.67185">
        <ele>498</ele>
        <time>2021-03-07 11:42:54</time>
      </trkpt>
      <trkpt lat="42.96158" lon="-1.67177">
        <ele>498</ele>
        <time>2021-03-07 11:42:55</time>
      </trkpt>
      <trkpt lat="42.96153" lon="-1.67169">
        <ele>498</ele>
        <time>2021-03-07 11:42:56</time>
      </trkpt>
      <trkpt lat="42.96147" lon="-1.67161">
        <ele>498</ele>
        <time>2021-03-07 11:42:57</time>
      </trkpt>
      <trkpt lat="42.96142" lon="-1.67153">
        <ele>498</ele>
        <time>2021-03-07 11:42:58</time>
      </trkpt>
      <trkpt lat="42.96137" lon="-1.67143">
        <ele>497.8</ele>
        <time>2021-03-07 11:42:59</time>
      </trkpt>
      <trkpt lat="42.96132" lon="-1.67135">
        <ele>497.8</ele>
        <time>2021-03-07 11:43:00</time>
      </trkpt>
      <trkpt lat="42.96127" lon="-1.67126">
        <ele>497.8</ele>
        <time>2021-03-07 11:43:01</time>
      </trkpt>
      <trkpt lat="42.96122" lon="-1.67119">
        <ele>497.8</ele>
        <time>2021-03-07 11:43:02</time>
      </trkpt>
      <trkpt lat="42.96117" lon="-1.67112">
        <ele>498</ele>
        <time>2021-03-07 11:43:03</time>
      </trkpt>
      <trkpt lat="42.96113" lon="-1.67105">
        <ele>498</ele>
        <time>2021-03-07 11:43:04</time>
      </trkpt>
      <trkpt lat="42.96108" lon="-1.67098">
        <ele>498</ele>
        <time>2021-03-07 11:43:05</time>
      </trkpt>
      <trkpt lat="42.96104" lon="-1.67091">
        <ele>497.8</ele>
        <time>2021-03-07 11:43:06</time>
      </trkpt>
      <trkpt lat="42.96099" lon="-1.67084">
        <ele>497.8</ele>
        <time>2021-03-07 11:43:07</time>
      </trkpt>
      <trkpt lat="42.96095" lon="-1.67076">
        <ele>497.8</ele>
        <time>2021-03-07 11:43:08</time>
      </trkpt>
      <trkpt lat="42.9609" lon="-1.67068">
        <ele>497.8</ele>
        <time>2021-03-07 11:43:09</time>
      </trkpt>
      <trkpt lat="42.96085" lon="-1.67061">
        <ele>497.8</ele>
        <time>2021-03-07 11:43:10</time>
      </trkpt>
      <trkpt lat="42.9608" lon="-1.67054">
        <ele>497.8</ele>
        <time>2021-03-07 11:43:11</time>
      </trkpt>
      <trkpt lat="42.96076" lon="-1.67047">
        <ele>497.8</ele>
        <time>2021-03-07 11:43:12</time>
      </trkpt>
      <trkpt lat="42.96071" lon="-1.6704">
        <ele>497.8</ele>
        <time>2021-03-07 11:43:13</time>
      </trkpt>
      <trkpt lat="42.96067" lon="-1.67033">
        <ele>497.8</ele>
        <time>2021-03-07 11:43:14</time>
      </trkpt>
      <trkpt lat="42.96062" lon="-1.67027">
        <ele>498</ele>
        <time>2021-03-07 11:43:15</time>
      </trkpt>
      <trkpt lat="42.96058" lon="-1.6702">
        <ele>498</ele>
        <time>2021-03-07 11:43:16</time>
      </trkpt>
      <trkpt lat="42.96053" lon="-1.67013">
        <ele>498.2</ele>
        <time>2021-03-07 11:43:17</time>
      </trkpt>
      <trkpt lat="42.96049" lon="-1.67006">
        <ele>498.4</ele>
        <time>2021-03-07 11:43:18</time>
      </trkpt>
      <trkpt lat="42.96044" lon="-1.66998">
        <ele>498.4</ele>
        <time>2021-03-07 11:43:19</time>
      </trkpt>
      <trkpt lat="42.96039" lon="-1.66989">
        <ele>498.6</ele>
        <time>2021-03-07 11:43:20</time>
      </trkpt>
      <trkpt lat="42.96034" lon="-1.66982">
        <ele>498.8</ele>
        <time>2021-03-07 11:43:21</time>
      </trkpt>
      <trkpt lat="42.9603" lon="-1.66975">
        <ele>498.8</ele>
        <time>2021-03-07 11:43:22</time>
      </trkpt>
      <trkpt lat="42.96025" lon="-1.66967">
        <ele>499</ele>
        <time>2021-03-07 11:43:23</time>
      </trkpt>
      <trkpt lat="42.9602" lon="-1.66959">
        <ele>499</ele>
        <time>2021-03-07 11:43:24</time>
      </trkpt>
      <trkpt lat="42.96015" lon="-1.66949">
        <ele>499.2</ele>
        <time>2021-03-07 11:43:25</time>
      </trkpt>
      <trkpt lat="42.96011" lon="-1.66942">
        <ele>499.2</ele>
        <time>2021-03-07 11:43:26</time>
      </trkpt>
      <trkpt lat="42.96006" lon="-1.66935">
        <ele>499.4</ele>
        <time>2021-03-07 11:43:27</time>
      </trkpt>
      <trkpt lat="42.96001" lon="-1.66927">
        <ele>499.4</ele>
        <time>2021-03-07 11:43:28</time>
      </trkpt>
      <trkpt lat="42.95996" lon="-1.6692">
        <ele>499.4</ele>
        <time>2021-03-07 11:43:29</time>
      </trkpt>
      <trkpt lat="42.9599" lon="-1.66912">
        <ele>499.4</ele>
        <time>2021-03-07 11:43:30</time>
      </trkpt>
      <trkpt lat="42.95985" lon="-1.66905">
        <ele>499.4</ele>
        <time>2021-03-07 11:43:31</time>
      </trkpt>
      <trkpt lat="42.9598" lon="-1.66898">
        <ele>499.4</ele>
        <time>2021-03-07 11:43:32</time>
      </trkpt>
      <trkpt lat="42.95975" lon="-1.66892">
        <ele>499.6</ele>
        <time>2021-03-07 11:43:33</time>
      </trkpt>
      <trkpt lat="42.9597" lon="-1.66884">
        <ele>499.6</ele>
        <time>2021-03-07 11:43:34</time>
      </trkpt>
      <trkpt lat="42.95965" lon="-1.66877">
        <ele>499.6</ele>
        <time>2021-03-07 11:43:35</time>
      </trkpt>
      <trkpt lat="42.9596" lon="-1.6687">
        <ele>499.6</ele>
        <time>2021-03-07 11:43:36</time>
      </trkpt>
      <trkpt lat="42.95955" lon="-1.66861">
        <ele>499.6</ele>
        <time>2021-03-07 11:43:37</time>
      </trkpt>
      <trkpt lat="42.9595" lon="-1.66853">
        <ele>499.6</ele>
        <time>2021-03-07 11:43:38</time>
      </trkpt>
      <trkpt lat="42.95945" lon="-1.66845">
        <ele>499.6</ele>
        <time>2021-03-07 11:43:39</time>
      </trkpt>
      <trkpt lat="42.95941" lon="-1.66837">
        <ele>499.6</ele>
        <time>2021-03-07 11:43:40</time>
      </trkpt>
      <trkpt lat="42.95936" lon="-1.66829">
        <ele>499.6</ele>
        <time>2021-03-07 11:43:41</time>
      </trkpt>
      <trkpt lat="42.9593" lon="-1.66821">
        <ele>499.4</ele>
        <time>2021-03-07 11:43:42</time>
      </trkpt>
      <trkpt lat="42.95925" lon="-1.66812">
        <ele>499.4</ele>
        <time>2021-03-07 11:43:43</time>
      </trkpt>
      <trkpt lat="42.9592" lon="-1.66803">
        <ele>499.4</ele>
        <time>2021-03-07 11:43:44</time>
      </trkpt>
      <trkpt lat="42.95915" lon="-1.66795">
        <ele>499.6</ele>
        <time>2021-03-07 11:43:45</time>
      </trkpt>
      <trkpt lat="42.95909" lon="-1.66786">
        <ele>499.6</ele>
        <time>2021-03-07 11:43:46</time>
      </trkpt>
      <trkpt lat="42.95904" lon="-1.66777">
        <ele>499.4</ele>
        <time>2021-03-07 11:43:47</time>
      </trkpt>
      <trkpt lat="42.95898" lon="-1.66768">
        <ele>499.4</ele>
        <time>2021-03-07 11:43:48</time>
      </trkpt>
      <trkpt lat="42.95893" lon="-1.6676">
        <ele>499.2</ele>
        <time>2021-03-07 11:43:49</time>
      </trkpt>
      <trkpt lat="42.95888" lon="-1.66752">
        <ele>499.2</ele>
        <time>2021-03-07 11:43:50</time>
      </trkpt>
      <trkpt lat="42.95883" lon="-1.66743">
        <ele>499</ele>
        <time>2021-03-07 11:43:51</time>
      </trkpt>
      <trkpt lat="42.95878" lon="-1.66735">
        <ele>499</ele>
        <time>2021-03-07 11:43:52</time>
      </trkpt>
      <trkpt lat="42.95873" lon="-1.66726">
        <ele>498.8</ele>
        <time>2021-03-07 11:43:53</time>
      </trkpt>
      <trkpt lat="42.95867" lon="-1.66718">
        <ele>498.8</ele>
        <time>2021-03-07 11:43:54</time>
      </trkpt>
      <trkpt lat="42.95862" lon="-1.6671">
        <ele>498.8</ele>
        <time>2021-03-07 11:43:55</time>
      </trkpt>
      <trkpt lat="42.95857" lon="-1.66701">
        <ele>498.6</ele>
        <time>2021-03-07 11:43:56</time>
      </trkpt>
      <trkpt lat="42.95851" lon="-1.66693">
        <ele>498.8</ele>
        <time>2021-03-07 11:43:57</time>
      </trkpt>
      <trkpt lat="42.95846" lon="-1.66685">
        <ele>498.6</ele>
        <time>2021-03-07 11:43:58</time>
      </trkpt>
      <trkpt lat="42.95841" lon="-1.66677">
        <ele>498.6</ele>
        <time>2021-03-07 11:43:59</time>
      </trkpt>
      <trkpt lat="42.95836" lon="-1.66669">
        <ele>498.6</ele>
        <time>2021-03-07 11:44:00</time>
      </trkpt>
      <trkpt lat="42.95832" lon="-1.6666">
        <ele>498.4</ele>
        <time>2021-03-07 11:44:01</time>
      </trkpt>
      <trkpt lat="42.95827" lon="-1.66652">
        <ele>498.4</ele>
        <time>2021-03-07 11:44:02</time>
      </trkpt>
      <trkpt lat="42.95822" lon="-1.66645">
        <ele>498.4</ele>
        <time>2021-03-07 11:44:03</time>
      </trkpt>
      <trkpt lat="42.95818" lon="-1.66638">
        <ele>498.2</ele>
        <time>2021-03-07 11:44:04</time>
      </trkpt>
      <trkpt lat="42.95813" lon="-1.66631">
        <ele>498.2</ele>
        <time>2021-03-07 11:44:05</time>
      </trkpt>
      <trkpt lat="42.95809" lon="-1.66625">
        <ele>498</ele>
        <time>2021-03-07 11:44:06</time>
      </trkpt>
      <trkpt lat="42.95805" lon="-1.66619">
        <ele>498</ele>
        <time>2021-03-07 11:44:07</time>
      </trkpt>
      <trkpt lat="42.95801" lon="-1.66613">
        <ele>497.8</ele>
        <time>2021-03-07 11:44:08</time>
      </trkpt>
      <trkpt lat="42.95796" lon="-1.66606">
        <ele>497.8</ele>
        <time>2021-03-07 11:44:09</time>
      </trkpt>
      <trkpt lat="42.95792" lon="-1.666">
        <ele>497.8</ele>
        <time>2021-03-07 11:44:10</time>
      </trkpt>
      <trkpt lat="42.95788" lon="-1.66592">
        <ele>497.8</ele>
        <time>2021-03-07 11:44:11</time>
      </trkpt>
      <trkpt lat="42.95784" lon="-1.66585">
        <ele>497.8</ele>
        <time>2021-03-07 11:44:12</time>
      </trkpt>
      <trkpt lat="42.95779" lon="-1.66578">
        <ele>497.8</ele>
        <time>2021-03-07 11:44:13</time>
      </trkpt>
      <trkpt lat="42.95774" lon="-1.66571">
        <ele>497.8</ele>
        <time>2021-03-07 11:44:14</time>
      </trkpt>
      <trkpt lat="42.9577" lon="-1.66562">
        <ele>497.8</ele>
        <time>2021-03-07 11:44:15</time>
      </trkpt>
      <trkpt lat="42.95765" lon="-1.66554">
        <ele>497.8</ele>
        <time>2021-03-07 11:44:16</time>
      </trkpt>
      <trkpt lat="42.9576" lon="-1.66546">
        <ele>497.8</ele>
        <time>2021-03-07 11:44:17</time>
      </trkpt>
      <trkpt lat="42.95755" lon="-1.66539">
        <ele>497.8</ele>
        <time>2021-03-07 11:44:18</time>
      </trkpt>
      <trkpt lat="42.9575" lon="-1.66533">
        <ele>498</ele>
        <time>2021-03-07 11:44:19</time>
      </trkpt>
      <trkpt lat="42.95745" lon="-1.66525">
        <ele>498</ele>
        <time>2021-03-07 11:44:20</time>
      </trkpt>
      <trkpt lat="42.9574" lon="-1.66517">
        <ele>498</ele>
        <time>2021-03-07 11:44:21</time>
      </trkpt>
      <trkpt lat="42.95734" lon="-1.66509">
        <ele>498</ele>
        <time>2021-03-07 11:44:22</time>
      </trkpt>
      <trkpt lat="42.95729" lon="-1.66501">
        <ele>498</ele>
        <time>2021-03-07 11:44:23</time>
      </trkpt>
      <trkpt lat="42.95723" lon="-1.66492">
        <ele>498</ele>
        <time>2021-03-07 11:44:24</time>
      </trkpt>
      <trkpt lat="42.95717" lon="-1.66482">
        <ele>498.2</ele>
        <time>2021-03-07 11:44:25</time>
      </trkpt>
      <trkpt lat="42.95711" lon="-1.66472">
        <ele>498.2</ele>
        <time>2021-03-07 11:44:26</time>
      </trkpt>
      <trkpt lat="42.95705" lon="-1.6646">
        <ele>498.2</ele>
        <time>2021-03-07 11:44:27</time>
      </trkpt>
      <trkpt lat="42.95699" lon="-1.66451">
        <ele>498.4</ele>
        <time>2021-03-07 11:44:28</time>
      </trkpt>
      <trkpt lat="42.95693" lon="-1.66441">
        <ele>498.4</ele>
        <time>2021-03-07 11:44:29</time>
      </trkpt>
      <trkpt lat="42.95687" lon="-1.66431">
        <ele>498.6</ele>
        <time>2021-03-07 11:44:30</time>
      </trkpt>
      <trkpt lat="42.95681" lon="-1.66422">
        <ele>498.6</ele>
        <time>2021-03-07 11:44:31</time>
      </trkpt>
      <trkpt lat="42.95675" lon="-1.66412">
        <ele>498.6</ele>
        <time>2021-03-07 11:44:32</time>
      </trkpt>
      <trkpt lat="42.95669" lon="-1.66403">
        <ele>498.6</ele>
        <time>2021-03-07 11:44:33</time>
      </trkpt>
      <trkpt lat="42.95662" lon="-1.66392">
        <ele>498.6</ele>
        <time>2021-03-07 11:44:34</time>
      </trkpt>
      <trkpt lat="42.95656" lon="-1.66383">
        <ele>498.6</ele>
        <time>2021-03-07 11:44:35</time>
      </trkpt>
      <trkpt lat="42.9565" lon="-1.66373">
        <ele>498.6</ele>
        <time>2021-03-07 11:44:36</time>
      </trkpt>
      <trkpt lat="42.95644" lon="-1.66361">
        <ele>498.4</ele>
        <time>2021-03-07 11:44:37</time>
      </trkpt>
      <trkpt lat="42.95638" lon="-1.6635">
        <ele>498.2</ele>
        <time>2021-03-07 11:44:38</time>
      </trkpt>
      <trkpt lat="42.95631" lon="-1.66338">
        <ele>498</ele>
        <time>2021-03-07 11:44:39</time>
      </trkpt>
      <trkpt lat="42.95625" lon="-1.66326">
        <ele>497.8</ele>
        <time>2021-03-07 11:44:40</time>
      </trkpt>
      <trkpt lat="42.95619" lon="-1.66315">
        <ele>497.8</ele>
        <time>2021-03-07 11:44:41</time>
      </trkpt>
      <trkpt lat="42.95612" lon="-1.66305">
        <ele>497.8</ele>
        <time>2021-03-07 11:44:42</time>
      </trkpt>
      <trkpt lat="42.95606" lon="-1.66294">
        <ele>497.8</ele>
        <time>2021-03-07 11:44:43</time>
      </trkpt>
      <trkpt lat="42.956" lon="-1.66284">
        <ele>497.6</ele>
        <time>2021-03-07 11:44:44</time>
      </trkpt>
      <trkpt lat="42.95594" lon="-1.66274">
        <ele>497.6</ele>
        <time>2021-03-07 11:44:45</time>
      </trkpt>
      <trkpt lat="42.95588" lon="-1.66264">
        <ele>497.4</ele>
        <time>2021-03-07 11:44:46</time>
      </trkpt>
      <trkpt lat="42.95582" lon="-1.66254">
        <ele>497.4</ele>
        <time>2021-03-07 11:44:47</time>
      </trkpt>
      <trkpt lat="42.95576" lon="-1.66243">
        <ele>497.4</ele>
        <time>2021-03-07 11:44:48</time>
      </trkpt>
      <trkpt lat="42.9557" lon="-1.66233">
        <ele>497.2</ele>
        <time>2021-03-07 11:44:49</time>
      </trkpt>
      <trkpt lat="42.95564" lon="-1.66223">
        <ele>497</ele>
        <time>2021-03-07 11:44:50</time>
      </trkpt>
      <trkpt lat="42.95558" lon="-1.66213">
        <ele>497</ele>
        <time>2021-03-07 11:44:51</time>
      </trkpt>
      <trkpt lat="42.95552" lon="-1.66203">
        <ele>496.8</ele>
        <time>2021-03-07 11:44:52</time>
      </trkpt>
      <trkpt lat="42.95546" lon="-1.66192">
        <ele>496.8</ele>
        <time>2021-03-07 11:44:53</time>
      </trkpt>
      <trkpt lat="42.9554" lon="-1.66182">
        <ele>496.8</ele>
        <time>2021-03-07 11:44:54</time>
      </trkpt>
      <trkpt lat="42.95534" lon="-1.66172">
        <ele>497</ele>
        <time>2021-03-07 11:44:55</time>
      </trkpt>
      <trkpt lat="42.95528" lon="-1.66163">
        <ele>496.8</ele>
        <time>2021-03-07 11:44:56</time>
      </trkpt>
      <trkpt lat="42.95522" lon="-1.66153">
        <ele>497</ele>
        <time>2021-03-07 11:44:57</time>
      </trkpt>
      <trkpt lat="42.95516" lon="-1.66143">
        <ele>496.8</ele>
        <time>2021-03-07 11:44:58</time>
      </trkpt>
      <trkpt lat="42.9551" lon="-1.66133">
        <ele>496.6</ele>
        <time>2021-03-07 11:44:59</time>
      </trkpt>
      <trkpt lat="42.95504" lon="-1.66124">
        <ele>496.6</ele>
        <time>2021-03-07 11:45:00</time>
      </trkpt>
      <trkpt lat="42.95499" lon="-1.66115">
        <ele>496.8</ele>
        <time>2021-03-07 11:45:01</time>
      </trkpt>
      <trkpt lat="42.95493" lon="-1.66105">
        <ele>496.8</ele>
        <time>2021-03-07 11:45:02</time>
      </trkpt>
      <trkpt lat="42.95487" lon="-1.66095">
        <ele>496.8</ele>
        <time>2021-03-07 11:45:03</time>
      </trkpt>
      <trkpt lat="42.95482" lon="-1.66086">
        <ele>496.8</ele>
        <time>2021-03-07 11:45:04</time>
      </trkpt>
      <trkpt lat="42.95476" lon="-1.66077">
        <ele>496.8</ele>
        <time>2021-03-07 11:45:05</time>
      </trkpt>
      <trkpt lat="42.9547" lon="-1.66067">
        <ele>496.8</ele>
        <time>2021-03-07 11:45:06</time>
      </trkpt>
      <trkpt lat="42.95464" lon="-1.66058">
        <ele>496.8</ele>
        <time>2021-03-07 11:45:07</time>
      </trkpt>
      <trkpt lat="42.95458" lon="-1.66048">
        <ele>496.6</ele>
        <time>2021-03-07 11:45:08</time>
      </trkpt>
      <trkpt lat="42.95453" lon="-1.66039">
        <ele>496.6</ele>
        <time>2021-03-07 11:45:09</time>
      </trkpt>
      <trkpt lat="42.95447" lon="-1.66029">
        <ele>496.6</ele>
        <time>2021-03-07 11:45:10</time>
      </trkpt>
      <trkpt lat="42.95441" lon="-1.66019">
        <ele>496.6</ele>
        <time>2021-03-07 11:45:11</time>
      </trkpt>
      <trkpt lat="42.95435" lon="-1.66009">
        <ele>496.4</ele>
        <time>2021-03-07 11:45:12</time>
      </trkpt>
      <trkpt lat="42.9543" lon="-1.66">
        <ele>496.2</ele>
        <time>2021-03-07 11:45:13</time>
      </trkpt>
      <trkpt lat="42.95424" lon="-1.6599">
        <ele>496.2</ele>
        <time>2021-03-07 11:45:14</time>
      </trkpt>
      <trkpt lat="42.95418" lon="-1.65981">
        <ele>496</ele>
        <time>2021-03-07 11:45:15</time>
      </trkpt>
      <trkpt lat="42.95412" lon="-1.65971">
        <ele>496</ele>
        <time>2021-03-07 11:45:16</time>
      </trkpt>
      <trkpt lat="42.95406" lon="-1.65962">
        <ele>495.6</ele>
        <time>2021-03-07 11:45:17</time>
      </trkpt>
      <trkpt lat="42.954" lon="-1.65952">
        <ele>495.2</ele>
        <time>2021-03-07 11:45:18</time>
      </trkpt>
      <trkpt lat="42.95394" lon="-1.65943">
        <ele>495.2</ele>
        <time>2021-03-07 11:45:19</time>
      </trkpt>
      <trkpt lat="42.95388" lon="-1.65934">
        <ele>495</ele>
        <time>2021-03-07 11:45:20</time>
      </trkpt>
      <trkpt lat="42.95382" lon="-1.65925">
        <ele>495</ele>
        <time>2021-03-07 11:45:21</time>
      </trkpt>
      <trkpt lat="42.95376" lon="-1.65915">
        <ele>495</ele>
        <time>2021-03-07 11:45:22</time>
      </trkpt>
      <trkpt lat="42.9537" lon="-1.65906">
        <ele>494.8</ele>
        <time>2021-03-07 11:45:23</time>
      </trkpt>
      <trkpt lat="42.95364" lon="-1.65897">
        <ele>494.8</ele>
        <time>2021-03-07 11:45:24</time>
      </trkpt>
      <trkpt lat="42.95358" lon="-1.65887">
        <ele>494.8</ele>
        <time>2021-03-07 11:45:25</time>
      </trkpt>
      <trkpt lat="42.95352" lon="-1.65878">
        <ele>494.8</ele>
        <time>2021-03-07 11:45:26</time>
      </trkpt>
      <trkpt lat="42.95347" lon="-1.65869">
        <ele>494.8</ele>
        <time>2021-03-07 11:45:27</time>
      </trkpt>
      <trkpt lat="42.95341" lon="-1.65859">
        <ele>494.8</ele>
        <time>2021-03-07 11:45:28</time>
      </trkpt>
      <trkpt lat="42.95335" lon="-1.6585">
        <ele>494.8</ele>
        <time>2021-03-07 11:45:29</time>
      </trkpt>
      <trkpt lat="42.95329" lon="-1.65841">
        <ele>494.8</ele>
        <time>2021-03-07 11:45:30</time>
      </trkpt>
      <trkpt lat="42.95323" lon="-1.65831">
        <ele>494.6</ele>
        <time>2021-03-07 11:45:31</time>
      </trkpt>
      <trkpt lat="42.95318" lon="-1.65822">
        <ele>494.6</ele>
        <time>2021-03-07 11:45:32</time>
      </trkpt>
      <trkpt lat="42.95312" lon="-1.65812">
        <ele>494.6</ele>
        <time>2021-03-07 11:45:33</time>
      </trkpt>
      <trkpt lat="42.95306" lon="-1.65803">
        <ele>494.6</ele>
        <time>2021-03-07 11:45:34</time>
      </trkpt>
      <trkpt lat="42.953" lon="-1.65794">
        <ele>494.6</ele>
        <time>2021-03-07 11:45:35</time>
      </trkpt>
      <trkpt lat="42.95294" lon="-1.65784">
        <ele>494.6</ele>
        <time>2021-03-07 11:45:36</time>
      </trkpt>
      <trkpt lat="42.95288" lon="-1.65775">
        <ele>494.6</ele>
        <time>2021-03-07 11:45:37</time>
      </trkpt>
      <trkpt lat="42.95283" lon="-1.65766">
        <ele>494.6</ele>
        <time>2021-03-07 11:45:38</time>
      </trkpt>
      <trkpt lat="42.95277" lon="-1.65757">
        <ele>494.4</ele>
        <time>2021-03-07 11:45:39</time>
      </trkpt>
      <trkpt lat="42.95271" lon="-1.65748">
        <ele>494.4</ele>
        <time>2021-03-07 11:45:40</time>
      </trkpt>
      <trkpt lat="42.95265" lon="-1.65739">
        <ele>494.4</ele>
        <time>2021-03-07 11:45:41</time>
      </trkpt>
      <trkpt lat="42.95259" lon="-1.6573">
        <ele>494.4</ele>
        <time>2021-03-07 11:45:42</time>
      </trkpt>
      <trkpt lat="42.95254" lon="-1.65721">
        <ele>494.2</ele>
        <time>2021-03-07 11:45:43</time>
      </trkpt>
      <trkpt lat="42.95248" lon="-1.65711">
        <ele>494.2</ele>
        <time>2021-03-07 11:45:44</time>
      </trkpt>
      <trkpt lat="42.95242" lon="-1.65702">
        <ele>494.2</ele>
        <time>2021-03-07 11:45:45</time>
      </trkpt>
      <trkpt lat="42.95237" lon="-1.65693">
        <ele>494.2</ele>
        <time>2021-03-07 11:45:46</time>
      </trkpt>
      <trkpt lat="42.95231" lon="-1.65684">
        <ele>494.2</ele>
        <time>2021-03-07 11:45:47</time>
      </trkpt>
      <trkpt lat="42.95225" lon="-1.65676">
        <ele>493.8</ele>
        <time>2021-03-07 11:45:48</time>
      </trkpt>
      <trkpt lat="42.95219" lon="-1.65667">
        <ele>493.4</ele>
        <time>2021-03-07 11:45:49</time>
      </trkpt>
      <trkpt lat="42.95214" lon="-1.65658">
        <ele>493.2</ele>
        <time>2021-03-07 11:45:50</time>
      </trkpt>
      <trkpt lat="42.95208" lon="-1.6565">
        <ele>493.2</ele>
        <time>2021-03-07 11:45:51</time>
      </trkpt>
      <trkpt lat="42.95203" lon="-1.65641">
        <ele>493</ele>
        <time>2021-03-07 11:45:52</time>
      </trkpt>
      <trkpt lat="42.95197" lon="-1.65632">
        <ele>493</ele>
        <time>2021-03-07 11:45:53</time>
      </trkpt>
      <trkpt lat="42.95192" lon="-1.65623">
        <ele>493</ele>
        <time>2021-03-07 11:45:54</time>
      </trkpt>
      <trkpt lat="42.95187" lon="-1.65615">
        <ele>492.8</ele>
        <time>2021-03-07 11:45:55</time>
      </trkpt>
      <trkpt lat="42.95181" lon="-1.65607">
        <ele>492.8</ele>
        <time>2021-03-07 11:45:56</time>
      </trkpt>
      <trkpt lat="42.95176" lon="-1.65598">
        <ele>492.8</ele>
        <time>2021-03-07 11:45:57</time>
      </trkpt>
      <trkpt lat="42.95172" lon="-1.65589">
        <ele>492.6</ele>
        <time>2021-03-07 11:45:58</time>
      </trkpt>
      <trkpt lat="42.95167" lon="-1.65581">
        <ele>492.6</ele>
        <time>2021-03-07 11:45:59</time>
      </trkpt>
      <trkpt lat="42.95163" lon="-1.65572">
        <ele>492.6</ele>
        <time>2021-03-07 11:46:00</time>
      </trkpt>
      <trkpt lat="42.95158" lon="-1.65563">
        <ele>492.6</ele>
        <time>2021-03-07 11:46:01</time>
      </trkpt>
      <trkpt lat="42.95154" lon="-1.65553">
        <ele>492.6</ele>
        <time>2021-03-07 11:46:02</time>
      </trkpt>
      <trkpt lat="42.9515" lon="-1.65543">
        <ele>492.6</ele>
        <time>2021-03-07 11:46:03</time>
      </trkpt>
      <trkpt lat="42.95146" lon="-1.65533">
        <ele>492.6</ele>
        <time>2021-03-07 11:46:04</time>
      </trkpt>
      <trkpt lat="42.95142" lon="-1.65522">
        <ele>492.6</ele>
        <time>2021-03-07 11:46:05</time>
      </trkpt>
      <trkpt lat="42.95139" lon="-1.65511">
        <ele>492.4</ele>
        <time>2021-03-07 11:46:06</time>
      </trkpt>
      <trkpt lat="42.95135" lon="-1.655">
        <ele>492.4</ele>
        <time>2021-03-07 11:46:07</time>
      </trkpt>
      <trkpt lat="42.95132" lon="-1.65489">
        <ele>492.4</ele>
        <time>2021-03-07 11:46:08</time>
      </trkpt>
      <trkpt lat="42.95128" lon="-1.65478">
        <ele>492.4</ele>
        <time>2021-03-07 11:46:09</time>
      </trkpt>
      <trkpt lat="42.95125" lon="-1.65467">
        <ele>492.4</ele>
        <time>2021-03-07 11:46:10</time>
      </trkpt>
      <trkpt lat="42.95122" lon="-1.65456">
        <ele>492.4</ele>
        <time>2021-03-07 11:46:11</time>
      </trkpt>
      <trkpt lat="42.95119" lon="-1.65445">
        <ele>492.2</ele>
        <time>2021-03-07 11:46:12</time>
      </trkpt>
      <trkpt lat="42.95116" lon="-1.65434">
        <ele>492.2</ele>
        <time>2021-03-07 11:46:13</time>
      </trkpt>
      <trkpt lat="42.95113" lon="-1.65423">
        <ele>492.2</ele>
        <time>2021-03-07 11:46:14</time>
      </trkpt>
      <trkpt lat="42.9511" lon="-1.65412">
        <ele>492.2</ele>
        <time>2021-03-07 11:46:15</time>
      </trkpt>
      <trkpt lat="42.95107" lon="-1.65401">
        <ele>492.2</ele>
        <time>2021-03-07 11:46:16</time>
      </trkpt>
      <trkpt lat="42.95104" lon="-1.65391">
        <ele>492.2</ele>
        <time>2021-03-07 11:46:17</time>
      </trkpt>
      <trkpt lat="42.95101" lon="-1.6538">
        <ele>492.2</ele>
        <time>2021-03-07 11:46:18</time>
      </trkpt>
      <trkpt lat="42.95098" lon="-1.65369">
        <ele>492.2</ele>
        <time>2021-03-07 11:46:19</time>
      </trkpt>
      <trkpt lat="42.95095" lon="-1.65359">
        <ele>492.2</ele>
        <time>2021-03-07 11:46:20</time>
      </trkpt>
      <trkpt lat="42.95092" lon="-1.65348">
        <ele>492.2</ele>
        <time>2021-03-07 11:46:21</time>
      </trkpt>
      <trkpt lat="42.95089" lon="-1.65338">
        <ele>492.2</ele>
        <time>2021-03-07 11:46:22</time>
      </trkpt>
      <trkpt lat="42.95086" lon="-1.65327">
        <ele>492.2</ele>
        <time>2021-03-07 11:46:23</time>
      </trkpt>
      <trkpt lat="42.95083" lon="-1.65317">
        <ele>492.2</ele>
        <time>2021-03-07 11:46:24</time>
      </trkpt>
      <trkpt lat="42.9508" lon="-1.65306">
        <ele>492.2</ele>
        <time>2021-03-07 11:46:25</time>
      </trkpt>
      <trkpt lat="42.95077" lon="-1.65296">
        <ele>492.2</ele>
        <time>2021-03-07 11:46:26</time>
      </trkpt>
      <trkpt lat="42.95074" lon="-1.65285">
        <ele>492.2</ele>
        <time>2021-03-07 11:46:27</time>
      </trkpt>
      <trkpt lat="42.95071" lon="-1.65275">
        <ele>492.2</ele>
        <time>2021-03-07 11:46:28</time>
      </trkpt>
      <trkpt lat="42.95068" lon="-1.65265">
        <ele>492.2</ele>
        <time>2021-03-07 11:46:29</time>
      </trkpt>
      <trkpt lat="42.95065" lon="-1.65254">
        <ele>492.2</ele>
        <time>2021-03-07 11:46:30</time>
      </trkpt>
      <trkpt lat="42.95061" lon="-1.65244">
        <ele>492</ele>
        <time>2021-03-07 11:46:31</time>
      </trkpt>
      <trkpt lat="42.95057" lon="-1.65234">
        <ele>492</ele>
        <time>2021-03-07 11:46:32</time>
      </trkpt>
      <trkpt lat="42.95053" lon="-1.65224">
        <ele>492</ele>
        <time>2021-03-07 11:46:33</time>
      </trkpt>
      <trkpt lat="42.95049" lon="-1.65214">
        <ele>491.6</ele>
        <time>2021-03-07 11:46:34</time>
      </trkpt>
      <trkpt lat="42.95044" lon="-1.65205">
        <ele>491.6</ele>
        <time>2021-03-07 11:46:35</time>
      </trkpt>
      <trkpt lat="42.9504" lon="-1.65195">
        <ele>491.6</ele>
        <time>2021-03-07 11:46:36</time>
      </trkpt>
      <trkpt lat="42.95035" lon="-1.65185">
        <ele>491.4</ele>
        <time>2021-03-07 11:46:37</time>
      </trkpt>
      <trkpt lat="42.95029" lon="-1.65176">
        <ele>491</ele>
        <time>2021-03-07 11:46:38</time>
      </trkpt>
      <trkpt lat="42.95024" lon="-1.65166">
        <ele>490.8</ele>
        <time>2021-03-07 11:46:39</time>
      </trkpt>
      <trkpt lat="42.95018" lon="-1.65157">
        <ele>490.6</ele>
        <time>2021-03-07 11:46:40</time>
      </trkpt>
      <trkpt lat="42.95013" lon="-1.65147">
        <ele>490.4</ele>
        <time>2021-03-07 11:46:41</time>
      </trkpt>
      <trkpt lat="42.95006" lon="-1.65138">
        <ele>490.2</ele>
        <time>2021-03-07 11:46:42</time>
      </trkpt>
      <trkpt lat="42.95" lon="-1.65129">
        <ele>489.8</ele>
        <time>2021-03-07 11:46:43</time>
      </trkpt>
      <trkpt lat="42.94993" lon="-1.65121">
        <ele>489.2</ele>
        <time>2021-03-07 11:46:44</time>
      </trkpt>
      <trkpt lat="42.94987" lon="-1.65112">
        <ele>488.8</ele>
        <time>2021-03-07 11:46:45</time>
      </trkpt>
      <trkpt lat="42.94981" lon="-1.65103">
        <ele>488.4</ele>
        <time>2021-03-07 11:46:46</time>
      </trkpt>
      <trkpt lat="42.94974" lon="-1.65094">
        <ele>488.2</ele>
        <time>2021-03-07 11:46:47</time>
      </trkpt>
      <trkpt lat="42.94968" lon="-1.65086">
        <ele>488</ele>
        <time>2021-03-07 11:46:48</time>
      </trkpt>
      <trkpt lat="42.94961" lon="-1.65077">
        <ele>487.8</ele>
        <time>2021-03-07 11:46:49</time>
      </trkpt>
      <trkpt lat="42.94955" lon="-1.65068">
        <ele>487.6</ele>
        <time>2021-03-07 11:46:50</time>
      </trkpt>
      <trkpt lat="42.94948" lon="-1.6506">
        <ele>487.4</ele>
        <time>2021-03-07 11:46:51</time>
      </trkpt>
      <trkpt lat="42.94941" lon="-1.65051">
        <ele>487.4</ele>
        <time>2021-03-07 11:46:52</time>
      </trkpt>
      <trkpt lat="42.94935" lon="-1.65043">
        <ele>487.2</ele>
        <time>2021-03-07 11:46:53</time>
      </trkpt>
      <trkpt lat="42.94929" lon="-1.65034">
        <ele>487.2</ele>
        <time>2021-03-07 11:46:54</time>
      </trkpt>
      <trkpt lat="42.94922" lon="-1.65025">
        <ele>487</ele>
        <time>2021-03-07 11:46:55</time>
      </trkpt>
      <trkpt lat="42.94916" lon="-1.65017">
        <ele>486.8</ele>
        <time>2021-03-07 11:46:56</time>
      </trkpt>
      <trkpt lat="42.9491" lon="-1.65008">
        <ele>486.8</ele>
        <time>2021-03-07 11:46:57</time>
      </trkpt>
      <trkpt lat="42.94903" lon="-1.65">
        <ele>486.6</ele>
        <time>2021-03-07 11:46:58</time>
      </trkpt>
      <trkpt lat="42.94897" lon="-1.64992">
        <ele>486.6</ele>
        <time>2021-03-07 11:46:59</time>
      </trkpt>
      <trkpt lat="42.94891" lon="-1.64984">
        <ele>486.6</ele>
        <time>2021-03-07 11:47:00</time>
      </trkpt>
      <trkpt lat="42.94885" lon="-1.64975">
        <ele>486.4</ele>
        <time>2021-03-07 11:47:01</time>
      </trkpt>
      <trkpt lat="42.94879" lon="-1.64967">
        <ele>486.4</ele>
        <time>2021-03-07 11:47:02</time>
      </trkpt>
      <trkpt lat="42.94873" lon="-1.64959">
        <ele>486.4</ele>
        <time>2021-03-07 11:47:03</time>
      </trkpt>
      <trkpt lat="42.94867" lon="-1.64951">
        <ele>486.2</ele>
        <time>2021-03-07 11:47:04</time>
      </trkpt>
      <trkpt lat="42.94861" lon="-1.64944">
        <ele>486.2</ele>
        <time>2021-03-07 11:47:05</time>
      </trkpt>
      <trkpt lat="42.94856" lon="-1.64936">
        <ele>486.2</ele>
        <time>2021-03-07 11:47:06</time>
      </trkpt>
      <trkpt lat="42.9485" lon="-1.64928">
        <ele>486.2</ele>
        <time>2021-03-07 11:47:07</time>
      </trkpt>
      <trkpt lat="42.94844" lon="-1.64921">
        <ele>486.2</ele>
        <time>2021-03-07 11:47:08</time>
      </trkpt>
      <trkpt lat="42.94838" lon="-1.64913">
        <ele>486.2</ele>
        <time>2021-03-07 11:47:09</time>
      </trkpt>
      <trkpt lat="42.94833" lon="-1.64905">
        <ele>486.2</ele>
        <time>2021-03-07 11:47:10</time>
      </trkpt>
      <trkpt lat="42.94827" lon="-1.64898">
        <ele>486</ele>
        <time>2021-03-07 11:47:11</time>
      </trkpt>
      <trkpt lat="42.94821" lon="-1.6489">
        <ele>486</ele>
        <time>2021-03-07 11:47:12</time>
      </trkpt>
      <trkpt lat="42.94816" lon="-1.64883">
        <ele>486</ele>
        <time>2021-03-07 11:47:13</time>
      </trkpt>
      <trkpt lat="42.9481" lon="-1.64875">
        <ele>486</ele>
        <time>2021-03-07 11:47:14</time>
      </trkpt>
      <trkpt lat="42.94804" lon="-1.64868">
        <ele>486</ele>
        <time>2021-03-07 11:47:15</time>
      </trkpt>
      <trkpt lat="42.94798" lon="-1.64861">
        <ele>486</ele>
        <time>2021-03-07 11:47:16</time>
      </trkpt>
      <trkpt lat="42.94792" lon="-1.64854">
        <ele>486</ele>
        <time>2021-03-07 11:47:17</time>
      </trkpt>
      <trkpt lat="42.94786" lon="-1.64848">
        <ele>486</ele>
        <time>2021-03-07 11:47:18</time>
      </trkpt>
      <trkpt lat="42.9478" lon="-1.64841">
        <ele>486</ele>
        <time>2021-03-07 11:47:19</time>
      </trkpt>
      <trkpt lat="42.94773" lon="-1.64836">
        <ele>486</ele>
        <time>2021-03-07 11:47:20</time>
      </trkpt>
      <trkpt lat="42.94767" lon="-1.64831">
        <ele>486</ele>
        <time>2021-03-07 11:47:21</time>
      </trkpt>
      <trkpt lat="42.9476" lon="-1.64826">
        <ele>486</ele>
        <time>2021-03-07 11:47:22</time>
      </trkpt>
      <trkpt lat="42.94753" lon="-1.64822">
        <ele>486</ele>
        <time>2021-03-07 11:47:23</time>
      </trkpt>
      <trkpt lat="42.94746" lon="-1.64817">
        <ele>486</ele>
        <time>2021-03-07 11:47:24</time>
      </trkpt>
      <trkpt lat="42.94739" lon="-1.64813">
        <ele>486.2</ele>
        <time>2021-03-07 11:47:25</time>
      </trkpt>
      <trkpt lat="42.94732" lon="-1.6481">
        <ele>486.2</ele>
        <time>2021-03-07 11:47:26</time>
      </trkpt>
      <trkpt lat="42.94725" lon="-1.64806">
        <ele>486.2</ele>
        <time>2021-03-07 11:47:27</time>
      </trkpt>
      <trkpt lat="42.94718" lon="-1.64801">
        <ele>486.2</ele>
        <time>2021-03-07 11:47:28</time>
      </trkpt>
      <trkpt lat="42.94711" lon="-1.64797">
        <ele>486.2</ele>
        <time>2021-03-07 11:47:29</time>
      </trkpt>
      <trkpt lat="42.94704" lon="-1.64793">
        <ele>486.4</ele>
        <time>2021-03-07 11:47:30</time>
      </trkpt>
      <trkpt lat="42.94697" lon="-1.64789">
        <ele>486.4</ele>
        <time>2021-03-07 11:47:31</time>
      </trkpt>
      <trkpt lat="42.94691" lon="-1.64785">
        <ele>486.4</ele>
        <time>2021-03-07 11:47:32</time>
      </trkpt>
      <trkpt lat="42.94684" lon="-1.64781">
        <ele>486.4</ele>
        <time>2021-03-07 11:47:33</time>
      </trkpt>
      <trkpt lat="42.94677" lon="-1.64777">
        <ele>486.6</ele>
        <time>2021-03-07 11:47:34</time>
      </trkpt>
      <trkpt lat="42.9467" lon="-1.64773">
        <ele>486.6</ele>
        <time>2021-03-07 11:47:35</time>
      </trkpt>
      <trkpt lat="42.94663" lon="-1.64769">
        <ele>486.8</ele>
        <time>2021-03-07 11:47:36</time>
      </trkpt>
      <trkpt lat="42.94656" lon="-1.64765">
        <ele>486.8</ele>
        <time>2021-03-07 11:47:37</time>
      </trkpt>
      <trkpt lat="42.94649" lon="-1.64761">
        <ele>486.8</ele>
        <time>2021-03-07 11:47:38</time>
      </trkpt>
      <trkpt lat="42.94642" lon="-1.64757">
        <ele>487</ele>
        <time>2021-03-07 11:47:39</time>
      </trkpt>
      <trkpt lat="42.94635" lon="-1.64753">
        <ele>487</ele>
        <time>2021-03-07 11:47:40</time>
      </trkpt>
      <trkpt lat="42.94628" lon="-1.64748">
        <ele>487</ele>
        <time>2021-03-07 11:47:41</time>
      </trkpt>
      <trkpt lat="42.94621" lon="-1.64744">
        <ele>487.2</ele>
        <time>2021-03-07 11:47:42</time>
      </trkpt>
      <trkpt lat="42.94614" lon="-1.6474">
        <ele>487.2</ele>
        <time>2021-03-07 11:47:43</time>
      </trkpt>
      <trkpt lat="42.94606" lon="-1.64735">
        <ele>487.2</ele>
        <time>2021-03-07 11:47:44</time>
      </trkpt>
      <trkpt lat="42.94599" lon="-1.6473">
        <ele>487.2</ele>
        <time>2021-03-07 11:47:45</time>
      </trkpt>
      <trkpt lat="42.94591" lon="-1.64725">
        <ele>487.2</ele>
        <time>2021-03-07 11:47:46</time>
      </trkpt>
      <trkpt lat="42.94584" lon="-1.6472">
        <ele>487.2</ele>
        <time>2021-03-07 11:47:47</time>
      </trkpt>
      <trkpt lat="42.94576" lon="-1.64716">
        <ele>487.2</ele>
        <time>2021-03-07 11:47:48</time>
      </trkpt>
      <trkpt lat="42.94568" lon="-1.64711">
        <ele>487</ele>
        <time>2021-03-07 11:47:49</time>
      </trkpt>
      <trkpt lat="42.9456" lon="-1.64705">
        <ele>487</ele>
        <time>2021-03-07 11:47:50</time>
      </trkpt>
      <trkpt lat="42.94553" lon="-1.64701">
        <ele>487</ele>
        <time>2021-03-07 11:47:51</time>
      </trkpt>
      <trkpt lat="42.94545" lon="-1.64696">
        <ele>486.8</ele>
        <time>2021-03-07 11:47:52</time>
      </trkpt>
      <trkpt lat="42.94537" lon="-1.64691">
        <ele>486.6</ele>
        <time>2021-03-07 11:47:53</time>
      </trkpt>
      <trkpt lat="42.9453" lon="-1.64687">
        <ele>486.6</ele>
        <time>2021-03-07 11:47:54</time>
      </trkpt>
      <trkpt lat="42.94522" lon="-1.64682">
        <ele>486.4</ele>
        <time>2021-03-07 11:47:55</time>
      </trkpt>
      <trkpt lat="42.94514" lon="-1.64677">
        <ele>486.2</ele>
        <time>2021-03-07 11:47:56</time>
      </trkpt>
      <trkpt lat="42.94507" lon="-1.64673">
        <ele>485.8</ele>
        <time>2021-03-07 11:47:57</time>
      </trkpt>
      <trkpt lat="42.94499" lon="-1.64668">
        <ele>485.6</ele>
        <time>2021-03-07 11:47:58</time>
      </trkpt>
      <trkpt lat="42.94491" lon="-1.64664">
        <ele>485.4</ele>
        <time>2021-03-07 11:47:59</time>
      </trkpt>
      <trkpt lat="42.94483" lon="-1.64659">
        <ele>485.4</ele>
        <time>2021-03-07 11:48:00</time>
      </trkpt>
      <trkpt lat="42.94475" lon="-1.64655">
        <ele>485.4</ele>
        <time>2021-03-07 11:48:01</time>
      </trkpt>
      <trkpt lat="42.94468" lon="-1.64651">
        <ele>485.4</ele>
        <time>2021-03-07 11:48:02</time>
      </trkpt>
      <trkpt lat="42.9446" lon="-1.64647">
        <ele>485.2</ele>
        <time>2021-03-07 11:48:03</time>
      </trkpt>
      <trkpt lat="42.94452" lon="-1.64644">
        <ele>484.8</ele>
        <time>2021-03-07 11:48:04</time>
      </trkpt>
      <trkpt lat="42.94445" lon="-1.64641">
        <ele>484.6</ele>
        <time>2021-03-07 11:48:05</time>
      </trkpt>
      <trkpt lat="42.94438" lon="-1.64637">
        <ele>484.6</ele>
        <time>2021-03-07 11:48:06</time>
      </trkpt>
      <trkpt lat="42.94431" lon="-1.64632">
        <ele>484.4</ele>
        <time>2021-03-07 11:48:07</time>
      </trkpt>
      <trkpt lat="42.94424" lon="-1.64628">
        <ele>484.4</ele>
        <time>2021-03-07 11:48:08</time>
      </trkpt>
      <trkpt lat="42.94417" lon="-1.64624">
        <ele>484.4</ele>
        <time>2021-03-07 11:48:09</time>
      </trkpt>
      <trkpt lat="42.94412" lon="-1.6462">
        <ele>484.4</ele>
        <time>2021-03-07 11:48:10</time>
      </trkpt>
      <trkpt lat="42.94406" lon="-1.64616">
        <ele>484.4</ele>
        <time>2021-03-07 11:48:11</time>
      </trkpt>
      <trkpt lat="42.944" lon="-1.64612">
        <ele>484.4</ele>
        <time>2021-03-07 11:48:12</time>
      </trkpt>
      <trkpt lat="42.94394" lon="-1.64609">
        <ele>484.4</ele>
        <time>2021-03-07 11:48:13</time>
      </trkpt>
      <trkpt lat="42.94388" lon="-1.64606">
        <ele>484.4</ele>
        <time>2021-03-07 11:48:14</time>
      </trkpt>
      <trkpt lat="42.94382" lon="-1.64602">
        <ele>484.6</ele>
        <time>2021-03-07 11:48:15</time>
      </trkpt>
      <trkpt lat="42.94376" lon="-1.64597">
        <ele>484.6</ele>
        <time>2021-03-07 11:48:16</time>
      </trkpt>
      <trkpt lat="42.9437" lon="-1.64594">
        <ele>484.8</ele>
        <time>2021-03-07 11:48:17</time>
      </trkpt>
      <trkpt lat="42.94365" lon="-1.6459">
        <ele>485.2</ele>
        <time>2021-03-07 11:48:18</time>
      </trkpt>
      <trkpt lat="42.94359" lon="-1.64587">
        <ele>485.4</ele>
        <time>2021-03-07 11:48:19</time>
      </trkpt>
      <trkpt lat="42.94353" lon="-1.64583">
        <ele>485.6</ele>
        <time>2021-03-07 11:48:20</time>
      </trkpt>
      <trkpt lat="42.94348" lon="-1.64579">
        <ele>485.8</ele>
        <time>2021-03-07 11:48:21</time>
      </trkpt>
      <trkpt lat="42.94342" lon="-1.64574">
        <ele>486</ele>
        <time>2021-03-07 11:48:22</time>
      </trkpt>
      <trkpt lat="42.94337" lon="-1.64569">
        <ele>486.2</ele>
        <time>2021-03-07 11:48:23</time>
      </trkpt>
      <trkpt lat="42.94332" lon="-1.64563">
        <ele>486.6</ele>
        <time>2021-03-07 11:48:24</time>
      </trkpt>
      <trkpt lat="42.94328" lon="-1.64556">
        <ele>487</ele>
        <time>2021-03-07 11:48:25</time>
      </trkpt>
      <trkpt lat="42.94324" lon="-1.64549">
        <ele>487.4</ele>
        <time>2021-03-07 11:48:26</time>
      </trkpt>
      <trkpt lat="42.9432" lon="-1.6454">
        <ele>487.8</ele>
        <time>2021-03-07 11:48:27</time>
      </trkpt>
      <trkpt lat="42.94317" lon="-1.64532">
        <ele>488</ele>
        <time>2021-03-07 11:48:28</time>
      </trkpt>
      <trkpt lat="42.94315" lon="-1.64522">
        <ele>488.2</ele>
        <time>2021-03-07 11:48:29</time>
      </trkpt>
      <trkpt lat="42.94313" lon="-1.64512">
        <ele>488.2</ele>
        <time>2021-03-07 11:48:30</time>
      </trkpt>
      <trkpt lat="42.94312" lon="-1.64502">
        <ele>488.2</ele>
        <time>2021-03-07 11:48:31</time>
      </trkpt>
      <trkpt lat="42.94311" lon="-1.64493">
        <ele>488.2</ele>
        <time>2021-03-07 11:48:32</time>
      </trkpt>
      <trkpt lat="42.94311" lon="-1.64483">
        <ele>488.2</ele>
        <time>2021-03-07 11:48:33</time>
      </trkpt>
      <trkpt lat="42.94311" lon="-1.64473">
        <ele>488.4</ele>
        <time>2021-03-07 11:48:34</time>
      </trkpt>
      <trkpt lat="42.94311" lon="-1.64462">
        <ele>488.4</ele>
        <time>2021-03-07 11:48:35</time>
      </trkpt>
      <trkpt lat="42.94311" lon="-1.64452">
        <ele>488.4</ele>
        <time>2021-03-07 11:48:36</time>
      </trkpt>
      <trkpt lat="42.94311" lon="-1.64441">
        <ele>488.4</ele>
        <time>2021-03-07 11:48:37</time>
      </trkpt>
      <trkpt lat="42.94312" lon="-1.64431">
        <ele>488.4</ele>
        <time>2021-03-07 11:48:38</time>
      </trkpt>
      <trkpt lat="42.94312" lon="-1.64421">
        <ele>488.4</ele>
        <time>2021-03-07 11:48:39</time>
      </trkpt>
      <trkpt lat="42.94312" lon="-1.6441">
        <ele>488.6</ele>
        <time>2021-03-07 11:48:40</time>
      </trkpt>
      <trkpt lat="42.94313" lon="-1.644">
        <ele>488.6</ele>
        <time>2021-03-07 11:48:41</time>
      </trkpt>
      <trkpt lat="42.94313" lon="-1.64389">
        <ele>488.6</ele>
        <time>2021-03-07 11:48:42</time>
      </trkpt>
      <trkpt lat="42.94314" lon="-1.64378">
        <ele>488.6</ele>
        <time>2021-03-07 11:48:43</time>
      </trkpt>
      <trkpt lat="42.94314" lon="-1.64368">
        <ele>488.6</ele>
        <time>2021-03-07 11:48:44</time>
      </trkpt>
      <trkpt lat="42.94315" lon="-1.64357">
        <ele>488.6</ele>
        <time>2021-03-07 11:48:45</time>
      </trkpt>
      <trkpt lat="42.94315" lon="-1.64347">
        <ele>488.6</ele>
        <time>2021-03-07 11:48:46</time>
      </trkpt>
      <trkpt lat="42.94316" lon="-1.64336">
        <ele>488.6</ele>
        <time>2021-03-07 11:48:47</time>
      </trkpt>
      <trkpt lat="42.94316" lon="-1.64325">
        <ele>488.6</ele>
        <time>2021-03-07 11:48:48</time>
      </trkpt>
      <trkpt lat="42.94317" lon="-1.64315">
        <ele>488.6</ele>
        <time>2021-03-07 11:48:49</time>
      </trkpt>
      <trkpt lat="42.94317" lon="-1.64305">
        <ele>488.6</ele>
        <time>2021-03-07 11:48:50</time>
      </trkpt>
      <trkpt lat="42.94318" lon="-1.64294">
        <ele>488.6</ele>
        <time>2021-03-07 11:48:51</time>
      </trkpt>
      <trkpt lat="42.94318" lon="-1.64284">
        <ele>488.6</ele>
        <time>2021-03-07 11:48:52</time>
      </trkpt>
      <trkpt lat="42.94319" lon="-1.64274">
        <ele>488.6</ele>
        <time>2021-03-07 11:48:53</time>
      </trkpt>
      <trkpt lat="42.94319" lon="-1.64263">
        <ele>488.6</ele>
        <time>2021-03-07 11:48:54</time>
      </trkpt>
      <trkpt lat="42.9432" lon="-1.64253">
        <ele>488.6</ele>
        <time>2021-03-07 11:48:55</time>
      </trkpt>
      <trkpt lat="42.9432" lon="-1.64243">
        <ele>488.6</ele>
        <time>2021-03-07 11:48:56</time>
      </trkpt>
      <trkpt lat="42.9432" lon="-1.64233">
        <ele>488.6</ele>
        <time>2021-03-07 11:48:57</time>
      </trkpt>
      <trkpt lat="42.94321" lon="-1.64223">
        <ele>488.6</ele>
        <time>2021-03-07 11:48:58</time>
      </trkpt>
      <trkpt lat="42.94321" lon="-1.64212">
        <ele>488.4</ele>
        <time>2021-03-07 11:48:59</time>
      </trkpt>
      <trkpt lat="42.94321" lon="-1.64202">
        <ele>488.2</ele>
        <time>2021-03-07 11:49:00</time>
      </trkpt>
      <trkpt lat="42.9432" lon="-1.64191">
        <ele>488.2</ele>
        <time>2021-03-07 11:49:01</time>
      </trkpt>
      <trkpt lat="42.9432" lon="-1.6418">
        <ele>488</ele>
        <time>2021-03-07 11:49:02</time>
      </trkpt>
      <trkpt lat="42.94318" lon="-1.6417">
        <ele>488</ele>
        <time>2021-03-07 11:49:03</time>
      </trkpt>
      <trkpt lat="42.94316" lon="-1.6416">
        <ele>488</ele>
        <time>2021-03-07 11:49:04</time>
      </trkpt>
      <trkpt lat="42.94313" lon="-1.64151">
        <ele>487.8</ele>
        <time>2021-03-07 11:49:05</time>
      </trkpt>
      <trkpt lat="42.94308" lon="-1.64142">
        <ele>487.8</ele>
        <time>2021-03-07 11:49:06</time>
      </trkpt>
      <trkpt lat="42.94303" lon="-1.64135">
        <ele>487.8</ele>
        <time>2021-03-07 11:49:07</time>
      </trkpt>
      <trkpt lat="42.94297" lon="-1.64128">
        <ele>487.8</ele>
        <time>2021-03-07 11:49:08</time>
      </trkpt>
      <trkpt lat="42.94291" lon="-1.64122">
        <ele>487.6</ele>
        <time>2021-03-07 11:49:09</time>
      </trkpt>
      <trkpt lat="42.94283" lon="-1.64118">
        <ele>487.6</ele>
        <time>2021-03-07 11:49:10</time>
      </trkpt>
      <trkpt lat="42.94276" lon="-1.64115">
        <ele>487.6</ele>
        <time>2021-03-07 11:49:11</time>
      </trkpt>
      <trkpt lat="42.94268" lon="-1.64113">
        <ele>487.6</ele>
        <time>2021-03-07 11:49:12</time>
      </trkpt>
      <trkpt lat="42.9426" lon="-1.64113">
        <ele>487.6</ele>
        <time>2021-03-07 11:49:13</time>
      </trkpt>
      <trkpt lat="42.94253" lon="-1.64114">
        <ele>487.4</ele>
        <time>2021-03-07 11:49:14</time>
      </trkpt>
      <trkpt lat="42.94245" lon="-1.64115">
        <ele>487.4</ele>
        <time>2021-03-07 11:49:15</time>
      </trkpt>
      <trkpt lat="42.94237" lon="-1.64116">
        <ele>487.4</ele>
        <time>2021-03-07 11:49:16</time>
      </trkpt>
      <trkpt lat="42.9423" lon="-1.64118">
        <ele>487.6</ele>
        <time>2021-03-07 11:49:17</time>
      </trkpt>
      <trkpt lat="42.94222" lon="-1.64119">
        <ele>487.6</ele>
        <time>2021-03-07 11:49:18</time>
      </trkpt>
      <trkpt lat="42.94215" lon="-1.64121">
        <ele>487.6</ele>
        <time>2021-03-07 11:49:19</time>
      </trkpt>
      <trkpt lat="42.94208" lon="-1.64122">
        <ele>487.6</ele>
        <time>2021-03-07 11:49:20</time>
      </trkpt>
      <trkpt lat="42.94202" lon="-1.64124">
        <ele>487.6</ele>
        <time>2021-03-07 11:49:21</time>
      </trkpt>
      <trkpt lat="42.94195" lon="-1.64125">
        <ele>487.6</ele>
        <time>2021-03-07 11:49:22</time>
      </trkpt>
      <trkpt lat="42.94188" lon="-1.64126">
        <ele>487.6</ele>
        <time>2021-03-07 11:49:23</time>
      </trkpt>
      <trkpt lat="42.94182" lon="-1.64128">
        <ele>487.6</ele>
        <time>2021-03-07 11:49:24</time>
      </trkpt>
      <trkpt lat="42.94175" lon="-1.64129">
        <ele>487.6</ele>
        <time>2021-03-07 11:49:25</time>
      </trkpt>
      <trkpt lat="42.94169" lon="-1.6413">
        <ele>487.6</ele>
        <time>2021-03-07 11:49:26</time>
      </trkpt>
      <trkpt lat="42.94162" lon="-1.64132">
        <ele>487.8</ele>
        <time>2021-03-07 11:49:27</time>
      </trkpt>
      <trkpt lat="42.94156" lon="-1.64132">
        <ele>488.2</ele>
        <time>2021-03-07 11:49:28</time>
      </trkpt>
      <trkpt lat="42.9415" lon="-1.64133">
        <ele>488.6</ele>
        <time>2021-03-07 11:49:29</time>
      </trkpt>
      <trkpt lat="42.94143" lon="-1.64133">
        <ele>489</ele>
        <time>2021-03-07 11:49:30</time>
      </trkpt>
      <trkpt lat="42.94137" lon="-1.64133">
        <ele>489.4</ele>
        <time>2021-03-07 11:49:31</time>
      </trkpt>
      <trkpt lat="42.94131" lon="-1.64133">
        <ele>489.6</ele>
        <time>2021-03-07 11:49:32</time>
      </trkpt>
      <trkpt lat="42.94125" lon="-1.64131">
        <ele>490.2</ele>
        <time>2021-03-07 11:49:33</time>
      </trkpt>
      <trkpt lat="42.94119" lon="-1.6413">
        <ele>490.4</ele>
        <time>2021-03-07 11:49:34</time>
      </trkpt>
      <trkpt lat="42.94113" lon="-1.64128">
        <ele>490.8</ele>
        <time>2021-03-07 11:49:35</time>
      </trkpt>
      <trkpt lat="42.94108" lon="-1.64126">
        <ele>491</ele>
        <time>2021-03-07 11:49:36</time>
      </trkpt>
      <trkpt lat="42.94102" lon="-1.64123">
        <ele>491.2</ele>
        <time>2021-03-07 11:49:37</time>
      </trkpt>
      <trkpt lat="42.94098" lon="-1.64119">
        <ele>491.4</ele>
        <time>2021-03-07 11:49:38</time>
      </trkpt>
      <trkpt lat="42.94093" lon="-1.64115">
        <ele>491.4</ele>
        <time>2021-03-07 11:49:39</time>
      </trkpt>
      <trkpt lat="42.94088" lon="-1.64111">
        <ele>491.6</ele>
        <time>2021-03-07 11:49:40</time>
      </trkpt>
      <trkpt lat="42.94083" lon="-1.64107">
        <ele>491.8</ele>
        <time>2021-03-07 11:49:41</time>
      </trkpt>
      <trkpt lat="42.94079" lon="-1.64103">
        <ele>492</ele>
        <time>2021-03-07 11:49:42</time>
      </trkpt>
      <trkpt lat="42.94074" lon="-1.64099">
        <ele>492.2</ele>
        <time>2021-03-07 11:49:43</time>
      </trkpt>
      <trkpt lat="42.94069" lon="-1.64095">
        <ele>492.2</ele>
        <time>2021-03-07 11:49:44</time>
      </trkpt>
      <trkpt lat="42.94065" lon="-1.6409">
        <ele>492.4</ele>
        <time>2021-03-07 11:49:45</time>
      </trkpt>
      <trkpt lat="42.9406" lon="-1.64086">
        <ele>492.6</ele>
        <time>2021-03-07 11:49:46</time>
      </trkpt>
      <trkpt lat="42.94056" lon="-1.64082">
        <ele>492.6</ele>
        <time>2021-03-07 11:49:47</time>
      </trkpt>
      <trkpt lat="42.94051" lon="-1.64077">
        <ele>492.6</ele>
        <time>2021-03-07 11:49:48</time>
      </trkpt>
      <trkpt lat="42.94047" lon="-1.64073">
        <ele>492.8</ele>
        <time>2021-03-07 11:49:49</time>
      </trkpt>
      <trkpt lat="42.94042" lon="-1.64068">
        <ele>492.8</ele>
        <time>2021-03-07 11:49:50</time>
      </trkpt>
      <trkpt lat="42.94038" lon="-1.64064">
        <ele>493</ele>
        <time>2021-03-07 11:49:51</time>
      </trkpt>
      <trkpt lat="42.94033" lon="-1.6406">
        <ele>493.4</ele>
        <time>2021-03-07 11:49:52</time>
      </trkpt>
      <trkpt lat="42.94029" lon="-1.64055">
        <ele>493.6</ele>
        <time>2021-03-07 11:49:53</time>
      </trkpt>
      <trkpt lat="42.94024" lon="-1.64051">
        <ele>493.6</ele>
        <time>2021-03-07 11:49:54</time>
      </trkpt>
      <trkpt lat="42.9402" lon="-1.64046">
        <ele>493.8</ele>
        <time>2021-03-07 11:49:55</time>
      </trkpt>
      <trkpt lat="42.94015" lon="-1.64042">
        <ele>494</ele>
        <time>2021-03-07 11:49:56</time>
      </trkpt>
      <trkpt lat="42.9401" lon="-1.64038">
        <ele>494.4</ele>
        <time>2021-03-07 11:49:57</time>
      </trkpt>
      <trkpt lat="42.94006" lon="-1.64033">
        <ele>494.6</ele>
        <time>2021-03-07 11:49:58</time>
      </trkpt>
      <trkpt lat="42.94001" lon="-1.64029">
        <ele>494.8</ele>
        <time>2021-03-07 11:49:59</time>
      </trkpt>
      <trkpt lat="42.93997" lon="-1.64024">
        <ele>495</ele>
        <time>2021-03-07 11:50:00</time>
      </trkpt>
      <trkpt lat="42.93992" lon="-1.6402">
        <ele>495</ele>
        <time>2021-03-07 11:50:01</time>
      </trkpt>
      <trkpt lat="42.93987" lon="-1.64015">
        <ele>495.2</ele>
        <time>2021-03-07 11:50:02</time>
      </trkpt>
      <trkpt lat="42.93983" lon="-1.64011">
        <ele>495.4</ele>
        <time>2021-03-07 11:50:03</time>
      </trkpt>
      <trkpt lat="42.93978" lon="-1.64007">
        <ele>495.4</ele>
        <time>2021-03-07 11:50:04</time>
      </trkpt>
      <trkpt lat="42.93973" lon="-1.64002">
        <ele>495.6</ele>
        <time>2021-03-07 11:50:05</time>
      </trkpt>
      <trkpt lat="42.93969" lon="-1.63998">
        <ele>495.8</ele>
        <time>2021-03-07 11:50:06</time>
      </trkpt>
      <trkpt lat="42.93964" lon="-1.63993">
        <ele>496</ele>
        <time>2021-03-07 11:50:07</time>
      </trkpt>
      <trkpt lat="42.9396" lon="-1.63989">
        <ele>496.4</ele>
        <time>2021-03-07 11:50:08</time>
      </trkpt>
      <trkpt lat="42.93955" lon="-1.63985">
        <ele>496.6</ele>
        <time>2021-03-07 11:50:09</time>
      </trkpt>
      <trkpt lat="42.9395" lon="-1.6398">
        <ele>496.8</ele>
        <time>2021-03-07 11:50:10</time>
      </trkpt>
      <trkpt lat="42.93946" lon="-1.63976">
        <ele>496.8</ele>
        <time>2021-03-07 11:50:11</time>
      </trkpt>
      <trkpt lat="42.93941" lon="-1.63972">
        <ele>497</ele>
        <time>2021-03-07 11:50:12</time>
      </trkpt>
      <trkpt lat="42.93936" lon="-1.63967">
        <ele>497</ele>
        <time>2021-03-07 11:50:13</time>
      </trkpt>
      <trkpt lat="42.93932" lon="-1.63963">
        <ele>497.2</ele>
        <time>2021-03-07 11:50:14</time>
      </trkpt>
      <trkpt lat="42.93927" lon="-1.63958">
        <ele>497.4</ele>
        <time>2021-03-07 11:50:15</time>
      </trkpt>
      <trkpt lat="42.93922" lon="-1.63954">
        <ele>497.8</ele>
        <time>2021-03-07 11:50:16</time>
      </trkpt>
      <trkpt lat="42.93917" lon="-1.63949">
        <ele>497.8</ele>
        <time>2021-03-07 11:50:17</time>
      </trkpt>
      <trkpt lat="42.93913" lon="-1.63945">
        <ele>498</ele>
        <time>2021-03-07 11:50:18</time>
      </trkpt>
      <trkpt lat="42.93908" lon="-1.63941">
        <ele>498.2</ele>
        <time>2021-03-07 11:50:19</time>
      </trkpt>
      <trkpt lat="42.93903" lon="-1.63937">
        <ele>498</ele>
        <time>2021-03-07 11:50:20</time>
      </trkpt>
      <trkpt lat="42.93899" lon="-1.63933">
        <ele>498.2</ele>
        <time>2021-03-07 11:50:21</time>
      </trkpt>
      <trkpt lat="42.93894" lon="-1.63929">
        <ele>498.2</ele>
        <time>2021-03-07 11:50:22</time>
      </trkpt>
      <trkpt lat="42.93889" lon="-1.63925">
        <ele>498.2</ele>
        <time>2021-03-07 11:50:23</time>
      </trkpt>
      <trkpt lat="42.93884" lon="-1.63921">
        <ele>498.2</ele>
        <time>2021-03-07 11:50:24</time>
      </trkpt>
      <trkpt lat="42.93879" lon="-1.63918">
        <ele>499</ele>
        <time>2021-03-07 11:50:25</time>
      </trkpt>
      <trkpt lat="42.93874" lon="-1.63915">
        <ele>499.2</ele>
        <time>2021-03-07 11:50:26</time>
      </trkpt>
      <trkpt lat="42.93869" lon="-1.63911">
        <ele>499.4</ele>
        <time>2021-03-07 11:50:27</time>
      </trkpt>
      <trkpt lat="42.93863" lon="-1.63908">
        <ele>499.6</ele>
        <time>2021-03-07 11:50:28</time>
      </trkpt>
      <trkpt lat="42.93858" lon="-1.63905">
        <ele>499.8</ele>
        <time>2021-03-07 11:50:29</time>
      </trkpt>
      <trkpt lat="42.93853" lon="-1.63902">
        <ele>499.8</ele>
        <time>2021-03-07 11:50:30</time>
      </trkpt>
      <trkpt lat="42.93847" lon="-1.63899">
        <ele>500</ele>
        <time>2021-03-07 11:50:31</time>
      </trkpt>
      <trkpt lat="42.93842" lon="-1.63896">
        <ele>500</ele>
        <time>2021-03-07 11:50:32</time>
      </trkpt>
      <trkpt lat="42.93836" lon="-1.63894">
        <ele>500.2</ele>
        <time>2021-03-07 11:50:33</time>
      </trkpt>
      <trkpt lat="42.9383" lon="-1.63891">
        <ele>500.2</ele>
        <time>2021-03-07 11:50:34</time>
      </trkpt>
      <trkpt lat="42.93824" lon="-1.63889">
        <ele>500.4</ele>
        <time>2021-03-07 11:50:35</time>
      </trkpt>
      <trkpt lat="42.93818" lon="-1.63886">
        <ele>500.6</ele>
        <time>2021-03-07 11:50:36</time>
      </trkpt>
      <trkpt lat="42.93812" lon="-1.63883">
        <ele>500.6</ele>
        <time>2021-03-07 11:50:37</time>
      </trkpt>
      <trkpt lat="42.93805" lon="-1.63881">
        <ele>500.8</ele>
        <time>2021-03-07 11:50:38</time>
      </trkpt>
      <trkpt lat="42.93798" lon="-1.63878">
        <ele>500.8</ele>
        <time>2021-03-07 11:50:39</time>
      </trkpt>
      <trkpt lat="42.93791" lon="-1.63875">
        <ele>500.8</ele>
        <time>2021-03-07 11:50:40</time>
      </trkpt>
      <trkpt lat="42.93784" lon="-1.63873">
        <ele>500.8</ele>
        <time>2021-03-07 11:50:41</time>
      </trkpt>
      <trkpt lat="42.93776" lon="-1.6387">
        <ele>500.8</ele>
        <time>2021-03-07 11:50:42</time>
      </trkpt>
      <trkpt lat="42.93769" lon="-1.63867">
        <ele>500.8</ele>
        <time>2021-03-07 11:50:43</time>
      </trkpt>
      <trkpt lat="42.93761" lon="-1.63864">
        <ele>500.8</ele>
        <time>2021-03-07 11:50:44</time>
      </trkpt>
      <trkpt lat="42.93752" lon="-1.63861">
        <ele>500.8</ele>
        <time>2021-03-07 11:50:45</time>
      </trkpt>
      <trkpt lat="42.93744" lon="-1.63858">
        <ele>500.6</ele>
        <time>2021-03-07 11:50:46</time>
      </trkpt>
      <trkpt lat="42.93735" lon="-1.63855">
        <ele>500.6</ele>
        <time>2021-03-07 11:50:47</time>
      </trkpt>
      <trkpt lat="42.93727" lon="-1.63852">
        <ele>500.4</ele>
        <time>2021-03-07 11:50:48</time>
      </trkpt>
      <trkpt lat="42.93718" lon="-1.63849">
        <ele>500.2</ele>
        <time>2021-03-07 11:50:49</time>
      </trkpt>
      <trkpt lat="42.93708" lon="-1.63846">
        <ele>500.2</ele>
        <time>2021-03-07 11:50:50</time>
      </trkpt>
      <trkpt lat="42.93699" lon="-1.63843">
        <ele>500</ele>
        <time>2021-03-07 11:50:51</time>
      </trkpt>
      <trkpt lat="42.9369" lon="-1.63839">
        <ele>499.6</ele>
        <time>2021-03-07 11:50:52</time>
      </trkpt>
      <trkpt lat="42.9368" lon="-1.63836">
        <ele>499.4</ele>
        <time>2021-03-07 11:50:53</time>
      </trkpt>
      <trkpt lat="42.9367" lon="-1.63832">
        <ele>498.8</ele>
        <time>2021-03-07 11:50:54</time>
      </trkpt>
      <trkpt lat="42.9366" lon="-1.63829">
        <ele>498.4</ele>
        <time>2021-03-07 11:50:55</time>
      </trkpt>
      <trkpt lat="42.93651" lon="-1.63825">
        <ele>498</ele>
        <time>2021-03-07 11:50:56</time>
      </trkpt>
      <trkpt lat="42.93641" lon="-1.63822">
        <ele>497.8</ele>
        <time>2021-03-07 11:50:57</time>
      </trkpt>
      <trkpt lat="42.93631" lon="-1.63818">
        <ele>497.4</ele>
        <time>2021-03-07 11:50:58</time>
      </trkpt>
      <trkpt lat="42.9362" lon="-1.63814">
        <ele>497.2</ele>
        <time>2021-03-07 11:50:59</time>
      </trkpt>
      <trkpt lat="42.9361" lon="-1.63811">
        <ele>496.8</ele>
        <time>2021-03-07 11:51:00</time>
      </trkpt>
      <trkpt lat="42.936" lon="-1.63807">
        <ele>496.4</ele>
        <time>2021-03-07 11:51:01</time>
      </trkpt>
      <trkpt lat="42.9359" lon="-1.63803">
        <ele>495.8</ele>
        <time>2021-03-07 11:51:02</time>
      </trkpt>
      <trkpt lat="42.93579" lon="-1.63799">
        <ele>495.2</ele>
        <time>2021-03-07 11:51:03</time>
      </trkpt>
      <trkpt lat="42.93569" lon="-1.63796">
        <ele>494.8</ele>
        <time>2021-03-07 11:51:04</time>
      </trkpt>
      <trkpt lat="42.93558" lon="-1.63792">
        <ele>494.4</ele>
        <time>2021-03-07 11:51:05</time>
      </trkpt>
      <trkpt lat="42.93548" lon="-1.63788">
        <ele>493.8</ele>
        <time>2021-03-07 11:51:06</time>
      </trkpt>
      <trkpt lat="42.93537" lon="-1.63784">
        <ele>493.4</ele>
        <time>2021-03-07 11:51:07</time>
      </trkpt>
      <trkpt lat="42.93526" lon="-1.63781">
        <ele>493</ele>
        <time>2021-03-07 11:51:08</time>
      </trkpt>
      <trkpt lat="42.93516" lon="-1.63777">
        <ele>492.6</ele>
        <time>2021-03-07 11:51:09</time>
      </trkpt>
      <trkpt lat="42.93505" lon="-1.63773">
        <ele>492</ele>
        <time>2021-03-07 11:51:10</time>
      </trkpt>
      <trkpt lat="42.93494" lon="-1.63769">
        <ele>491.6</ele>
        <time>2021-03-07 11:51:11</time>
      </trkpt>
      <trkpt lat="42.93483" lon="-1.63765">
        <ele>491.2</ele>
        <time>2021-03-07 11:51:12</time>
      </trkpt>
      <trkpt lat="42.93472" lon="-1.63761">
        <ele>490.6</ele>
        <time>2021-03-07 11:51:13</time>
      </trkpt>
      <trkpt lat="42.93461" lon="-1.63757">
        <ele>490.4</ele>
        <time>2021-03-07 11:51:14</time>
      </trkpt>
      <trkpt lat="42.93451" lon="-1.63753">
        <ele>490.2</ele>
        <time>2021-03-07 11:51:15</time>
      </trkpt>
      <trkpt lat="42.9344" lon="-1.63749">
        <ele>489.8</ele>
        <time>2021-03-07 11:51:16</time>
      </trkpt>
      <trkpt lat="42.93429" lon="-1.63746">
        <ele>489.2</ele>
        <time>2021-03-07 11:51:17</time>
      </trkpt>
      <trkpt lat="42.93418" lon="-1.63742">
        <ele>488.8</ele>
        <time>2021-03-07 11:51:18</time>
      </trkpt>
      <trkpt lat="42.93408" lon="-1.63738">
        <ele>488.2</ele>
        <time>2021-03-07 11:51:19</time>
      </trkpt>
      <trkpt lat="42.93397" lon="-1.63734">
        <ele>487.8</ele>
        <time>2021-03-07 11:51:20</time>
      </trkpt>
      <trkpt lat="42.93386" lon="-1.6373">
        <ele>487.4</ele>
        <time>2021-03-07 11:51:21</time>
      </trkpt>
      <trkpt lat="42.93376" lon="-1.63727">
        <ele>486.2</ele>
        <time>2021-03-07 11:51:22</time>
      </trkpt>
      <trkpt lat="42.93365" lon="-1.63723">
        <ele>485.8</ele>
        <time>2021-03-07 11:51:23</time>
      </trkpt>
      <trkpt lat="42.93355" lon="-1.6372">
        <ele>485.4</ele>
        <time>2021-03-07 11:51:24</time>
      </trkpt>
      <trkpt lat="42.93345" lon="-1.63716">
        <ele>485.2</ele>
        <time>2021-03-07 11:51:25</time>
      </trkpt>
      <trkpt lat="42.93335" lon="-1.63712">
        <ele>485.2</ele>
        <time>2021-03-07 11:51:26</time>
      </trkpt>
      <trkpt lat="42.93325" lon="-1.63708">
        <ele>485</ele>
        <time>2021-03-07 11:51:27</time>
      </trkpt>
      <trkpt lat="42.93315" lon="-1.63704">
        <ele>485</ele>
        <time>2021-03-07 11:51:28</time>
      </trkpt>
      <trkpt lat="42.93305" lon="-1.63701">
        <ele>485</ele>
        <time>2021-03-07 11:51:29</time>
      </trkpt>
      <trkpt lat="42.93295" lon="-1.63697">
        <ele>484.8</ele>
        <time>2021-03-07 11:51:30</time>
      </trkpt>
      <trkpt lat="42.93285" lon="-1.63694">
        <ele>484.8</ele>
        <time>2021-03-07 11:51:31</time>
      </trkpt>
      <trkpt lat="42.93275" lon="-1.6369">
        <ele>484.4</ele>
        <time>2021-03-07 11:51:32</time>
      </trkpt>
      <trkpt lat="42.93265" lon="-1.63686">
        <ele>484.2</ele>
        <time>2021-03-07 11:51:33</time>
      </trkpt>
      <trkpt lat="42.93255" lon="-1.63683">
        <ele>484</ele>
        <time>2021-03-07 11:51:34</time>
      </trkpt>
      <trkpt lat="42.93245" lon="-1.63679">
        <ele>483.8</ele>
        <time>2021-03-07 11:51:35</time>
      </trkpt>
      <trkpt lat="42.93235" lon="-1.63675">
        <ele>483.6</ele>
        <time>2021-03-07 11:51:36</time>
      </trkpt>
      <trkpt lat="42.93225" lon="-1.63672">
        <ele>483.6</ele>
        <time>2021-03-07 11:51:37</time>
      </trkpt>
      <trkpt lat="42.93215" lon="-1.63668">
        <ele>483.4</ele>
        <time>2021-03-07 11:51:38</time>
      </trkpt>
      <trkpt lat="42.93204" lon="-1.63665">
        <ele>483.2</ele>
        <time>2021-03-07 11:51:39</time>
      </trkpt>
      <trkpt lat="42.93193" lon="-1.63663">
        <ele>483.2</ele>
        <time>2021-03-07 11:51:40</time>
      </trkpt>
      <trkpt lat="42.93182" lon="-1.63661">
        <ele>483</ele>
        <time>2021-03-07 11:51:41</time>
      </trkpt>
      <trkpt lat="42.93172" lon="-1.63661">
        <ele>482.8</ele>
        <time>2021-03-07 11:51:42</time>
      </trkpt>
      <trkpt lat="42.93161" lon="-1.63661">
        <ele>482.4</ele>
        <time>2021-03-07 11:51:43</time>
      </trkpt>
      <trkpt lat="42.9315" lon="-1.63664">
        <ele>482.2</ele>
        <time>2021-03-07 11:51:44</time>
      </trkpt>
      <trkpt lat="42.93139" lon="-1.63668">
        <ele>481.8</ele>
        <time>2021-03-07 11:51:45</time>
      </trkpt>
      <trkpt lat="42.93129" lon="-1.63672">
        <ele>481.6</ele>
        <time>2021-03-07 11:51:46</time>
      </trkpt>
      <trkpt lat="42.93118" lon="-1.63676">
        <ele>481</ele>
        <time>2021-03-07 11:51:47</time>
      </trkpt>
      <trkpt lat="42.93107" lon="-1.63679">
        <ele>480.4</ele>
        <time>2021-03-07 11:51:48</time>
      </trkpt>
      <trkpt lat="42.93097" lon="-1.6368">
        <ele>480</ele>
        <time>2021-03-07 11:51:49</time>
      </trkpt>
      <trkpt lat="42.93086" lon="-1.63679">
        <ele>479.6</ele>
        <time>2021-03-07 11:51:50</time>
      </trkpt>
      <trkpt lat="42.93076" lon="-1.63675">
        <ele>478.8</ele>
        <time>2021-03-07 11:51:51</time>
      </trkpt>
      <trkpt lat="42.93066" lon="-1.63669">
        <ele>478.4</ele>
        <time>2021-03-07 11:51:52</time>
      </trkpt>
      <trkpt lat="42.93057" lon="-1.63661">
        <ele>477.8</ele>
        <time>2021-03-07 11:51:53</time>
      </trkpt>
      <trkpt lat="42.93048" lon="-1.63653">
        <ele>477.6</ele>
        <time>2021-03-07 11:51:54</time>
      </trkpt>
      <trkpt lat="42.93039" lon="-1.63643">
        <ele>477.4</ele>
        <time>2021-03-07 11:51:55</time>
      </trkpt>
      <trkpt lat="42.9303" lon="-1.63634">
        <ele>477.4</ele>
        <time>2021-03-07 11:51:56</time>
      </trkpt>
      <trkpt lat="42.93021" lon="-1.63625">
        <ele>477.2</ele>
        <time>2021-03-07 11:51:57</time>
      </trkpt>
      <trkpt lat="42.93012" lon="-1.63616">
        <ele>477</ele>
        <time>2021-03-07 11:51:58</time>
      </trkpt>
      <trkpt lat="42.93004" lon="-1.63606">
        <ele>476.6</ele>
        <time>2021-03-07 11:51:59</time>
      </trkpt>
      <trkpt lat="42.92997" lon="-1.63595">
        <ele>476.2</ele>
        <time>2021-03-07 11:52:00</time>
      </trkpt>
      <trkpt lat="42.92991" lon="-1.63583">
        <ele>475.6</ele>
        <time>2021-03-07 11:52:01</time>
      </trkpt>
      <trkpt lat="42.92986" lon="-1.6357">
        <ele>475</ele>
        <time>2021-03-07 11:52:02</time>
      </trkpt>
      <trkpt lat="42.92983" lon="-1.63556">
        <ele>474.4</ele>
        <time>2021-03-07 11:52:03</time>
      </trkpt>
      <trkpt lat="42.9298" lon="-1.63542">
        <ele>474</ele>
        <time>2021-03-07 11:52:04</time>
      </trkpt>
      <trkpt lat="42.92977" lon="-1.63527">
        <ele>473.6</ele>
        <time>2021-03-07 11:52:05</time>
      </trkpt>
      <trkpt lat="42.92974" lon="-1.63513">
        <ele>473.4</ele>
        <time>2021-03-07 11:52:06</time>
      </trkpt>
      <trkpt lat="42.92971" lon="-1.63499">
        <ele>473.2</ele>
        <time>2021-03-07 11:52:07</time>
      </trkpt>
      <trkpt lat="42.92969" lon="-1.63485">
        <ele>473.2</ele>
        <time>2021-03-07 11:52:08</time>
      </trkpt>
      <trkpt lat="42.92967" lon="-1.63471">
        <ele>473</ele>
        <time>2021-03-07 11:52:09</time>
      </trkpt>
      <trkpt lat="42.92965" lon="-1.63457">
        <ele>472.8</ele>
        <time>2021-03-07 11:52:10</time>
      </trkpt>
      <trkpt lat="42.92963" lon="-1.63443">
        <ele>472.8</ele>
        <time>2021-03-07 11:52:11</time>
      </trkpt>
      <trkpt lat="42.92961" lon="-1.63429">
        <ele>472.6</ele>
        <time>2021-03-07 11:52:12</time>
      </trkpt>
      <trkpt lat="42.92959" lon="-1.63416">
        <ele>472.4</ele>
        <time>2021-03-07 11:52:13</time>
      </trkpt>
      <trkpt lat="42.92957" lon="-1.63402">
        <ele>472.2</ele>
        <time>2021-03-07 11:52:14</time>
      </trkpt>
      <trkpt lat="42.92955" lon="-1.63389">
        <ele>472</ele>
        <time>2021-03-07 11:52:15</time>
      </trkpt>
      <trkpt lat="42.92953" lon="-1.63376">
        <ele>472</ele>
        <time>2021-03-07 11:52:16</time>
      </trkpt>
      <trkpt lat="42.92951" lon="-1.63363">
        <ele>471.8</ele>
        <time>2021-03-07 11:52:17</time>
      </trkpt>
      <trkpt lat="42.92949" lon="-1.6335">
        <ele>471.8</ele>
        <time>2021-03-07 11:52:18</time>
      </trkpt>
      <trkpt lat="42.92947" lon="-1.63337">
        <ele>471.6</ele>
        <time>2021-03-07 11:52:19</time>
      </trkpt>
      <trkpt lat="42.92945" lon="-1.63324">
        <ele>471.2</ele>
        <time>2021-03-07 11:52:20</time>
      </trkpt>
      <trkpt lat="42.92943" lon="-1.63312">
        <ele>471.2</ele>
        <time>2021-03-07 11:52:21</time>
      </trkpt>
      <trkpt lat="42.92941" lon="-1.633">
        <ele>471</ele>
        <time>2021-03-07 11:52:22</time>
      </trkpt>
      <trkpt lat="42.92939" lon="-1.63288">
        <ele>471</ele>
        <time>2021-03-07 11:52:23</time>
      </trkpt>
      <trkpt lat="42.92937" lon="-1.63276">
        <ele>471</ele>
        <time>2021-03-07 11:52:24</time>
      </trkpt>
      <trkpt lat="42.92935" lon="-1.63264">
        <ele>471</ele>
        <time>2021-03-07 11:52:25</time>
      </trkpt>
      <trkpt lat="42.92932" lon="-1.63252">
        <ele>470.8</ele>
        <time>2021-03-07 11:52:26</time>
      </trkpt>
      <trkpt lat="42.9293" lon="-1.6324">
        <ele>470.8</ele>
        <time>2021-03-07 11:52:27</time>
      </trkpt>
      <trkpt lat="42.92927" lon="-1.63229">
        <ele>470.8</ele>
        <time>2021-03-07 11:52:28</time>
      </trkpt>
      <trkpt lat="42.92924" lon="-1.63218">
        <ele>470.8</ele>
        <time>2021-03-07 11:52:29</time>
      </trkpt>
      <trkpt lat="42.9292" lon="-1.63207">
        <ele>470.8</ele>
        <time>2021-03-07 11:52:30</time>
      </trkpt>
      <trkpt lat="42.92916" lon="-1.63196">
        <ele>470.8</ele>
        <time>2021-03-07 11:52:31</time>
      </trkpt>
      <trkpt lat="42.92911" lon="-1.63186">
        <ele>470.8</ele>
        <time>2021-03-07 11:52:32</time>
      </trkpt>
      <trkpt lat="42.92906" lon="-1.63176">
        <ele>470.8</ele>
        <time>2021-03-07 11:52:33</time>
      </trkpt>
      <trkpt lat="42.92901" lon="-1.63167">
        <ele>470.8</ele>
        <time>2021-03-07 11:52:34</time>
      </trkpt>
      <trkpt lat="42.92896" lon="-1.63158">
        <ele>470.8</ele>
        <time>2021-03-07 11:52:35</time>
      </trkpt>
      <trkpt lat="42.9289" lon="-1.63148">
        <ele>470.8</ele>
        <time>2021-03-07 11:52:36</time>
      </trkpt>
      <trkpt lat="42.92885" lon="-1.63139">
        <ele>470.8</ele>
        <time>2021-03-07 11:52:37</time>
      </trkpt>
      <trkpt lat="42.92879" lon="-1.6313">
        <ele>470.8</ele>
        <time>2021-03-07 11:52:38</time>
      </trkpt>
      <trkpt lat="42.92873" lon="-1.63121">
        <ele>470.8</ele>
        <time>2021-03-07 11:52:39</time>
      </trkpt>
      <trkpt lat="42.92868" lon="-1.63112">
        <ele>470.8</ele>
        <time>2021-03-07 11:52:40</time>
      </trkpt>
      <trkpt lat="42.92862" lon="-1.63103">
        <ele>470.8</ele>
        <time>2021-03-07 11:52:41</time>
      </trkpt>
      <trkpt lat="42.92857" lon="-1.63094">
        <ele>470.8</ele>
        <time>2021-03-07 11:52:42</time>
      </trkpt>
      <trkpt lat="42.92851" lon="-1.63085">
        <ele>470.8</ele>
        <time>2021-03-07 11:52:43</time>
      </trkpt>
      <trkpt lat="42.92845" lon="-1.63076">
        <ele>470.8</ele>
        <time>2021-03-07 11:52:44</time>
      </trkpt>
      <trkpt lat="42.9284" lon="-1.63067">
        <ele>470.8</ele>
        <time>2021-03-07 11:52:45</time>
      </trkpt>
      <trkpt lat="42.92834" lon="-1.63057">
        <ele>470.8</ele>
        <time>2021-03-07 11:52:46</time>
      </trkpt>
      <trkpt lat="42.92828" lon="-1.63048">
        <ele>470.8</ele>
        <time>2021-03-07 11:52:47</time>
      </trkpt>
      <trkpt lat="42.92823" lon="-1.63039">
        <ele>470.8</ele>
        <time>2021-03-07 11:52:48</time>
      </trkpt>
      <trkpt lat="42.92817" lon="-1.6303">
        <ele>470.8</ele>
        <time>2021-03-07 11:52:49</time>
      </trkpt>
      <trkpt lat="42.92811" lon="-1.63021">
        <ele>470.8</ele>
        <time>2021-03-07 11:52:50</time>
      </trkpt>
      <trkpt lat="42.92805" lon="-1.63012">
        <ele>470.6</ele>
        <time>2021-03-07 11:52:51</time>
      </trkpt>
      <trkpt lat="42.928" lon="-1.63003">
        <ele>470.6</ele>
        <time>2021-03-07 11:52:52</time>
      </trkpt>
      <trkpt lat="42.92794" lon="-1.62993">
        <ele>470.6</ele>
        <time>2021-03-07 11:52:53</time>
      </trkpt>
      <trkpt lat="42.92788" lon="-1.62984">
        <ele>470.6</ele>
        <time>2021-03-07 11:52:54</time>
      </trkpt>
      <trkpt lat="42.92783" lon="-1.62975">
        <ele>470.6</ele>
        <time>2021-03-07 11:52:55</time>
      </trkpt>
      <trkpt lat="42.92777" lon="-1.62966">
        <ele>470.6</ele>
        <time>2021-03-07 11:52:56</time>
      </trkpt>
      <trkpt lat="42.92771" lon="-1.62957">
        <ele>470.6</ele>
        <time>2021-03-07 11:52:57</time>
      </trkpt>
      <trkpt lat="42.92765" lon="-1.62948">
        <ele>470.6</ele>
        <time>2021-03-07 11:52:58</time>
      </trkpt>
      <trkpt lat="42.92759" lon="-1.62939">
        <ele>470.6</ele>
        <time>2021-03-07 11:52:59</time>
      </trkpt>
      <trkpt lat="42.92753" lon="-1.62931">
        <ele>470.6</ele>
        <time>2021-03-07 11:53:00</time>
      </trkpt>
      <trkpt lat="42.92747" lon="-1.62922">
        <ele>470.6</ele>
        <time>2021-03-07 11:53:01</time>
      </trkpt>
      <trkpt lat="42.9274" lon="-1.62914">
        <ele>470.6</ele>
        <time>2021-03-07 11:53:02</time>
      </trkpt>
      <trkpt lat="42.92734" lon="-1.62906">
        <ele>470.6</ele>
        <time>2021-03-07 11:53:03</time>
      </trkpt>
      <trkpt lat="42.92727" lon="-1.62898">
        <ele>470.6</ele>
        <time>2021-03-07 11:53:04</time>
      </trkpt>
      <trkpt lat="42.9272" lon="-1.62891">
        <ele>470.6</ele>
        <time>2021-03-07 11:53:05</time>
      </trkpt>
      <trkpt lat="42.92714" lon="-1.62883">
        <ele>470.6</ele>
        <time>2021-03-07 11:53:06</time>
      </trkpt>
      <trkpt lat="42.92707" lon="-1.62877">
        <ele>470.6</ele>
        <time>2021-03-07 11:53:07</time>
      </trkpt>
      <trkpt lat="42.927" lon="-1.6287">
        <ele>470.6</ele>
        <time>2021-03-07 11:53:08</time>
      </trkpt>
      <trkpt lat="42.92693" lon="-1.62864">
        <ele>470.6</ele>
        <time>2021-03-07 11:53:09</time>
      </trkpt>
      <trkpt lat="42.92687" lon="-1.62858">
        <ele>470.6</ele>
        <time>2021-03-07 11:53:10</time>
      </trkpt>
      <trkpt lat="42.9268" lon="-1.62853">
        <ele>470.6</ele>
        <time>2021-03-07 11:53:11</time>
      </trkpt>
      <trkpt lat="42.92674" lon="-1.62848">
        <ele>470.6</ele>
        <time>2021-03-07 11:53:12</time>
      </trkpt>
      <trkpt lat="42.92667" lon="-1.62844">
        <ele>470.6</ele>
        <time>2021-03-07 11:53:13</time>
      </trkpt>
      <trkpt lat="42.92661" lon="-1.62839">
        <ele>470.6</ele>
        <time>2021-03-07 11:53:14</time>
      </trkpt>
      <trkpt lat="42.92655" lon="-1.62835">
        <ele>470.6</ele>
        <time>2021-03-07 11:53:15</time>
      </trkpt>
      <trkpt lat="42.92649" lon="-1.6283">
        <ele>470.6</ele>
        <time>2021-03-07 11:53:16</time>
      </trkpt>
      <trkpt lat="42.92643" lon="-1.62827">
        <ele>470.8</ele>
        <time>2021-03-07 11:53:17</time>
      </trkpt>
      <trkpt lat="42.92637" lon="-1.62823">
        <ele>471</ele>
        <time>2021-03-07 11:53:18</time>
      </trkpt>
      <trkpt lat="42.92631" lon="-1.62819">
        <ele>471.2</ele>
        <time>2021-03-07 11:53:19</time>
      </trkpt>
      <trkpt lat="42.92625" lon="-1.62815">
        <ele>471.4</ele>
        <time>2021-03-07 11:53:20</time>
      </trkpt>
      <trkpt lat="42.9262" lon="-1.62812">
        <ele>471.8</ele>
        <time>2021-03-07 11:53:21</time>
      </trkpt>
      <trkpt lat="42.92614" lon="-1.62808">
        <ele>472</ele>
        <time>2021-03-07 11:53:22</time>
      </trkpt>
      <trkpt lat="42.92608" lon="-1.62805">
        <ele>472.4</ele>
        <time>2021-03-07 11:53:23</time>
      </trkpt>
      <trkpt lat="42.92602" lon="-1.62801">
        <ele>472.8</ele>
        <time>2021-03-07 11:53:24</time>
      </trkpt>
      <trkpt lat="42.92597" lon="-1.62798">
        <ele>473.2</ele>
        <time>2021-03-07 11:53:25</time>
      </trkpt>
      <trkpt lat="42.92591" lon="-1.62794">
        <ele>473.6</ele>
        <time>2021-03-07 11:53:26</time>
      </trkpt>
      <trkpt lat="42.92586" lon="-1.6279">
        <ele>474</ele>
        <time>2021-03-07 11:53:27</time>
      </trkpt>
      <trkpt lat="42.9258" lon="-1.62786">
        <ele>474.2</ele>
        <time>2021-03-07 11:53:28</time>
      </trkpt>
      <trkpt lat="42.92575" lon="-1.62783">
        <ele>474.4</ele>
        <time>2021-03-07 11:53:29</time>
      </trkpt>
      <trkpt lat="42.92569" lon="-1.62779">
        <ele>474.6</ele>
        <time>2021-03-07 11:53:30</time>
      </trkpt>
      <trkpt lat="42.92564" lon="-1.62775">
        <ele>474.8</ele>
        <time>2021-03-07 11:53:31</time>
      </trkpt>
      <trkpt lat="42.92558" lon="-1.62772">
        <ele>474.8</ele>
        <time>2021-03-07 11:53:32</time>
      </trkpt>
      <trkpt lat="42.92553" lon="-1.62768">
        <ele>475</ele>
        <time>2021-03-07 11:53:33</time>
      </trkpt>
      <trkpt lat="42.92547" lon="-1.62765">
        <ele>475.2</ele>
        <time>2021-03-07 11:53:34</time>
      </trkpt>
      <trkpt lat="42.92541" lon="-1.62761">
        <ele>475.4</ele>
        <time>2021-03-07 11:53:35</time>
      </trkpt>
      <trkpt lat="42.92536" lon="-1.62758">
        <ele>475.6</ele>
        <time>2021-03-07 11:53:36</time>
      </trkpt>
      <trkpt lat="42.9253" lon="-1.62755">
        <ele>475.8</ele>
        <time>2021-03-07 11:53:37</time>
      </trkpt>
      <trkpt lat="42.92525" lon="-1.62751">
        <ele>476</ele>
        <time>2021-03-07 11:53:38</time>
      </trkpt>
      <trkpt lat="42.92519" lon="-1.62748">
        <ele>476.2</ele>
        <time>2021-03-07 11:53:39</time>
      </trkpt>
      <trkpt lat="42.92513" lon="-1.62745">
        <ele>476.4</ele>
        <time>2021-03-07 11:53:40</time>
      </trkpt>
      <trkpt lat="42.92508" lon="-1.62742">
        <ele>476.6</ele>
        <time>2021-03-07 11:53:41</time>
      </trkpt>
      <trkpt lat="42.92502" lon="-1.62739">
        <ele>477</ele>
        <time>2021-03-07 11:53:42</time>
      </trkpt>
      <trkpt lat="42.92496" lon="-1.62736">
        <ele>477.4</ele>
        <time>2021-03-07 11:53:43</time>
      </trkpt>
      <trkpt lat="42.92491" lon="-1.62733">
        <ele>477.6</ele>
        <time>2021-03-07 11:53:44</time>
      </trkpt>
      <trkpt lat="42.92485" lon="-1.6273">
        <ele>477.8</ele>
        <time>2021-03-07 11:53:45</time>
      </trkpt>
      <trkpt lat="42.92479" lon="-1.62727">
        <ele>477.8</ele>
        <time>2021-03-07 11:53:46</time>
      </trkpt>
      <trkpt lat="42.92473" lon="-1.62725">
        <ele>477.8</ele>
        <time>2021-03-07 11:53:47</time>
      </trkpt>
      <trkpt lat="42.92467" lon="-1.62722">
        <ele>478</ele>
        <time>2021-03-07 11:53:48</time>
      </trkpt>
      <trkpt lat="42.92461" lon="-1.6272">
        <ele>478</ele>
        <time>2021-03-07 11:53:49</time>
      </trkpt>
      <trkpt lat="42.92455" lon="-1.62717">
        <ele>478</ele>
        <time>2021-03-07 11:53:50</time>
      </trkpt>
      <trkpt lat="42.92448" lon="-1.62715">
        <ele>478.2</ele>
        <time>2021-03-07 11:53:51</time>
      </trkpt>
      <trkpt lat="42.92442" lon="-1.62713">
        <ele>478.2</ele>
        <time>2021-03-07 11:53:52</time>
      </trkpt>
      <trkpt lat="42.92436" lon="-1.62711">
        <ele>478.2</ele>
        <time>2021-03-07 11:53:53</time>
      </trkpt>
      <trkpt lat="42.92429" lon="-1.62709">
        <ele>478.4</ele>
        <time>2021-03-07 11:53:54</time>
      </trkpt>
      <trkpt lat="42.92423" lon="-1.62707">
        <ele>478.4</ele>
        <time>2021-03-07 11:53:55</time>
      </trkpt>
      <trkpt lat="42.92416" lon="-1.62704">
        <ele>478.4</ele>
        <time>2021-03-07 11:53:56</time>
      </trkpt>
      <trkpt lat="42.92409" lon="-1.62702">
        <ele>478.4</ele>
        <time>2021-03-07 11:53:57</time>
      </trkpt>
      <trkpt lat="42.92402" lon="-1.627">
        <ele>478.4</ele>
        <time>2021-03-07 11:53:58</time>
      </trkpt>
      <trkpt lat="42.92395" lon="-1.62698">
        <ele>478.4</ele>
        <time>2021-03-07 11:53:59</time>
      </trkpt>
      <trkpt lat="42.92388" lon="-1.62695">
        <ele>478.4</ele>
        <time>2021-03-07 11:54:00</time>
      </trkpt>
      <trkpt lat="42.9238" lon="-1.62692">
        <ele>478.4</ele>
        <time>2021-03-07 11:54:01</time>
      </trkpt>
      <trkpt lat="42.92373" lon="-1.6269">
        <ele>478.4</ele>
        <time>2021-03-07 11:54:02</time>
      </trkpt>
      <trkpt lat="42.92365" lon="-1.62687">
        <ele>478.4</ele>
        <time>2021-03-07 11:54:03</time>
      </trkpt>
      <trkpt lat="42.92357" lon="-1.62684">
        <ele>478.4</ele>
        <time>2021-03-07 11:54:04</time>
      </trkpt>
      <trkpt lat="42.92349" lon="-1.62682">
        <ele>478.4</ele>
        <time>2021-03-07 11:54:05</time>
      </trkpt>
      <trkpt lat="42.9234" lon="-1.62679">
        <ele>478.2</ele>
        <time>2021-03-07 11:54:06</time>
      </trkpt>
      <trkpt lat="42.92331" lon="-1.62676">
        <ele>478.2</ele>
        <time>2021-03-07 11:54:07</time>
      </trkpt>
      <trkpt lat="42.92322" lon="-1.62674">
        <ele>478</ele>
        <time>2021-03-07 11:54:08</time>
      </trkpt>
      <trkpt lat="42.92313" lon="-1.62672">
        <ele>477.8</ele>
        <time>2021-03-07 11:54:09</time>
      </trkpt>
      <trkpt lat="42.92303" lon="-1.62672">
        <ele>477.8</ele>
        <time>2021-03-07 11:54:10</time>
      </trkpt>
      <trkpt lat="42.92293" lon="-1.62673">
        <ele>477.6</ele>
        <time>2021-03-07 11:54:11</time>
      </trkpt>
      <trkpt lat="42.92283" lon="-1.62674">
        <ele>477.2</ele>
        <time>2021-03-07 11:54:12</time>
      </trkpt>
      <trkpt lat="42.92273" lon="-1.62676">
        <ele>476.6</ele>
        <time>2021-03-07 11:54:13</time>
      </trkpt>
      <trkpt lat="42.92263" lon="-1.62678">
        <ele>476.2</ele>
        <time>2021-03-07 11:54:14</time>
      </trkpt>
      <trkpt lat="42.92253" lon="-1.6268">
        <ele>475.6</ele>
        <time>2021-03-07 11:54:15</time>
      </trkpt>
      <trkpt lat="42.92243" lon="-1.62681">
        <ele>475</ele>
        <time>2021-03-07 11:54:16</time>
      </trkpt>
      <trkpt lat="42.92233" lon="-1.62683">
        <ele>474.4</ele>
        <time>2021-03-07 11:54:17</time>
      </trkpt>
      <trkpt lat="42.92223" lon="-1.62685">
        <ele>474</ele>
        <time>2021-03-07 11:54:18</time>
      </trkpt>
      <trkpt lat="42.92213" lon="-1.62686">
        <ele>473.4</ele>
        <time>2021-03-07 11:54:19</time>
      </trkpt>
      <trkpt lat="42.92203" lon="-1.62688">
        <ele>472.8</ele>
        <time>2021-03-07 11:54:20</time>
      </trkpt>
      <trkpt lat="42.92193" lon="-1.62689">
        <ele>472.4</ele>
        <time>2021-03-07 11:54:21</time>
      </trkpt>
      <trkpt lat="42.92183" lon="-1.62691">
        <ele>472.2</ele>
        <time>2021-03-07 11:54:22</time>
      </trkpt>
      <trkpt lat="42.92173" lon="-1.62692">
        <ele>471.6</ele>
        <time>2021-03-07 11:54:23</time>
      </trkpt>
      <trkpt lat="42.92163" lon="-1.62692">
        <ele>471.2</ele>
        <time>2021-03-07 11:54:24</time>
      </trkpt>
      <trkpt lat="42.92154" lon="-1.62692">
        <ele>471</ele>
        <time>2021-03-07 11:54:25</time>
      </trkpt>
      <trkpt lat="42.92144" lon="-1.6269">
        <ele>471</ele>
        <time>2021-03-07 11:54:26</time>
      </trkpt>
      <trkpt lat="42.92134" lon="-1.62687">
        <ele>470.8</ele>
        <time>2021-03-07 11:54:27</time>
      </trkpt>
      <trkpt lat="42.92125" lon="-1.62681">
        <ele>470.4</ele>
        <time>2021-03-07 11:54:28</time>
      </trkpt>
      <trkpt lat="42.92116" lon="-1.62675">
        <ele>470.4</ele>
        <time>2021-03-07 11:54:29</time>
      </trkpt>
      <trkpt lat="42.92108" lon="-1.62667">
        <ele>470.2</ele>
        <time>2021-03-07 11:54:30</time>
      </trkpt>
      <trkpt lat="42.921" lon="-1.6266">
        <ele>470.2</ele>
        <time>2021-03-07 11:54:31</time>
      </trkpt>
      <trkpt lat="42.92093" lon="-1.62651">
        <ele>470.2</ele>
        <time>2021-03-07 11:54:32</time>
      </trkpt>
      <trkpt lat="42.92086" lon="-1.62641">
        <ele>470</ele>
        <time>2021-03-07 11:54:33</time>
      </trkpt>
      <trkpt lat="42.9208" lon="-1.6263">
        <ele>469.6</ele>
        <time>2021-03-07 11:54:34</time>
      </trkpt>
      <trkpt lat="42.92074" lon="-1.6262">
        <ele>469.4</ele>
        <time>2021-03-07 11:54:35</time>
      </trkpt>
      <trkpt lat="42.92068" lon="-1.62609">
        <ele>469.2</ele>
        <time>2021-03-07 11:54:36</time>
      </trkpt>
      <trkpt lat="42.92062" lon="-1.62598">
        <ele>469</ele>
        <time>2021-03-07 11:54:37</time>
      </trkpt>
      <trkpt lat="42.92057" lon="-1.62587">
        <ele>469</ele>
        <time>2021-03-07 11:54:38</time>
      </trkpt>
      <trkpt lat="42.92051" lon="-1.62577">
        <ele>468.8</ele>
        <time>2021-03-07 11:54:39</time>
      </trkpt>
      <trkpt lat="42.92045" lon="-1.62566">
        <ele>468.6</ele>
        <time>2021-03-07 11:54:40</time>
      </trkpt>
      <trkpt lat="42.9204" lon="-1.62556">
        <ele>468.6</ele>
        <time>2021-03-07 11:54:41</time>
      </trkpt>
      <trkpt lat="42.92034" lon="-1.62545">
        <ele>468.4</ele>
        <time>2021-03-07 11:54:42</time>
      </trkpt>
      <trkpt lat="42.92028" lon="-1.62535">
        <ele>468</ele>
        <time>2021-03-07 11:54:43</time>
      </trkpt>
      <trkpt lat="42.92023" lon="-1.62525">
        <ele>468</ele>
        <time>2021-03-07 11:54:44</time>
      </trkpt>
      <trkpt lat="42.92017" lon="-1.62515">
        <ele>468</ele>
        <time>2021-03-07 11:54:45</time>
      </trkpt>
      <trkpt lat="42.92011" lon="-1.62505">
        <ele>468</ele>
        <time>2021-03-07 11:54:46</time>
      </trkpt>
      <trkpt lat="42.92005" lon="-1.62494">
        <ele>467.8</ele>
        <time>2021-03-07 11:54:47</time>
      </trkpt>
      <trkpt lat="42.91999" lon="-1.62484">
        <ele>467.8</ele>
        <time>2021-03-07 11:54:48</time>
      </trkpt>
      <trkpt lat="42.91994" lon="-1.62474">
        <ele>467.8</ele>
        <time>2021-03-07 11:54:49</time>
      </trkpt>
      <trkpt lat="42.91988" lon="-1.62463">
        <ele>467.8</ele>
        <time>2021-03-07 11:54:50</time>
      </trkpt>
      <trkpt lat="42.91982" lon="-1.62452">
        <ele>467.8</ele>
        <time>2021-03-07 11:54:51</time>
      </trkpt>
      <trkpt lat="42.91977" lon="-1.62441">
        <ele>467.8</ele>
        <time>2021-03-07 11:54:52</time>
      </trkpt>
      <trkpt lat="42.91971" lon="-1.6243">
        <ele>467.8</ele>
        <time>2021-03-07 11:54:53</time>
      </trkpt>
      <trkpt lat="42.91966" lon="-1.62419">
        <ele>467.8</ele>
        <time>2021-03-07 11:54:54</time>
      </trkpt>
      <trkpt lat="42.91961" lon="-1.62408">
        <ele>467.8</ele>
        <time>2021-03-07 11:54:55</time>
      </trkpt>
      <trkpt lat="42.91956" lon="-1.62396">
        <ele>467.8</ele>
        <time>2021-03-07 11:54:56</time>
      </trkpt>
      <trkpt lat="42.91951" lon="-1.62385">
        <ele>467.8</ele>
        <time>2021-03-07 11:54:57</time>
      </trkpt>
      <trkpt lat="42.91946" lon="-1.62373">
        <ele>467.8</ele>
        <time>2021-03-07 11:54:58</time>
      </trkpt>
      <trkpt lat="42.91941" lon="-1.62362">
        <ele>467.4</ele>
        <time>2021-03-07 11:54:59</time>
      </trkpt>
      <trkpt lat="42.91936" lon="-1.6235">
        <ele>467.4</ele>
        <time>2021-03-07 11:55:00</time>
      </trkpt>
      <trkpt lat="42.91931" lon="-1.62338">
        <ele>467.4</ele>
        <time>2021-03-07 11:55:01</time>
      </trkpt>
      <trkpt lat="42.91926" lon="-1.62327">
        <ele>467.4</ele>
        <time>2021-03-07 11:55:02</time>
      </trkpt>
      <trkpt lat="42.91921" lon="-1.62315">
        <ele>467.4</ele>
        <time>2021-03-07 11:55:03</time>
      </trkpt>
      <trkpt lat="42.91916" lon="-1.62304">
        <ele>467.2</ele>
        <time>2021-03-07 11:55:04</time>
      </trkpt>
      <trkpt lat="42.91911" lon="-1.62292">
        <ele>467</ele>
        <time>2021-03-07 11:55:05</time>
      </trkpt>
      <trkpt lat="42.91906" lon="-1.6228">
        <ele>466.6</ele>
        <time>2021-03-07 11:55:06</time>
      </trkpt>
      <trkpt lat="42.91901" lon="-1.62269">
        <ele>466.2</ele>
        <time>2021-03-07 11:55:07</time>
      </trkpt>
      <trkpt lat="42.91896" lon="-1.62257">
        <ele>466</ele>
        <time>2021-03-07 11:55:08</time>
      </trkpt>
      <trkpt lat="42.91891" lon="-1.62246">
        <ele>465.6</ele>
        <time>2021-03-07 11:55:09</time>
      </trkpt>
      <trkpt lat="42.91886" lon="-1.62235">
        <ele>465.6</ele>
        <time>2021-03-07 11:55:10</time>
      </trkpt>
      <trkpt lat="42.91881" lon="-1.62224">
        <ele>465.4</ele>
        <time>2021-03-07 11:55:11</time>
      </trkpt>
      <trkpt lat="42.91876" lon="-1.62213">
        <ele>465.2</ele>
        <time>2021-03-07 11:55:12</time>
      </trkpt>
      <trkpt lat="42.91872" lon="-1.62202">
        <ele>465</ele>
        <time>2021-03-07 11:55:13</time>
      </trkpt>
      <trkpt lat="42.91867" lon="-1.62191">
        <ele>465</ele>
        <time>2021-03-07 11:55:14</time>
      </trkpt>
      <trkpt lat="42.91863" lon="-1.6218">
        <ele>464.8</ele>
        <time>2021-03-07 11:55:15</time>
      </trkpt>
      <trkpt lat="42.91859" lon="-1.62169">
        <ele>464.6</ele>
        <time>2021-03-07 11:55:16</time>
      </trkpt>
      <trkpt lat="42.91854" lon="-1.62158">
        <ele>464.6</ele>
        <time>2021-03-07 11:55:17</time>
      </trkpt>
      <trkpt lat="42.9185" lon="-1.62148">
        <ele>464.4</ele>
        <time>2021-03-07 11:55:18</time>
      </trkpt>
      <trkpt lat="42.91846" lon="-1.62137">
        <ele>464.4</ele>
        <time>2021-03-07 11:55:19</time>
      </trkpt>
      <trkpt lat="42.91841" lon="-1.62127">
        <ele>464.4</ele>
        <time>2021-03-07 11:55:20</time>
      </trkpt>
      <trkpt lat="42.91837" lon="-1.62117">
        <ele>464.4</ele>
        <time>2021-03-07 11:55:21</time>
      </trkpt>
      <trkpt lat="42.91832" lon="-1.62107">
        <ele>464.4</ele>
        <time>2021-03-07 11:55:22</time>
      </trkpt>
      <trkpt lat="42.91827" lon="-1.62096">
        <ele>464.4</ele>
        <time>2021-03-07 11:55:23</time>
      </trkpt>
      <trkpt lat="42.91823" lon="-1.62086">
        <ele>464.4</ele>
        <time>2021-03-07 11:55:24</time>
      </trkpt>
      <trkpt lat="42.91818" lon="-1.62076">
        <ele>464.2</ele>
        <time>2021-03-07 11:55:25</time>
      </trkpt>
      <trkpt lat="42.91814" lon="-1.62066">
        <ele>464.2</ele>
        <time>2021-03-07 11:55:26</time>
      </trkpt>
      <trkpt lat="42.91809" lon="-1.62055">
        <ele>464.2</ele>
        <time>2021-03-07 11:55:27</time>
      </trkpt>
      <trkpt lat="42.91804" lon="-1.62046">
        <ele>464.2</ele>
        <time>2021-03-07 11:55:28</time>
      </trkpt>
      <trkpt lat="42.91799" lon="-1.62036">
        <ele>464</ele>
        <time>2021-03-07 11:55:29</time>
      </trkpt>
      <trkpt lat="42.91793" lon="-1.62028">
        <ele>464</ele>
        <time>2021-03-07 11:55:30</time>
      </trkpt>
      <trkpt lat="42.91786" lon="-1.6202">
        <ele>464</ele>
        <time>2021-03-07 11:55:31</time>
      </trkpt>
      <trkpt lat="42.91779" lon="-1.62013">
        <ele>464</ele>
        <time>2021-03-07 11:55:32</time>
      </trkpt>
      <trkpt lat="42.91772" lon="-1.62008">
        <ele>464</ele>
        <time>2021-03-07 11:55:33</time>
      </trkpt>
      <trkpt lat="42.91764" lon="-1.62002">
        <ele>464</ele>
        <time>2021-03-07 11:55:34</time>
      </trkpt>
      <trkpt lat="42.91757" lon="-1.61998">
        <ele>464</ele>
        <time>2021-03-07 11:55:35</time>
      </trkpt>
      <trkpt lat="42.91749" lon="-1.61995">
        <ele>464</ele>
        <time>2021-03-07 11:55:36</time>
      </trkpt>
      <trkpt lat="42.91742" lon="-1.61991">
        <ele>464</ele>
        <time>2021-03-07 11:55:37</time>
      </trkpt>
      <trkpt lat="42.91734" lon="-1.61988">
        <ele>464</ele>
        <time>2021-03-07 11:55:38</time>
      </trkpt>
      <trkpt lat="42.91727" lon="-1.61985">
        <ele>464</ele>
        <time>2021-03-07 11:55:39</time>
      </trkpt>
      <trkpt lat="42.91719" lon="-1.61981">
        <ele>464</ele>
        <time>2021-03-07 11:55:40</time>
      </trkpt>
      <trkpt lat="42.91712" lon="-1.61978">
        <ele>464</ele>
        <time>2021-03-07 11:55:41</time>
      </trkpt>
      <trkpt lat="42.91704" lon="-1.61974">
        <ele>464</ele>
        <time>2021-03-07 11:55:42</time>
      </trkpt>
      <trkpt lat="42.91696" lon="-1.61971">
        <ele>464.2</ele>
        <time>2021-03-07 11:55:43</time>
      </trkpt>
      <trkpt lat="42.91688" lon="-1.61967">
        <ele>464.2</ele>
        <time>2021-03-07 11:55:44</time>
      </trkpt>
      <trkpt lat="42.9168" lon="-1.61963">
        <ele>464.2</ele>
        <time>2021-03-07 11:55:45</time>
      </trkpt>
      <trkpt lat="42.91672" lon="-1.6196">
        <ele>464.2</ele>
        <time>2021-03-07 11:55:46</time>
      </trkpt>
      <trkpt lat="42.91664" lon="-1.61957">
        <ele>464.2</ele>
        <time>2021-03-07 11:55:47</time>
      </trkpt>
      <trkpt lat="42.91656" lon="-1.61953">
        <ele>464.2</ele>
        <time>2021-03-07 11:55:48</time>
      </trkpt>
      <trkpt lat="42.91648" lon="-1.6195">
        <ele>464.2</ele>
        <time>2021-03-07 11:55:49</time>
      </trkpt>
      <trkpt lat="42.9164" lon="-1.61947">
        <ele>464.2</ele>
        <time>2021-03-07 11:55:50</time>
      </trkpt>
      <trkpt lat="42.91632" lon="-1.61945">
        <ele>464.2</ele>
        <time>2021-03-07 11:55:51</time>
      </trkpt>
      <trkpt lat="42.91624" lon="-1.61942">
        <ele>464.2</ele>
        <time>2021-03-07 11:55:52</time>
      </trkpt>
      <trkpt lat="42.91615" lon="-1.6194">
        <ele>464.2</ele>
        <time>2021-03-07 11:55:53</time>
      </trkpt>
      <trkpt lat="42.91608" lon="-1.61939">
        <ele>464.2</ele>
        <time>2021-03-07 11:55:54</time>
      </trkpt>
      <trkpt lat="42.916" lon="-1.61937">
        <ele>464.2</ele>
        <time>2021-03-07 11:55:55</time>
      </trkpt>
      <trkpt lat="42.91592" lon="-1.61936">
        <ele>464.2</ele>
        <time>2021-03-07 11:55:56</time>
      </trkpt>
      <trkpt lat="42.91585" lon="-1.61935">
        <ele>464.2</ele>
        <time>2021-03-07 11:55:57</time>
      </trkpt>
      <trkpt lat="42.91578" lon="-1.61935">
        <ele>464.2</ele>
        <time>2021-03-07 11:55:58</time>
      </trkpt>
      <trkpt lat="42.91571" lon="-1.61934">
        <ele>464.2</ele>
        <time>2021-03-07 11:55:59</time>
      </trkpt>
      <trkpt lat="42.91564" lon="-1.61934">
        <ele>464.2</ele>
        <time>2021-03-07 11:56:00</time>
      </trkpt>
      <trkpt lat="42.91558" lon="-1.61933">
        <ele>464.2</ele>
        <time>2021-03-07 11:56:01</time>
      </trkpt>
      <trkpt lat="42.91552" lon="-1.61932">
        <ele>464.2</ele>
        <time>2021-03-07 11:56:02</time>
      </trkpt>
      <trkpt lat="42.91546" lon="-1.61931">
        <ele>464.4</ele>
        <time>2021-03-07 11:56:03</time>
      </trkpt>
      <trkpt lat="42.9154" lon="-1.61929">
        <ele>464.4</ele>
        <time>2021-03-07 11:56:04</time>
      </trkpt>
      <trkpt lat="42.91534" lon="-1.61928">
        <ele>464.6</ele>
        <time>2021-03-07 11:56:05</time>
      </trkpt>
      <trkpt lat="42.91528" lon="-1.61926">
        <ele>464.8</ele>
        <time>2021-03-07 11:56:06</time>
      </trkpt>
      <trkpt lat="42.91523" lon="-1.61924">
        <ele>465</ele>
        <time>2021-03-07 11:56:07</time>
      </trkpt>
      <trkpt lat="42.91518" lon="-1.61921">
        <ele>465.2</ele>
        <time>2021-03-07 11:56:08</time>
      </trkpt>
      <trkpt lat="42.91513" lon="-1.61918">
        <ele>465.4</ele>
        <time>2021-03-07 11:56:09</time>
      </trkpt>
      <trkpt lat="42.91508" lon="-1.61916">
        <ele>465.8</ele>
        <time>2021-03-07 11:56:10</time>
      </trkpt>
      <trkpt lat="42.91504" lon="-1.61913">
        <ele>466.2</ele>
        <time>2021-03-07 11:56:11</time>
      </trkpt>
      <trkpt lat="42.91499" lon="-1.6191">
        <ele>466.8</ele>
        <time>2021-03-07 11:56:12</time>
      </trkpt>
      <trkpt lat="42.91495" lon="-1.61907">
        <ele>467.2</ele>
        <time>2021-03-07 11:56:13</time>
      </trkpt>
      <trkpt lat="42.9149" lon="-1.61904">
        <ele>467.4</ele>
        <time>2021-03-07 11:56:14</time>
      </trkpt>
      <trkpt lat="42.91486" lon="-1.61901">
        <ele>467.8</ele>
        <time>2021-03-07 11:56:15</time>
      </trkpt>
      <trkpt lat="42.91482" lon="-1.61898">
        <ele>468.2</ele>
        <time>2021-03-07 11:56:16</time>
      </trkpt>
      <trkpt lat="42.91478" lon="-1.61895">
        <ele>468.4</ele>
        <time>2021-03-07 11:56:17</time>
      </trkpt>
      <trkpt lat="42.91474" lon="-1.61893">
        <ele>468.8</ele>
        <time>2021-03-07 11:56:18</time>
      </trkpt>
      <trkpt lat="42.9147" lon="-1.6189">
        <ele>469</ele>
        <time>2021-03-07 11:56:19</time>
      </trkpt>
      <trkpt lat="42.91466" lon="-1.61888">
        <ele>469.4</ele>
        <time>2021-03-07 11:56:20</time>
      </trkpt>
      <trkpt lat="42.91462" lon="-1.61885">
        <ele>469.4</ele>
        <time>2021-03-07 11:56:21</time>
      </trkpt>
      <trkpt lat="42.91459" lon="-1.61883">
        <ele>469.8</ele>
        <time>2021-03-07 11:56:22</time>
      </trkpt>
      <trkpt lat="42.91455" lon="-1.61881">
        <ele>470</ele>
        <time>2021-03-07 11:56:23</time>
      </trkpt>
      <trkpt lat="42.91451" lon="-1.61878">
        <ele>470.2</ele>
        <time>2021-03-07 11:56:24</time>
      </trkpt>
      <trkpt lat="42.91448" lon="-1.61876">
        <ele>470.8</ele>
        <time>2021-03-07 11:56:25</time>
      </trkpt>
      <trkpt lat="42.91444" lon="-1.61874">
        <ele>471</ele>
        <time>2021-03-07 11:56:26</time>
      </trkpt>
      <trkpt lat="42.91441" lon="-1.61871">
        <ele>471.2</ele>
        <time>2021-03-07 11:56:27</time>
      </trkpt>
      <trkpt lat="42.91437" lon="-1.61869">
        <ele>471.6</ele>
        <time>2021-03-07 11:56:28</time>
      </trkpt>
      <trkpt lat="42.91434" lon="-1.61866">
        <ele>471.8</ele>
        <time>2021-03-07 11:56:29</time>
      </trkpt>
      <trkpt lat="42.9143" lon="-1.61864">
        <ele>472</ele>
        <time>2021-03-07 11:56:30</time>
      </trkpt>
      <trkpt lat="42.91427" lon="-1.61861">
        <ele>472.2</ele>
        <time>2021-03-07 11:56:31</time>
      </trkpt>
      <trkpt lat="42.91423" lon="-1.61857">
        <ele>472.4</ele>
        <time>2021-03-07 11:56:32</time>
      </trkpt>
      <trkpt lat="42.9142" lon="-1.61854">
        <ele>472.6</ele>
        <time>2021-03-07 11:56:33</time>
      </trkpt>
      <trkpt lat="42.91417" lon="-1.6185">
        <ele>473</ele>
        <time>2021-03-07 11:56:34</time>
      </trkpt>
      <trkpt lat="42.91414" lon="-1.61846">
        <ele>473.6</ele>
        <time>2021-03-07 11:56:35</time>
      </trkpt>
      <trkpt lat="42.91412" lon="-1.61842">
        <ele>473.8</ele>
        <time>2021-03-07 11:56:36</time>
      </trkpt>
      <trkpt lat="42.91409" lon="-1.61838">
        <ele>474.2</ele>
        <time>2021-03-07 11:56:37</time>
      </trkpt>
      <trkpt lat="42.91407" lon="-1.61834">
        <ele>474.4</ele>
        <time>2021-03-07 11:56:38</time>
      </trkpt>
      <trkpt lat="42.91404" lon="-1.61827">
        <ele>474.8</ele>
        <time>2021-03-07 11:56:39</time>
      </trkpt>
      <trkpt lat="42.91402" lon="-1.61822">
        <ele>475</ele>
        <time>2021-03-07 11:56:40</time>
      </trkpt>
      <trkpt lat="42.914" lon="-1.61816">
        <ele>475</ele>
        <time>2021-03-07 11:56:41</time>
      </trkpt>
      <trkpt lat="42.91398" lon="-1.6181">
        <ele>475.2</ele>
        <time>2021-03-07 11:56:42</time>
      </trkpt>
      <trkpt lat="42.91396" lon="-1.61804">
        <ele>475.4</ele>
        <time>2021-03-07 11:56:43</time>
      </trkpt>
      <trkpt lat="42.91394" lon="-1.61798">
        <ele>475.8</ele>
        <time>2021-03-07 11:56:44</time>
      </trkpt>
      <trkpt lat="42.91392" lon="-1.61792">
        <ele>476</ele>
        <time>2021-03-07 11:56:45</time>
      </trkpt>
      <trkpt lat="42.9139" lon="-1.61786">
        <ele>476.2</ele>
        <time>2021-03-07 11:56:46</time>
      </trkpt>
      <trkpt lat="42.91388" lon="-1.6178">
        <ele>476.2</ele>
        <time>2021-03-07 11:56:47</time>
      </trkpt>
      <trkpt lat="42.91386" lon="-1.61775">
        <ele>476.4</ele>
        <time>2021-03-07 11:56:48</time>
      </trkpt>
      <trkpt lat="42.91384" lon="-1.61769">
        <ele>476.4</ele>
        <time>2021-03-07 11:56:49</time>
      </trkpt>
      <trkpt lat="42.91382" lon="-1.61764">
        <ele>476.4</ele>
        <time>2021-03-07 11:56:50</time>
      </trkpt>
      <trkpt lat="42.9138" lon="-1.61759">
        <ele>476.6</ele>
        <time>2021-03-07 11:56:51</time>
      </trkpt>
      <trkpt lat="42.91378" lon="-1.61754">
        <ele>476.6</ele>
        <time>2021-03-07 11:56:52</time>
      </trkpt>
      <trkpt lat="42.91377" lon="-1.61749">
        <ele>476.8</ele>
        <time>2021-03-07 11:56:53</time>
      </trkpt>
      <trkpt lat="42.91375" lon="-1.61743">
        <ele>476.8</ele>
        <time>2021-03-07 11:56:54</time>
      </trkpt>
      <trkpt lat="42.91373" lon="-1.61739">
        <ele>477</ele>
        <time>2021-03-07 11:56:55</time>
      </trkpt>
      <trkpt lat="42.91371" lon="-1.61734">
        <ele>477</ele>
        <time>2021-03-07 11:56:56</time>
      </trkpt>
      <trkpt lat="42.91367" lon="-1.6173">
        <ele>477.2</ele>
        <time>2021-03-07 11:56:57</time>
      </trkpt>
      <trkpt lat="42.91363" lon="-1.61728">
        <ele>477.2</ele>
        <time>2021-03-07 11:56:58</time>
      </trkpt>
      <trkpt lat="42.91358" lon="-1.61726">
        <ele>477.4</ele>
        <time>2021-03-07 11:56:59</time>
      </trkpt>
      <trkpt lat="42.91351" lon="-1.6172">
        <ele>477.4</ele>
        <time>2021-03-07 11:57:00</time>
      </trkpt>
      <trkpt lat="42.91345" lon="-1.61717">
        <ele>477.6</ele>
        <time>2021-03-07 11:57:01</time>
      </trkpt>
      <trkpt lat="42.91339" lon="-1.61713">
        <ele>477.6</ele>
        <time>2021-03-07 11:57:02</time>
      </trkpt>
      <trkpt lat="42.91332" lon="-1.6171">
        <ele>477.6</ele>
        <time>2021-03-07 11:57:03</time>
      </trkpt>
      <trkpt lat="42.91326" lon="-1.61706">
        <ele>477.8</ele>
        <time>2021-03-07 11:57:04</time>
      </trkpt>
      <trkpt lat="42.9132" lon="-1.61702">
        <ele>477.8</ele>
        <time>2021-03-07 11:57:05</time>
      </trkpt>
      <trkpt lat="42.91313" lon="-1.61698">
        <ele>477.8</ele>
        <time>2021-03-07 11:57:06</time>
      </trkpt>
      <trkpt lat="42.91307" lon="-1.61694">
        <ele>477.8</ele>
        <time>2021-03-07 11:57:07</time>
      </trkpt>
      <trkpt lat="42.913" lon="-1.6169">
        <ele>477.8</ele>
        <time>2021-03-07 11:57:08</time>
      </trkpt>
      <trkpt lat="42.91294" lon="-1.61686">
        <ele>477.8</ele>
        <time>2021-03-07 11:57:09</time>
      </trkpt>
      <trkpt lat="42.91287" lon="-1.61682">
        <ele>477.8</ele>
        <time>2021-03-07 11:57:10</time>
      </trkpt>
      <trkpt lat="42.91281" lon="-1.61678">
        <ele>477.6</ele>
        <time>2021-03-07 11:57:11</time>
      </trkpt>
      <trkpt lat="42.91274" lon="-1.61673">
        <ele>477.6</ele>
        <time>2021-03-07 11:57:12</time>
      </trkpt>
      <trkpt lat="42.91267" lon="-1.61669">
        <ele>477.2</ele>
        <time>2021-03-07 11:57:13</time>
      </trkpt>
      <trkpt lat="42.9126" lon="-1.61664">
        <ele>477</ele>
        <time>2021-03-07 11:57:14</time>
      </trkpt>
      <trkpt lat="42.91254" lon="-1.61659">
        <ele>477</ele>
        <time>2021-03-07 11:57:15</time>
      </trkpt>
      <trkpt lat="42.91247" lon="-1.61653">
        <ele>477</ele>
        <time>2021-03-07 11:57:16</time>
      </trkpt>
      <trkpt lat="42.91241" lon="-1.61647">
        <ele>476.8</ele>
        <time>2021-03-07 11:57:17</time>
      </trkpt>
      <trkpt lat="42.91235" lon="-1.6164">
        <ele>476.8</ele>
        <time>2021-03-07 11:57:18</time>
      </trkpt>
      <trkpt lat="42.91229" lon="-1.61633">
        <ele>476.6</ele>
        <time>2021-03-07 11:57:19</time>
      </trkpt>
      <trkpt lat="42.91222" lon="-1.61626">
        <ele>476.6</ele>
        <time>2021-03-07 11:57:20</time>
      </trkpt>
      <trkpt lat="42.91216" lon="-1.61619">
        <ele>476.4</ele>
        <time>2021-03-07 11:57:21</time>
      </trkpt>
      <trkpt lat="42.9121" lon="-1.61612">
        <ele>476.4</ele>
        <time>2021-03-07 11:57:22</time>
      </trkpt>
      <trkpt lat="42.91203" lon="-1.61605">
        <ele>476.2</ele>
        <time>2021-03-07 11:57:23</time>
      </trkpt>
      <trkpt lat="42.91197" lon="-1.61597">
        <ele>476.2</ele>
        <time>2021-03-07 11:57:24</time>
      </trkpt>
      <trkpt lat="42.9119" lon="-1.6159">
        <ele>476</ele>
        <time>2021-03-07 11:57:25</time>
      </trkpt>
      <trkpt lat="42.91183" lon="-1.61582">
        <ele>476</ele>
        <time>2021-03-07 11:57:26</time>
      </trkpt>
      <trkpt lat="42.91176" lon="-1.61574">
        <ele>476</ele>
        <time>2021-03-07 11:57:27</time>
      </trkpt>
      <trkpt lat="42.9117" lon="-1.61566">
        <ele>476</ele>
        <time>2021-03-07 11:57:28</time>
      </trkpt>
      <trkpt lat="42.91162" lon="-1.61557">
        <ele>476</ele>
        <time>2021-03-07 11:57:29</time>
      </trkpt>
      <trkpt lat="42.91155" lon="-1.61549">
        <ele>476</ele>
        <time>2021-03-07 11:57:30</time>
      </trkpt>
      <trkpt lat="42.91148" lon="-1.6154">
        <ele>476</ele>
        <time>2021-03-07 11:57:31</time>
      </trkpt>
      <trkpt lat="42.9114" lon="-1.61532">
        <ele>475.6</ele>
        <time>2021-03-07 11:57:32</time>
      </trkpt>
      <trkpt lat="42.91133" lon="-1.61523">
        <ele>475.6</ele>
        <time>2021-03-07 11:57:33</time>
      </trkpt>
      <trkpt lat="42.91125" lon="-1.61514">
        <ele>475.4</ele>
        <time>2021-03-07 11:57:34</time>
      </trkpt>
      <trkpt lat="42.91117" lon="-1.61506">
        <ele>475.2</ele>
        <time>2021-03-07 11:57:35</time>
      </trkpt>
      <trkpt lat="42.9111" lon="-1.61497">
        <ele>475</ele>
        <time>2021-03-07 11:57:36</time>
      </trkpt>
      <trkpt lat="42.91102" lon="-1.61487">
        <ele>475</ele>
        <time>2021-03-07 11:57:37</time>
      </trkpt>
      <trkpt lat="42.91093" lon="-1.61478">
        <ele>474.8</ele>
        <time>2021-03-07 11:57:38</time>
      </trkpt>
      <trkpt lat="42.91085" lon="-1.61469">
        <ele>474.8</ele>
        <time>2021-03-07 11:57:39</time>
      </trkpt>
      <trkpt lat="42.91077" lon="-1.61459">
        <ele>474.8</ele>
        <time>2021-03-07 11:57:40</time>
      </trkpt>
      <trkpt lat="42.91069" lon="-1.6145">
        <ele>474.8</ele>
        <time>2021-03-07 11:57:41</time>
      </trkpt>
      <trkpt lat="42.9106" lon="-1.6144">
        <ele>474.8</ele>
        <time>2021-03-07 11:57:42</time>
      </trkpt>
      <trkpt lat="42.91052" lon="-1.61431">
        <ele>474.8</ele>
        <time>2021-03-07 11:57:43</time>
      </trkpt>
      <trkpt lat="42.91043" lon="-1.61421">
        <ele>474.8</ele>
        <time>2021-03-07 11:57:44</time>
      </trkpt>
      <trkpt lat="42.91035" lon="-1.61412">
        <ele>474.6</ele>
        <time>2021-03-07 11:57:45</time>
      </trkpt>
      <trkpt lat="42.91026" lon="-1.61403">
        <ele>474.2</ele>
        <time>2021-03-07 11:57:46</time>
      </trkpt>
      <trkpt lat="42.91018" lon="-1.61394">
        <ele>473.6</ele>
        <time>2021-03-07 11:57:47</time>
      </trkpt>
      <trkpt lat="42.91009" lon="-1.61386">
        <ele>473</ele>
        <time>2021-03-07 11:57:48</time>
      </trkpt>
      <trkpt lat="42.91001" lon="-1.61378">
        <ele>472.4</ele>
        <time>2021-03-07 11:57:49</time>
      </trkpt>
      <trkpt lat="42.90992" lon="-1.6137">
        <ele>471.8</ele>
        <time>2021-03-07 11:57:50</time>
      </trkpt>
      <trkpt lat="42.90983" lon="-1.61363">
        <ele>470.4</ele>
        <time>2021-03-07 11:57:51</time>
      </trkpt>
      <trkpt lat="42.90974" lon="-1.61356">
        <ele>469</ele>
        <time>2021-03-07 11:57:52</time>
      </trkpt>
      <trkpt lat="42.90964" lon="-1.61349">
        <ele>466.8</ele>
        <time>2021-03-07 11:57:53</time>
      </trkpt>
      <trkpt lat="42.90955" lon="-1.61343">
        <ele>465</ele>
        <time>2021-03-07 11:57:54</time>
      </trkpt>
      <trkpt lat="42.90945" lon="-1.61337">
        <ele>463.6</ele>
        <time>2021-03-07 11:57:55</time>
      </trkpt>
      <trkpt lat="42.90935" lon="-1.61332">
        <ele>463</ele>
        <time>2021-03-07 11:57:56</time>
      </trkpt>
      <trkpt lat="42.90925" lon="-1.61327">
        <ele>462.4</ele>
        <time>2021-03-07 11:57:57</time>
      </trkpt>
      <trkpt lat="42.90915" lon="-1.61323">
        <ele>461.6</ele>
        <time>2021-03-07 11:57:58</time>
      </trkpt>
      <trkpt lat="42.90905" lon="-1.61319">
        <ele>461.2</ele>
        <time>2021-03-07 11:57:59</time>
      </trkpt>
      <trkpt lat="42.90894" lon="-1.61315">
        <ele>461</ele>
        <time>2021-03-07 11:58:00</time>
      </trkpt>
      <trkpt lat="42.90884" lon="-1.61312">
        <ele>461</ele>
        <time>2021-03-07 11:58:01</time>
      </trkpt>
      <trkpt lat="42.90874" lon="-1.6131">
        <ele>460</ele>
        <time>2021-03-07 11:58:02</time>
      </trkpt>
      <trkpt lat="42.90864" lon="-1.61307">
        <ele>459.8</ele>
        <time>2021-03-07 11:58:03</time>
      </trkpt>
      <trkpt lat="42.90854" lon="-1.61305">
        <ele>459.4</ele>
        <time>2021-03-07 11:58:04</time>
      </trkpt>
      <trkpt lat="42.90844" lon="-1.61303">
        <ele>459</ele>
        <time>2021-03-07 11:58:05</time>
      </trkpt>
      <trkpt lat="42.90834" lon="-1.61301">
        <ele>458.6</ele>
        <time>2021-03-07 11:58:06</time>
      </trkpt>
      <trkpt lat="42.90824" lon="-1.61299">
        <ele>458.4</ele>
        <time>2021-03-07 11:58:07</time>
      </trkpt>
      <trkpt lat="42.90814" lon="-1.61297">
        <ele>458.2</ele>
        <time>2021-03-07 11:58:08</time>
      </trkpt>
      <trkpt lat="42.90805" lon="-1.61296">
        <ele>457.6</ele>
        <time>2021-03-07 11:58:09</time>
      </trkpt>
      <trkpt lat="42.90795" lon="-1.61294">
        <ele>457.4</ele>
        <time>2021-03-07 11:58:10</time>
      </trkpt>
      <trkpt lat="42.90786" lon="-1.61293">
        <ele>457.2</ele>
        <time>2021-03-07 11:58:11</time>
      </trkpt>
      <trkpt lat="42.90777" lon="-1.61292">
        <ele>457.2</ele>
        <time>2021-03-07 11:58:12</time>
      </trkpt>
      <trkpt lat="42.90767" lon="-1.6129">
        <ele>456.8</ele>
        <time>2021-03-07 11:58:13</time>
      </trkpt>
      <trkpt lat="42.90758" lon="-1.61289">
        <ele>456.6</ele>
        <time>2021-03-07 11:58:14</time>
      </trkpt>
      <trkpt lat="42.90749" lon="-1.61288">
        <ele>456.6</ele>
        <time>2021-03-07 11:58:15</time>
      </trkpt>
      <trkpt lat="42.90741" lon="-1.61288">
        <ele>456.4</ele>
        <time>2021-03-07 11:58:16</time>
      </trkpt>
      <trkpt lat="42.90732" lon="-1.61287">
        <ele>456.4</ele>
        <time>2021-03-07 11:58:17</time>
      </trkpt>
      <trkpt lat="42.90723" lon="-1.61287">
        <ele>456.4</ele>
        <time>2021-03-07 11:58:18</time>
      </trkpt>
      <trkpt lat="42.90714" lon="-1.61288">
        <ele>456.4</ele>
        <time>2021-03-07 11:58:19</time>
      </trkpt>
      <trkpt lat="42.90706" lon="-1.61287">
        <ele>456.4</ele>
        <time>2021-03-07 11:58:20</time>
      </trkpt>
      <trkpt lat="42.90698" lon="-1.61287">
        <ele>456.4</ele>
        <time>2021-03-07 11:58:21</time>
      </trkpt>
      <trkpt lat="42.9069" lon="-1.61287">
        <ele>456.4</ele>
        <time>2021-03-07 11:58:22</time>
      </trkpt>
      <trkpt lat="42.90682" lon="-1.61286">
        <ele>456.4</ele>
        <time>2021-03-07 11:58:23</time>
      </trkpt>
      <trkpt lat="42.90674" lon="-1.61285">
        <ele>456.4</ele>
        <time>2021-03-07 11:58:24</time>
      </trkpt>
      <trkpt lat="42.90666" lon="-1.61283">
        <ele>456.4</ele>
        <time>2021-03-07 11:58:25</time>
      </trkpt>
      <trkpt lat="42.90659" lon="-1.61282">
        <ele>456.6</ele>
        <time>2021-03-07 11:58:26</time>
      </trkpt>
      <trkpt lat="42.90651" lon="-1.6128">
        <ele>456.6</ele>
        <time>2021-03-07 11:58:27</time>
      </trkpt>
      <trkpt lat="42.90643" lon="-1.61278">
        <ele>456.6</ele>
        <time>2021-03-07 11:58:28</time>
      </trkpt>
      <trkpt lat="42.90636" lon="-1.61277">
        <ele>456.8</ele>
        <time>2021-03-07 11:58:29</time>
      </trkpt>
      <trkpt lat="42.90628" lon="-1.61276">
        <ele>457.4</ele>
        <time>2021-03-07 11:58:30</time>
      </trkpt>
      <trkpt lat="42.9062" lon="-1.61275">
        <ele>457.6</ele>
        <time>2021-03-07 11:58:31</time>
      </trkpt>
      <trkpt lat="42.90612" lon="-1.61274">
        <ele>457.8</ele>
        <time>2021-03-07 11:58:32</time>
      </trkpt>
      <trkpt lat="42.90604" lon="-1.61273">
        <ele>458</ele>
        <time>2021-03-07 11:58:33</time>
      </trkpt>
      <trkpt lat="42.90596" lon="-1.61271">
        <ele>458</ele>
        <time>2021-03-07 11:58:34</time>
      </trkpt>
      <trkpt lat="42.90587" lon="-1.6127">
        <ele>458</ele>
        <time>2021-03-07 11:58:35</time>
      </trkpt>
      <trkpt lat="42.90579" lon="-1.61269">
        <ele>458</ele>
        <time>2021-03-07 11:58:36</time>
      </trkpt>
      <trkpt lat="42.90571" lon="-1.61267">
        <ele>458</ele>
        <time>2021-03-07 11:58:37</time>
      </trkpt>
      <trkpt lat="42.90563" lon="-1.61266">
        <ele>458</ele>
        <time>2021-03-07 11:58:38</time>
      </trkpt>
      <trkpt lat="42.90555" lon="-1.61265">
        <ele>458</ele>
        <time>2021-03-07 11:58:39</time>
      </trkpt>
      <trkpt lat="42.90547" lon="-1.61262">
        <ele>458</ele>
        <time>2021-03-07 11:58:40</time>
      </trkpt>
      <trkpt lat="42.90539" lon="-1.61257">
        <ele>458</ele>
        <time>2021-03-07 11:58:41</time>
      </trkpt>
      <trkpt lat="42.90532" lon="-1.61252">
        <ele>458</ele>
        <time>2021-03-07 11:58:42</time>
      </trkpt>
      <trkpt lat="42.90525" lon="-1.61249">
        <ele>457.8</ele>
        <time>2021-03-07 11:58:43</time>
      </trkpt>
      <trkpt lat="42.90518" lon="-1.61246">
        <ele>457.8</ele>
        <time>2021-03-07 11:58:44</time>
      </trkpt>
      <trkpt lat="42.90511" lon="-1.61243">
        <ele>457.8</ele>
        <time>2021-03-07 11:58:45</time>
      </trkpt>
      <trkpt lat="42.90504" lon="-1.61241">
        <ele>457.6</ele>
        <time>2021-03-07 11:58:46</time>
      </trkpt>
      <trkpt lat="42.90497" lon="-1.61239">
        <ele>457.6</ele>
        <time>2021-03-07 11:58:47</time>
      </trkpt>
      <trkpt lat="42.90491" lon="-1.61237">
        <ele>457.6</ele>
        <time>2021-03-07 11:58:48</time>
      </trkpt>
      <trkpt lat="42.90484" lon="-1.61235">
        <ele>457.6</ele>
        <time>2021-03-07 11:58:49</time>
      </trkpt>
      <trkpt lat="42.90477" lon="-1.61234">
        <ele>457.6</ele>
        <time>2021-03-07 11:58:50</time>
      </trkpt>
      <trkpt lat="42.90471" lon="-1.61234">
        <ele>457.6</ele>
        <time>2021-03-07 11:58:51</time>
      </trkpt>
      <trkpt lat="42.90465" lon="-1.61233">
        <ele>457.6</ele>
        <time>2021-03-07 11:58:52</time>
      </trkpt>
      <trkpt lat="42.90458" lon="-1.61233">
        <ele>457.6</ele>
        <time>2021-03-07 11:58:53</time>
      </trkpt>
      <trkpt lat="42.90452" lon="-1.61233">
        <ele>457.6</ele>
        <time>2021-03-07 11:58:54</time>
      </trkpt>
      <trkpt lat="42.90446" lon="-1.61233">
        <ele>457.6</ele>
        <time>2021-03-07 11:58:55</time>
      </trkpt>
      <trkpt lat="42.90441" lon="-1.61233">
        <ele>457.6</ele>
        <time>2021-03-07 11:58:56</time>
      </trkpt>
      <trkpt lat="42.90435" lon="-1.61233">
        <ele>457.8</ele>
        <time>2021-03-07 11:58:57</time>
      </trkpt>
      <trkpt lat="42.90429" lon="-1.61233">
        <ele>458.4</ele>
        <time>2021-03-07 11:58:58</time>
      </trkpt>
      <trkpt lat="42.90423" lon="-1.61233">
        <ele>459</ele>
        <time>2021-03-07 11:58:59</time>
      </trkpt>
      <trkpt lat="42.90417" lon="-1.61233">
        <ele>459.4</ele>
        <time>2021-03-07 11:59:00</time>
      </trkpt>
      <trkpt lat="42.90411" lon="-1.61233">
        <ele>459.8</ele>
        <time>2021-03-07 11:59:01</time>
      </trkpt>
      <trkpt lat="42.90405" lon="-1.61234">
        <ele>460</ele>
        <time>2021-03-07 11:59:02</time>
      </trkpt>
      <trkpt lat="42.904" lon="-1.61234">
        <ele>460</ele>
        <time>2021-03-07 11:59:03</time>
      </trkpt>
      <trkpt lat="42.90393" lon="-1.61234">
        <ele>460.2</ele>
        <time>2021-03-07 11:59:04</time>
      </trkpt>
      <trkpt lat="42.90387" lon="-1.61235">
        <ele>460.4</ele>
        <time>2021-03-07 11:59:05</time>
      </trkpt>
      <trkpt lat="42.90381" lon="-1.61236">
        <ele>460.6</ele>
        <time>2021-03-07 11:59:06</time>
      </trkpt>
      <trkpt lat="42.90375" lon="-1.61236">
        <ele>460.6</ele>
        <time>2021-03-07 11:59:07</time>
      </trkpt>
      <trkpt lat="42.90369" lon="-1.61237">
        <ele>460.8</ele>
        <time>2021-03-07 11:59:08</time>
      </trkpt>
      <trkpt lat="42.90363" lon="-1.61237">
        <ele>461.2</ele>
        <time>2021-03-07 11:59:09</time>
      </trkpt>
      <trkpt lat="42.90356" lon="-1.61238">
        <ele>461.6</ele>
        <time>2021-03-07 11:59:10</time>
      </trkpt>
      <trkpt lat="42.9035" lon="-1.61238">
        <ele>461.8</ele>
        <time>2021-03-07 11:59:11</time>
      </trkpt>
      <trkpt lat="42.90344" lon="-1.61237">
        <ele>461.8</ele>
        <time>2021-03-07 11:59:12</time>
      </trkpt>
      <trkpt lat="42.90337" lon="-1.61236">
        <ele>462</ele>
        <time>2021-03-07 11:59:13</time>
      </trkpt>
      <trkpt lat="42.90331" lon="-1.61234">
        <ele>462.2</ele>
        <time>2021-03-07 11:59:14</time>
      </trkpt>
      <trkpt lat="42.90325" lon="-1.61233">
        <ele>462.2</ele>
        <time>2021-03-07 11:59:15</time>
      </trkpt>
      <trkpt lat="42.90319" lon="-1.61232">
        <ele>462.2</ele>
        <time>2021-03-07 11:59:16</time>
      </trkpt>
      <trkpt lat="42.90312" lon="-1.6123">
        <ele>462.4</ele>
        <time>2021-03-07 11:59:17</time>
      </trkpt>
      <trkpt lat="42.90306" lon="-1.61228">
        <ele>462.4</ele>
        <time>2021-03-07 11:59:18</time>
      </trkpt>
      <trkpt lat="42.903" lon="-1.61226">
        <ele>462.4</ele>
        <time>2021-03-07 11:59:19</time>
      </trkpt>
      <trkpt lat="42.90293" lon="-1.61224">
        <ele>462.4</ele>
        <time>2021-03-07 11:59:20</time>
      </trkpt>
      <trkpt lat="42.90287" lon="-1.61222">
        <ele>462.4</ele>
        <time>2021-03-07 11:59:21</time>
      </trkpt>
      <trkpt lat="42.90281" lon="-1.61219">
        <ele>462.4</ele>
        <time>2021-03-07 11:59:22</time>
      </trkpt>
      <trkpt lat="42.90274" lon="-1.61216">
        <ele>462.4</ele>
        <time>2021-03-07 11:59:23</time>
      </trkpt>
      <trkpt lat="42.90268" lon="-1.61212">
        <ele>462.4</ele>
        <time>2021-03-07 11:59:24</time>
      </trkpt>
      <trkpt lat="42.90261" lon="-1.61209">
        <ele>462.4</ele>
        <time>2021-03-07 11:59:25</time>
      </trkpt>
      <trkpt lat="42.90255" lon="-1.61205">
        <ele>462.4</ele>
        <time>2021-03-07 11:59:26</time>
      </trkpt>
      <trkpt lat="42.90249" lon="-1.61201">
        <ele>462.4</ele>
        <time>2021-03-07 11:59:27</time>
      </trkpt>
      <trkpt lat="42.90242" lon="-1.61196">
        <ele>462.4</ele>
        <time>2021-03-07 11:59:28</time>
      </trkpt>
      <trkpt lat="42.90236" lon="-1.61192">
        <ele>462.4</ele>
        <time>2021-03-07 11:59:29</time>
      </trkpt>
      <trkpt lat="42.90229" lon="-1.61188">
        <ele>462.4</ele>
        <time>2021-03-07 11:59:30</time>
      </trkpt>
      <trkpt lat="42.90223" lon="-1.61183">
        <ele>462.4</ele>
        <time>2021-03-07 11:59:31</time>
      </trkpt>
      <trkpt lat="42.90216" lon="-1.61178">
        <ele>462.4</ele>
        <time>2021-03-07 11:59:32</time>
      </trkpt>
      <trkpt lat="42.9021" lon="-1.61173">
        <ele>462.4</ele>
        <time>2021-03-07 11:59:33</time>
      </trkpt>
      <trkpt lat="42.90203" lon="-1.61168">
        <ele>462.4</ele>
        <time>2021-03-07 11:59:34</time>
      </trkpt>
      <trkpt lat="42.90197" lon="-1.61162">
        <ele>462.2</ele>
        <time>2021-03-07 11:59:35</time>
      </trkpt>
      <trkpt lat="42.9019" lon="-1.61157">
        <ele>462.2</ele>
        <time>2021-03-07 11:59:36</time>
      </trkpt>
      <trkpt lat="42.90183" lon="-1.61152">
        <ele>462</ele>
        <time>2021-03-07 11:59:37</time>
      </trkpt>
      <trkpt lat="42.90177" lon="-1.61146">
        <ele>462</ele>
        <time>2021-03-07 11:59:38</time>
      </trkpt>
      <trkpt lat="42.9017" lon="-1.61141">
        <ele>462</ele>
        <time>2021-03-07 11:59:39</time>
      </trkpt>
      <trkpt lat="42.90163" lon="-1.61136">
        <ele>462</ele>
        <time>2021-03-07 11:59:40</time>
      </trkpt>
      <trkpt lat="42.90156" lon="-1.6113">
        <ele>462</ele>
        <time>2021-03-07 11:59:41</time>
      </trkpt>
      <trkpt lat="42.90149" lon="-1.61125">
        <ele>462</ele>
        <time>2021-03-07 11:59:42</time>
      </trkpt>
      <trkpt lat="42.90142" lon="-1.61119">
        <ele>462</ele>
        <time>2021-03-07 11:59:43</time>
      </trkpt>
      <trkpt lat="42.90135" lon="-1.61113">
        <ele>462</ele>
        <time>2021-03-07 11:59:44</time>
      </trkpt>
      <trkpt lat="42.90128" lon="-1.61108">
        <ele>462</ele>
        <time>2021-03-07 11:59:45</time>
      </trkpt>
      <trkpt lat="42.90121" lon="-1.61102">
        <ele>462</ele>
        <time>2021-03-07 11:59:46</time>
      </trkpt>
      <trkpt lat="42.90114" lon="-1.61096">
        <ele>462</ele>
        <time>2021-03-07 11:59:47</time>
      </trkpt>
      <trkpt lat="42.90107" lon="-1.61091">
        <ele>461.8</ele>
        <time>2021-03-07 11:59:48</time>
      </trkpt>
      <trkpt lat="42.901" lon="-1.61086">
        <ele>461.8</ele>
        <time>2021-03-07 11:59:49</time>
      </trkpt>
      <trkpt lat="42.90093" lon="-1.6108">
        <ele>461.8</ele>
        <time>2021-03-07 11:59:50</time>
      </trkpt>
      <trkpt lat="42.90086" lon="-1.61074">
        <ele>461.8</ele>
        <time>2021-03-07 11:59:51</time>
      </trkpt>
      <trkpt lat="42.90079" lon="-1.61069">
        <ele>461.8</ele>
        <time>2021-03-07 11:59:52</time>
      </trkpt>
      <trkpt lat="42.90072" lon="-1.61063">
        <ele>461.6</ele>
        <time>2021-03-07 11:59:53</time>
      </trkpt>
      <trkpt lat="42.90064" lon="-1.61057">
        <ele>461.6</ele>
        <time>2021-03-07 11:59:54</time>
      </trkpt>
      <trkpt lat="42.90057" lon="-1.61052">
        <ele>461.6</ele>
        <time>2021-03-07 11:59:55</time>
      </trkpt>
      <trkpt lat="42.9005" lon="-1.61046">
        <ele>461.4</ele>
        <time>2021-03-07 11:59:56</time>
      </trkpt>
      <trkpt lat="42.90043" lon="-1.6104">
        <ele>461.4</ele>
        <time>2021-03-07 11:59:57</time>
      </trkpt>
      <trkpt lat="42.90036" lon="-1.61034">
        <ele>461.4</ele>
        <time>2021-03-07 11:59:58</time>
      </trkpt>
      <trkpt lat="42.90029" lon="-1.61028">
        <ele>461.2</ele>
        <time>2021-03-07 11:59:59</time>
      </trkpt>
      <trkpt lat="42.90021" lon="-1.61023">
        <ele>461.2</ele>
        <time>2021-03-07 12:00:00</time>
      </trkpt>
      <trkpt lat="42.90014" lon="-1.61017">
        <ele>461.2</ele>
        <time>2021-03-07 12:00:01</time>
      </trkpt>
      <trkpt lat="42.90007" lon="-1.61011">
        <ele>461</ele>
        <time>2021-03-07 12:00:02</time>
      </trkpt>
      <trkpt lat="42.9" lon="-1.61006">
        <ele>461</ele>
        <time>2021-03-07 12:00:03</time>
      </trkpt>
      <trkpt lat="42.89992" lon="-1.61001">
        <ele>460.8</ele>
        <time>2021-03-07 12:00:04</time>
      </trkpt>
      <trkpt lat="42.89985" lon="-1.60996">
        <ele>460.8</ele>
        <time>2021-03-07 12:00:05</time>
      </trkpt>
      <trkpt lat="42.89977" lon="-1.60992">
        <ele>460.8</ele>
        <time>2021-03-07 12:00:06</time>
      </trkpt>
      <trkpt lat="42.89969" lon="-1.60988">
        <ele>460.4</ele>
        <time>2021-03-07 12:00:07</time>
      </trkpt>
      <trkpt lat="42.89961" lon="-1.60984">
        <ele>460.4</ele>
        <time>2021-03-07 12:00:08</time>
      </trkpt>
      <trkpt lat="42.89953" lon="-1.6098">
        <ele>460.4</ele>
        <time>2021-03-07 12:00:09</time>
      </trkpt>
      <trkpt lat="42.89945" lon="-1.60977">
        <ele>460.4</ele>
        <time>2021-03-07 12:00:10</time>
      </trkpt>
      <trkpt lat="42.89937" lon="-1.60974">
        <ele>460.4</ele>
        <time>2021-03-07 12:00:11</time>
      </trkpt>
      <trkpt lat="42.89929" lon="-1.60971">
        <ele>460.6</ele>
        <time>2021-03-07 12:00:12</time>
      </trkpt>
      <trkpt lat="42.89921" lon="-1.60968">
        <ele>460.4</ele>
        <time>2021-03-07 12:00:13</time>
      </trkpt>
      <trkpt lat="42.89913" lon="-1.60966">
        <ele>460.6</ele>
        <time>2021-03-07 12:00:14</time>
      </trkpt>
      <trkpt lat="42.89904" lon="-1.60963">
        <ele>460.4</ele>
        <time>2021-03-07 12:00:15</time>
      </trkpt>
      <trkpt lat="42.89896" lon="-1.60961">
        <ele>460.6</ele>
        <time>2021-03-07 12:00:16</time>
      </trkpt>
      <trkpt lat="42.89887" lon="-1.60959">
        <ele>460.6</ele>
        <time>2021-03-07 12:00:17</time>
      </trkpt>
      <trkpt lat="42.89879" lon="-1.60957">
        <ele>460.6</ele>
        <time>2021-03-07 12:00:18</time>
      </trkpt>
      <trkpt lat="42.8987" lon="-1.60955">
        <ele>460.6</ele>
        <time>2021-03-07 12:00:19</time>
      </trkpt>
      <trkpt lat="42.89861" lon="-1.60953">
        <ele>460.6</ele>
        <time>2021-03-07 12:00:20</time>
      </trkpt>
      <trkpt lat="42.89853" lon="-1.60951">
        <ele>460.8</ele>
        <time>2021-03-07 12:00:21</time>
      </trkpt>
      <trkpt lat="42.89844" lon="-1.60949">
        <ele>460.8</ele>
        <time>2021-03-07 12:00:22</time>
      </trkpt>
      <trkpt lat="42.89835" lon="-1.60947">
        <ele>460.8</ele>
        <time>2021-03-07 12:00:23</time>
      </trkpt>
      <trkpt lat="42.89827" lon="-1.60945">
        <ele>460.8</ele>
        <time>2021-03-07 12:00:24</time>
      </trkpt>
      <trkpt lat="42.89818" lon="-1.60943">
        <ele>460.8</ele>
        <time>2021-03-07 12:00:25</time>
      </trkpt>
      <trkpt lat="42.89809" lon="-1.60941">
        <ele>460.8</ele>
        <time>2021-03-07 12:00:26</time>
      </trkpt>
      <trkpt lat="42.898" lon="-1.60938">
        <ele>460.8</ele>
        <time>2021-03-07 12:00:27</time>
      </trkpt>
      <trkpt lat="42.89791" lon="-1.60936">
        <ele>460.6</ele>
        <time>2021-03-07 12:00:28</time>
      </trkpt>
      <trkpt lat="42.89783" lon="-1.60934">
        <ele>460.6</ele>
        <time>2021-03-07 12:00:29</time>
      </trkpt>
      <trkpt lat="42.89774" lon="-1.60932">
        <ele>460.6</ele>
        <time>2021-03-07 12:00:30</time>
      </trkpt>
      <trkpt lat="42.89765" lon="-1.6093">
        <ele>460.4</ele>
        <time>2021-03-07 12:00:31</time>
      </trkpt>
      <trkpt lat="42.89756" lon="-1.60928">
        <ele>460.4</ele>
        <time>2021-03-07 12:00:32</time>
      </trkpt>
      <trkpt lat="42.89747" lon="-1.60927">
        <ele>460.4</ele>
        <time>2021-03-07 12:00:33</time>
      </trkpt>
      <trkpt lat="42.89739" lon="-1.60925">
        <ele>460.2</ele>
        <time>2021-03-07 12:00:34</time>
      </trkpt>
      <trkpt lat="42.8973" lon="-1.60924">
        <ele>460.2</ele>
        <time>2021-03-07 12:00:35</time>
      </trkpt>
      <trkpt lat="42.89721" lon="-1.60923">
        <ele>460.2</ele>
        <time>2021-03-07 12:00:36</time>
      </trkpt>
      <trkpt lat="42.89712" lon="-1.60921">
        <ele>460.2</ele>
        <time>2021-03-07 12:00:37</time>
      </trkpt>
      <trkpt lat="42.89704" lon="-1.6092">
        <ele>460</ele>
        <time>2021-03-07 12:00:38</time>
      </trkpt>
      <trkpt lat="42.89695" lon="-1.6092">
        <ele>460</ele>
        <time>2021-03-07 12:00:39</time>
      </trkpt>
      <trkpt lat="42.89686" lon="-1.60919">
        <ele>460</ele>
        <time>2021-03-07 12:00:40</time>
      </trkpt>
      <trkpt lat="42.89677" lon="-1.60919">
        <ele>459.8</ele>
        <time>2021-03-07 12:00:41</time>
      </trkpt>
      <trkpt lat="42.89668" lon="-1.60919">
        <ele>459.6</ele>
        <time>2021-03-07 12:00:42</time>
      </trkpt>
      <trkpt lat="42.8966" lon="-1.60919">
        <ele>459.6</ele>
        <time>2021-03-07 12:00:43</time>
      </trkpt>
      <trkpt lat="42.89651" lon="-1.60919">
        <ele>459.4</ele>
        <time>2021-03-07 12:00:44</time>
      </trkpt>
      <trkpt lat="42.89642" lon="-1.60919">
        <ele>459.4</ele>
        <time>2021-03-07 12:00:45</time>
      </trkpt>
      <trkpt lat="42.89634" lon="-1.60919">
        <ele>459.2</ele>
        <time>2021-03-07 12:00:46</time>
      </trkpt>
      <trkpt lat="42.89625" lon="-1.60918">
        <ele>459.2</ele>
        <time>2021-03-07 12:00:47</time>
      </trkpt>
      <trkpt lat="42.89616" lon="-1.60918">
        <ele>459.2</ele>
        <time>2021-03-07 12:00:48</time>
      </trkpt>
      <trkpt lat="42.89608" lon="-1.60918">
        <ele>459.2</ele>
        <time>2021-03-07 12:00:49</time>
      </trkpt>
      <trkpt lat="42.89599" lon="-1.60917">
        <ele>459.2</ele>
        <time>2021-03-07 12:00:50</time>
      </trkpt>
      <trkpt lat="42.89591" lon="-1.60917">
        <ele>459.2</ele>
        <time>2021-03-07 12:00:51</time>
      </trkpt>
      <trkpt lat="42.89582" lon="-1.60916">
        <ele>459</ele>
        <time>2021-03-07 12:00:52</time>
      </trkpt>
      <trkpt lat="42.89574" lon="-1.60914">
        <ele>459</ele>
        <time>2021-03-07 12:00:53</time>
      </trkpt>
      <trkpt lat="42.89565" lon="-1.60913">
        <ele>459</ele>
        <time>2021-03-07 12:00:54</time>
      </trkpt>
      <trkpt lat="42.89557" lon="-1.60911">
        <ele>459</ele>
        <time>2021-03-07 12:00:55</time>
      </trkpt>
      <trkpt lat="42.89548" lon="-1.60908">
        <ele>459</ele>
        <time>2021-03-07 12:00:56</time>
      </trkpt>
      <trkpt lat="42.8954" lon="-1.60906">
        <ele>459</ele>
        <time>2021-03-07 12:00:57</time>
      </trkpt>
      <trkpt lat="42.89531" lon="-1.60903">
        <ele>458.8</ele>
        <time>2021-03-07 12:00:58</time>
      </trkpt>
      <trkpt lat="42.89523" lon="-1.60899">
        <ele>458.8</ele>
        <time>2021-03-07 12:00:59</time>
      </trkpt>
      <trkpt lat="42.89514" lon="-1.60895">
        <ele>458.8</ele>
        <time>2021-03-07 12:01:00</time>
      </trkpt>
      <trkpt lat="42.89506" lon="-1.6089">
        <ele>458.8</ele>
        <time>2021-03-07 12:01:01</time>
      </trkpt>
      <trkpt lat="42.89497" lon="-1.60886">
        <ele>458.8</ele>
        <time>2021-03-07 12:01:02</time>
      </trkpt>
      <trkpt lat="42.89489" lon="-1.60881">
        <ele>458.6</ele>
        <time>2021-03-07 12:01:03</time>
      </trkpt>
      <trkpt lat="42.8948" lon="-1.60876">
        <ele>458.6</ele>
        <time>2021-03-07 12:01:04</time>
      </trkpt>
      <trkpt lat="42.89471" lon="-1.6087">
        <ele>458.4</ele>
        <time>2021-03-07 12:01:05</time>
      </trkpt>
      <trkpt lat="42.89463" lon="-1.60864">
        <ele>458.2</ele>
        <time>2021-03-07 12:01:06</time>
      </trkpt>
      <trkpt lat="42.89454" lon="-1.60858">
        <ele>458.2</ele>
        <time>2021-03-07 12:01:07</time>
      </trkpt>
      <trkpt lat="42.89445" lon="-1.60852">
        <ele>458</ele>
        <time>2021-03-07 12:01:08</time>
      </trkpt>
      <trkpt lat="42.89436" lon="-1.60846">
        <ele>457.8</ele>
        <time>2021-03-07 12:01:09</time>
      </trkpt>
      <trkpt lat="42.89428" lon="-1.60839">
        <ele>457.6</ele>
        <time>2021-03-07 12:01:10</time>
      </trkpt>
      <trkpt lat="42.89419" lon="-1.60833">
        <ele>457.2</ele>
        <time>2021-03-07 12:01:11</time>
      </trkpt>
      <trkpt lat="42.8941" lon="-1.60827">
        <ele>456.8</ele>
        <time>2021-03-07 12:01:12</time>
      </trkpt>
      <trkpt lat="42.89401" lon="-1.60821">
        <ele>456.6</ele>
        <time>2021-03-07 12:01:13</time>
      </trkpt>
      <trkpt lat="42.89392" lon="-1.60814">
        <ele>456</ele>
        <time>2021-03-07 12:01:14</time>
      </trkpt>
      <trkpt lat="42.89383" lon="-1.60808">
        <ele>455.6</ele>
        <time>2021-03-07 12:01:15</time>
      </trkpt>
      <trkpt lat="42.89374" lon="-1.60802">
        <ele>455.4</ele>
        <time>2021-03-07 12:01:16</time>
      </trkpt>
      <trkpt lat="42.89365" lon="-1.60795">
        <ele>455</ele>
        <time>2021-03-07 12:01:17</time>
      </trkpt>
      <trkpt lat="42.89356" lon="-1.60789">
        <ele>454.8</ele>
        <time>2021-03-07 12:01:18</time>
      </trkpt>
      <trkpt lat="42.89347" lon="-1.60782">
        <ele>454.4</ele>
        <time>2021-03-07 12:01:19</time>
      </trkpt>
      <trkpt lat="42.89337" lon="-1.60776">
        <ele>454</ele>
        <time>2021-03-07 12:01:20</time>
      </trkpt>
      <trkpt lat="42.89329" lon="-1.6077">
        <ele>453.6</ele>
        <time>2021-03-07 12:01:21</time>
      </trkpt>
      <trkpt lat="42.8932" lon="-1.60764">
        <ele>452.8</ele>
        <time>2021-03-07 12:01:22</time>
      </trkpt>
      <trkpt lat="42.89311" lon="-1.60758">
        <ele>452.6</ele>
        <time>2021-03-07 12:01:23</time>
      </trkpt>
      <trkpt lat="42.89302" lon="-1.60752">
        <ele>452.2</ele>
        <time>2021-03-07 12:01:24</time>
      </trkpt>
      <trkpt lat="42.89294" lon="-1.60746">
        <ele>451.8</ele>
        <time>2021-03-07 12:01:25</time>
      </trkpt>
      <trkpt lat="42.89285" lon="-1.6074">
        <ele>451.6</ele>
        <time>2021-03-07 12:01:26</time>
      </trkpt>
      <trkpt lat="42.89276" lon="-1.60735">
        <ele>451.6</ele>
        <time>2021-03-07 12:01:27</time>
      </trkpt>
      <trkpt lat="42.89268" lon="-1.6073">
        <ele>451.4</ele>
        <time>2021-03-07 12:01:28</time>
      </trkpt>
      <trkpt lat="42.89259" lon="-1.60725">
        <ele>451.4</ele>
        <time>2021-03-07 12:01:29</time>
      </trkpt>
      <trkpt lat="42.89251" lon="-1.6072">
        <ele>451.2</ele>
        <time>2021-03-07 12:01:30</time>
      </trkpt>
      <trkpt lat="42.89242" lon="-1.60716">
        <ele>451.2</ele>
        <time>2021-03-07 12:01:31</time>
      </trkpt>
      <trkpt lat="42.89234" lon="-1.60711">
        <ele>451</ele>
        <time>2021-03-07 12:01:32</time>
      </trkpt>
      <trkpt lat="42.89225" lon="-1.60707">
        <ele>450.8</ele>
        <time>2021-03-07 12:01:33</time>
      </trkpt>
      <trkpt lat="42.89216" lon="-1.60703">
        <ele>450.8</ele>
        <time>2021-03-07 12:01:34</time>
      </trkpt>
      <trkpt lat="42.89208" lon="-1.60698">
        <ele>450.6</ele>
        <time>2021-03-07 12:01:35</time>
      </trkpt>
      <trkpt lat="42.89199" lon="-1.60693">
        <ele>450.4</ele>
        <time>2021-03-07 12:01:36</time>
      </trkpt>
      <trkpt lat="42.89191" lon="-1.60689">
        <ele>450.4</ele>
        <time>2021-03-07 12:01:37</time>
      </trkpt>
      <trkpt lat="42.89182" lon="-1.60684">
        <ele>450.2</ele>
        <time>2021-03-07 12:01:38</time>
      </trkpt>
      <trkpt lat="42.89174" lon="-1.6068">
        <ele>450.2</ele>
        <time>2021-03-07 12:01:39</time>
      </trkpt>
      <trkpt lat="42.89166" lon="-1.60676">
        <ele>450.2</ele>
        <time>2021-03-07 12:01:40</time>
      </trkpt>
      <trkpt lat="42.89158" lon="-1.60672">
        <ele>450</ele>
        <time>2021-03-07 12:01:41</time>
      </trkpt>
      <trkpt lat="42.8915" lon="-1.60668">
        <ele>450</ele>
        <time>2021-03-07 12:01:42</time>
      </trkpt>
      <trkpt lat="42.89143" lon="-1.60664">
        <ele>449.8</ele>
        <time>2021-03-07 12:01:43</time>
      </trkpt>
      <trkpt lat="42.89135" lon="-1.6066">
        <ele>449.8</ele>
        <time>2021-03-07 12:01:44</time>
      </trkpt>
      <trkpt lat="42.89127" lon="-1.60656">
        <ele>449.8</ele>
        <time>2021-03-07 12:01:45</time>
      </trkpt>
      <trkpt lat="42.8912" lon="-1.60652">
        <ele>449.8</ele>
        <time>2021-03-07 12:01:46</time>
      </trkpt>
      <trkpt lat="42.89113" lon="-1.60648">
        <ele>449.8</ele>
        <time>2021-03-07 12:01:47</time>
      </trkpt>
      <trkpt lat="42.89105" lon="-1.60644">
        <ele>450</ele>
        <time>2021-03-07 12:01:48</time>
      </trkpt>
      <trkpt lat="42.89098" lon="-1.6064">
        <ele>449.8</ele>
        <time>2021-03-07 12:01:49</time>
      </trkpt>
      <trkpt lat="42.89091" lon="-1.60636">
        <ele>450</ele>
        <time>2021-03-07 12:01:50</time>
      </trkpt>
      <trkpt lat="42.89084" lon="-1.60633">
        <ele>450</ele>
        <time>2021-03-07 12:01:51</time>
      </trkpt>
      <trkpt lat="42.89077" lon="-1.60629">
        <ele>450</ele>
        <time>2021-03-07 12:01:52</time>
      </trkpt>
      <trkpt lat="42.8907" lon="-1.60625">
        <ele>450</ele>
        <time>2021-03-07 12:01:53</time>
      </trkpt>
      <trkpt lat="42.89063" lon="-1.60622">
        <ele>450.2</ele>
        <time>2021-03-07 12:01:54</time>
      </trkpt>
      <trkpt lat="42.89056" lon="-1.60618">
        <ele>450.2</ele>
        <time>2021-03-07 12:01:55</time>
      </trkpt>
      <trkpt lat="42.8905" lon="-1.60614">
        <ele>450.4</ele>
        <time>2021-03-07 12:01:56</time>
      </trkpt>
      <trkpt lat="42.89043" lon="-1.60611">
        <ele>450.6</ele>
        <time>2021-03-07 12:01:57</time>
      </trkpt>
      <trkpt lat="42.89036" lon="-1.60608">
        <ele>450.8</ele>
        <time>2021-03-07 12:01:58</time>
      </trkpt>
      <trkpt lat="42.89029" lon="-1.60604">
        <ele>450.8</ele>
        <time>2021-03-07 12:01:59</time>
      </trkpt>
      <trkpt lat="42.89022" lon="-1.60601">
        <ele>450.8</ele>
        <time>2021-03-07 12:02:00</time>
      </trkpt>
      <trkpt lat="42.89015" lon="-1.60597">
        <ele>450.8</ele>
        <time>2021-03-07 12:02:01</time>
      </trkpt>
      <trkpt lat="42.89008" lon="-1.60594">
        <ele>450.8</ele>
        <time>2021-03-07 12:02:02</time>
      </trkpt>
      <trkpt lat="42.89" lon="-1.6059">
        <ele>450.8</ele>
        <time>2021-03-07 12:02:03</time>
      </trkpt>
      <trkpt lat="42.88993" lon="-1.60587">
        <ele>450.8</ele>
        <time>2021-03-07 12:02:04</time>
      </trkpt>
      <trkpt lat="42.88986" lon="-1.60584">
        <ele>450.8</ele>
        <time>2021-03-07 12:02:05</time>
      </trkpt>
      <trkpt lat="42.88978" lon="-1.6058">
        <ele>450.8</ele>
        <time>2021-03-07 12:02:06</time>
      </trkpt>
      <trkpt lat="42.8897" lon="-1.60576">
        <ele>450.8</ele>
        <time>2021-03-07 12:02:07</time>
      </trkpt>
      <trkpt lat="42.88963" lon="-1.60573">
        <ele>450.8</ele>
        <time>2021-03-07 12:02:08</time>
      </trkpt>
      <trkpt lat="42.88955" lon="-1.60569">
        <ele>450.8</ele>
        <time>2021-03-07 12:02:09</time>
      </trkpt>
      <trkpt lat="42.88947" lon="-1.60565">
        <ele>450.8</ele>
        <time>2021-03-07 12:02:10</time>
      </trkpt>
      <trkpt lat="42.88939" lon="-1.60562">
        <ele>450.6</ele>
        <time>2021-03-07 12:02:11</time>
      </trkpt>
      <trkpt lat="42.88932" lon="-1.60558">
        <ele>450.2</ele>
        <time>2021-03-07 12:02:12</time>
      </trkpt>
      <trkpt lat="42.88924" lon="-1.60554">
        <ele>450</ele>
        <time>2021-03-07 12:02:13</time>
      </trkpt>
      <trkpt lat="42.88916" lon="-1.60551">
        <ele>449.8</ele>
        <time>2021-03-07 12:02:14</time>
      </trkpt>
      <trkpt lat="42.88909" lon="-1.60548">
        <ele>449.6</ele>
        <time>2021-03-07 12:02:15</time>
      </trkpt>
      <trkpt lat="42.88901" lon="-1.60544">
        <ele>449.6</ele>
        <time>2021-03-07 12:02:16</time>
      </trkpt>
      <trkpt lat="42.88893" lon="-1.60541">
        <ele>449.4</ele>
        <time>2021-03-07 12:02:17</time>
      </trkpt>
      <trkpt lat="42.88886" lon="-1.60538">
        <ele>449.4</ele>
        <time>2021-03-07 12:02:18</time>
      </trkpt>
      <trkpt lat="42.88878" lon="-1.60534">
        <ele>449.2</ele>
        <time>2021-03-07 12:02:19</time>
      </trkpt>
      <trkpt lat="42.8887" lon="-1.60531">
        <ele>449</ele>
        <time>2021-03-07 12:02:20</time>
      </trkpt>
      <trkpt lat="42.88863" lon="-1.60527">
        <ele>448.8</ele>
        <time>2021-03-07 12:02:21</time>
      </trkpt>
      <trkpt lat="42.88855" lon="-1.60524">
        <ele>448.6</ele>
        <time>2021-03-07 12:02:22</time>
      </trkpt>
      <trkpt lat="42.88848" lon="-1.60521">
        <ele>448.4</ele>
        <time>2021-03-07 12:02:23</time>
      </trkpt>
      <trkpt lat="42.88841" lon="-1.60518">
        <ele>448.2</ele>
        <time>2021-03-07 12:02:24</time>
      </trkpt>
      <trkpt lat="42.88833" lon="-1.60515">
        <ele>448</ele>
        <time>2021-03-07 12:02:25</time>
      </trkpt>
      <trkpt lat="42.88826" lon="-1.60511">
        <ele>448</ele>
        <time>2021-03-07 12:02:26</time>
      </trkpt>
      <trkpt lat="42.88819" lon="-1.60508">
        <ele>448</ele>
        <time>2021-03-07 12:02:27</time>
      </trkpt>
      <trkpt lat="42.88811" lon="-1.60505">
        <ele>448</ele>
        <time>2021-03-07 12:02:28</time>
      </trkpt>
      <trkpt lat="42.88804" lon="-1.60502">
        <ele>448</ele>
        <time>2021-03-07 12:02:29</time>
      </trkpt>
      <trkpt lat="42.88797" lon="-1.60498">
        <ele>447.8</ele>
        <time>2021-03-07 12:02:30</time>
      </trkpt>
      <trkpt lat="42.88789" lon="-1.60495">
        <ele>447.8</ele>
        <time>2021-03-07 12:02:31</time>
      </trkpt>
      <trkpt lat="42.88782" lon="-1.60492">
        <ele>447.6</ele>
        <time>2021-03-07 12:02:32</time>
      </trkpt>
      <trkpt lat="42.88775" lon="-1.60489">
        <ele>447.8</ele>
        <time>2021-03-07 12:02:33</time>
      </trkpt>
      <trkpt lat="42.88767" lon="-1.60485">
        <ele>447.8</ele>
        <time>2021-03-07 12:02:34</time>
      </trkpt>
      <trkpt lat="42.8876" lon="-1.60482">
        <ele>447.8</ele>
        <time>2021-03-07 12:02:35</time>
      </trkpt>
      <trkpt lat="42.88753" lon="-1.60479">
        <ele>447.8</ele>
        <time>2021-03-07 12:02:36</time>
      </trkpt>
      <trkpt lat="42.88746" lon="-1.60475">
        <ele>447.8</ele>
        <time>2021-03-07 12:02:37</time>
      </trkpt>
      <trkpt lat="42.88738" lon="-1.60472">
        <ele>447.8</ele>
        <time>2021-03-07 12:02:38</time>
      </trkpt>
      <trkpt lat="42.88731" lon="-1.60469">
        <ele>447.6</ele>
        <time>2021-03-07 12:02:39</time>
      </trkpt>
      <trkpt lat="42.88724" lon="-1.60466">
        <ele>447.6</ele>
        <time>2021-03-07 12:02:40</time>
      </trkpt>
      <trkpt lat="42.88717" lon="-1.60463">
        <ele>447.6</ele>
        <time>2021-03-07 12:02:41</time>
      </trkpt>
      <trkpt lat="42.8871" lon="-1.6046">
        <ele>447.6</ele>
        <time>2021-03-07 12:02:42</time>
      </trkpt>
      <trkpt lat="42.88703" lon="-1.60457">
        <ele>447.6</ele>
        <time>2021-03-07 12:02:43</time>
      </trkpt>
      <trkpt lat="42.88696" lon="-1.60454">
        <ele>447.6</ele>
        <time>2021-03-07 12:02:44</time>
      </trkpt>
      <trkpt lat="42.88688" lon="-1.6045">
        <ele>447.6</ele>
        <time>2021-03-07 12:02:45</time>
      </trkpt>
      <trkpt lat="42.88681" lon="-1.60447">
        <ele>447.6</ele>
        <time>2021-03-07 12:02:46</time>
      </trkpt>
      <trkpt lat="42.88674" lon="-1.60445">
        <ele>447.6</ele>
        <time>2021-03-07 12:02:47</time>
      </trkpt>
      <trkpt lat="42.88667" lon="-1.60442">
        <ele>447.6</ele>
        <time>2021-03-07 12:02:48</time>
      </trkpt>
      <trkpt lat="42.8866" lon="-1.60439">
        <ele>447.4</ele>
        <time>2021-03-07 12:02:49</time>
      </trkpt>
      <trkpt lat="42.88653" lon="-1.60436">
        <ele>447.4</ele>
        <time>2021-03-07 12:02:50</time>
      </trkpt>
      <trkpt lat="42.88647" lon="-1.60434">
        <ele>447.4</ele>
        <time>2021-03-07 12:02:51</time>
      </trkpt>
      <trkpt lat="42.8864" lon="-1.60431">
        <ele>447.4</ele>
        <time>2021-03-07 12:02:52</time>
      </trkpt>
      <trkpt lat="42.88633" lon="-1.60428">
        <ele>447.4</ele>
        <time>2021-03-07 12:02:53</time>
      </trkpt>
      <trkpt lat="42.88626" lon="-1.60426">
        <ele>447.4</ele>
        <time>2021-03-07 12:02:54</time>
      </trkpt>
      <trkpt lat="42.88619" lon="-1.60424">
        <ele>447.4</ele>
        <time>2021-03-07 12:02:55</time>
      </trkpt>
      <trkpt lat="42.88612" lon="-1.60421">
        <ele>447.4</ele>
        <time>2021-03-07 12:02:56</time>
      </trkpt>
      <trkpt lat="42.88605" lon="-1.60419">
        <ele>447.4</ele>
        <time>2021-03-07 12:02:57</time>
      </trkpt>
      <trkpt lat="42.88599" lon="-1.60416">
        <ele>447.4</ele>
        <time>2021-03-07 12:02:58</time>
      </trkpt>
      <trkpt lat="42.88592" lon="-1.60414">
        <ele>447.4</ele>
        <time>2021-03-07 12:02:59</time>
      </trkpt>
      <trkpt lat="42.88585" lon="-1.60413">
        <ele>447.4</ele>
        <time>2021-03-07 12:03:00</time>
      </trkpt>
      <trkpt lat="42.88578" lon="-1.60411">
        <ele>447.4</ele>
        <time>2021-03-07 12:03:01</time>
      </trkpt>
      <trkpt lat="42.88571" lon="-1.6041">
        <ele>447.6</ele>
        <time>2021-03-07 12:03:02</time>
      </trkpt>
      <trkpt lat="42.88565" lon="-1.60409">
        <ele>447.6</ele>
        <time>2021-03-07 12:03:03</time>
      </trkpt>
      <trkpt lat="42.88558" lon="-1.60409">
        <ele>447.6</ele>
        <time>2021-03-07 12:03:04</time>
      </trkpt>
      <trkpt lat="42.88551" lon="-1.60409">
        <ele>447.6</ele>
        <time>2021-03-07 12:03:05</time>
      </trkpt>
      <trkpt lat="42.88545" lon="-1.60408">
        <ele>447.6</ele>
        <time>2021-03-07 12:03:06</time>
      </trkpt>
      <trkpt lat="42.88538" lon="-1.60408">
        <ele>447.6</ele>
        <time>2021-03-07 12:03:07</time>
      </trkpt>
      <trkpt lat="42.88532" lon="-1.60408">
        <ele>447.6</ele>
        <time>2021-03-07 12:03:08</time>
      </trkpt>
      <trkpt lat="42.88525" lon="-1.60408">
        <ele>447.8</ele>
        <time>2021-03-07 12:03:09</time>
      </trkpt>
      <trkpt lat="42.88519" lon="-1.60408">
        <ele>447.8</ele>
        <time>2021-03-07 12:03:10</time>
      </trkpt>
      <trkpt lat="42.88513" lon="-1.60409">
        <ele>447.8</ele>
        <time>2021-03-07 12:03:11</time>
      </trkpt>
      <trkpt lat="42.88507" lon="-1.60409">
        <ele>447.8</ele>
        <time>2021-03-07 12:03:12</time>
      </trkpt>
      <trkpt lat="42.88501" lon="-1.6041">
        <ele>447.8</ele>
        <time>2021-03-07 12:03:13</time>
      </trkpt>
      <trkpt lat="42.88495" lon="-1.60411">
        <ele>448</ele>
        <time>2021-03-07 12:03:14</time>
      </trkpt>
      <trkpt lat="42.88489" lon="-1.60412">
        <ele>448</ele>
        <time>2021-03-07 12:03:15</time>
      </trkpt>
      <trkpt lat="42.88484" lon="-1.60414">
        <ele>448.4</ele>
        <time>2021-03-07 12:03:16</time>
      </trkpt>
      <trkpt lat="42.88478" lon="-1.60416">
        <ele>448.8</ele>
        <time>2021-03-07 12:03:17</time>
      </trkpt>
      <trkpt lat="42.88472" lon="-1.60418">
        <ele>449</ele>
        <time>2021-03-07 12:03:18</time>
      </trkpt>
      <trkpt lat="42.88467" lon="-1.6042">
        <ele>449.2</ele>
        <time>2021-03-07 12:03:19</time>
      </trkpt>
      <trkpt lat="42.88461" lon="-1.60422">
        <ele>449.4</ele>
        <time>2021-03-07 12:03:20</time>
      </trkpt>
      <trkpt lat="42.88456" lon="-1.60425">
        <ele>449.4</ele>
        <time>2021-03-07 12:03:21</time>
      </trkpt>
      <trkpt lat="42.8845" lon="-1.60428">
        <ele>449.6</ele>
        <time>2021-03-07 12:03:22</time>
      </trkpt>
      <trkpt lat="42.88445" lon="-1.60432">
        <ele>449.8</ele>
        <time>2021-03-07 12:03:23</time>
      </trkpt>
      <trkpt lat="42.8844" lon="-1.60435">
        <ele>449.8</ele>
        <time>2021-03-07 12:03:24</time>
      </trkpt>
      <trkpt lat="42.88434" lon="-1.60438">
        <ele>450</ele>
        <time>2021-03-07 12:03:25</time>
      </trkpt>
      <trkpt lat="42.88429" lon="-1.60442">
        <ele>450</ele>
        <time>2021-03-07 12:03:26</time>
      </trkpt>
      <trkpt lat="42.88424" lon="-1.60446">
        <ele>450</ele>
        <time>2021-03-07 12:03:27</time>
      </trkpt>
      <trkpt lat="42.88419" lon="-1.60449">
        <ele>450.2</ele>
        <time>2021-03-07 12:03:28</time>
      </trkpt>
      <trkpt lat="42.88414" lon="-1.60453">
        <ele>450.4</ele>
        <time>2021-03-07 12:03:29</time>
      </trkpt>
      <trkpt lat="42.88409" lon="-1.60456">
        <ele>450.4</ele>
        <time>2021-03-07 12:03:30</time>
      </trkpt>
      <trkpt lat="42.88404" lon="-1.6046">
        <ele>450.6</ele>
        <time>2021-03-07 12:03:31</time>
      </trkpt>
      <trkpt lat="42.88399" lon="-1.60463">
        <ele>450.6</ele>
        <time>2021-03-07 12:03:32</time>
      </trkpt>
      <trkpt lat="42.88393" lon="-1.60467">
        <ele>450.8</ele>
        <time>2021-03-07 12:03:33</time>
      </trkpt>
      <trkpt lat="42.88388" lon="-1.60471">
        <ele>451</ele>
        <time>2021-03-07 12:03:34</time>
      </trkpt>
      <trkpt lat="42.88383" lon="-1.60475">
        <ele>451</ele>
        <time>2021-03-07 12:03:35</time>
      </trkpt>
      <trkpt lat="42.88378" lon="-1.60479">
        <ele>451.2</ele>
        <time>2021-03-07 12:03:36</time>
      </trkpt>
      <trkpt lat="42.88373" lon="-1.60482">
        <ele>451.4</ele>
        <time>2021-03-07 12:03:37</time>
      </trkpt>
      <trkpt lat="42.88368" lon="-1.60486">
        <ele>451.8</ele>
        <time>2021-03-07 12:03:38</time>
      </trkpt>
      <trkpt lat="42.88363" lon="-1.6049">
        <ele>451.8</ele>
        <time>2021-03-07 12:03:39</time>
      </trkpt>
      <trkpt lat="42.88358" lon="-1.60493">
        <ele>452</ele>
        <time>2021-03-07 12:03:40</time>
      </trkpt>
      <trkpt lat="42.88353" lon="-1.60497">
        <ele>452</ele>
        <time>2021-03-07 12:03:41</time>
      </trkpt>
      <trkpt lat="42.88348" lon="-1.60501">
        <ele>452</ele>
        <time>2021-03-07 12:03:42</time>
      </trkpt>
      <trkpt lat="42.88342" lon="-1.60505">
        <ele>452.2</ele>
        <time>2021-03-07 12:03:43</time>
      </trkpt>
      <trkpt lat="42.88337" lon="-1.60509">
        <ele>452.4</ele>
        <time>2021-03-07 12:03:44</time>
      </trkpt>
      <trkpt lat="42.88332" lon="-1.60513">
        <ele>452.4</ele>
        <time>2021-03-07 12:03:45</time>
      </trkpt>
      <trkpt lat="42.88327" lon="-1.60517">
        <ele>452.6</ele>
        <time>2021-03-07 12:03:46</time>
      </trkpt>
      <trkpt lat="42.88321" lon="-1.60521">
        <ele>452.6</ele>
        <time>2021-03-07 12:03:47</time>
      </trkpt>
      <trkpt lat="42.88316" lon="-1.60525">
        <ele>452.8</ele>
        <time>2021-03-07 12:03:48</time>
      </trkpt>
      <trkpt lat="42.88311" lon="-1.60528">
        <ele>453</ele>
        <time>2021-03-07 12:03:49</time>
      </trkpt>
      <trkpt lat="42.88305" lon="-1.60532">
        <ele>453.2</ele>
        <time>2021-03-07 12:03:50</time>
      </trkpt>
      <trkpt lat="42.883" lon="-1.60536">
        <ele>453.2</ele>
        <time>2021-03-07 12:03:51</time>
      </trkpt>
      <trkpt lat="42.88294" lon="-1.6054">
        <ele>453.2</ele>
        <time>2021-03-07 12:03:52</time>
      </trkpt>
      <trkpt lat="42.88289" lon="-1.60544">
        <ele>453.4</ele>
        <time>2021-03-07 12:03:53</time>
      </trkpt>
      <trkpt lat="42.88283" lon="-1.60548">
        <ele>453.4</ele>
        <time>2021-03-07 12:03:54</time>
      </trkpt>
      <trkpt lat="42.88277" lon="-1.60551">
        <ele>453.4</ele>
        <time>2021-03-07 12:03:55</time>
      </trkpt>
      <trkpt lat="42.88271" lon="-1.60555">
        <ele>453.4</ele>
        <time>2021-03-07 12:03:56</time>
      </trkpt>
      <trkpt lat="42.88265" lon="-1.60559">
        <ele>453.4</ele>
        <time>2021-03-07 12:03:57</time>
      </trkpt>
      <trkpt lat="42.8826" lon="-1.60563">
        <ele>453.4</ele>
        <time>2021-03-07 12:03:58</time>
      </trkpt>
      <trkpt lat="42.88253" lon="-1.60567">
        <ele>453.4</ele>
        <time>2021-03-07 12:03:59</time>
      </trkpt>
      <trkpt lat="42.88247" lon="-1.60571">
        <ele>453.4</ele>
        <time>2021-03-07 12:04:00</time>
      </trkpt>
      <trkpt lat="42.88241" lon="-1.60575">
        <ele>453.4</ele>
        <time>2021-03-07 12:04:01</time>
      </trkpt>
      <trkpt lat="42.88235" lon="-1.60579">
        <ele>453.4</ele>
        <time>2021-03-07 12:04:02</time>
      </trkpt>
      <trkpt lat="42.88229" lon="-1.60583">
        <ele>453.4</ele>
        <time>2021-03-07 12:04:03</time>
      </trkpt>
      <trkpt lat="42.88222" lon="-1.60587">
        <ele>453.4</ele>
        <time>2021-03-07 12:04:04</time>
      </trkpt>
      <trkpt lat="42.88216" lon="-1.60591">
        <ele>453.4</ele>
        <time>2021-03-07 12:04:05</time>
      </trkpt>
      <trkpt lat="42.88209" lon="-1.60595">
        <ele>453.4</ele>
        <time>2021-03-07 12:04:06</time>
      </trkpt>
      <trkpt lat="42.88202" lon="-1.60599">
        <ele>453.4</ele>
        <time>2021-03-07 12:04:07</time>
      </trkpt>
      <trkpt lat="42.88195" lon="-1.60603">
        <ele>453.4</ele>
        <time>2021-03-07 12:04:08</time>
      </trkpt>
      <trkpt lat="42.88188" lon="-1.60608">
        <ele>453.2</ele>
        <time>2021-03-07 12:04:09</time>
      </trkpt>
      <trkpt lat="42.88181" lon="-1.60612">
        <ele>453.2</ele>
        <time>2021-03-07 12:04:10</time>
      </trkpt>
      <trkpt lat="42.88174" lon="-1.60617">
        <ele>453.2</ele>
        <time>2021-03-07 12:04:11</time>
      </trkpt>
      <trkpt lat="42.88167" lon="-1.60621">
        <ele>453</ele>
        <time>2021-03-07 12:04:12</time>
      </trkpt>
      <trkpt lat="42.88159" lon="-1.60625">
        <ele>453</ele>
        <time>2021-03-07 12:04:13</time>
      </trkpt>
      <trkpt lat="42.88152" lon="-1.6063">
        <ele>452.8</ele>
        <time>2021-03-07 12:04:14</time>
      </trkpt>
      <trkpt lat="42.88145" lon="-1.60635">
        <ele>452.4</ele>
        <time>2021-03-07 12:04:15</time>
      </trkpt>
      <trkpt lat="42.88137" lon="-1.60639">
        <ele>452</ele>
        <time>2021-03-07 12:04:16</time>
      </trkpt>
      <trkpt lat="42.8813" lon="-1.60644">
        <ele>451.8</ele>
        <time>2021-03-07 12:04:17</time>
      </trkpt>
      <trkpt lat="42.88123" lon="-1.60649">
        <ele>451.6</ele>
        <time>2021-03-07 12:04:18</time>
      </trkpt>
      <trkpt lat="42.88115" lon="-1.60653">
        <ele>451.2</ele>
        <time>2021-03-07 12:04:19</time>
      </trkpt>
      <trkpt lat="42.88108" lon="-1.60658">
        <ele>450.8</ele>
        <time>2021-03-07 12:04:20</time>
      </trkpt>
      <trkpt lat="42.88101" lon="-1.60662">
        <ele>450.6</ele>
        <time>2021-03-07 12:04:21</time>
      </trkpt>
      <trkpt lat="42.88093" lon="-1.60667">
        <ele>450.4</ele>
        <time>2021-03-07 12:04:22</time>
      </trkpt>
      <trkpt lat="42.88086" lon="-1.60671">
        <ele>450.4</ele>
        <time>2021-03-07 12:04:23</time>
      </trkpt>
      <trkpt lat="42.88079" lon="-1.60676">
        <ele>450.2</ele>
        <time>2021-03-07 12:04:24</time>
      </trkpt>
      <trkpt lat="42.88071" lon="-1.6068">
        <ele>450</ele>
        <time>2021-03-07 12:04:25</time>
      </trkpt>
      <trkpt lat="42.88064" lon="-1.60685">
        <ele>450</ele>
        <time>2021-03-07 12:04:26</time>
      </trkpt>
      <trkpt lat="42.88057" lon="-1.6069">
        <ele>449.8</ele>
        <time>2021-03-07 12:04:27</time>
      </trkpt>
      <trkpt lat="42.88049" lon="-1.60694">
        <ele>449.6</ele>
        <time>2021-03-07 12:04:28</time>
      </trkpt>
      <trkpt lat="42.88042" lon="-1.60698">
        <ele>449.4</ele>
        <time>2021-03-07 12:04:29</time>
      </trkpt>
      <trkpt lat="42.88035" lon="-1.60703">
        <ele>449.2</ele>
        <time>2021-03-07 12:04:30</time>
      </trkpt>
      <trkpt lat="42.88028" lon="-1.60707">
        <ele>449</ele>
        <time>2021-03-07 12:04:31</time>
      </trkpt>
      <trkpt lat="42.88021" lon="-1.60711">
        <ele>448.8</ele>
        <time>2021-03-07 12:04:32</time>
      </trkpt>
      <trkpt lat="42.88014" lon="-1.60715">
        <ele>448.6</ele>
        <time>2021-03-07 12:04:33</time>
      </trkpt>
      <trkpt lat="42.88008" lon="-1.60719">
        <ele>448.4</ele>
        <time>2021-03-07 12:04:34</time>
      </trkpt>
      <trkpt lat="42.88001" lon="-1.60724">
        <ele>448.2</ele>
        <time>2021-03-07 12:04:35</time>
      </trkpt>
      <trkpt lat="42.87995" lon="-1.60728">
        <ele>448.2</ele>
        <time>2021-03-07 12:04:36</time>
      </trkpt>
      <trkpt lat="42.87989" lon="-1.60732">
        <ele>448.2</ele>
        <time>2021-03-07 12:04:37</time>
      </trkpt>
      <trkpt lat="42.87982" lon="-1.60736">
        <ele>448.2</ele>
        <time>2021-03-07 12:04:38</time>
      </trkpt>
      <trkpt lat="42.87976" lon="-1.60739">
        <ele>448.2</ele>
        <time>2021-03-07 12:04:39</time>
      </trkpt>
      <trkpt lat="42.87971" lon="-1.60743">
        <ele>448.2</ele>
        <time>2021-03-07 12:04:40</time>
      </trkpt>
      <trkpt lat="42.87965" lon="-1.60746">
        <ele>448.2</ele>
        <time>2021-03-07 12:04:41</time>
      </trkpt>
      <trkpt lat="42.8796" lon="-1.60749">
        <ele>448.2</ele>
        <time>2021-03-07 12:04:42</time>
      </trkpt>
      <trkpt lat="42.87955" lon="-1.60752">
        <ele>448.2</ele>
        <time>2021-03-07 12:04:43</time>
      </trkpt>
      <trkpt lat="42.87949" lon="-1.60755">
        <ele>448.4</ele>
        <time>2021-03-07 12:04:44</time>
      </trkpt>
      <trkpt lat="42.87944" lon="-1.60758">
        <ele>448.6</ele>
        <time>2021-03-07 12:04:45</time>
      </trkpt>
      <trkpt lat="42.87939" lon="-1.60761">
        <ele>448.8</ele>
        <time>2021-03-07 12:04:46</time>
      </trkpt>
      <trkpt lat="42.87933" lon="-1.60764">
        <ele>448.8</ele>
        <time>2021-03-07 12:04:47</time>
      </trkpt>
      <trkpt lat="42.87928" lon="-1.60767">
        <ele>449</ele>
        <time>2021-03-07 12:04:48</time>
      </trkpt>
      <trkpt lat="42.87922" lon="-1.60769">
        <ele>449</ele>
        <time>2021-03-07 12:04:49</time>
      </trkpt>
      <trkpt lat="42.87916" lon="-1.60772">
        <ele>449</ele>
        <time>2021-03-07 12:04:50</time>
      </trkpt>
      <trkpt lat="42.87911" lon="-1.60774">
        <ele>449.2</ele>
        <time>2021-03-07 12:04:51</time>
      </trkpt>
      <trkpt lat="42.87905" lon="-1.60777">
        <ele>449.4</ele>
        <time>2021-03-07 12:04:52</time>
      </trkpt>
      <trkpt lat="42.87898" lon="-1.60779">
        <ele>449.6</ele>
        <time>2021-03-07 12:04:53</time>
      </trkpt>
      <trkpt lat="42.87892" lon="-1.60781">
        <ele>449.4</ele>
        <time>2021-03-07 12:04:54</time>
      </trkpt>
      <trkpt lat="42.87885" lon="-1.60783">
        <ele>449.4</ele>
        <time>2021-03-07 12:04:55</time>
      </trkpt>
      <trkpt lat="42.87879" lon="-1.60785">
        <ele>449.6</ele>
        <time>2021-03-07 12:04:56</time>
      </trkpt>
      <trkpt lat="42.87872" lon="-1.60787">
        <ele>449.6</ele>
        <time>2021-03-07 12:04:57</time>
      </trkpt>
      <trkpt lat="42.87865" lon="-1.6079">
        <ele>449.6</ele>
        <time>2021-03-07 12:04:58</time>
      </trkpt>
      <trkpt lat="42.87858" lon="-1.60792">
        <ele>449.6</ele>
        <time>2021-03-07 12:04:59</time>
      </trkpt>
      <trkpt lat="42.87851" lon="-1.60794">
        <ele>449.6</ele>
        <time>2021-03-07 12:05:00</time>
      </trkpt>
      <trkpt lat="42.87844" lon="-1.60796">
        <ele>449.6</ele>
        <time>2021-03-07 12:05:01</time>
      </trkpt>
      <trkpt lat="42.87836" lon="-1.60798">
        <ele>449.6</ele>
        <time>2021-03-07 12:05:02</time>
      </trkpt>
      <trkpt lat="42.87829" lon="-1.608">
        <ele>449.4</ele>
        <time>2021-03-07 12:05:03</time>
      </trkpt>
      <trkpt lat="42.87821" lon="-1.60802">
        <ele>449.4</ele>
        <time>2021-03-07 12:05:04</time>
      </trkpt>
      <trkpt lat="42.87814" lon="-1.60804">
        <ele>449.2</ele>
        <time>2021-03-07 12:05:05</time>
      </trkpt>
      <trkpt lat="42.87806" lon="-1.60806">
        <ele>449</ele>
        <time>2021-03-07 12:05:06</time>
      </trkpt>
      <trkpt lat="42.87798" lon="-1.60808">
        <ele>448.8</ele>
        <time>2021-03-07 12:05:07</time>
      </trkpt>
      <trkpt lat="42.8779" lon="-1.6081">
        <ele>448.6</ele>
        <time>2021-03-07 12:05:08</time>
      </trkpt>
      <trkpt lat="42.87781" lon="-1.60813">
        <ele>448.4</ele>
        <time>2021-03-07 12:05:09</time>
      </trkpt>
      <trkpt lat="42.87773" lon="-1.60815">
        <ele>448</ele>
        <time>2021-03-07 12:05:10</time>
      </trkpt>
      <trkpt lat="42.87765" lon="-1.60817">
        <ele>447.2</ele>
        <time>2021-03-07 12:05:11</time>
      </trkpt>
      <trkpt lat="42.87756" lon="-1.60819">
        <ele>447</ele>
        <time>2021-03-07 12:05:12</time>
      </trkpt>
      <trkpt lat="42.87748" lon="-1.60821">
        <ele>446.8</ele>
        <time>2021-03-07 12:05:13</time>
      </trkpt>
      <trkpt lat="42.8774" lon="-1.60823">
        <ele>446.4</ele>
        <time>2021-03-07 12:05:14</time>
      </trkpt>
      <trkpt lat="42.87731" lon="-1.60826">
        <ele>446</ele>
        <time>2021-03-07 12:05:15</time>
      </trkpt>
      <trkpt lat="42.87723" lon="-1.60828">
        <ele>445.6</ele>
        <time>2021-03-07 12:05:16</time>
      </trkpt>
      <trkpt lat="42.87714" lon="-1.6083">
        <ele>445.2</ele>
        <time>2021-03-07 12:05:17</time>
      </trkpt>
      <trkpt lat="42.87706" lon="-1.60832">
        <ele>445</ele>
        <time>2021-03-07 12:05:18</time>
      </trkpt>
      <trkpt lat="42.87697" lon="-1.60835">
        <ele>445</ele>
        <time>2021-03-07 12:05:19</time>
      </trkpt>
      <trkpt lat="42.87688" lon="-1.60837">
        <ele>444.8</ele>
        <time>2021-03-07 12:05:20</time>
      </trkpt>
      <trkpt lat="42.8768" lon="-1.6084">
        <ele>444.4</ele>
        <time>2021-03-07 12:05:21</time>
      </trkpt>
      <trkpt lat="42.87671" lon="-1.60842">
        <ele>444</ele>
        <time>2021-03-07 12:05:22</time>
      </trkpt>
      <trkpt lat="42.87662" lon="-1.60845">
        <ele>444</ele>
        <time>2021-03-07 12:05:23</time>
      </trkpt>
      <trkpt lat="42.87654" lon="-1.60847">
        <ele>443.8</ele>
        <time>2021-03-07 12:05:24</time>
      </trkpt>
      <trkpt lat="42.87645" lon="-1.60849">
        <ele>443.8</ele>
        <time>2021-03-07 12:05:25</time>
      </trkpt>
      <trkpt lat="42.87636" lon="-1.60852">
        <ele>443.6</ele>
        <time>2021-03-07 12:05:26</time>
      </trkpt>
      <trkpt lat="42.87627" lon="-1.60854">
        <ele>443.6</ele>
        <time>2021-03-07 12:05:27</time>
      </trkpt>
      <trkpt lat="42.87618" lon="-1.60856">
        <ele>443.6</ele>
        <time>2021-03-07 12:05:28</time>
      </trkpt>
      <trkpt lat="42.87609" lon="-1.60859">
        <ele>443.6</ele>
        <time>2021-03-07 12:05:29</time>
      </trkpt>
      <trkpt lat="42.87601" lon="-1.60861">
        <ele>443.6</ele>
        <time>2021-03-07 12:05:30</time>
      </trkpt>
      <trkpt lat="42.87592" lon="-1.60864">
        <ele>443.4</ele>
        <time>2021-03-07 12:05:31</time>
      </trkpt>
      <trkpt lat="42.87583" lon="-1.60867">
        <ele>443.4</ele>
        <time>2021-03-07 12:05:32</time>
      </trkpt>
      <trkpt lat="42.87574" lon="-1.6087">
        <ele>443.4</ele>
        <time>2021-03-07 12:05:33</time>
      </trkpt>
      <trkpt lat="42.87565" lon="-1.60873">
        <ele>443.2</ele>
        <time>2021-03-07 12:05:34</time>
      </trkpt>
      <trkpt lat="42.87556" lon="-1.60876">
        <ele>443</ele>
        <time>2021-03-07 12:05:35</time>
      </trkpt>
      <trkpt lat="42.87546" lon="-1.60879">
        <ele>443</ele>
        <time>2021-03-07 12:05:36</time>
      </trkpt>
      <trkpt lat="42.87537" lon="-1.60883">
        <ele>442.8</ele>
        <time>2021-03-07 12:05:37</time>
      </trkpt>
      <trkpt lat="42.87528" lon="-1.60886">
        <ele>442.6</ele>
        <time>2021-03-07 12:05:38</time>
      </trkpt>
      <trkpt lat="42.87519" lon="-1.6089">
        <ele>442.2</ele>
        <time>2021-03-07 12:05:39</time>
      </trkpt>
      <trkpt lat="42.8751" lon="-1.60893">
        <ele>441.8</ele>
        <time>2021-03-07 12:05:40</time>
      </trkpt>
      <trkpt lat="42.87501" lon="-1.60897">
        <ele>441.8</ele>
        <time>2021-03-07 12:05:41</time>
      </trkpt>
      <trkpt lat="42.87493" lon="-1.609">
        <ele>441.6</ele>
        <time>2021-03-07 12:05:42</time>
      </trkpt>
      <trkpt lat="42.87484" lon="-1.60904">
        <ele>441.6</ele>
        <time>2021-03-07 12:05:43</time>
      </trkpt>
      <trkpt lat="42.87475" lon="-1.60907">
        <ele>441.6</ele>
        <time>2021-03-07 12:05:44</time>
      </trkpt>
      <trkpt lat="42.87466" lon="-1.60911">
        <ele>441.6</ele>
        <time>2021-03-07 12:05:45</time>
      </trkpt>
      <trkpt lat="42.87458" lon="-1.60915">
        <ele>441.6</ele>
        <time>2021-03-07 12:05:46</time>
      </trkpt>
      <trkpt lat="42.87449" lon="-1.6092">
        <ele>441.4</ele>
        <time>2021-03-07 12:05:47</time>
      </trkpt>
      <trkpt lat="42.87441" lon="-1.60923">
        <ele>441.4</ele>
        <time>2021-03-07 12:05:48</time>
      </trkpt>
      <trkpt lat="42.87433" lon="-1.60927">
        <ele>441.4</ele>
        <time>2021-03-07 12:05:49</time>
      </trkpt>
      <trkpt lat="42.87425" lon="-1.60931">
        <ele>441.4</ele>
        <time>2021-03-07 12:05:50</time>
      </trkpt>
      <trkpt lat="42.87416" lon="-1.60934">
        <ele>441.4</ele>
        <time>2021-03-07 12:05:51</time>
      </trkpt>
      <trkpt lat="42.87408" lon="-1.60938">
        <ele>441.2</ele>
        <time>2021-03-07 12:05:52</time>
      </trkpt>
      <trkpt lat="42.874" lon="-1.60941">
        <ele>441.2</ele>
        <time>2021-03-07 12:05:53</time>
      </trkpt>
      <trkpt lat="42.87392" lon="-1.60944">
        <ele>441.2</ele>
        <time>2021-03-07 12:05:54</time>
      </trkpt>
      <trkpt lat="42.87384" lon="-1.60947">
        <ele>441.2</ele>
        <time>2021-03-07 12:05:55</time>
      </trkpt>
      <trkpt lat="42.87376" lon="-1.6095">
        <ele>441.2</ele>
        <time>2021-03-07 12:05:56</time>
      </trkpt>
      <trkpt lat="42.87368" lon="-1.60952">
        <ele>441.2</ele>
        <time>2021-03-07 12:05:57</time>
      </trkpt>
      <trkpt lat="42.8736" lon="-1.60954">
        <ele>441.2</ele>
        <time>2021-03-07 12:05:58</time>
      </trkpt>
      <trkpt lat="42.87353" lon="-1.60956">
        <ele>441.2</ele>
        <time>2021-03-07 12:05:59</time>
      </trkpt>
      <trkpt lat="42.87345" lon="-1.60958">
        <ele>441</ele>
        <time>2021-03-07 12:06:00</time>
      </trkpt>
      <trkpt lat="42.87337" lon="-1.6096">
        <ele>441</ele>
        <time>2021-03-07 12:06:01</time>
      </trkpt>
      <trkpt lat="42.87329" lon="-1.60961">
        <ele>441</ele>
        <time>2021-03-07 12:06:02</time>
      </trkpt>
      <trkpt lat="42.87322" lon="-1.60961">
        <ele>440.8</ele>
        <time>2021-03-07 12:06:03</time>
      </trkpt>
      <trkpt lat="42.87314" lon="-1.60962">
        <ele>440.8</ele>
        <time>2021-03-07 12:06:04</time>
      </trkpt>
      <trkpt lat="42.87306" lon="-1.60962">
        <ele>440.8</ele>
        <time>2021-03-07 12:06:05</time>
      </trkpt>
      <trkpt lat="42.87299" lon="-1.60962">
        <ele>440.8</ele>
        <time>2021-03-07 12:06:06</time>
      </trkpt>
      <trkpt lat="42.87291" lon="-1.60962">
        <ele>440.8</ele>
        <time>2021-03-07 12:06:07</time>
      </trkpt>
      <trkpt lat="42.87283" lon="-1.60962">
        <ele>440.6</ele>
        <time>2021-03-07 12:06:08</time>
      </trkpt>
      <trkpt lat="42.87275" lon="-1.60961">
        <ele>440.6</ele>
        <time>2021-03-07 12:06:09</time>
      </trkpt>
      <trkpt lat="42.87268" lon="-1.60961">
        <ele>440.6</ele>
        <time>2021-03-07 12:06:10</time>
      </trkpt>
      <trkpt lat="42.8726" lon="-1.6096">
        <ele>440.6</ele>
        <time>2021-03-07 12:06:11</time>
      </trkpt>
      <trkpt lat="42.87253" lon="-1.6096">
        <ele>440.6</ele>
        <time>2021-03-07 12:06:12</time>
      </trkpt>
      <trkpt lat="42.87245" lon="-1.60959">
        <ele>440.6</ele>
        <time>2021-03-07 12:06:13</time>
      </trkpt>
      <trkpt lat="42.87237" lon="-1.60959">
        <ele>440.6</ele>
        <time>2021-03-07 12:06:14</time>
      </trkpt>
      <trkpt lat="42.8723" lon="-1.60958">
        <ele>440.6</ele>
        <time>2021-03-07 12:06:15</time>
      </trkpt>
      <trkpt lat="42.87222" lon="-1.60956">
        <ele>440.6</ele>
        <time>2021-03-07 12:06:16</time>
      </trkpt>
      <trkpt lat="42.87214" lon="-1.60954">
        <ele>440.4</ele>
        <time>2021-03-07 12:06:17</time>
      </trkpt>
      <trkpt lat="42.87206" lon="-1.60952">
        <ele>440.4</ele>
        <time>2021-03-07 12:06:18</time>
      </trkpt>
      <trkpt lat="42.87199" lon="-1.6095">
        <ele>440.4</ele>
        <time>2021-03-07 12:06:19</time>
      </trkpt>
      <trkpt lat="42.87191" lon="-1.60948">
        <ele>440.4</ele>
        <time>2021-03-07 12:06:20</time>
      </trkpt>
      <trkpt lat="42.87183" lon="-1.60946">
        <ele>440.4</ele>
        <time>2021-03-07 12:06:21</time>
      </trkpt>
      <trkpt lat="42.87175" lon="-1.60944">
        <ele>440.2</ele>
        <time>2021-03-07 12:06:22</time>
      </trkpt>
      <trkpt lat="42.87167" lon="-1.60942">
        <ele>440.2</ele>
        <time>2021-03-07 12:06:23</time>
      </trkpt>
      <trkpt lat="42.87159" lon="-1.60941">
        <ele>440.2</ele>
        <time>2021-03-07 12:06:24</time>
      </trkpt>
      <trkpt lat="42.87151" lon="-1.6094">
        <ele>440.2</ele>
        <time>2021-03-07 12:06:25</time>
      </trkpt>
      <trkpt lat="42.87143" lon="-1.60938">
        <ele>440.2</ele>
        <time>2021-03-07 12:06:26</time>
      </trkpt>
      <trkpt lat="42.87134" lon="-1.60937">
        <ele>440</ele>
        <time>2021-03-07 12:06:27</time>
      </trkpt>
      <trkpt lat="42.87125" lon="-1.60937">
        <ele>440</ele>
        <time>2021-03-07 12:06:28</time>
      </trkpt>
      <trkpt lat="42.87117" lon="-1.60937">
        <ele>439.8</ele>
        <time>2021-03-07 12:06:29</time>
      </trkpt>
      <trkpt lat="42.87108" lon="-1.60937">
        <ele>439.8</ele>
        <time>2021-03-07 12:06:30</time>
      </trkpt>
      <trkpt lat="42.87099" lon="-1.60938">
        <ele>439.8</ele>
        <time>2021-03-07 12:06:31</time>
      </trkpt>
      <trkpt lat="42.8709" lon="-1.60939">
        <ele>439.6</ele>
        <time>2021-03-07 12:06:32</time>
      </trkpt>
      <trkpt lat="42.87081" lon="-1.6094">
        <ele>439.6</ele>
        <time>2021-03-07 12:06:33</time>
      </trkpt>
      <trkpt lat="42.87072" lon="-1.60943">
        <ele>439.6</ele>
        <time>2021-03-07 12:06:34</time>
      </trkpt>
      <trkpt lat="42.87063" lon="-1.60946">
        <ele>439.6</ele>
        <time>2021-03-07 12:06:35</time>
      </trkpt>
      <trkpt lat="42.87055" lon="-1.60949">
        <ele>439.2</ele>
        <time>2021-03-07 12:06:36</time>
      </trkpt>
      <trkpt lat="42.87046" lon="-1.60953">
        <ele>439</ele>
        <time>2021-03-07 12:06:37</time>
      </trkpt>
      <trkpt lat="42.87038" lon="-1.60958">
        <ele>438.8</ele>
        <time>2021-03-07 12:06:38</time>
      </trkpt>
      <trkpt lat="42.87029" lon="-1.60962">
        <ele>438.8</ele>
        <time>2021-03-07 12:06:39</time>
      </trkpt>
      <trkpt lat="42.87021" lon="-1.60967">
        <ele>438.6</ele>
        <time>2021-03-07 12:06:40</time>
      </trkpt>
      <trkpt lat="42.87013" lon="-1.60973">
        <ele>438.4</ele>
        <time>2021-03-07 12:06:41</time>
      </trkpt>
      <trkpt lat="42.87005" lon="-1.6098">
        <ele>438.4</ele>
        <time>2021-03-07 12:06:42</time>
      </trkpt>
      <trkpt lat="42.86997" lon="-1.60986">
        <ele>438.2</ele>
        <time>2021-03-07 12:06:43</time>
      </trkpt>
      <trkpt lat="42.8699" lon="-1.60993">
        <ele>438.2</ele>
        <time>2021-03-07 12:06:44</time>
      </trkpt>
      <trkpt lat="42.86983" lon="-1.60999">
        <ele>438.2</ele>
        <time>2021-03-07 12:06:45</time>
      </trkpt>
      <trkpt lat="42.86976" lon="-1.61006">
        <ele>438.2</ele>
        <time>2021-03-07 12:06:46</time>
      </trkpt>
      <trkpt lat="42.86969" lon="-1.61012">
        <ele>438.2</ele>
        <time>2021-03-07 12:06:47</time>
      </trkpt>
      <trkpt lat="42.86962" lon="-1.61019">
        <ele>438.2</ele>
        <time>2021-03-07 12:06:48</time>
      </trkpt>
      <trkpt lat="42.86956" lon="-1.61025">
        <ele>438.2</ele>
        <time>2021-03-07 12:06:49</time>
      </trkpt>
      <trkpt lat="42.86949" lon="-1.61032">
        <ele>438.4</ele>
        <time>2021-03-07 12:06:50</time>
      </trkpt>
      <trkpt lat="42.86943" lon="-1.61038">
        <ele>438.4</ele>
        <time>2021-03-07 12:06:51</time>
      </trkpt>
      <trkpt lat="42.86936" lon="-1.61043">
        <ele>438.4</ele>
        <time>2021-03-07 12:06:52</time>
      </trkpt>
      <trkpt lat="42.8693" lon="-1.61049">
        <ele>438.6</ele>
        <time>2021-03-07 12:06:53</time>
      </trkpt>
      <trkpt lat="42.86923" lon="-1.61054">
        <ele>438.6</ele>
        <time>2021-03-07 12:06:54</time>
      </trkpt>
      <trkpt lat="42.86917" lon="-1.61059">
        <ele>438.6</ele>
        <time>2021-03-07 12:06:55</time>
      </trkpt>
      <trkpt lat="42.8691" lon="-1.61063">
        <ele>438.8</ele>
        <time>2021-03-07 12:06:56</time>
      </trkpt>
      <trkpt lat="42.86904" lon="-1.61068">
        <ele>439</ele>
        <time>2021-03-07 12:06:57</time>
      </trkpt>
      <trkpt lat="42.86897" lon="-1.61072">
        <ele>438.8</ele>
        <time>2021-03-07 12:06:58</time>
      </trkpt>
      <trkpt lat="42.8689" lon="-1.61076">
        <ele>439</ele>
        <time>2021-03-07 12:06:59</time>
      </trkpt>
      <trkpt lat="42.86883" lon="-1.6108">
        <ele>439.2</ele>
        <time>2021-03-07 12:07:00</time>
      </trkpt>
      <trkpt lat="42.86876" lon="-1.61084">
        <ele>439</ele>
        <time>2021-03-07 12:07:01</time>
      </trkpt>
      <trkpt lat="42.8687" lon="-1.61087">
        <ele>439.2</ele>
        <time>2021-03-07 12:07:02</time>
      </trkpt>
      <trkpt lat="42.86863" lon="-1.61091">
        <ele>439.4</ele>
        <time>2021-03-07 12:07:03</time>
      </trkpt>
      <trkpt lat="42.86856" lon="-1.61094">
        <ele>439.4</ele>
        <time>2021-03-07 12:07:04</time>
      </trkpt>
      <trkpt lat="42.86849" lon="-1.61097">
        <ele>439.4</ele>
        <time>2021-03-07 12:07:05</time>
      </trkpt>
      <trkpt lat="42.86842" lon="-1.611">
        <ele>439.4</ele>
        <time>2021-03-07 12:07:06</time>
      </trkpt>
      <trkpt lat="42.86835" lon="-1.61103">
        <ele>439.6</ele>
        <time>2021-03-07 12:07:07</time>
      </trkpt>
      <trkpt lat="42.86828" lon="-1.61107">
        <ele>439.6</ele>
        <time>2021-03-07 12:07:08</time>
      </trkpt>
      <trkpt lat="42.86821" lon="-1.6111">
        <ele>439.6</ele>
        <time>2021-03-07 12:07:09</time>
      </trkpt>
      <trkpt lat="42.86813" lon="-1.61114">
        <ele>439.6</ele>
        <time>2021-03-07 12:07:10</time>
      </trkpt>
      <trkpt lat="42.86806" lon="-1.61117">
        <ele>439.6</ele>
        <time>2021-03-07 12:07:11</time>
      </trkpt>
      <trkpt lat="42.86799" lon="-1.6112">
        <ele>439.6</ele>
        <time>2021-03-07 12:07:12</time>
      </trkpt>
      <trkpt lat="42.86791" lon="-1.61124">
        <ele>439.6</ele>
        <time>2021-03-07 12:07:13</time>
      </trkpt>
      <trkpt lat="42.86784" lon="-1.61128">
        <ele>439.6</ele>
        <time>2021-03-07 12:07:14</time>
      </trkpt>
      <trkpt lat="42.86777" lon="-1.61131">
        <ele>439.6</ele>
        <time>2021-03-07 12:07:15</time>
      </trkpt>
      <trkpt lat="42.86769" lon="-1.61135">
        <ele>439.6</ele>
        <time>2021-03-07 12:07:16</time>
      </trkpt>
      <trkpt lat="42.86761" lon="-1.61139">
        <ele>439.6</ele>
        <time>2021-03-07 12:07:17</time>
      </trkpt>
      <trkpt lat="42.86754" lon="-1.61142">
        <ele>439.6</ele>
        <time>2021-03-07 12:07:18</time>
      </trkpt>
      <trkpt lat="42.86746" lon="-1.61146">
        <ele>439.6</ele>
        <time>2021-03-07 12:07:19</time>
      </trkpt>
      <trkpt lat="42.86738" lon="-1.6115">
        <ele>439.6</ele>
        <time>2021-03-07 12:07:20</time>
      </trkpt>
      <trkpt lat="42.8673" lon="-1.61153">
        <ele>439.6</ele>
        <time>2021-03-07 12:07:21</time>
      </trkpt>
      <trkpt lat="42.86721" lon="-1.61157">
        <ele>439.6</ele>
        <time>2021-03-07 12:07:22</time>
      </trkpt>
      <trkpt lat="42.86713" lon="-1.61161">
        <ele>439.6</ele>
        <time>2021-03-07 12:07:23</time>
      </trkpt>
      <trkpt lat="42.86705" lon="-1.61165">
        <ele>439.4</ele>
        <time>2021-03-07 12:07:24</time>
      </trkpt>
      <trkpt lat="42.86696" lon="-1.61169">
        <ele>439.2</ele>
        <time>2021-03-07 12:07:25</time>
      </trkpt>
      <trkpt lat="42.86688" lon="-1.61173">
        <ele>439</ele>
        <time>2021-03-07 12:07:26</time>
      </trkpt>
      <trkpt lat="42.8668" lon="-1.61177">
        <ele>438.8</ele>
        <time>2021-03-07 12:07:27</time>
      </trkpt>
      <trkpt lat="42.86671" lon="-1.61181">
        <ele>438.6</ele>
        <time>2021-03-07 12:07:28</time>
      </trkpt>
      <trkpt lat="42.86663" lon="-1.61185">
        <ele>438.4</ele>
        <time>2021-03-07 12:07:29</time>
      </trkpt>
      <trkpt lat="42.86654" lon="-1.61189">
        <ele>438.2</ele>
        <time>2021-03-07 12:07:30</time>
      </trkpt>
      <trkpt lat="42.86646" lon="-1.61193">
        <ele>437.8</ele>
        <time>2021-03-07 12:07:31</time>
      </trkpt>
      <trkpt lat="42.86637" lon="-1.61197">
        <ele>437.6</ele>
        <time>2021-03-07 12:07:32</time>
      </trkpt>
      <trkpt lat="42.86629" lon="-1.612">
        <ele>437.4</ele>
        <time>2021-03-07 12:07:33</time>
      </trkpt>
      <trkpt lat="42.86621" lon="-1.61204">
        <ele>436.8</ele>
        <time>2021-03-07 12:07:34</time>
      </trkpt>
      <trkpt lat="42.86612" lon="-1.61208">
        <ele>436.6</ele>
        <time>2021-03-07 12:07:35</time>
      </trkpt>
      <trkpt lat="42.86604" lon="-1.61211">
        <ele>436.2</ele>
        <time>2021-03-07 12:07:36</time>
      </trkpt>
      <trkpt lat="42.86596" lon="-1.61214">
        <ele>436.2</ele>
        <time>2021-03-07 12:07:37</time>
      </trkpt>
      <trkpt lat="42.86588" lon="-1.61217">
        <ele>435.8</ele>
        <time>2021-03-07 12:07:38</time>
      </trkpt>
      <trkpt lat="42.8658" lon="-1.61219">
        <ele>435.6</ele>
        <time>2021-03-07 12:07:39</time>
      </trkpt>
      <trkpt lat="42.86572" lon="-1.61221">
        <ele>435.6</ele>
        <time>2021-03-07 12:07:40</time>
      </trkpt>
      <trkpt lat="42.86564" lon="-1.61223">
        <ele>435.6</ele>
        <time>2021-03-07 12:07:41</time>
      </trkpt>
      <trkpt lat="42.86556" lon="-1.61224">
        <ele>435.6</ele>
        <time>2021-03-07 12:07:42</time>
      </trkpt>
      <trkpt lat="42.86549" lon="-1.61226">
        <ele>435.6</ele>
        <time>2021-03-07 12:07:43</time>
      </trkpt>
      <trkpt lat="42.86542" lon="-1.61227">
        <ele>435.6</ele>
        <time>2021-03-07 12:07:44</time>
      </trkpt>
      <trkpt lat="42.86534" lon="-1.61228">
        <ele>435.6</ele>
        <time>2021-03-07 12:07:45</time>
      </trkpt>
      <trkpt lat="42.86527" lon="-1.61228">
        <ele>435.6</ele>
        <time>2021-03-07 12:07:46</time>
      </trkpt>
      <trkpt lat="42.8652" lon="-1.61228">
        <ele>435.6</ele>
        <time>2021-03-07 12:07:47</time>
      </trkpt>
      <trkpt lat="42.86514" lon="-1.61228">
        <ele>435.6</ele>
        <time>2021-03-07 12:07:48</time>
      </trkpt>
      <trkpt lat="42.86507" lon="-1.61228">
        <ele>435.6</ele>
        <time>2021-03-07 12:07:49</time>
      </trkpt>
      <trkpt lat="42.865" lon="-1.61227">
        <ele>435.8</ele>
        <time>2021-03-07 12:07:50</time>
      </trkpt>
      <trkpt lat="42.86493" lon="-1.61227">
        <ele>436</ele>
        <time>2021-03-07 12:07:51</time>
      </trkpt>
      <trkpt lat="42.86486" lon="-1.61227">
        <ele>436</ele>
        <time>2021-03-07 12:07:52</time>
      </trkpt>
      <trkpt lat="42.86479" lon="-1.61226">
        <ele>436.2</ele>
        <time>2021-03-07 12:07:53</time>
      </trkpt>
      <trkpt lat="42.86473" lon="-1.61225">
        <ele>436.2</ele>
        <time>2021-03-07 12:07:54</time>
      </trkpt>
      <trkpt lat="42.86467" lon="-1.61225">
        <ele>436.6</ele>
        <time>2021-03-07 12:07:55</time>
      </trkpt>
      <trkpt lat="42.8646" lon="-1.61224">
        <ele>436.8</ele>
        <time>2021-03-07 12:07:56</time>
      </trkpt>
      <trkpt lat="42.86454" lon="-1.61223">
        <ele>437.2</ele>
        <time>2021-03-07 12:07:57</time>
      </trkpt>
      <trkpt lat="42.86448" lon="-1.61222">
        <ele>437.6</ele>
        <time>2021-03-07 12:07:58</time>
      </trkpt>
      <trkpt lat="42.86442" lon="-1.61222">
        <ele>437.8</ele>
        <time>2021-03-07 12:07:59</time>
      </trkpt>
      <trkpt lat="42.86436" lon="-1.61221">
        <ele>438</ele>
        <time>2021-03-07 12:08:00</time>
      </trkpt>
      <trkpt lat="42.8643" lon="-1.6122">
        <ele>438.2</ele>
        <time>2021-03-07 12:08:01</time>
      </trkpt>
      <trkpt lat="42.86424" lon="-1.6122">
        <ele>438.6</ele>
        <time>2021-03-07 12:08:02</time>
      </trkpt>
      <trkpt lat="42.86418" lon="-1.61219">
        <ele>439</ele>
        <time>2021-03-07 12:08:03</time>
      </trkpt>
      <trkpt lat="42.86413" lon="-1.61219">
        <ele>439.4</ele>
        <time>2021-03-07 12:08:04</time>
      </trkpt>
      <trkpt lat="42.86407" lon="-1.61219">
        <ele>439.8</ele>
        <time>2021-03-07 12:08:05</time>
      </trkpt>
      <trkpt lat="42.86401" lon="-1.61218">
        <ele>440.2</ele>
        <time>2021-03-07 12:08:06</time>
      </trkpt>
      <trkpt lat="42.86395" lon="-1.61218">
        <ele>440.6</ele>
        <time>2021-03-07 12:08:07</time>
      </trkpt>
      <trkpt lat="42.8639" lon="-1.61218">
        <ele>441</ele>
        <time>2021-03-07 12:08:08</time>
      </trkpt>
      <trkpt lat="42.86384" lon="-1.61219">
        <ele>441.2</ele>
        <time>2021-03-07 12:08:09</time>
      </trkpt>
      <trkpt lat="42.86379" lon="-1.61219">
        <ele>441.2</ele>
        <time>2021-03-07 12:08:10</time>
      </trkpt>
      <trkpt lat="42.86373" lon="-1.6122">
        <ele>441.4</ele>
        <time>2021-03-07 12:08:11</time>
      </trkpt>
      <trkpt lat="42.86368" lon="-1.61221">
        <ele>441.4</ele>
        <time>2021-03-07 12:08:12</time>
      </trkpt>
      <trkpt lat="42.86362" lon="-1.61222">
        <ele>441.6</ele>
        <time>2021-03-07 12:08:13</time>
      </trkpt>
      <trkpt lat="42.86357" lon="-1.61223">
        <ele>441.6</ele>
        <time>2021-03-07 12:08:14</time>
      </trkpt>
      <trkpt lat="42.86351" lon="-1.61224">
        <ele>441.8</ele>
        <time>2021-03-07 12:08:15</time>
      </trkpt>
      <trkpt lat="42.86345" lon="-1.61225">
        <ele>442.2</ele>
        <time>2021-03-07 12:08:16</time>
      </trkpt>
      <trkpt lat="42.8634" lon="-1.61226">
        <ele>442.4</ele>
        <time>2021-03-07 12:08:17</time>
      </trkpt>
      <trkpt lat="42.86334" lon="-1.61228">
        <ele>442.6</ele>
        <time>2021-03-07 12:08:18</time>
      </trkpt>
      <trkpt lat="42.86329" lon="-1.6123">
        <ele>442.6</ele>
        <time>2021-03-07 12:08:19</time>
      </trkpt>
      <trkpt lat="42.86323" lon="-1.61232">
        <ele>442.8</ele>
        <time>2021-03-07 12:08:20</time>
      </trkpt>
      <trkpt lat="42.86318" lon="-1.61235">
        <ele>443</ele>
        <time>2021-03-07 12:08:21</time>
      </trkpt>
      <trkpt lat="42.86313" lon="-1.61237">
        <ele>443.2</ele>
        <time>2021-03-07 12:08:22</time>
      </trkpt>
      <trkpt lat="42.86307" lon="-1.6124">
        <ele>443.2</ele>
        <time>2021-03-07 12:08:23</time>
      </trkpt>
      <trkpt lat="42.86301" lon="-1.61243">
        <ele>443.4</ele>
        <time>2021-03-07 12:08:24</time>
      </trkpt>
      <trkpt lat="42.86296" lon="-1.61246">
        <ele>443.6</ele>
        <time>2021-03-07 12:08:25</time>
      </trkpt>
      <trkpt lat="42.8629" lon="-1.6125">
        <ele>443.8</ele>
        <time>2021-03-07 12:08:26</time>
      </trkpt>
      <trkpt lat="42.86285" lon="-1.61253">
        <ele>443.8</ele>
        <time>2021-03-07 12:08:27</time>
      </trkpt>
      <trkpt lat="42.86279" lon="-1.61257">
        <ele>443.8</ele>
        <time>2021-03-07 12:08:28</time>
      </trkpt>
      <trkpt lat="42.86274" lon="-1.61261">
        <ele>444</ele>
        <time>2021-03-07 12:08:29</time>
      </trkpt>
      <trkpt lat="42.86268" lon="-1.61266">
        <ele>444</ele>
        <time>2021-03-07 12:08:30</time>
      </trkpt>
      <trkpt lat="42.86263" lon="-1.6127">
        <ele>444</ele>
        <time>2021-03-07 12:08:31</time>
      </trkpt>
      <trkpt lat="42.86257" lon="-1.61274">
        <ele>444</ele>
        <time>2021-03-07 12:08:32</time>
      </trkpt>
      <trkpt lat="42.86252" lon="-1.61279">
        <ele>444</ele>
        <time>2021-03-07 12:08:33</time>
      </trkpt>
      <trkpt lat="42.86246" lon="-1.61283">
        <ele>444</ele>
        <time>2021-03-07 12:08:34</time>
      </trkpt>
      <trkpt lat="42.8624" lon="-1.61288">
        <ele>444</ele>
        <time>2021-03-07 12:08:35</time>
      </trkpt>
      <trkpt lat="42.86235" lon="-1.61293">
        <ele>444</ele>
        <time>2021-03-07 12:08:36</time>
      </trkpt>
      <trkpt lat="42.86229" lon="-1.61299">
        <ele>444</ele>
        <time>2021-03-07 12:08:37</time>
      </trkpt>
      <trkpt lat="42.86223" lon="-1.61304">
        <ele>444</ele>
        <time>2021-03-07 12:08:38</time>
      </trkpt>
      <trkpt lat="42.86217" lon="-1.6131">
        <ele>444</ele>
        <time>2021-03-07 12:08:39</time>
      </trkpt>
      <trkpt lat="42.86211" lon="-1.61316">
        <ele>444</ele>
        <time>2021-03-07 12:08:40</time>
      </trkpt>
      <trkpt lat="42.86205" lon="-1.61322">
        <ele>444</ele>
        <time>2021-03-07 12:08:41</time>
      </trkpt>
      <trkpt lat="42.86199" lon="-1.61329">
        <ele>443.8</ele>
        <time>2021-03-07 12:08:42</time>
      </trkpt>
      <trkpt lat="42.86193" lon="-1.61335">
        <ele>443.6</ele>
        <time>2021-03-07 12:08:43</time>
      </trkpt>
      <trkpt lat="42.86187" lon="-1.61341">
        <ele>443.6</ele>
        <time>2021-03-07 12:08:44</time>
      </trkpt>
      <trkpt lat="42.8618" lon="-1.61348">
        <ele>443.6</ele>
        <time>2021-03-07 12:08:45</time>
      </trkpt>
      <trkpt lat="42.86174" lon="-1.61354">
        <ele>443.6</ele>
        <time>2021-03-07 12:08:46</time>
      </trkpt>
      <trkpt lat="42.86168" lon="-1.61361">
        <ele>443.4</ele>
        <time>2021-03-07 12:08:47</time>
      </trkpt>
      <trkpt lat="42.86162" lon="-1.61367">
        <ele>443.4</ele>
        <time>2021-03-07 12:08:48</time>
      </trkpt>
      <trkpt lat="42.86155" lon="-1.61374">
        <ele>443</ele>
        <time>2021-03-07 12:08:49</time>
      </trkpt>
      <trkpt lat="42.86149" lon="-1.61381">
        <ele>442.8</ele>
        <time>2021-03-07 12:08:50</time>
      </trkpt>
      <trkpt lat="42.86143" lon="-1.61387">
        <ele>442.8</ele>
        <time>2021-03-07 12:08:51</time>
      </trkpt>
      <trkpt lat="42.86136" lon="-1.61394">
        <ele>442.6</ele>
        <time>2021-03-07 12:08:52</time>
      </trkpt>
      <trkpt lat="42.8613" lon="-1.614">
        <ele>442.6</ele>
        <time>2021-03-07 12:08:53</time>
      </trkpt>
      <trkpt lat="42.86124" lon="-1.61407">
        <ele>442.4</ele>
        <time>2021-03-07 12:08:54</time>
      </trkpt>
      <trkpt lat="42.86117" lon="-1.61414">
        <ele>442.2</ele>
        <time>2021-03-07 12:08:55</time>
      </trkpt>
      <trkpt lat="42.86111" lon="-1.6142">
        <ele>442.2</ele>
        <time>2021-03-07 12:08:56</time>
      </trkpt>
      <trkpt lat="42.86104" lon="-1.61427">
        <ele>442</ele>
        <time>2021-03-07 12:08:57</time>
      </trkpt>
      <trkpt lat="42.86098" lon="-1.61434">
        <ele>442</ele>
        <time>2021-03-07 12:08:58</time>
      </trkpt>
      <trkpt lat="42.86092" lon="-1.6144">
        <ele>441.8</ele>
        <time>2021-03-07 12:08:59</time>
      </trkpt>
      <trkpt lat="42.86085" lon="-1.61447">
        <ele>441.8</ele>
        <time>2021-03-07 12:09:00</time>
      </trkpt>
      <trkpt lat="42.86079" lon="-1.61454">
        <ele>441.8</ele>
        <time>2021-03-07 12:09:01</time>
      </trkpt>
      <trkpt lat="42.86072" lon="-1.61461">
        <ele>441.8</ele>
        <time>2021-03-07 12:09:02</time>
      </trkpt>
      <trkpt lat="42.86066" lon="-1.61468">
        <ele>441.8</ele>
        <time>2021-03-07 12:09:03</time>
      </trkpt>
      <trkpt lat="42.8606" lon="-1.61475">
        <ele>441.8</ele>
        <time>2021-03-07 12:09:04</time>
      </trkpt>
      <trkpt lat="42.86053" lon="-1.61482">
        <ele>441.6</ele>
        <time>2021-03-07 12:09:05</time>
      </trkpt>
      <trkpt lat="42.86046" lon="-1.61489">
        <ele>441.6</ele>
        <time>2021-03-07 12:09:06</time>
      </trkpt>
      <trkpt lat="42.8604" lon="-1.61497">
        <ele>441.6</ele>
        <time>2021-03-07 12:09:07</time>
      </trkpt>
      <trkpt lat="42.86033" lon="-1.61504">
        <ele>441.6</ele>
        <time>2021-03-07 12:09:08</time>
      </trkpt>
      <trkpt lat="42.86026" lon="-1.61511">
        <ele>441.4</ele>
        <time>2021-03-07 12:09:09</time>
      </trkpt>
      <trkpt lat="42.86019" lon="-1.61518">
        <ele>441.4</ele>
        <time>2021-03-07 12:09:10</time>
      </trkpt>
      <trkpt lat="42.86013" lon="-1.61525">
        <ele>441.4</ele>
        <time>2021-03-07 12:09:11</time>
      </trkpt>
      <trkpt lat="42.86006" lon="-1.61533">
        <ele>441.2</ele>
        <time>2021-03-07 12:09:12</time>
      </trkpt>
      <trkpt lat="42.85999" lon="-1.6154">
        <ele>441.2</ele>
        <time>2021-03-07 12:09:13</time>
      </trkpt>
      <trkpt lat="42.85992" lon="-1.61547">
        <ele>441.2</ele>
        <time>2021-03-07 12:09:14</time>
      </trkpt>
      <trkpt lat="42.85985" lon="-1.61554">
        <ele>441.2</ele>
        <time>2021-03-07 12:09:15</time>
      </trkpt>
      <trkpt lat="42.85978" lon="-1.61561">
        <ele>441</ele>
        <time>2021-03-07 12:09:16</time>
      </trkpt>
      <trkpt lat="42.85971" lon="-1.61568">
        <ele>441</ele>
        <time>2021-03-07 12:09:17</time>
      </trkpt>
      <trkpt lat="42.85964" lon="-1.61575">
        <ele>440.8</ele>
        <time>2021-03-07 12:09:18</time>
      </trkpt>
      <trkpt lat="42.85957" lon="-1.61583">
        <ele>440.8</ele>
        <time>2021-03-07 12:09:19</time>
      </trkpt>
      <trkpt lat="42.85949" lon="-1.6159">
        <ele>440.6</ele>
        <time>2021-03-07 12:09:20</time>
      </trkpt>
      <trkpt lat="42.85942" lon="-1.61597">
        <ele>440.6</ele>
        <time>2021-03-07 12:09:21</time>
      </trkpt>
      <trkpt lat="42.85935" lon="-1.61604">
        <ele>440.6</ele>
        <time>2021-03-07 12:09:22</time>
      </trkpt>
      <trkpt lat="42.85928" lon="-1.61611">
        <ele>440.4</ele>
        <time>2021-03-07 12:09:23</time>
      </trkpt>
      <trkpt lat="42.85921" lon="-1.61618">
        <ele>440.4</ele>
        <time>2021-03-07 12:09:24</time>
      </trkpt>
      <trkpt lat="42.85913" lon="-1.61626">
        <ele>440.2</ele>
        <time>2021-03-07 12:09:25</time>
      </trkpt>
      <trkpt lat="42.85906" lon="-1.61633">
        <ele>440</ele>
        <time>2021-03-07 12:09:26</time>
      </trkpt>
      <trkpt lat="42.85899" lon="-1.6164">
        <ele>439.8</ele>
        <time>2021-03-07 12:09:27</time>
      </trkpt>
      <trkpt lat="42.85892" lon="-1.61647">
        <ele>439.6</ele>
        <time>2021-03-07 12:09:28</time>
      </trkpt>
      <trkpt lat="42.85884" lon="-1.61655">
        <ele>439.6</ele>
        <time>2021-03-07 12:09:29</time>
      </trkpt>
      <trkpt lat="42.85877" lon="-1.61662">
        <ele>439.4</ele>
        <time>2021-03-07 12:09:30</time>
      </trkpt>
      <trkpt lat="42.8587" lon="-1.61669">
        <ele>439</ele>
        <time>2021-03-07 12:09:31</time>
      </trkpt>
      <trkpt lat="42.85863" lon="-1.61677">
        <ele>438.8</ele>
        <time>2021-03-07 12:09:32</time>
      </trkpt>
      <trkpt lat="42.85856" lon="-1.61684">
        <ele>438.6</ele>
        <time>2021-03-07 12:09:33</time>
      </trkpt>
      <trkpt lat="42.85849" lon="-1.61691">
        <ele>438.4</ele>
        <time>2021-03-07 12:09:34</time>
      </trkpt>
      <trkpt lat="42.85842" lon="-1.61698">
        <ele>438.4</ele>
        <time>2021-03-07 12:09:35</time>
      </trkpt>
      <trkpt lat="42.85835" lon="-1.61705">
        <ele>438.4</ele>
        <time>2021-03-07 12:09:36</time>
      </trkpt>
      <trkpt lat="42.85828" lon="-1.61712">
        <ele>438.2</ele>
        <time>2021-03-07 12:09:37</time>
      </trkpt>
      <trkpt lat="42.85821" lon="-1.61719">
        <ele>438</ele>
        <time>2021-03-07 12:09:38</time>
      </trkpt>
      <trkpt lat="42.85814" lon="-1.61725">
        <ele>437.4</ele>
        <time>2021-03-07 12:09:39</time>
      </trkpt>
      <trkpt lat="42.85807" lon="-1.61732">
        <ele>437.4</ele>
        <time>2021-03-07 12:09:40</time>
      </trkpt>
      <trkpt lat="42.858" lon="-1.61739">
        <ele>437.4</ele>
        <time>2021-03-07 12:09:41</time>
      </trkpt>
      <trkpt lat="42.85793" lon="-1.61746">
        <ele>437.4</ele>
        <time>2021-03-07 12:09:42</time>
      </trkpt>
      <trkpt lat="42.85787" lon="-1.61752">
        <ele>437.2</ele>
        <time>2021-03-07 12:09:43</time>
      </trkpt>
      <trkpt lat="42.8578" lon="-1.61759">
        <ele>437.2</ele>
        <time>2021-03-07 12:09:44</time>
      </trkpt>
      <trkpt lat="42.85773" lon="-1.61766">
        <ele>437.2</ele>
        <time>2021-03-07 12:09:45</time>
      </trkpt>
      <trkpt lat="42.85766" lon="-1.61773">
        <ele>437.2</ele>
        <time>2021-03-07 12:09:46</time>
      </trkpt>
      <trkpt lat="42.8576" lon="-1.6178">
        <ele>437.2</ele>
        <time>2021-03-07 12:09:47</time>
      </trkpt>
      <trkpt lat="42.85753" lon="-1.61786">
        <ele>437.2</ele>
        <time>2021-03-07 12:09:48</time>
      </trkpt>
      <trkpt lat="42.85746" lon="-1.61793">
        <ele>437.4</ele>
        <time>2021-03-07 12:09:49</time>
      </trkpt>
      <trkpt lat="42.85739" lon="-1.618">
        <ele>437.4</ele>
        <time>2021-03-07 12:09:50</time>
      </trkpt>
      <trkpt lat="42.85732" lon="-1.61807">
        <ele>437.4</ele>
        <time>2021-03-07 12:09:51</time>
      </trkpt>
      <trkpt lat="42.85725" lon="-1.61814">
        <ele>437.4</ele>
        <time>2021-03-07 12:09:52</time>
      </trkpt>
      <trkpt lat="42.85719" lon="-1.61821">
        <ele>437.4</ele>
        <time>2021-03-07 12:09:53</time>
      </trkpt>
      <trkpt lat="42.85712" lon="-1.61827">
        <ele>437.4</ele>
        <time>2021-03-07 12:09:54</time>
      </trkpt>
      <trkpt lat="42.85705" lon="-1.61834">
        <ele>437.4</ele>
        <time>2021-03-07 12:09:55</time>
      </trkpt>
      <trkpt lat="42.85698" lon="-1.61841">
        <ele>437.4</ele>
        <time>2021-03-07 12:09:56</time>
      </trkpt>
      <trkpt lat="42.85691" lon="-1.61848">
        <ele>437.4</ele>
        <time>2021-03-07 12:09:57</time>
      </trkpt>
      <trkpt lat="42.85685" lon="-1.61854">
        <ele>437.6</ele>
        <time>2021-03-07 12:09:58</time>
      </trkpt>
      <trkpt lat="42.85678" lon="-1.61861">
        <ele>437.6</ele>
        <time>2021-03-07 12:09:59</time>
      </trkpt>
      <trkpt lat="42.85671" lon="-1.61868">
        <ele>437.6</ele>
        <time>2021-03-07 12:10:00</time>
      </trkpt>
      <trkpt lat="42.85664" lon="-1.61875">
        <ele>437.6</ele>
        <time>2021-03-07 12:10:01</time>
      </trkpt>
      <trkpt lat="42.85658" lon="-1.61882">
        <ele>437.4</ele>
        <time>2021-03-07 12:10:02</time>
      </trkpt>
      <trkpt lat="42.85651" lon="-1.61888">
        <ele>437.4</ele>
        <time>2021-03-07 12:10:03</time>
      </trkpt>
      <trkpt lat="42.85644" lon="-1.61895">
        <ele>437.4</ele>
        <time>2021-03-07 12:10:04</time>
      </trkpt>
      <trkpt lat="42.85637" lon="-1.61902">
        <ele>437.2</ele>
        <time>2021-03-07 12:10:05</time>
      </trkpt>
      <trkpt lat="42.85631" lon="-1.61908">
        <ele>437.2</ele>
        <time>2021-03-07 12:10:06</time>
      </trkpt>
      <trkpt lat="42.85624" lon="-1.61915">
        <ele>437.2</ele>
        <time>2021-03-07 12:10:07</time>
      </trkpt>
      <trkpt lat="42.85617" lon="-1.61921">
        <ele>437.2</ele>
        <time>2021-03-07 12:10:08</time>
      </trkpt>
      <trkpt lat="42.85611" lon="-1.61928">
        <ele>437.2</ele>
        <time>2021-03-07 12:10:09</time>
      </trkpt>
      <trkpt lat="42.85604" lon="-1.61934">
        <ele>437.2</ele>
        <time>2021-03-07 12:10:10</time>
      </trkpt>
      <trkpt lat="42.85598" lon="-1.61941">
        <ele>437.2</ele>
        <time>2021-03-07 12:10:11</time>
      </trkpt>
      <trkpt lat="42.85591" lon="-1.61948">
        <ele>437</ele>
        <time>2021-03-07 12:10:12</time>
      </trkpt>
      <trkpt lat="42.85585" lon="-1.61954">
        <ele>437</ele>
        <time>2021-03-07 12:10:13</time>
      </trkpt>
      <trkpt lat="42.85578" lon="-1.61961">
        <ele>437</ele>
        <time>2021-03-07 12:10:14</time>
      </trkpt>
      <trkpt lat="42.85571" lon="-1.61967">
        <ele>437</ele>
        <time>2021-03-07 12:10:15</time>
      </trkpt>
      <trkpt lat="42.85565" lon="-1.61974">
        <ele>437</ele>
        <time>2021-03-07 12:10:16</time>
      </trkpt>
      <trkpt lat="42.85558" lon="-1.61981">
        <ele>437</ele>
        <time>2021-03-07 12:10:17</time>
      </trkpt>
      <trkpt lat="42.85551" lon="-1.61987">
        <ele>437</ele>
        <time>2021-03-07 12:10:18</time>
      </trkpt>
      <trkpt lat="42.85545" lon="-1.61994">
        <ele>437</ele>
        <time>2021-03-07 12:10:19</time>
      </trkpt>
      <trkpt lat="42.85538" lon="-1.62001">
        <ele>437</ele>
        <time>2021-03-07 12:10:20</time>
      </trkpt>
      <trkpt lat="42.85531" lon="-1.62007">
        <ele>437</ele>
        <time>2021-03-07 12:10:21</time>
      </trkpt>
      <trkpt lat="42.85524" lon="-1.62014">
        <ele>436.8</ele>
        <time>2021-03-07 12:10:22</time>
      </trkpt>
      <trkpt lat="42.85518" lon="-1.6202">
        <ele>436.8</ele>
        <time>2021-03-07 12:10:23</time>
      </trkpt>
      <trkpt lat="42.85511" lon="-1.62027">
        <ele>436.8</ele>
        <time>2021-03-07 12:10:24</time>
      </trkpt>
      <trkpt lat="42.85504" lon="-1.62033">
        <ele>436.8</ele>
        <time>2021-03-07 12:10:25</time>
      </trkpt>
      <trkpt lat="42.85497" lon="-1.6204">
        <ele>436.8</ele>
        <time>2021-03-07 12:10:26</time>
      </trkpt>
      <trkpt lat="42.8549" lon="-1.62046">
        <ele>436.8</ele>
        <time>2021-03-07 12:10:27</time>
      </trkpt>
      <trkpt lat="42.85483" lon="-1.62053">
        <ele>436.8</ele>
        <time>2021-03-07 12:10:28</time>
      </trkpt>
      <trkpt lat="42.85476" lon="-1.6206">
        <ele>436.8</ele>
        <time>2021-03-07 12:10:29</time>
      </trkpt>
      <trkpt lat="42.85469" lon="-1.62067">
        <ele>436.8</ele>
        <time>2021-03-07 12:10:30</time>
      </trkpt>
      <trkpt lat="42.85462" lon="-1.62073">
        <ele>436.8</ele>
        <time>2021-03-07 12:10:31</time>
      </trkpt>
      <trkpt lat="42.85455" lon="-1.6208">
        <ele>436.8</ele>
        <time>2021-03-07 12:10:32</time>
      </trkpt>
      <trkpt lat="42.85448" lon="-1.62087">
        <ele>436.8</ele>
        <time>2021-03-07 12:10:33</time>
      </trkpt>
      <trkpt lat="42.85441" lon="-1.62094">
        <ele>436.8</ele>
        <time>2021-03-07 12:10:34</time>
      </trkpt>
      <trkpt lat="42.85434" lon="-1.62101">
        <ele>436.6</ele>
        <time>2021-03-07 12:10:35</time>
      </trkpt>
      <trkpt lat="42.85426" lon="-1.62107">
        <ele>436.6</ele>
        <time>2021-03-07 12:10:36</time>
      </trkpt>
      <trkpt lat="42.85419" lon="-1.62114">
        <ele>436.6</ele>
        <time>2021-03-07 12:10:37</time>
      </trkpt>
      <trkpt lat="42.85412" lon="-1.62121">
        <ele>436.6</ele>
        <time>2021-03-07 12:10:38</time>
      </trkpt>
      <trkpt lat="42.85405" lon="-1.62128">
        <ele>436.2</ele>
        <time>2021-03-07 12:10:39</time>
      </trkpt>
      <trkpt lat="42.85397" lon="-1.62135">
        <ele>436.2</ele>
        <time>2021-03-07 12:10:40</time>
      </trkpt>
      <trkpt lat="42.8539" lon="-1.62142">
        <ele>436.2</ele>
        <time>2021-03-07 12:10:41</time>
      </trkpt>
      <trkpt lat="42.85383" lon="-1.62149">
        <ele>436</ele>
        <time>2021-03-07 12:10:42</time>
      </trkpt>
      <trkpt lat="42.85375" lon="-1.62156">
        <ele>436</ele>
        <time>2021-03-07 12:10:43</time>
      </trkpt>
      <trkpt lat="42.85367" lon="-1.62163">
        <ele>436</ele>
        <time>2021-03-07 12:10:44</time>
      </trkpt>
      <trkpt lat="42.8536" lon="-1.6217">
        <ele>435.8</ele>
        <time>2021-03-07 12:10:45</time>
      </trkpt>
      <trkpt lat="42.85352" lon="-1.62176">
        <ele>435.8</ele>
        <time>2021-03-07 12:10:46</time>
      </trkpt>
      <trkpt lat="42.85344" lon="-1.62183">
        <ele>435.8</ele>
        <time>2021-03-07 12:10:47</time>
      </trkpt>
      <trkpt lat="42.85336" lon="-1.62189">
        <ele>435.8</ele>
        <time>2021-03-07 12:10:48</time>
      </trkpt>
      <trkpt lat="42.85327" lon="-1.62195">
        <ele>435.8</ele>
        <time>2021-03-07 12:10:49</time>
      </trkpt>
      <trkpt lat="42.85319" lon="-1.622">
        <ele>435.6</ele>
        <time>2021-03-07 12:10:50</time>
      </trkpt>
      <trkpt lat="42.8531" lon="-1.62205">
        <ele>435.2</ele>
        <time>2021-03-07 12:10:51</time>
      </trkpt>
      <trkpt lat="42.85302" lon="-1.6221">
        <ele>435.2</ele>
        <time>2021-03-07 12:10:52</time>
      </trkpt>
      <trkpt lat="42.85293" lon="-1.62215">
        <ele>434.8</ele>
        <time>2021-03-07 12:10:53</time>
      </trkpt>
      <trkpt lat="42.85284" lon="-1.62219">
        <ele>434.6</ele>
        <time>2021-03-07 12:10:54</time>
      </trkpt>
      <trkpt lat="42.85275" lon="-1.62223">
        <ele>434.4</ele>
        <time>2021-03-07 12:10:55</time>
      </trkpt>
      <trkpt lat="42.85266" lon="-1.62226">
        <ele>434.4</ele>
        <time>2021-03-07 12:10:56</time>
      </trkpt>
      <trkpt lat="42.85257" lon="-1.6223">
        <ele>434.2</ele>
        <time>2021-03-07 12:10:57</time>
      </trkpt>
      <trkpt lat="42.85247" lon="-1.62233">
        <ele>434</ele>
        <time>2021-03-07 12:10:58</time>
      </trkpt>
      <trkpt lat="42.85238" lon="-1.62236">
        <ele>433.8</ele>
        <time>2021-03-07 12:10:59</time>
      </trkpt>
      <trkpt lat="42.85228" lon="-1.62239">
        <ele>433.8</ele>
        <time>2021-03-07 12:11:00</time>
      </trkpt>
      <trkpt lat="42.85219" lon="-1.62242">
        <ele>433.8</ele>
        <time>2021-03-07 12:11:01</time>
      </trkpt>
      <trkpt lat="42.85209" lon="-1.62246">
        <ele>433.6</ele>
        <time>2021-03-07 12:11:02</time>
      </trkpt>
      <trkpt lat="42.852" lon="-1.62249">
        <ele>433.2</ele>
        <time>2021-03-07 12:11:03</time>
      </trkpt>
      <trkpt lat="42.8519" lon="-1.62253">
        <ele>432.8</ele>
        <time>2021-03-07 12:11:04</time>
      </trkpt>
      <trkpt lat="42.8518" lon="-1.62256">
        <ele>432.6</ele>
        <time>2021-03-07 12:11:05</time>
      </trkpt>
      <trkpt lat="42.85171" lon="-1.6226">
        <ele>432.4</ele>
        <time>2021-03-07 12:11:06</time>
      </trkpt>
      <trkpt lat="42.85161" lon="-1.62263">
        <ele>432.2</ele>
        <time>2021-03-07 12:11:07</time>
      </trkpt>
      <trkpt lat="42.85151" lon="-1.62267">
        <ele>432.2</ele>
        <time>2021-03-07 12:11:08</time>
      </trkpt>
      <trkpt lat="42.85142" lon="-1.62271">
        <ele>432</ele>
        <time>2021-03-07 12:11:09</time>
      </trkpt>
      <trkpt lat="42.85132" lon="-1.62276">
        <ele>431.8</ele>
        <time>2021-03-07 12:11:10</time>
      </trkpt>
      <trkpt lat="42.85123" lon="-1.6228">
        <ele>431.6</ele>
        <time>2021-03-07 12:11:11</time>
      </trkpt>
      <trkpt lat="42.85113" lon="-1.62285">
        <ele>431.4</ele>
        <time>2021-03-07 12:11:12</time>
      </trkpt>
      <trkpt lat="42.85104" lon="-1.6229">
        <ele>431</ele>
        <time>2021-03-07 12:11:13</time>
      </trkpt>
      <trkpt lat="42.85094" lon="-1.62296">
        <ele>430.6</ele>
        <time>2021-03-07 12:11:14</time>
      </trkpt>
      <trkpt lat="42.85085" lon="-1.62301">
        <ele>430.2</ele>
        <time>2021-03-07 12:11:15</time>
      </trkpt>
      <trkpt lat="42.85076" lon="-1.62307">
        <ele>430</ele>
        <time>2021-03-07 12:11:16</time>
      </trkpt>
      <trkpt lat="42.85066" lon="-1.62313">
        <ele>429.8</ele>
        <time>2021-03-07 12:11:17</time>
      </trkpt>
      <trkpt lat="42.85057" lon="-1.6232">
        <ele>429.6</ele>
        <time>2021-03-07 12:11:18</time>
      </trkpt>
      <trkpt lat="42.85048" lon="-1.62326">
        <ele>429.6</ele>
        <time>2021-03-07 12:11:19</time>
      </trkpt>
      <trkpt lat="42.85039" lon="-1.62333">
        <ele>429.4</ele>
        <time>2021-03-07 12:11:20</time>
      </trkpt>
      <trkpt lat="42.8503" lon="-1.62341">
        <ele>429.2</ele>
        <time>2021-03-07 12:11:21</time>
      </trkpt>
      <trkpt lat="42.85022" lon="-1.62348">
        <ele>429.2</ele>
        <time>2021-03-07 12:11:22</time>
      </trkpt>
      <trkpt lat="42.85013" lon="-1.62355">
        <ele>429</ele>
        <time>2021-03-07 12:11:23</time>
      </trkpt>
      <trkpt lat="42.85005" lon="-1.62363">
        <ele>429</ele>
        <time>2021-03-07 12:11:24</time>
      </trkpt>
      <trkpt lat="42.84996" lon="-1.62371">
        <ele>428.8</ele>
        <time>2021-03-07 12:11:25</time>
      </trkpt>
      <trkpt lat="42.84988" lon="-1.62379">
        <ele>428.8</ele>
        <time>2021-03-07 12:11:26</time>
      </trkpt>
      <trkpt lat="42.8498" lon="-1.62388">
        <ele>428.4</ele>
        <time>2021-03-07 12:11:27</time>
      </trkpt>
      <trkpt lat="42.84972" lon="-1.62396">
        <ele>428.4</ele>
        <time>2021-03-07 12:11:28</time>
      </trkpt>
      <trkpt lat="42.84964" lon="-1.62405">
        <ele>428.2</ele>
        <time>2021-03-07 12:11:29</time>
      </trkpt>
      <trkpt lat="42.84956" lon="-1.62414">
        <ele>428</ele>
        <time>2021-03-07 12:11:30</time>
      </trkpt>
      <trkpt lat="42.84948" lon="-1.62423">
        <ele>428</ele>
        <time>2021-03-07 12:11:31</time>
      </trkpt>
      <trkpt lat="42.84941" lon="-1.62432">
        <ele>427.8</ele>
        <time>2021-03-07 12:11:32</time>
      </trkpt>
      <trkpt lat="42.84933" lon="-1.6244">
        <ele>427.6</ele>
        <time>2021-03-07 12:11:33</time>
      </trkpt>
      <trkpt lat="42.84925" lon="-1.62448">
        <ele>427.4</ele>
        <time>2021-03-07 12:11:34</time>
      </trkpt>
      <trkpt lat="42.84916" lon="-1.62456">
        <ele>427.2</ele>
        <time>2021-03-07 12:11:35</time>
      </trkpt>
      <trkpt lat="42.84908" lon="-1.62464">
        <ele>427.2</ele>
        <time>2021-03-07 12:11:36</time>
      </trkpt>
      <trkpt lat="42.849" lon="-1.62471">
        <ele>427</ele>
        <time>2021-03-07 12:11:37</time>
      </trkpt>
      <trkpt lat="42.84891" lon="-1.62478">
        <ele>427</ele>
        <time>2021-03-07 12:11:38</time>
      </trkpt>
      <trkpt lat="42.84883" lon="-1.62484">
        <ele>427</ele>
        <time>2021-03-07 12:11:39</time>
      </trkpt>
      <trkpt lat="42.84874" lon="-1.62491">
        <ele>426.8</ele>
        <time>2021-03-07 12:11:40</time>
      </trkpt>
      <trkpt lat="42.84866" lon="-1.62496">
        <ele>426.8</ele>
        <time>2021-03-07 12:11:41</time>
      </trkpt>
      <trkpt lat="42.84857" lon="-1.62502">
        <ele>426.8</ele>
        <time>2021-03-07 12:11:42</time>
      </trkpt>
      <trkpt lat="42.84848" lon="-1.62507">
        <ele>426.6</ele>
        <time>2021-03-07 12:11:43</time>
      </trkpt>
      <trkpt lat="42.84839" lon="-1.62511">
        <ele>426.6</ele>
        <time>2021-03-07 12:11:44</time>
      </trkpt>
      <trkpt lat="42.84831" lon="-1.62516">
        <ele>426.6</ele>
        <time>2021-03-07 12:11:45</time>
      </trkpt>
      <trkpt lat="42.84822" lon="-1.6252">
        <ele>426.4</ele>
        <time>2021-03-07 12:11:46</time>
      </trkpt>
      <trkpt lat="42.84813" lon="-1.62523">
        <ele>426.4</ele>
        <time>2021-03-07 12:11:47</time>
      </trkpt>
      <trkpt lat="42.84804" lon="-1.62526">
        <ele>426.4</ele>
        <time>2021-03-07 12:11:48</time>
      </trkpt>
      <trkpt lat="42.84795" lon="-1.62529">
        <ele>426.2</ele>
        <time>2021-03-07 12:11:49</time>
      </trkpt>
      <trkpt lat="42.84786" lon="-1.62532">
        <ele>426.2</ele>
        <time>2021-03-07 12:11:50</time>
      </trkpt>
      <trkpt lat="42.84776" lon="-1.62534">
        <ele>426.2</ele>
        <time>2021-03-07 12:11:51</time>
      </trkpt>
      <trkpt lat="42.84767" lon="-1.62536">
        <ele>426.2</ele>
        <time>2021-03-07 12:11:52</time>
      </trkpt>
      <trkpt lat="42.84758" lon="-1.62538">
        <ele>426.2</ele>
        <time>2021-03-07 12:11:53</time>
      </trkpt>
      <trkpt lat="42.84749" lon="-1.62539">
        <ele>426</ele>
        <time>2021-03-07 12:11:54</time>
      </trkpt>
      <trkpt lat="42.84739" lon="-1.62539">
        <ele>426</ele>
        <time>2021-03-07 12:11:55</time>
      </trkpt>
      <trkpt lat="42.8473" lon="-1.62539">
        <ele>426</ele>
        <time>2021-03-07 12:11:56</time>
      </trkpt>
      <trkpt lat="42.84721" lon="-1.62539">
        <ele>425.8</ele>
        <time>2021-03-07 12:11:57</time>
      </trkpt>
      <trkpt lat="42.84712" lon="-1.62539">
        <ele>425.8</ele>
        <time>2021-03-07 12:11:58</time>
      </trkpt>
      <trkpt lat="42.84703" lon="-1.62539">
        <ele>425.8</ele>
        <time>2021-03-07 12:11:59</time>
      </trkpt>
      <trkpt lat="42.84694" lon="-1.62538">
        <ele>425.8</ele>
        <time>2021-03-07 12:12:00</time>
      </trkpt>
      <trkpt lat="42.84685" lon="-1.62537">
        <ele>425.8</ele>
        <time>2021-03-07 12:12:01</time>
      </trkpt>
      <trkpt lat="42.84676" lon="-1.62535">
        <ele>425.8</ele>
        <time>2021-03-07 12:12:02</time>
      </trkpt>
      <trkpt lat="42.84667" lon="-1.62533">
        <ele>425.8</ele>
        <time>2021-03-07 12:12:03</time>
      </trkpt>
      <trkpt lat="42.84658" lon="-1.62531">
        <ele>425.8</ele>
        <time>2021-03-07 12:12:04</time>
      </trkpt>
      <trkpt lat="42.8465" lon="-1.62529">
        <ele>425.6</ele>
        <time>2021-03-07 12:12:05</time>
      </trkpt>
      <trkpt lat="42.84641" lon="-1.62526">
        <ele>425.6</ele>
        <time>2021-03-07 12:12:06</time>
      </trkpt>
      <trkpt lat="42.84632" lon="-1.62522">
        <ele>425.6</ele>
        <time>2021-03-07 12:12:07</time>
      </trkpt>
      <trkpt lat="42.84624" lon="-1.62518">
        <ele>425.6</ele>
        <time>2021-03-07 12:12:08</time>
      </trkpt>
      <trkpt lat="42.84615" lon="-1.62513">
        <ele>425.6</ele>
        <time>2021-03-07 12:12:09</time>
      </trkpt>
      <trkpt lat="42.84607" lon="-1.62508">
        <ele>425.6</ele>
        <time>2021-03-07 12:12:10</time>
      </trkpt>
      <trkpt lat="42.84598" lon="-1.62501">
        <ele>425.8</ele>
        <time>2021-03-07 12:12:11</time>
      </trkpt>
      <trkpt lat="42.8459" lon="-1.62495">
        <ele>425.6</ele>
        <time>2021-03-07 12:12:12</time>
      </trkpt>
      <trkpt lat="42.84582" lon="-1.62488">
        <ele>425.4</ele>
        <time>2021-03-07 12:12:13</time>
      </trkpt>
      <trkpt lat="42.84574" lon="-1.62481">
        <ele>425.4</ele>
        <time>2021-03-07 12:12:14</time>
      </trkpt>
      <trkpt lat="42.84566" lon="-1.62474">
        <ele>425.4</ele>
        <time>2021-03-07 12:12:15</time>
      </trkpt>
      <trkpt lat="42.84559" lon="-1.62466">
        <ele>425.4</ele>
        <time>2021-03-07 12:12:16</time>
      </trkpt>
      <trkpt lat="42.84553" lon="-1.62458">
        <ele>425.4</ele>
        <time>2021-03-07 12:12:17</time>
      </trkpt>
      <trkpt lat="42.84546" lon="-1.62449">
        <ele>425.4</ele>
        <time>2021-03-07 12:12:18</time>
      </trkpt>
      <trkpt lat="42.8454" lon="-1.62441">
        <ele>425.4</ele>
        <time>2021-03-07 12:12:19</time>
      </trkpt>
      <trkpt lat="42.84533" lon="-1.62432">
        <ele>425.4</ele>
        <time>2021-03-07 12:12:20</time>
      </trkpt>
      <trkpt lat="42.84528" lon="-1.62422">
        <ele>425.4</ele>
        <time>2021-03-07 12:12:21</time>
      </trkpt>
      <trkpt lat="42.84522" lon="-1.62413">
        <ele>425.4</ele>
        <time>2021-03-07 12:12:22</time>
      </trkpt>
      <trkpt lat="42.84517" lon="-1.62403">
        <ele>425.6</ele>
        <time>2021-03-07 12:12:23</time>
      </trkpt>
      <trkpt lat="42.84512" lon="-1.62393">
        <ele>425.6</ele>
        <time>2021-03-07 12:12:24</time>
      </trkpt>
      <trkpt lat="42.84508" lon="-1.62382">
        <ele>425.6</ele>
        <time>2021-03-07 12:12:25</time>
      </trkpt>
      <trkpt lat="42.84503" lon="-1.62372">
        <ele>425.6</ele>
        <time>2021-03-07 12:12:26</time>
      </trkpt>
      <trkpt lat="42.84499" lon="-1.62361">
        <ele>425.6</ele>
        <time>2021-03-07 12:12:27</time>
      </trkpt>
      <trkpt lat="42.84495" lon="-1.62351">
        <ele>425.6</ele>
        <time>2021-03-07 12:12:28</time>
      </trkpt>
      <trkpt lat="42.8449" lon="-1.62339">
        <ele>425.6</ele>
        <time>2021-03-07 12:12:29</time>
      </trkpt>
      <trkpt lat="42.84486" lon="-1.62328">
        <ele>425.6</ele>
        <time>2021-03-07 12:12:30</time>
      </trkpt>
      <trkpt lat="42.84482" lon="-1.62317">
        <ele>425.8</ele>
        <time>2021-03-07 12:12:31</time>
      </trkpt>
      <trkpt lat="42.84477" lon="-1.62306">
        <ele>425.8</ele>
        <time>2021-03-07 12:12:32</time>
      </trkpt>
      <trkpt lat="42.84473" lon="-1.62296">
        <ele>425.8</ele>
        <time>2021-03-07 12:12:33</time>
      </trkpt>
      <trkpt lat="42.84468" lon="-1.62288">
        <ele>426</ele>
        <time>2021-03-07 12:12:34</time>
      </trkpt>
      <trkpt lat="42.84462" lon="-1.6228">
        <ele>426</ele>
        <time>2021-03-07 12:12:35</time>
      </trkpt>
      <trkpt lat="42.84455" lon="-1.62274">
        <ele>426</ele>
        <time>2021-03-07 12:12:36</time>
      </trkpt>
      <trkpt lat="42.84448" lon="-1.62268">
        <ele>426</ele>
        <time>2021-03-07 12:12:37</time>
      </trkpt>
      <trkpt lat="42.84442" lon="-1.62263">
        <ele>426</ele>
        <time>2021-03-07 12:12:38</time>
      </trkpt>
      <trkpt lat="42.84435" lon="-1.62258">
        <ele>426</ele>
        <time>2021-03-07 12:12:39</time>
      </trkpt>
      <trkpt lat="42.84429" lon="-1.62251">
        <ele>426</ele>
        <time>2021-03-07 12:12:40</time>
      </trkpt>
      <trkpt lat="42.84424" lon="-1.62243">
        <ele>426</ele>
        <time>2021-03-07 12:12:41</time>
      </trkpt>
      <trkpt lat="42.8442" lon="-1.62234">
        <ele>426.4</ele>
        <time>2021-03-07 12:12:42</time>
      </trkpt>
      <trkpt lat="42.84418" lon="-1.62224">
        <ele>426.4</ele>
        <time>2021-03-07 12:12:43</time>
      </trkpt>
      <trkpt lat="42.84417" lon="-1.62213">
        <ele>426.4</ele>
        <time>2021-03-07 12:12:44</time>
      </trkpt>
      <trkpt lat="42.84418" lon="-1.62202">
        <ele>427</ele>
        <time>2021-03-07 12:12:45</time>
      </trkpt>
      <trkpt lat="42.8442" lon="-1.62191">
        <ele>427</ele>
        <time>2021-03-07 12:12:46</time>
      </trkpt>
      <trkpt lat="42.84422" lon="-1.62181">
        <ele>427.2</ele>
        <time>2021-03-07 12:12:47</time>
      </trkpt>
      <trkpt lat="42.84423" lon="-1.62169">
        <ele>427.2</ele>
        <time>2021-03-07 12:12:48</time>
      </trkpt>
      <trkpt lat="42.84424" lon="-1.62158">
        <ele>427.2</ele>
        <time>2021-03-07 12:12:49</time>
      </trkpt>
      <trkpt lat="42.84424" lon="-1.62146">
        <ele>427.2</ele>
        <time>2021-03-07 12:12:50</time>
      </trkpt>
      <trkpt lat="42.84422" lon="-1.62135">
        <ele>427.2</ele>
        <time>2021-03-07 12:12:51</time>
      </trkpt>
      <trkpt lat="42.84419" lon="-1.62124">
        <ele>427.4</ele>
        <time>2021-03-07 12:12:52</time>
      </trkpt>
      <trkpt lat="42.84415" lon="-1.62114">
        <ele>427.4</ele>
        <time>2021-03-07 12:12:53</time>
      </trkpt>
      <trkpt lat="42.8441" lon="-1.62106">
        <ele>427.4</ele>
        <time>2021-03-07 12:12:54</time>
      </trkpt>
      <trkpt lat="42.84404" lon="-1.62098">
        <ele>427.4</ele>
        <time>2021-03-07 12:12:55</time>
      </trkpt>
      <trkpt lat="42.84397" lon="-1.62091">
        <ele>427.4</ele>
        <time>2021-03-07 12:12:56</time>
      </trkpt>
      <trkpt lat="42.8439" lon="-1.62085">
        <ele>427.6</ele>
        <time>2021-03-07 12:12:57</time>
      </trkpt>
      <trkpt lat="42.84383" lon="-1.62079">
        <ele>427.6</ele>
        <time>2021-03-07 12:12:58</time>
      </trkpt>
      <trkpt lat="42.84375" lon="-1.62074">
        <ele>427.6</ele>
        <time>2021-03-07 12:12:59</time>
      </trkpt>
      <trkpt lat="42.84367" lon="-1.62069">
        <ele>427.8</ele>
        <time>2021-03-07 12:13:00</time>
      </trkpt>
      <trkpt lat="42.84359" lon="-1.62064">
        <ele>427.8</ele>
        <time>2021-03-07 12:13:01</time>
      </trkpt>
      <trkpt lat="42.84352" lon="-1.6206">
        <ele>427.8</ele>
        <time>2021-03-07 12:13:02</time>
      </trkpt>
      <trkpt lat="42.84344" lon="-1.62055">
        <ele>428</ele>
        <time>2021-03-07 12:13:03</time>
      </trkpt>
      <trkpt lat="42.84337" lon="-1.6205">
        <ele>428</ele>
        <time>2021-03-07 12:13:04</time>
      </trkpt>
      <trkpt lat="42.84329" lon="-1.62046">
        <ele>428</ele>
        <time>2021-03-07 12:13:05</time>
      </trkpt>
      <trkpt lat="42.84322" lon="-1.62041">
        <ele>428.2</ele>
        <time>2021-03-07 12:13:06</time>
      </trkpt>
      <trkpt lat="42.84315" lon="-1.62036">
        <ele>428.2</ele>
        <time>2021-03-07 12:13:07</time>
      </trkpt>
      <trkpt lat="42.84308" lon="-1.62031">
        <ele>428.4</ele>
        <time>2021-03-07 12:13:08</time>
      </trkpt>
      <trkpt lat="42.84301" lon="-1.62026">
        <ele>428.4</ele>
        <time>2021-03-07 12:13:09</time>
      </trkpt>
      <trkpt lat="42.84294" lon="-1.6202">
        <ele>428.6</ele>
        <time>2021-03-07 12:13:10</time>
      </trkpt>
      <trkpt lat="42.84287" lon="-1.62014">
        <ele>428.6</ele>
        <time>2021-03-07 12:13:11</time>
      </trkpt>
      <trkpt lat="42.84281" lon="-1.62008">
        <ele>428.6</ele>
        <time>2021-03-07 12:13:12</time>
      </trkpt>
      <trkpt lat="42.84274" lon="-1.62002">
        <ele>428.6</ele>
        <time>2021-03-07 12:13:13</time>
      </trkpt>
      <trkpt lat="42.84269" lon="-1.61995">
        <ele>429</ele>
        <time>2021-03-07 12:13:14</time>
      </trkpt>
      <trkpt lat="42.84263" lon="-1.61989">
        <ele>429.2</ele>
        <time>2021-03-07 12:13:15</time>
      </trkpt>
      <trkpt lat="42.84257" lon="-1.61982">
        <ele>429.2</ele>
        <time>2021-03-07 12:13:16</time>
      </trkpt>
      <trkpt lat="42.84252" lon="-1.61975">
        <ele>429.4</ele>
        <time>2021-03-07 12:13:17</time>
      </trkpt>
      <trkpt lat="42.84247" lon="-1.61968">
        <ele>429.6</ele>
        <time>2021-03-07 12:13:18</time>
      </trkpt>
      <trkpt lat="42.84242" lon="-1.6196">
        <ele>429.8</ele>
        <time>2021-03-07 12:13:19</time>
      </trkpt>
      <trkpt lat="42.84238" lon="-1.61952">
        <ele>429.8</ele>
        <time>2021-03-07 12:13:20</time>
      </trkpt>
      <trkpt lat="42.84233" lon="-1.61944">
        <ele>430</ele>
        <time>2021-03-07 12:13:21</time>
      </trkpt>
      <trkpt lat="42.84229" lon="-1.61936">
        <ele>430</ele>
        <time>2021-03-07 12:13:22</time>
      </trkpt>
      <trkpt lat="42.84225" lon="-1.61928">
        <ele>430.4</ele>
        <time>2021-03-07 12:13:23</time>
      </trkpt>
      <trkpt lat="42.84222" lon="-1.61919">
        <ele>430.8</ele>
        <time>2021-03-07 12:13:24</time>
      </trkpt>
      <trkpt lat="42.84218" lon="-1.61911">
        <ele>430.8</ele>
        <time>2021-03-07 12:13:25</time>
      </trkpt>
      <trkpt lat="42.84214" lon="-1.61902">
        <ele>431</ele>
        <time>2021-03-07 12:13:26</time>
      </trkpt>
      <trkpt lat="42.84211" lon="-1.61893">
        <ele>431.2</ele>
        <time>2021-03-07 12:13:27</time>
      </trkpt>
      <trkpt lat="42.84207" lon="-1.61885">
        <ele>431.4</ele>
        <time>2021-03-07 12:13:28</time>
      </trkpt>
      <trkpt lat="42.84204" lon="-1.61876">
        <ele>431.6</ele>
        <time>2021-03-07 12:13:29</time>
      </trkpt>
      <trkpt lat="42.842" lon="-1.61867">
        <ele>431.8</ele>
        <time>2021-03-07 12:13:30</time>
      </trkpt>
      <trkpt lat="42.84197" lon="-1.61859">
        <ele>432</ele>
        <time>2021-03-07 12:13:31</time>
      </trkpt>
      <trkpt lat="42.84194" lon="-1.6185">
        <ele>432.2</ele>
        <time>2021-03-07 12:13:32</time>
      </trkpt>
      <trkpt lat="42.84191" lon="-1.61841">
        <ele>432.2</ele>
        <time>2021-03-07 12:13:33</time>
      </trkpt>
      <trkpt lat="42.84188" lon="-1.61832">
        <ele>432.4</ele>
        <time>2021-03-07 12:13:34</time>
      </trkpt>
      <trkpt lat="42.84185" lon="-1.61823">
        <ele>432.4</ele>
        <time>2021-03-07 12:13:35</time>
      </trkpt>
      <trkpt lat="42.84182" lon="-1.61815">
        <ele>432.6</ele>
        <time>2021-03-07 12:13:36</time>
      </trkpt>
      <trkpt lat="42.84179" lon="-1.61806">
        <ele>432.8</ele>
        <time>2021-03-07 12:13:37</time>
      </trkpt>
      <trkpt lat="42.84177" lon="-1.61798">
        <ele>433</ele>
        <time>2021-03-07 12:13:38</time>
      </trkpt>
      <trkpt lat="42.84174" lon="-1.61789">
        <ele>433.2</ele>
        <time>2021-03-07 12:13:39</time>
      </trkpt>
      <trkpt lat="42.84171" lon="-1.61781">
        <ele>433.4</ele>
        <time>2021-03-07 12:13:40</time>
      </trkpt>
      <trkpt lat="42.84169" lon="-1.61772">
        <ele>433.6</ele>
        <time>2021-03-07 12:13:41</time>
      </trkpt>
      <trkpt lat="42.84166" lon="-1.61764">
        <ele>433.8</ele>
        <time>2021-03-07 12:13:42</time>
      </trkpt>
      <trkpt lat="42.84164" lon="-1.61755">
        <ele>434.2</ele>
        <time>2021-03-07 12:13:43</time>
      </trkpt>
      <trkpt lat="42.84162" lon="-1.61747">
        <ele>434.4</ele>
        <time>2021-03-07 12:13:44</time>
      </trkpt>
      <trkpt lat="42.8416" lon="-1.61739">
        <ele>434.6</ele>
        <time>2021-03-07 12:13:45</time>
      </trkpt>
      <trkpt lat="42.84158" lon="-1.61731">
        <ele>434.6</ele>
        <time>2021-03-07 12:13:46</time>
      </trkpt>
      <trkpt lat="42.84155" lon="-1.61723">
        <ele>434.8</ele>
        <time>2021-03-07 12:13:47</time>
      </trkpt>
      <trkpt lat="42.84154" lon="-1.61715">
        <ele>435</ele>
        <time>2021-03-07 12:13:48</time>
      </trkpt>
      <trkpt lat="42.84152" lon="-1.61706">
        <ele>435.2</ele>
        <time>2021-03-07 12:13:49</time>
      </trkpt>
      <trkpt lat="42.8415" lon="-1.61698">
        <ele>435.4</ele>
        <time>2021-03-07 12:13:50</time>
      </trkpt>
      <trkpt lat="42.84148" lon="-1.6169">
        <ele>435.8</ele>
        <time>2021-03-07 12:13:51</time>
      </trkpt>
      <trkpt lat="42.84147" lon="-1.61682">
        <ele>436.2</ele>
        <time>2021-03-07 12:13:52</time>
      </trkpt>
      <trkpt lat="42.84145" lon="-1.61674">
        <ele>436.4</ele>
        <time>2021-03-07 12:13:53</time>
      </trkpt>
      <trkpt lat="42.84144" lon="-1.61665">
        <ele>436.8</ele>
        <time>2021-03-07 12:13:54</time>
      </trkpt>
      <trkpt lat="42.84143" lon="-1.61657">
        <ele>437</ele>
        <time>2021-03-07 12:13:55</time>
      </trkpt>
      <trkpt lat="42.84141" lon="-1.61649">
        <ele>437.2</ele>
        <time>2021-03-07 12:13:56</time>
      </trkpt>
      <trkpt lat="42.8414" lon="-1.61641">
        <ele>437.4</ele>
        <time>2021-03-07 12:13:57</time>
      </trkpt>
      <trkpt lat="42.84139" lon="-1.61633">
        <ele>437.8</ele>
        <time>2021-03-07 12:13:58</time>
      </trkpt>
      <trkpt lat="42.84137" lon="-1.61624">
        <ele>438</ele>
        <time>2021-03-07 12:13:59</time>
      </trkpt>
      <trkpt lat="42.84136" lon="-1.61616">
        <ele>438</ele>
        <time>2021-03-07 12:14:00</time>
      </trkpt>
      <trkpt lat="42.84135" lon="-1.61607">
        <ele>438.2</ele>
        <time>2021-03-07 12:14:01</time>
      </trkpt>
      <trkpt lat="42.84133" lon="-1.61599">
        <ele>438.4</ele>
        <time>2021-03-07 12:14:02</time>
      </trkpt>
      <trkpt lat="42.84132" lon="-1.61591">
        <ele>439</ele>
        <time>2021-03-07 12:14:03</time>
      </trkpt>
      <trkpt lat="42.84131" lon="-1.61583">
        <ele>439.2</ele>
        <time>2021-03-07 12:14:04</time>
      </trkpt>
      <trkpt lat="42.8413" lon="-1.61574">
        <ele>439.4</ele>
        <time>2021-03-07 12:14:05</time>
      </trkpt>
      <trkpt lat="42.84129" lon="-1.61566">
        <ele>439.6</ele>
        <time>2021-03-07 12:14:06</time>
      </trkpt>
      <trkpt lat="42.84127" lon="-1.61558">
        <ele>439.8</ele>
        <time>2021-03-07 12:14:07</time>
      </trkpt>
      <trkpt lat="42.84126" lon="-1.61549">
        <ele>440</ele>
        <time>2021-03-07 12:14:08</time>
      </trkpt>
      <trkpt lat="42.84125" lon="-1.61541">
        <ele>440.2</ele>
        <time>2021-03-07 12:14:09</time>
      </trkpt>
      <trkpt lat="42.84124" lon="-1.61533">
        <ele>440.4</ele>
        <time>2021-03-07 12:14:10</time>
      </trkpt>
      <trkpt lat="42.84123" lon="-1.61525">
        <ele>440.6</ele>
        <time>2021-03-07 12:14:11</time>
      </trkpt>
      <trkpt lat="42.84122" lon="-1.61517">
        <ele>440.8</ele>
        <time>2021-03-07 12:14:12</time>
      </trkpt>
      <trkpt lat="42.8412" lon="-1.61508">
        <ele>440.8</ele>
        <time>2021-03-07 12:14:13</time>
      </trkpt>
      <trkpt lat="42.84119" lon="-1.615">
        <ele>441</ele>
        <time>2021-03-07 12:14:14</time>
      </trkpt>
      <trkpt lat="42.84118" lon="-1.61492">
        <ele>441.2</ele>
        <time>2021-03-07 12:14:15</time>
      </trkpt>
      <trkpt lat="42.84116" lon="-1.61483">
        <ele>441.2</ele>
        <time>2021-03-07 12:14:16</time>
      </trkpt>
      <trkpt lat="42.84115" lon="-1.61474">
        <ele>441.2</ele>
        <time>2021-03-07 12:14:17</time>
      </trkpt>
      <trkpt lat="42.84113" lon="-1.61466">
        <ele>441.4</ele>
        <time>2021-03-07 12:14:18</time>
      </trkpt>
      <trkpt lat="42.84112" lon="-1.61457">
        <ele>441.4</ele>
        <time>2021-03-07 12:14:19</time>
      </trkpt>
      <trkpt lat="42.8411" lon="-1.61448">
        <ele>441.4</ele>
        <time>2021-03-07 12:14:20</time>
      </trkpt>
      <trkpt lat="42.84108" lon="-1.6144">
        <ele>441.4</ele>
        <time>2021-03-07 12:14:21</time>
      </trkpt>
      <trkpt lat="42.84107" lon="-1.61431">
        <ele>441.4</ele>
        <time>2021-03-07 12:14:22</time>
      </trkpt>
      <trkpt lat="42.84105" lon="-1.61422">
        <ele>441.4</ele>
        <time>2021-03-07 12:14:23</time>
      </trkpt>
      <trkpt lat="42.84103" lon="-1.61413">
        <ele>441.6</ele>
        <time>2021-03-07 12:14:24</time>
      </trkpt>
      <trkpt lat="42.84101" lon="-1.61403">
        <ele>441.6</ele>
        <time>2021-03-07 12:14:25</time>
      </trkpt>
      <trkpt lat="42.84099" lon="-1.61394">
        <ele>441.6</ele>
        <time>2021-03-07 12:14:26</time>
      </trkpt>
      <trkpt lat="42.84097" lon="-1.61385">
        <ele>441.6</ele>
        <time>2021-03-07 12:14:27</time>
      </trkpt>
      <trkpt lat="42.84094" lon="-1.61375">
        <ele>441.6</ele>
        <time>2021-03-07 12:14:28</time>
      </trkpt>
      <trkpt lat="42.84092" lon="-1.61365">
        <ele>441.6</ele>
        <time>2021-03-07 12:14:29</time>
      </trkpt>
      <trkpt lat="42.84089" lon="-1.61355">
        <ele>441.6</ele>
        <time>2021-03-07 12:14:30</time>
      </trkpt>
      <trkpt lat="42.84087" lon="-1.61345">
        <ele>441.6</ele>
        <time>2021-03-07 12:14:31</time>
      </trkpt>
      <trkpt lat="42.84084" lon="-1.61335">
        <ele>441.6</ele>
        <time>2021-03-07 12:14:32</time>
      </trkpt>
      <trkpt lat="42.84081" lon="-1.61325">
        <ele>441.6</ele>
        <time>2021-03-07 12:14:33</time>
      </trkpt>
      <trkpt lat="42.84078" lon="-1.61314">
        <ele>441.6</ele>
        <time>2021-03-07 12:14:34</time>
      </trkpt>
      <trkpt lat="42.84075" lon="-1.61304">
        <ele>441.6</ele>
        <time>2021-03-07 12:14:35</time>
      </trkpt>
      <trkpt lat="42.84072" lon="-1.61293">
        <ele>441.6</ele>
        <time>2021-03-07 12:14:36</time>
      </trkpt>
      <trkpt lat="42.84068" lon="-1.61282">
        <ele>441.6</ele>
        <time>2021-03-07 12:14:37</time>
      </trkpt>
      <trkpt lat="42.84065" lon="-1.61271">
        <ele>441.4</ele>
        <time>2021-03-07 12:14:38</time>
      </trkpt>
      <trkpt lat="42.84061" lon="-1.6126">
        <ele>441.2</ele>
        <time>2021-03-07 12:14:39</time>
      </trkpt>
      <trkpt lat="42.84057" lon="-1.61248">
        <ele>441</ele>
        <time>2021-03-07 12:14:40</time>
      </trkpt>
      <trkpt lat="42.84052" lon="-1.61237">
        <ele>440.8</ele>
        <time>2021-03-07 12:14:41</time>
      </trkpt>
      <trkpt lat="42.84048" lon="-1.61225">
        <ele>440.6</ele>
        <time>2021-03-07 12:14:42</time>
      </trkpt>
      <trkpt lat="42.84043" lon="-1.61213">
        <ele>440.6</ele>
        <time>2021-03-07 12:14:43</time>
      </trkpt>
      <trkpt lat="42.84038" lon="-1.61201">
        <ele>440.4</ele>
        <time>2021-03-07 12:14:44</time>
      </trkpt>
      <trkpt lat="42.84033" lon="-1.61189">
        <ele>440</ele>
        <time>2021-03-07 12:14:45</time>
      </trkpt>
      <trkpt lat="42.84027" lon="-1.61176">
        <ele>439.6</ele>
        <time>2021-03-07 12:14:46</time>
      </trkpt>
      <trkpt lat="42.84022" lon="-1.61164">
        <ele>439.4</ele>
        <time>2021-03-07 12:14:47</time>
      </trkpt>
      <trkpt lat="42.84016" lon="-1.61151">
        <ele>439.2</ele>
        <time>2021-03-07 12:14:48</time>
      </trkpt>
      <trkpt lat="42.8401" lon="-1.61138">
        <ele>438.8</ele>
        <time>2021-03-07 12:14:49</time>
      </trkpt>
      <trkpt lat="42.84004" lon="-1.61124">
        <ele>438.4</ele>
        <time>2021-03-07 12:14:50</time>
      </trkpt>
      <trkpt lat="42.83997" lon="-1.61111">
        <ele>437.8</ele>
        <time>2021-03-07 12:14:51</time>
      </trkpt>
      <trkpt lat="42.83991" lon="-1.61097">
        <ele>437.2</ele>
        <time>2021-03-07 12:14:52</time>
      </trkpt>
      <trkpt lat="42.83984" lon="-1.61083">
        <ele>436.8</ele>
        <time>2021-03-07 12:14:53</time>
      </trkpt>
      <trkpt lat="42.83978" lon="-1.61068">
        <ele>436.4</ele>
        <time>2021-03-07 12:14:54</time>
      </trkpt>
      <trkpt lat="42.83971" lon="-1.61054">
        <ele>435.8</ele>
        <time>2021-03-07 12:14:55</time>
      </trkpt>
      <trkpt lat="42.83965" lon="-1.61039">
        <ele>435</ele>
        <time>2021-03-07 12:14:56</time>
      </trkpt>
      <trkpt lat="42.83958" lon="-1.61024">
        <ele>434.2</ele>
        <time>2021-03-07 12:14:57</time>
      </trkpt>
      <trkpt lat="42.83951" lon="-1.61008">
        <ele>433.4</ele>
        <time>2021-03-07 12:14:58</time>
      </trkpt>
      <trkpt lat="42.83945" lon="-1.60992">
        <ele>432.8</ele>
        <time>2021-03-07 12:14:59</time>
      </trkpt>
      <trkpt lat="42.83938" lon="-1.60976">
        <ele>432.2</ele>
        <time>2021-03-07 12:15:00</time>
      </trkpt>
      <trkpt lat="42.83932" lon="-1.6096">
        <ele>431.4</ele>
        <time>2021-03-07 12:15:01</time>
      </trkpt>
      <trkpt lat="42.83926" lon="-1.60944">
        <ele>430.6</ele>
        <time>2021-03-07 12:15:02</time>
      </trkpt>
      <trkpt lat="42.8392" lon="-1.60927">
        <ele>430</ele>
        <time>2021-03-07 12:15:03</time>
      </trkpt>
      <trkpt lat="42.83914" lon="-1.6091">
        <ele>429.2</ele>
        <time>2021-03-07 12:15:04</time>
      </trkpt>
      <trkpt lat="42.83909" lon="-1.60894">
        <ele>428.2</ele>
        <time>2021-03-07 12:15:05</time>
      </trkpt>
      <trkpt lat="42.83903" lon="-1.60879">
        <ele>427.2</ele>
        <time>2021-03-07 12:15:06</time>
      </trkpt>
      <trkpt lat="42.83896" lon="-1.60864">
        <ele>426.2</ele>
        <time>2021-03-07 12:15:07</time>
      </trkpt>
      <trkpt lat="42.8389" lon="-1.60849">
        <ele>424.4</ele>
        <time>2021-03-07 12:15:08</time>
      </trkpt>
      <trkpt lat="42.83886" lon="-1.60832">
        <ele>423.6</ele>
        <time>2021-03-07 12:15:09</time>
      </trkpt>
      <trkpt lat="42.83884" lon="-1.60815">
        <ele>423</ele>
        <time>2021-03-07 12:15:10</time>
      </trkpt>
      <trkpt lat="42.83882" lon="-1.60799">
        <ele>422.4</ele>
        <time>2021-03-07 12:15:11</time>
      </trkpt>
      <trkpt lat="42.8388" lon="-1.60782">
        <ele>422</ele>
        <time>2021-03-07 12:15:12</time>
      </trkpt>
      <trkpt lat="42.83877" lon="-1.60766">
        <ele>421.8</ele>
        <time>2021-03-07 12:15:13</time>
      </trkpt>
      <trkpt lat="42.83874" lon="-1.6075">
        <ele>421.6</ele>
        <time>2021-03-07 12:15:14</time>
      </trkpt>
      <trkpt lat="42.83871" lon="-1.60734">
        <ele>421</ele>
        <time>2021-03-07 12:15:15</time>
      </trkpt>
      <trkpt lat="42.83869" lon="-1.60718">
        <ele>420.4</ele>
        <time>2021-03-07 12:15:16</time>
      </trkpt>
      <trkpt lat="42.83866" lon="-1.60703">
        <ele>420.2</ele>
        <time>2021-03-07 12:15:17</time>
      </trkpt>
      <trkpt lat="42.83864" lon="-1.60687">
        <ele>420</ele>
        <time>2021-03-07 12:15:18</time>
      </trkpt>
      <trkpt lat="42.83861" lon="-1.60672">
        <ele>419.8</ele>
        <time>2021-03-07 12:15:19</time>
      </trkpt>
      <trkpt lat="42.83859" lon="-1.60657">
        <ele>419.8</ele>
        <time>2021-03-07 12:15:20</time>
      </trkpt>
      <trkpt lat="42.83858" lon="-1.60642">
        <ele>419.6</ele>
        <time>2021-03-07 12:15:21</time>
      </trkpt>
      <trkpt lat="42.83856" lon="-1.60628">
        <ele>419.4</ele>
        <time>2021-03-07 12:15:22</time>
      </trkpt>
      <trkpt lat="42.83855" lon="-1.60612">
        <ele>419.2</ele>
        <time>2021-03-07 12:15:23</time>
      </trkpt>
      <trkpt lat="42.83854" lon="-1.60597">
        <ele>419</ele>
        <time>2021-03-07 12:15:24</time>
      </trkpt>
      <trkpt lat="42.83853" lon="-1.60582">
        <ele>419.2</ele>
        <time>2021-03-07 12:15:25</time>
      </trkpt>
      <trkpt lat="42.83851" lon="-1.60567">
        <ele>419</ele>
        <time>2021-03-07 12:15:26</time>
      </trkpt>
      <trkpt lat="42.8385" lon="-1.60553">
        <ele>419</ele>
        <time>2021-03-07 12:15:27</time>
      </trkpt>
      <trkpt lat="42.8385" lon="-1.60538">
        <ele>418.8</ele>
        <time>2021-03-07 12:15:28</time>
      </trkpt>
      <trkpt lat="42.83849" lon="-1.60523">
        <ele>418.8</ele>
        <time>2021-03-07 12:15:29</time>
      </trkpt>
      <trkpt lat="42.83849" lon="-1.60509">
        <ele>418.6</ele>
        <time>2021-03-07 12:15:30</time>
      </trkpt>
      <trkpt lat="42.83848" lon="-1.60496">
        <ele>418.6</ele>
        <time>2021-03-07 12:15:31</time>
      </trkpt>
      <trkpt lat="42.83848" lon="-1.60482">
        <ele>418.6</ele>
        <time>2021-03-07 12:15:32</time>
      </trkpt>
      <trkpt lat="42.83848" lon="-1.60469">
        <ele>418.4</ele>
        <time>2021-03-07 12:15:33</time>
      </trkpt>
      <trkpt lat="42.83847" lon="-1.60456">
        <ele>418.2</ele>
        <time>2021-03-07 12:15:34</time>
      </trkpt>
      <trkpt lat="42.83847" lon="-1.60444">
        <ele>418.2</ele>
        <time>2021-03-07 12:15:35</time>
      </trkpt>
      <trkpt lat="42.83847" lon="-1.60432">
        <ele>418.2</ele>
        <time>2021-03-07 12:15:36</time>
      </trkpt>
      <trkpt lat="42.83847" lon="-1.6042">
        <ele>418.2</ele>
        <time>2021-03-07 12:15:37</time>
      </trkpt>
      <trkpt lat="42.83847" lon="-1.60409">
        <ele>418.2</ele>
        <time>2021-03-07 12:15:38</time>
      </trkpt>
      <trkpt lat="42.83847" lon="-1.60398">
        <ele>418.2</ele>
        <time>2021-03-07 12:15:39</time>
      </trkpt>
      <trkpt lat="42.83847" lon="-1.60388">
        <ele>418.2</ele>
        <time>2021-03-07 12:15:40</time>
      </trkpt>
      <trkpt lat="42.83847" lon="-1.60377">
        <ele>418.2</ele>
        <time>2021-03-07 12:15:41</time>
      </trkpt>
      <trkpt lat="42.83848" lon="-1.60368">
        <ele>418.2</ele>
        <time>2021-03-07 12:15:42</time>
      </trkpt>
      <trkpt lat="42.83848" lon="-1.60359">
        <ele>418.4</ele>
        <time>2021-03-07 12:15:43</time>
      </trkpt>
      <trkpt lat="42.83848" lon="-1.6035">
        <ele>418.8</ele>
        <time>2021-03-07 12:15:44</time>
      </trkpt>
      <trkpt lat="42.83849" lon="-1.60341">
        <ele>419</ele>
        <time>2021-03-07 12:15:45</time>
      </trkpt>
      <trkpt lat="42.8385" lon="-1.60333">
        <ele>419.4</ele>
        <time>2021-03-07 12:15:46</time>
      </trkpt>
      <trkpt lat="42.8385" lon="-1.60325">
        <ele>419.6</ele>
        <time>2021-03-07 12:15:47</time>
      </trkpt>
      <trkpt lat="42.83851" lon="-1.60317">
        <ele>420</ele>
        <time>2021-03-07 12:15:48</time>
      </trkpt>
      <trkpt lat="42.83852" lon="-1.6031">
        <ele>420.4</ele>
        <time>2021-03-07 12:15:49</time>
      </trkpt>
      <trkpt lat="42.83853" lon="-1.60303">
        <ele>421</ele>
        <time>2021-03-07 12:15:50</time>
      </trkpt>
      <trkpt lat="42.83853" lon="-1.60296">
        <ele>421.8</ele>
        <time>2021-03-07 12:15:51</time>
      </trkpt>
      <trkpt lat="42.83854" lon="-1.60289">
        <ele>422.2</ele>
        <time>2021-03-07 12:15:52</time>
      </trkpt>
      <trkpt lat="42.83854" lon="-1.60283">
        <ele>422.6</ele>
        <time>2021-03-07 12:15:53</time>
      </trkpt>
      <trkpt lat="42.83855" lon="-1.60277">
        <ele>423.2</ele>
        <time>2021-03-07 12:15:54</time>
      </trkpt>
      <trkpt lat="42.83856" lon="-1.60271">
        <ele>423.6</ele>
        <time>2021-03-07 12:15:55</time>
      </trkpt>
      <trkpt lat="42.83856" lon="-1.60265">
        <ele>424</ele>
        <time>2021-03-07 12:15:56</time>
      </trkpt>
      <trkpt lat="42.83857" lon="-1.6026">
        <ele>424.4</ele>
        <time>2021-03-07 12:15:57</time>
      </trkpt>
      <trkpt lat="42.83857" lon="-1.60255">
        <ele>424.8</ele>
        <time>2021-03-07 12:15:58</time>
      </trkpt>
      <trkpt lat="42.83858" lon="-1.60249">
        <ele>425</ele>
        <time>2021-03-07 12:15:59</time>
      </trkpt>
      <trkpt lat="42.83859" lon="-1.60244">
        <ele>425.4</ele>
        <time>2021-03-07 12:16:00</time>
      </trkpt>
      <trkpt lat="42.8386" lon="-1.60239">
        <ele>425.6</ele>
        <time>2021-03-07 12:16:01</time>
      </trkpt>
      <trkpt lat="42.83861" lon="-1.60234">
        <ele>426</ele>
        <time>2021-03-07 12:16:02</time>
      </trkpt>
      <trkpt lat="42.83862" lon="-1.60229">
        <ele>426.4</ele>
        <time>2021-03-07 12:16:03</time>
      </trkpt>
      <trkpt lat="42.83863" lon="-1.60225">
        <ele>426.6</ele>
        <time>2021-03-07 12:16:04</time>
      </trkpt>
      <trkpt lat="42.83864" lon="-1.6022">
        <ele>426.8</ele>
        <time>2021-03-07 12:16:05</time>
      </trkpt>
      <trkpt lat="42.83864" lon="-1.60215">
        <ele>427.4</ele>
        <time>2021-03-07 12:16:06</time>
      </trkpt>
      <trkpt lat="42.83865" lon="-1.6021">
        <ele>427.6</ele>
        <time>2021-03-07 12:16:07</time>
      </trkpt>
      <trkpt lat="42.83865" lon="-1.60206">
        <ele>428</ele>
        <time>2021-03-07 12:16:08</time>
      </trkpt>
      <trkpt lat="42.83866" lon="-1.60201">
        <ele>428.4</ele>
        <time>2021-03-07 12:16:09</time>
      </trkpt>
      <trkpt lat="42.83867" lon="-1.60197">
        <ele>428.8</ele>
        <time>2021-03-07 12:16:10</time>
      </trkpt>
      <trkpt lat="42.83868" lon="-1.60193">
        <ele>429.2</ele>
        <time>2021-03-07 12:16:11</time>
      </trkpt>
      <trkpt lat="42.83868" lon="-1.60188">
        <ele>429.6</ele>
        <time>2021-03-07 12:16:12</time>
      </trkpt>
      <trkpt lat="42.83869" lon="-1.60184">
        <ele>430</ele>
        <time>2021-03-07 12:16:13</time>
      </trkpt>
      <trkpt lat="42.83869" lon="-1.6018">
        <ele>430.2</ele>
        <time>2021-03-07 12:16:14</time>
      </trkpt>
      <trkpt lat="42.8387" lon="-1.60175">
        <ele>430.4</ele>
        <time>2021-03-07 12:16:15</time>
      </trkpt>
      <trkpt lat="42.83871" lon="-1.60171">
        <ele>430.4</ele>
        <time>2021-03-07 12:16:16</time>
      </trkpt>
      <trkpt lat="42.83871" lon="-1.60166">
        <ele>430.6</ele>
        <time>2021-03-07 12:16:17</time>
      </trkpt>
      <trkpt lat="42.83871" lon="-1.60162">
        <ele>431</ele>
        <time>2021-03-07 12:16:18</time>
      </trkpt>
      <trkpt lat="42.83872" lon="-1.60157">
        <ele>431.2</ele>
        <time>2021-03-07 12:16:19</time>
      </trkpt>
      <trkpt lat="42.83872" lon="-1.60153">
        <ele>431.4</ele>
        <time>2021-03-07 12:16:20</time>
      </trkpt>
      <trkpt lat="42.83872" lon="-1.60148">
        <ele>431.6</ele>
        <time>2021-03-07 12:16:21</time>
      </trkpt>
      <trkpt lat="42.83873" lon="-1.60144">
        <ele>431.8</ele>
        <time>2021-03-07 12:16:22</time>
      </trkpt>
      <trkpt lat="42.83873" lon="-1.60139">
        <ele>432</ele>
        <time>2021-03-07 12:16:23</time>
      </trkpt>
      <trkpt lat="42.83874" lon="-1.60135">
        <ele>432.4</ele>
        <time>2021-03-07 12:16:24</time>
      </trkpt>
      <trkpt lat="42.83875" lon="-1.6013">
        <ele>432.6</ele>
        <time>2021-03-07 12:16:25</time>
      </trkpt>
      <trkpt lat="42.83875" lon="-1.60126">
        <ele>433</ele>
        <time>2021-03-07 12:16:26</time>
      </trkpt>
      <trkpt lat="42.83876" lon="-1.60122">
        <ele>433.4</ele>
        <time>2021-03-07 12:16:27</time>
      </trkpt>
      <trkpt lat="42.83877" lon="-1.60118">
        <ele>433.6</ele>
        <time>2021-03-07 12:16:28</time>
      </trkpt>
      <trkpt lat="42.83878" lon="-1.60114">
        <ele>433.8</ele>
        <time>2021-03-07 12:16:29</time>
      </trkpt>
      <trkpt lat="42.83878" lon="-1.6011">
        <ele>434</ele>
        <time>2021-03-07 12:16:30</time>
      </trkpt>
      <trkpt lat="42.83879" lon="-1.60106">
        <ele>434.2</ele>
        <time>2021-03-07 12:16:31</time>
      </trkpt>
      <trkpt lat="42.83879" lon="-1.60101">
        <ele>434.4</ele>
        <time>2021-03-07 12:16:32</time>
      </trkpt>
      <trkpt lat="42.83879" lon="-1.60097">
        <ele>434.6</ele>
        <time>2021-03-07 12:16:33</time>
      </trkpt>
      <trkpt lat="42.8388" lon="-1.60093">
        <ele>435</ele>
        <time>2021-03-07 12:16:34</time>
      </trkpt>
      <trkpt lat="42.83883" lon="-1.60067">
        <ele>438.4</ele>
        <time>2021-03-07 12:17:13</time>
      </trkpt>
      <trkpt lat="42.83884" lon="-1.60065">
        <ele>438.4</ele>
        <time>2021-03-07 12:17:14</time>
      </trkpt>
      <trkpt lat="42.83884" lon="-1.60063">
        <ele>438.4</ele>
        <time>2021-03-07 12:17:15</time>
      </trkpt>
      <trkpt lat="42.83884" lon="-1.6006">
        <ele>438.4</ele>
        <time>2021-03-07 12:17:16</time>
      </trkpt>
      <trkpt lat="42.83884" lon="-1.60057">
        <ele>438.4</ele>
        <time>2021-03-07 12:17:17</time>
      </trkpt>
      <trkpt lat="42.83884" lon="-1.60053">
        <ele>438.4</ele>
        <time>2021-03-07 12:17:18</time>
      </trkpt>
      <trkpt lat="42.83885" lon="-1.6005">
        <ele>438.6</ele>
        <time>2021-03-07 12:17:19</time>
      </trkpt>
      <trkpt lat="42.83885" lon="-1.60047">
        <ele>438.6</ele>
        <time>2021-03-07 12:17:20</time>
      </trkpt>
      <trkpt lat="42.83885" lon="-1.60043">
        <ele>438.8</ele>
        <time>2021-03-07 12:17:21</time>
      </trkpt>
      <trkpt lat="42.83886" lon="-1.60041">
        <ele>439</ele>
        <time>2021-03-07 12:17:22</time>
      </trkpt>
      <trkpt lat="42.83886" lon="-1.60038">
        <ele>439.2</ele>
        <time>2021-03-07 12:17:23</time>
      </trkpt>
      <trkpt lat="42.83886" lon="-1.60034">
        <ele>439.2</ele>
        <time>2021-03-07 12:17:24</time>
      </trkpt>
      <trkpt lat="42.83887" lon="-1.6003">
        <ele>439.4</ele>
        <time>2021-03-07 12:17:25</time>
      </trkpt>
      <trkpt lat="42.83887" lon="-1.60025">
        <ele>439.6</ele>
        <time>2021-03-07 12:17:26</time>
      </trkpt>
      <trkpt lat="42.83888" lon="-1.60021">
        <ele>440</ele>
        <time>2021-03-07 12:17:27</time>
      </trkpt>
      <trkpt lat="42.83888" lon="-1.60017">
        <ele>440.2</ele>
        <time>2021-03-07 12:17:28</time>
      </trkpt>
      <trkpt lat="42.83889" lon="-1.60013">
        <ele>440.4</ele>
        <time>2021-03-07 12:17:29</time>
      </trkpt>
      <trkpt lat="42.83889" lon="-1.60008">
        <ele>440.6</ele>
        <time>2021-03-07 12:17:30</time>
      </trkpt>
      <trkpt lat="42.83889" lon="-1.60004">
        <ele>440.8</ele>
        <time>2021-03-07 12:17:31</time>
      </trkpt>
      <trkpt lat="42.83889" lon="-1.59999">
        <ele>441</ele>
        <time>2021-03-07 12:17:32</time>
      </trkpt>
      <trkpt lat="42.83889" lon="-1.59995">
        <ele>441.2</ele>
        <time>2021-03-07 12:17:33</time>
      </trkpt>
      <trkpt lat="42.8389" lon="-1.5999">
        <ele>441.4</ele>
        <time>2021-03-07 12:17:34</time>
      </trkpt>
      <trkpt lat="42.8389" lon="-1.59986">
        <ele>441.4</ele>
        <time>2021-03-07 12:17:35</time>
      </trkpt>
      <trkpt lat="42.8389" lon="-1.59982">
        <ele>441.6</ele>
        <time>2021-03-07 12:17:36</time>
      </trkpt>
      <trkpt lat="42.8389" lon="-1.59977">
        <ele>441.8</ele>
        <time>2021-03-07 12:17:37</time>
      </trkpt>
      <trkpt lat="42.8389" lon="-1.59973">
        <ele>442</ele>
        <time>2021-03-07 12:17:38</time>
      </trkpt>
      <trkpt lat="42.8389" lon="-1.59969">
        <ele>442.2</ele>
        <time>2021-03-07 12:17:39</time>
      </trkpt>
      <trkpt lat="42.8389" lon="-1.59965">
        <ele>442.4</ele>
        <time>2021-03-07 12:17:40</time>
      </trkpt>
      <trkpt lat="42.8389" lon="-1.59961">
        <ele>442.6</ele>
        <time>2021-03-07 12:17:41</time>
      </trkpt>
      <trkpt lat="42.8389" lon="-1.59957">
        <ele>442.8</ele>
        <time>2021-03-07 12:17:42</time>
      </trkpt>
      <trkpt lat="42.8389" lon="-1.59953">
        <ele>443</ele>
        <time>2021-03-07 12:17:43</time>
      </trkpt>
      <trkpt lat="42.8389" lon="-1.59949">
        <ele>443.4</ele>
        <time>2021-03-07 12:17:44</time>
      </trkpt>
      <trkpt lat="42.8389" lon="-1.59945">
        <ele>443.8</ele>
        <time>2021-03-07 12:17:45</time>
      </trkpt>
      <trkpt lat="42.8389" lon="-1.59941">
        <ele>444</ele>
        <time>2021-03-07 12:17:46</time>
      </trkpt>
      <trkpt lat="42.8389" lon="-1.59937">
        <ele>444.2</ele>
        <time>2021-03-07 12:17:47</time>
      </trkpt>
      <trkpt lat="42.8389" lon="-1.59934">
        <ele>444.6</ele>
        <time>2021-03-07 12:17:48</time>
      </trkpt>
      <trkpt lat="42.8389" lon="-1.5993">
        <ele>444.8</ele>
        <time>2021-03-07 12:17:49</time>
      </trkpt>
      <trkpt lat="42.8389" lon="-1.59926">
        <ele>445</ele>
        <time>2021-03-07 12:17:50</time>
      </trkpt>
      <trkpt lat="42.83889" lon="-1.59922">
        <ele>445.2</ele>
        <time>2021-03-07 12:17:51</time>
      </trkpt>
      <trkpt lat="42.83889" lon="-1.59919">
        <ele>445.6</ele>
        <time>2021-03-07 12:17:52</time>
      </trkpt>
      <trkpt lat="42.83889" lon="-1.59915">
        <ele>445.8</ele>
        <time>2021-03-07 12:17:53</time>
      </trkpt>
      <trkpt lat="42.83889" lon="-1.59912">
        <ele>446</ele>
        <time>2021-03-07 12:17:54</time>
      </trkpt>
      <trkpt lat="42.83889" lon="-1.59908">
        <ele>446.2</ele>
        <time>2021-03-07 12:17:55</time>
      </trkpt>
      <trkpt lat="42.83889" lon="-1.59905">
        <ele>446.4</ele>
        <time>2021-03-07 12:17:56</time>
      </trkpt>
      <trkpt lat="42.83888" lon="-1.599">
        <ele>447</ele>
        <time>2021-03-07 12:17:57</time>
      </trkpt>
      <trkpt lat="42.83888" lon="-1.59896">
        <ele>447</ele>
        <time>2021-03-07 12:17:58</time>
      </trkpt>
      <trkpt lat="42.83888" lon="-1.59892">
        <ele>447.4</ele>
        <time>2021-03-07 12:17:59</time>
      </trkpt>
      <trkpt lat="42.83888" lon="-1.59888">
        <ele>447.4</ele>
        <time>2021-03-07 12:18:00</time>
      </trkpt>
      <trkpt lat="42.83888" lon="-1.59884">
        <ele>447.6</ele>
        <time>2021-03-07 12:18:01</time>
      </trkpt>
      <trkpt lat="42.83888" lon="-1.5988">
        <ele>447.6</ele>
        <time>2021-03-07 12:18:02</time>
      </trkpt>
      <trkpt lat="42.83887" lon="-1.59876">
        <ele>447.6</ele>
        <time>2021-03-07 12:18:03</time>
      </trkpt>
      <trkpt lat="42.83887" lon="-1.59872">
        <ele>447.8</ele>
        <time>2021-03-07 12:18:04</time>
      </trkpt>
      <trkpt lat="42.83887" lon="-1.59868">
        <ele>448</ele>
        <time>2021-03-07 12:18:05</time>
      </trkpt>
      <trkpt lat="42.83887" lon="-1.59864">
        <ele>448.2</ele>
        <time>2021-03-07 12:18:06</time>
      </trkpt>
      <trkpt lat="42.83886" lon="-1.5986">
        <ele>448.4</ele>
        <time>2021-03-07 12:18:07</time>
      </trkpt>
      <trkpt lat="42.83886" lon="-1.59856">
        <ele>448.6</ele>
        <time>2021-03-07 12:18:08</time>
      </trkpt>
      <trkpt lat="42.83886" lon="-1.59852">
        <ele>448.8</ele>
        <time>2021-03-07 12:18:09</time>
      </trkpt>
      <trkpt lat="42.83885" lon="-1.59848">
        <ele>449.2</ele>
        <time>2021-03-07 12:18:10</time>
      </trkpt>
      <trkpt lat="42.83885" lon="-1.59844">
        <ele>449.4</ele>
        <time>2021-03-07 12:18:11</time>
      </trkpt>
      <trkpt lat="42.83884" lon="-1.59839">
        <ele>449.4</ele>
        <time>2021-03-07 12:18:12</time>
      </trkpt>
      <trkpt lat="42.83884" lon="-1.59835">
        <ele>449.8</ele>
        <time>2021-03-07 12:18:13</time>
      </trkpt>
      <trkpt lat="42.83884" lon="-1.59831">
        <ele>450</ele>
        <time>2021-03-07 12:18:14</time>
      </trkpt>
      <trkpt lat="42.83883" lon="-1.59827">
        <ele>450.2</ele>
        <time>2021-03-07 12:18:15</time>
      </trkpt>
      <trkpt lat="42.83884" lon="-1.59823">
        <ele>450.2</ele>
        <time>2021-03-07 12:18:16</time>
      </trkpt>
      <trkpt lat="42.83884" lon="-1.59818">
        <ele>450.6</ele>
        <time>2021-03-07 12:18:17</time>
      </trkpt>
      <trkpt lat="42.83883" lon="-1.59814">
        <ele>451</ele>
        <time>2021-03-07 12:18:18</time>
      </trkpt>
      <trkpt lat="42.83883" lon="-1.5981">
        <ele>451.2</ele>
        <time>2021-03-07 12:18:19</time>
      </trkpt>
      <trkpt lat="42.83883" lon="-1.59806">
        <ele>451.6</ele>
        <time>2021-03-07 12:18:20</time>
      </trkpt>
      <trkpt lat="42.83883" lon="-1.59802">
        <ele>451.8</ele>
        <time>2021-03-07 12:18:21</time>
      </trkpt>
      <trkpt lat="42.83882" lon="-1.59798">
        <ele>452</ele>
        <time>2021-03-07 12:18:22</time>
      </trkpt>
      <trkpt lat="42.83882" lon="-1.59794">
        <ele>452.2</ele>
        <time>2021-03-07 12:18:23</time>
      </trkpt>
      <trkpt lat="42.83882" lon="-1.5979">
        <ele>452.4</ele>
        <time>2021-03-07 12:18:24</time>
      </trkpt>
      <trkpt lat="42.83882" lon="-1.59786">
        <ele>452.6</ele>
        <time>2021-03-07 12:18:25</time>
      </trkpt>
      <trkpt lat="42.83881" lon="-1.59782">
        <ele>453</ele>
        <time>2021-03-07 12:18:26</time>
      </trkpt>
      <trkpt lat="42.83881" lon="-1.59778">
        <ele>453.4</ele>
        <time>2021-03-07 12:18:27</time>
      </trkpt>
      <trkpt lat="42.8388" lon="-1.59774">
        <ele>453.6</ele>
        <time>2021-03-07 12:18:28</time>
      </trkpt>
      <trkpt lat="42.8388" lon="-1.5977">
        <ele>453.8</ele>
        <time>2021-03-07 12:18:29</time>
      </trkpt>
      <trkpt lat="42.83879" lon="-1.59766">
        <ele>454</ele>
        <time>2021-03-07 12:18:30</time>
      </trkpt>
      <trkpt lat="42.83879" lon="-1.59762">
        <ele>454.4</ele>
        <time>2021-03-07 12:18:31</time>
      </trkpt>
      <trkpt lat="42.83879" lon="-1.59758">
        <ele>454.6</ele>
        <time>2021-03-07 12:18:32</time>
      </trkpt>
      <trkpt lat="42.83878" lon="-1.59754">
        <ele>455</ele>
        <time>2021-03-07 12:18:33</time>
      </trkpt>
      <trkpt lat="42.83878" lon="-1.5975">
        <ele>455.2</ele>
        <time>2021-03-07 12:18:34</time>
      </trkpt>
      <trkpt lat="42.83877" lon="-1.59746">
        <ele>455.2</ele>
        <time>2021-03-07 12:18:35</time>
      </trkpt>
      <trkpt lat="42.83877" lon="-1.59742">
        <ele>455.6</ele>
        <time>2021-03-07 12:18:36</time>
      </trkpt>
      <trkpt lat="42.83876" lon="-1.59738">
        <ele>455.8</ele>
        <time>2021-03-07 12:18:37</time>
      </trkpt>
      <trkpt lat="42.83875" lon="-1.59733">
        <ele>456</ele>
        <time>2021-03-07 12:18:38</time>
      </trkpt>
      <trkpt lat="42.83875" lon="-1.59729">
        <ele>456.2</ele>
        <time>2021-03-07 12:18:39</time>
      </trkpt>
      <trkpt lat="42.83874" lon="-1.59725">
        <ele>456.2</ele>
        <time>2021-03-07 12:18:40</time>
      </trkpt>
      <trkpt lat="42.83874" lon="-1.5972">
        <ele>456.4</ele>
        <time>2021-03-07 12:18:41</time>
      </trkpt>
      <trkpt lat="42.83873" lon="-1.59716">
        <ele>456.6</ele>
        <time>2021-03-07 12:18:42</time>
      </trkpt>
      <trkpt lat="42.83872" lon="-1.59711">
        <ele>457</ele>
        <time>2021-03-07 12:18:43</time>
      </trkpt>
      <trkpt lat="42.83871" lon="-1.59707">
        <ele>457.2</ele>
        <time>2021-03-07 12:18:44</time>
      </trkpt>
      <trkpt lat="42.83871" lon="-1.59702">
        <ele>457.4</ele>
        <time>2021-03-07 12:18:45</time>
      </trkpt>
      <trkpt lat="42.8387" lon="-1.59698">
        <ele>457.6</ele>
        <time>2021-03-07 12:18:46</time>
      </trkpt>
      <trkpt lat="42.83869" lon="-1.59694">
        <ele>457.8</ele>
        <time>2021-03-07 12:18:47</time>
      </trkpt>
      <trkpt lat="42.83869" lon="-1.59689">
        <ele>458</ele>
        <time>2021-03-07 12:18:48</time>
      </trkpt>
      <trkpt lat="42.83868" lon="-1.59684">
        <ele>458.2</ele>
        <time>2021-03-07 12:18:49</time>
      </trkpt>
      <trkpt lat="42.83868" lon="-1.5968">
        <ele>458.4</ele>
        <time>2021-03-07 12:18:50</time>
      </trkpt>
      <trkpt lat="42.83867" lon="-1.59675">
        <ele>458.6</ele>
        <time>2021-03-07 12:18:51</time>
      </trkpt>
      <trkpt lat="42.83866" lon="-1.5967">
        <ele>459.2</ele>
        <time>2021-03-07 12:18:52</time>
      </trkpt>
      <trkpt lat="42.83865" lon="-1.59665">
        <ele>459.4</ele>
        <time>2021-03-07 12:18:53</time>
      </trkpt>
      <trkpt lat="42.83865" lon="-1.5966">
        <ele>459.6</ele>
        <time>2021-03-07 12:18:54</time>
      </trkpt>
      <trkpt lat="42.83864" lon="-1.59656">
        <ele>459.8</ele>
        <time>2021-03-07 12:18:55</time>
      </trkpt>
      <trkpt lat="42.83864" lon="-1.59651">
        <ele>460.2</ele>
        <time>2021-03-07 12:18:56</time>
      </trkpt>
      <trkpt lat="42.83863" lon="-1.59646">
        <ele>460.6</ele>
        <time>2021-03-07 12:18:57</time>
      </trkpt>
      <trkpt lat="42.83862" lon="-1.59641">
        <ele>460.8</ele>
        <time>2021-03-07 12:18:58</time>
      </trkpt>
      <trkpt lat="42.83861" lon="-1.59636">
        <ele>461.2</ele>
        <time>2021-03-07 12:18:59</time>
      </trkpt>
      <trkpt lat="42.8386" lon="-1.59631">
        <ele>461.4</ele>
        <time>2021-03-07 12:19:00</time>
      </trkpt>
      <trkpt lat="42.83859" lon="-1.59626">
        <ele>461.8</ele>
        <time>2021-03-07 12:19:01</time>
      </trkpt>
      <trkpt lat="42.83859" lon="-1.59621">
        <ele>462</ele>
        <time>2021-03-07 12:19:02</time>
      </trkpt>
      <trkpt lat="42.83858" lon="-1.59616">
        <ele>462.2</ele>
        <time>2021-03-07 12:19:03</time>
      </trkpt>
      <trkpt lat="42.83857" lon="-1.59611">
        <ele>462.4</ele>
        <time>2021-03-07 12:19:04</time>
      </trkpt>
      <trkpt lat="42.83856" lon="-1.59606">
        <ele>462.6</ele>
        <time>2021-03-07 12:19:05</time>
      </trkpt>
      <trkpt lat="42.83855" lon="-1.59601">
        <ele>462.6</ele>
        <time>2021-03-07 12:19:06</time>
      </trkpt>
      <trkpt lat="42.83854" lon="-1.59596">
        <ele>462.8</ele>
        <time>2021-03-07 12:19:07</time>
      </trkpt>
      <trkpt lat="42.83854" lon="-1.5959">
        <ele>462.8</ele>
        <time>2021-03-07 12:19:08</time>
      </trkpt>
      <trkpt lat="42.83853" lon="-1.59585">
        <ele>462.8</ele>
        <time>2021-03-07 12:19:09</time>
      </trkpt>
      <trkpt lat="42.83852" lon="-1.59579">
        <ele>463</ele>
        <time>2021-03-07 12:19:10</time>
      </trkpt>
      <trkpt lat="42.83852" lon="-1.59574">
        <ele>463.2</ele>
        <time>2021-03-07 12:19:11</time>
      </trkpt>
      <trkpt lat="42.83851" lon="-1.59569">
        <ele>463.6</ele>
        <time>2021-03-07 12:19:12</time>
      </trkpt>
      <trkpt lat="42.8385" lon="-1.59564">
        <ele>463.8</ele>
        <time>2021-03-07 12:19:13</time>
      </trkpt>
      <trkpt lat="42.83849" lon="-1.59559">
        <ele>464</ele>
        <time>2021-03-07 12:19:14</time>
      </trkpt>
      <trkpt lat="42.83849" lon="-1.59554">
        <ele>464.2</ele>
        <time>2021-03-07 12:19:15</time>
      </trkpt>
      <trkpt lat="42.83848" lon="-1.59549">
        <ele>464.4</ele>
        <time>2021-03-07 12:19:16</time>
      </trkpt>
      <trkpt lat="42.83847" lon="-1.59543">
        <ele>464.4</ele>
        <time>2021-03-07 12:19:17</time>
      </trkpt>
      <trkpt lat="42.83846" lon="-1.59538">
        <ele>464.6</ele>
        <time>2021-03-07 12:19:18</time>
      </trkpt>
      <trkpt lat="42.83845" lon="-1.59532">
        <ele>464.6</ele>
        <time>2021-03-07 12:19:19</time>
      </trkpt>
      <trkpt lat="42.83845" lon="-1.59526">
        <ele>464.6</ele>
        <time>2021-03-07 12:19:20</time>
      </trkpt>
      <trkpt lat="42.83844" lon="-1.5952">
        <ele>464.8</ele>
        <time>2021-03-07 12:19:21</time>
      </trkpt>
      <trkpt lat="42.83844" lon="-1.59514">
        <ele>464.8</ele>
        <time>2021-03-07 12:19:22</time>
      </trkpt>
      <trkpt lat="42.83843" lon="-1.59508">
        <ele>465</ele>
        <time>2021-03-07 12:19:23</time>
      </trkpt>
      <trkpt lat="42.83843" lon="-1.59501">
        <ele>465</ele>
        <time>2021-03-07 12:19:24</time>
      </trkpt>
      <trkpt lat="42.83843" lon="-1.59494">
        <ele>465</ele>
        <time>2021-03-07 12:19:25</time>
      </trkpt>
      <trkpt lat="42.83842" lon="-1.59488">
        <ele>465</ele>
        <time>2021-03-07 12:19:26</time>
      </trkpt>
      <trkpt lat="42.83842" lon="-1.59481">
        <ele>465.2</ele>
        <time>2021-03-07 12:19:27</time>
      </trkpt>
      <trkpt lat="42.83842" lon="-1.59474">
        <ele>465.2</ele>
        <time>2021-03-07 12:19:28</time>
      </trkpt>
      <trkpt lat="42.83843" lon="-1.59466">
        <ele>465.4</ele>
        <time>2021-03-07 12:19:29</time>
      </trkpt>
      <trkpt lat="42.83844" lon="-1.59459">
        <ele>465.4</ele>
        <time>2021-03-07 12:19:30</time>
      </trkpt>
      <trkpt lat="42.83844" lon="-1.59451">
        <ele>465.4</ele>
        <time>2021-03-07 12:19:31</time>
      </trkpt>
      <trkpt lat="42.83845" lon="-1.59443">
        <ele>465.4</ele>
        <time>2021-03-07 12:19:32</time>
      </trkpt>
      <trkpt lat="42.83846" lon="-1.59435">
        <ele>465.4</ele>
        <time>2021-03-07 12:19:33</time>
      </trkpt>
      <trkpt lat="42.83846" lon="-1.59426">
        <ele>465.4</ele>
        <time>2021-03-07 12:19:34</time>
      </trkpt>
      <trkpt lat="42.83847" lon="-1.59418">
        <ele>465.4</ele>
        <time>2021-03-07 12:19:35</time>
      </trkpt>
      <trkpt lat="42.83848" lon="-1.59409">
        <ele>465.4</ele>
        <time>2021-03-07 12:19:36</time>
      </trkpt>
      <trkpt lat="42.83849" lon="-1.594">
        <ele>465.4</ele>
        <time>2021-03-07 12:19:37</time>
      </trkpt>
      <trkpt lat="42.83852" lon="-1.59391">
        <ele>465.2</ele>
        <time>2021-03-07 12:19:38</time>
      </trkpt>
      <trkpt lat="42.83854" lon="-1.59382">
        <ele>465.2</ele>
        <time>2021-03-07 12:19:39</time>
      </trkpt>
      <trkpt lat="42.83856" lon="-1.59373">
        <ele>465.2</ele>
        <time>2021-03-07 12:19:40</time>
      </trkpt>
      <trkpt lat="42.83858" lon="-1.59363">
        <ele>465.2</ele>
        <time>2021-03-07 12:19:41</time>
      </trkpt>
      <trkpt lat="42.8386" lon="-1.59353">
        <ele>465.2</ele>
        <time>2021-03-07 12:19:42</time>
      </trkpt>
      <trkpt lat="42.83862" lon="-1.59343">
        <ele>465</ele>
        <time>2021-03-07 12:19:43</time>
      </trkpt>
      <trkpt lat="42.83864" lon="-1.59332">
        <ele>465</ele>
        <time>2021-03-07 12:19:44</time>
      </trkpt>
      <trkpt lat="42.83866" lon="-1.59322">
        <ele>464.8</ele>
        <time>2021-03-07 12:19:45</time>
      </trkpt>
      <trkpt lat="42.83868" lon="-1.59311">
        <ele>464.6</ele>
        <time>2021-03-07 12:19:46</time>
      </trkpt>
      <trkpt lat="42.8387" lon="-1.593">
        <ele>464.4</ele>
        <time>2021-03-07 12:19:47</time>
      </trkpt>
      <trkpt lat="42.83873" lon="-1.59289">
        <ele>464.2</ele>
        <time>2021-03-07 12:19:48</time>
      </trkpt>
      <trkpt lat="42.83876" lon="-1.59278">
        <ele>464</ele>
        <time>2021-03-07 12:19:49</time>
      </trkpt>
      <trkpt lat="42.83879" lon="-1.59266">
        <ele>463.6</ele>
        <time>2021-03-07 12:19:50</time>
      </trkpt>
      <trkpt lat="42.83882" lon="-1.59254">
        <ele>463.2</ele>
        <time>2021-03-07 12:19:51</time>
      </trkpt>
      <trkpt lat="42.83885" lon="-1.59242">
        <ele>463</ele>
        <time>2021-03-07 12:19:52</time>
      </trkpt>
      <trkpt lat="42.83889" lon="-1.59229">
        <ele>462.6</ele>
        <time>2021-03-07 12:19:53</time>
      </trkpt>
      <trkpt lat="42.83893" lon="-1.59216">
        <ele>461.6</ele>
        <time>2021-03-07 12:19:54</time>
      </trkpt>
      <trkpt lat="42.83897" lon="-1.59204">
        <ele>461.2</ele>
        <time>2021-03-07 12:19:55</time>
      </trkpt>
      <trkpt lat="42.83902" lon="-1.59191">
        <ele>460.8</ele>
        <time>2021-03-07 12:19:56</time>
      </trkpt>
      <trkpt lat="42.83907" lon="-1.59178">
        <ele>460.4</ele>
        <time>2021-03-07 12:19:57</time>
      </trkpt>
      <trkpt lat="42.83912" lon="-1.59165">
        <ele>459.6</ele>
        <time>2021-03-07 12:19:58</time>
      </trkpt>
      <trkpt lat="42.83917" lon="-1.59151">
        <ele>458.6</ele>
        <time>2021-03-07 12:19:59</time>
      </trkpt>
      <trkpt lat="42.83922" lon="-1.59138">
        <ele>457.8</ele>
        <time>2021-03-07 12:20:00</time>
      </trkpt>
      <trkpt lat="42.83927" lon="-1.59124">
        <ele>457</ele>
        <time>2021-03-07 12:20:01</time>
      </trkpt>
      <trkpt lat="42.83932" lon="-1.59109">
        <ele>456</ele>
        <time>2021-03-07 12:20:02</time>
      </trkpt>
      <trkpt lat="42.83938" lon="-1.59095">
        <ele>455</ele>
        <time>2021-03-07 12:20:03</time>
      </trkpt>
      <trkpt lat="42.83944" lon="-1.5908">
        <ele>454.2</ele>
        <time>2021-03-07 12:20:04</time>
      </trkpt>
      <trkpt lat="42.83949" lon="-1.59064">
        <ele>453</ele>
        <time>2021-03-07 12:20:05</time>
      </trkpt>
      <trkpt lat="42.83953" lon="-1.59048">
        <ele>452.2</ele>
        <time>2021-03-07 12:20:06</time>
      </trkpt>
      <trkpt lat="42.83957" lon="-1.59031">
        <ele>451.8</ele>
        <time>2021-03-07 12:20:07</time>
      </trkpt>
      <trkpt lat="42.83961" lon="-1.59014">
        <ele>450.8</ele>
        <time>2021-03-07 12:20:08</time>
      </trkpt>
      <trkpt lat="42.83963" lon="-1.58996">
        <ele>449.6</ele>
        <time>2021-03-07 12:20:09</time>
      </trkpt>
      <trkpt lat="42.83965" lon="-1.58979">
        <ele>448.8</ele>
        <time>2021-03-07 12:20:10</time>
      </trkpt>
      <trkpt lat="42.83965" lon="-1.58961">
        <ele>448</ele>
        <time>2021-03-07 12:20:11</time>
      </trkpt>
      <trkpt lat="42.83965" lon="-1.58943">
        <ele>447.2</ele>
        <time>2021-03-07 12:20:12</time>
      </trkpt>
      <trkpt lat="42.83964" lon="-1.58925">
        <ele>446</ele>
        <time>2021-03-07 12:20:13</time>
      </trkpt>
      <trkpt lat="42.83962" lon="-1.58907">
        <ele>444.8</ele>
        <time>2021-03-07 12:20:14</time>
      </trkpt>
      <trkpt lat="42.8396" lon="-1.5889">
        <ele>443.8</ele>
        <time>2021-03-07 12:20:15</time>
      </trkpt>
      <trkpt lat="42.83957" lon="-1.58872">
        <ele>442.4</ele>
        <time>2021-03-07 12:20:16</time>
      </trkpt>
      <trkpt lat="42.83953" lon="-1.58855">
        <ele>441.2</ele>
        <time>2021-03-07 12:20:17</time>
      </trkpt>
      <trkpt lat="42.83948" lon="-1.58839">
        <ele>440</ele>
        <time>2021-03-07 12:20:18</time>
      </trkpt>
      <trkpt lat="42.83942" lon="-1.58822">
        <ele>438.6</ele>
        <time>2021-03-07 12:20:19</time>
      </trkpt>
      <trkpt lat="42.83935" lon="-1.58807">
        <ele>437.6</ele>
        <time>2021-03-07 12:20:20</time>
      </trkpt>
      <trkpt lat="42.83928" lon="-1.58793">
        <ele>436.4</ele>
        <time>2021-03-07 12:20:21</time>
      </trkpt>
      <trkpt lat="42.83921" lon="-1.5878">
        <ele>434.8</ele>
        <time>2021-03-07 12:20:22</time>
      </trkpt>
      <trkpt lat="42.83914" lon="-1.5877">
        <ele>434</ele>
        <time>2021-03-07 12:20:23</time>
      </trkpt>
      <trkpt lat="42.83906" lon="-1.58761">
        <ele>433.4</ele>
        <time>2021-03-07 12:20:24</time>
      </trkpt>
      <trkpt lat="42.83898" lon="-1.58756">
        <ele>432.4</ele>
        <time>2021-03-07 12:20:25</time>
      </trkpt>
      <trkpt lat="42.83889" lon="-1.58755">
        <ele>431.4</ele>
        <time>2021-03-07 12:20:26</time>
      </trkpt>
      <trkpt lat="42.83882" lon="-1.5876">
        <ele>430.6</ele>
        <time>2021-03-07 12:20:27</time>
      </trkpt>
      <trkpt lat="42.83877" lon="-1.58768">
        <ele>429.6</ele>
        <time>2021-03-07 12:20:28</time>
      </trkpt>
      <trkpt lat="42.83875" lon="-1.58778">
        <ele>429</ele>
        <time>2021-03-07 12:20:29</time>
      </trkpt>
      <trkpt lat="42.83879" lon="-1.5879">
        <ele>428.6</ele>
        <time>2021-03-07 12:20:30</time>
      </trkpt>
      <trkpt lat="42.83882" lon="-1.58801">
        <ele>428.2</ele>
        <time>2021-03-07 12:20:31</time>
      </trkpt>
      <trkpt lat="42.83887" lon="-1.58811">
        <ele>428</ele>
        <time>2021-03-07 12:20:32</time>
      </trkpt>
      <trkpt lat="42.83891" lon="-1.58822">
        <ele>427.8</ele>
        <time>2021-03-07 12:20:33</time>
      </trkpt>
      <trkpt lat="42.83897" lon="-1.5883">
        <ele>427.8</ele>
        <time>2021-03-07 12:20:34</time>
      </trkpt>
      <trkpt lat="42.83904" lon="-1.58838">
        <ele>427.8</ele>
        <time>2021-03-07 12:20:35</time>
      </trkpt>
      <trkpt lat="42.83911" lon="-1.58844">
        <ele>427.8</ele>
        <time>2021-03-07 12:20:36</time>
      </trkpt>
      <trkpt lat="42.83919" lon="-1.58848">
        <ele>427.6</ele>
        <time>2021-03-07 12:20:37</time>
      </trkpt>
      <trkpt lat="42.83926" lon="-1.58851">
        <ele>427.6</ele>
        <time>2021-03-07 12:20:38</time>
      </trkpt>
      <trkpt lat="42.83934" lon="-1.58852">
        <ele>427.2</ele>
        <time>2021-03-07 12:20:39</time>
      </trkpt>
      <trkpt lat="42.83942" lon="-1.58851">
        <ele>427</ele>
        <time>2021-03-07 12:20:40</time>
      </trkpt>
      <trkpt lat="42.83949" lon="-1.5885">
        <ele>427</ele>
        <time>2021-03-07 12:20:41</time>
      </trkpt>
      <trkpt lat="42.83955" lon="-1.58846">
        <ele>426.8</ele>
        <time>2021-03-07 12:20:42</time>
      </trkpt>
      <trkpt lat="42.83958" lon="-1.58839">
        <ele>426.8</ele>
        <time>2021-03-07 12:20:43</time>
      </trkpt>
      <trkpt lat="42.83962" lon="-1.58833">
        <ele>426.8</ele>
        <time>2021-03-07 12:20:44</time>
      </trkpt>
      <trkpt lat="42.83968" lon="-1.58828">
        <ele>426.8</ele>
        <time>2021-03-07 12:20:45</time>
      </trkpt>
      <trkpt lat="42.83973" lon="-1.58822">
        <ele>426.8</ele>
        <time>2021-03-07 12:20:46</time>
      </trkpt>
      <trkpt lat="42.83978" lon="-1.58816">
        <ele>426.8</ele>
        <time>2021-03-07 12:20:47</time>
      </trkpt>
      <trkpt lat="42.83983" lon="-1.58811">
        <ele>426.8</ele>
        <time>2021-03-07 12:20:48</time>
      </trkpt>
      <trkpt lat="42.83988" lon="-1.58804">
        <ele>426.8</ele>
        <time>2021-03-07 12:20:49</time>
      </trkpt>
      <trkpt lat="42.83992" lon="-1.58798">
        <ele>426.8</ele>
        <time>2021-03-07 12:20:50</time>
      </trkpt>
      <trkpt lat="42.83997" lon="-1.58792">
        <ele>427</ele>
        <time>2021-03-07 12:20:51</time>
      </trkpt>
      <trkpt lat="42.84001" lon="-1.58786">
        <ele>427.4</ele>
        <time>2021-03-07 12:20:52</time>
      </trkpt>
      <trkpt lat="42.84005" lon="-1.58779">
        <ele>427.6</ele>
        <time>2021-03-07 12:20:53</time>
      </trkpt>
      <trkpt lat="42.84009" lon="-1.58773">
        <ele>427.8</ele>
        <time>2021-03-07 12:20:54</time>
      </trkpt>
      <trkpt lat="42.84013" lon="-1.58766">
        <ele>428</ele>
        <time>2021-03-07 12:20:55</time>
      </trkpt>
      <trkpt lat="42.84018" lon="-1.5876">
        <ele>428.4</ele>
        <time>2021-03-07 12:20:56</time>
      </trkpt>
      <trkpt lat="42.84021" lon="-1.58753">
        <ele>428.4</ele>
        <time>2021-03-07 12:20:57</time>
      </trkpt>
      <trkpt lat="42.84024" lon="-1.58745">
        <ele>428.6</ele>
        <time>2021-03-07 12:20:58</time>
      </trkpt>
      <trkpt lat="42.84027" lon="-1.58738">
        <ele>429.2</ele>
        <time>2021-03-07 12:20:59</time>
      </trkpt>
      <trkpt lat="42.84029" lon="-1.5873">
        <ele>429.4</ele>
        <time>2021-03-07 12:21:00</time>
      </trkpt>
      <trkpt lat="42.84031" lon="-1.58723">
        <ele>429.6</ele>
        <time>2021-03-07 12:21:01</time>
      </trkpt>
      <trkpt lat="42.84032" lon="-1.58717">
        <ele>429.8</ele>
        <time>2021-03-07 12:21:02</time>
      </trkpt>
      <trkpt lat="42.84033" lon="-1.58712">
        <ele>429.8</ele>
        <time>2021-03-07 12:21:03</time>
      </trkpt>
      <trkpt lat="42.84032" lon="-1.58708">
        <ele>429.8</ele>
        <time>2021-03-07 12:21:04</time>
      </trkpt>
      <trkpt lat="42.84032" lon="-1.58705">
        <ele>430</ele>
        <time>2021-03-07 12:21:05</time>
      </trkpt>
      <trkpt lat="42.84031" lon="-1.58701">
        <ele>430.2</ele>
        <time>2021-03-07 12:21:06</time>
      </trkpt>
      <trkpt lat="42.8403" lon="-1.58698">
        <ele>430.4</ele>
        <time>2021-03-07 12:21:07</time>
      </trkpt>
      <trkpt lat="42.84029" lon="-1.58694">
        <ele>430.4</ele>
        <time>2021-03-07 12:21:08</time>
      </trkpt>
      <trkpt lat="42.84029" lon="-1.58688">
        <ele>430.6</ele>
        <time>2021-03-07 12:21:09</time>
      </trkpt>
      <trkpt lat="42.84028" lon="-1.58682">
        <ele>430.8</ele>
        <time>2021-03-07 12:21:10</time>
      </trkpt>
      <trkpt lat="42.84029" lon="-1.58675">
        <ele>431.2</ele>
        <time>2021-03-07 12:21:11</time>
      </trkpt>
      <trkpt lat="42.8403" lon="-1.58669">
        <ele>431.2</ele>
        <time>2021-03-07 12:21:12</time>
      </trkpt>
      <trkpt lat="42.84032" lon="-1.58662">
        <ele>431.4</ele>
        <time>2021-03-07 12:21:13</time>
      </trkpt>
      <trkpt lat="42.84035" lon="-1.58656">
        <ele>431.4</ele>
        <time>2021-03-07 12:21:14</time>
      </trkpt>
      <trkpt lat="42.84039" lon="-1.58652">
        <ele>431.4</ele>
        <time>2021-03-07 12:21:15</time>
      </trkpt>
      <trkpt lat="42.84044" lon="-1.58649">
        <ele>431.4</ele>
        <time>2021-03-07 12:21:16</time>
      </trkpt>
      <trkpt lat="42.84049" lon="-1.58647">
        <ele>431.4</ele>
        <time>2021-03-07 12:21:17</time>
      </trkpt>
      <trkpt lat="42.84055" lon="-1.58648">
        <ele>431.4</ele>
        <time>2021-03-07 12:21:18</time>
      </trkpt>
      <trkpt lat="42.8406" lon="-1.58651">
        <ele>431.6</ele>
        <time>2021-03-07 12:21:19</time>
      </trkpt>
      <trkpt lat="42.84066" lon="-1.58655">
        <ele>431.6</ele>
        <time>2021-03-07 12:21:20</time>
      </trkpt>
      <trkpt lat="42.84071" lon="-1.58659">
        <ele>431.6</ele>
        <time>2021-03-07 12:21:21</time>
      </trkpt>
      <trkpt lat="42.84076" lon="-1.58663">
        <ele>431.8</ele>
        <time>2021-03-07 12:21:22</time>
      </trkpt>
      <trkpt lat="42.84082" lon="-1.58666">
        <ele>431.8</ele>
        <time>2021-03-07 12:21:23</time>
      </trkpt>
      <trkpt lat="42.84088" lon="-1.58668">
        <ele>431.8</ele>
        <time>2021-03-07 12:21:24</time>
      </trkpt>
      <trkpt lat="42.84095" lon="-1.58669">
        <ele>431.8</ele>
        <time>2021-03-07 12:21:25</time>
      </trkpt>
      <trkpt lat="42.84101" lon="-1.5867">
        <ele>431.8</ele>
        <time>2021-03-07 12:21:26</time>
      </trkpt>
      <trkpt lat="42.84108" lon="-1.5867">
        <ele>431.8</ele>
        <time>2021-03-07 12:21:27</time>
      </trkpt>
      <trkpt lat="42.84115" lon="-1.5867">
        <ele>431.8</ele>
        <time>2021-03-07 12:21:28</time>
      </trkpt>
      <trkpt lat="42.84121" lon="-1.5867">
        <ele>431.8</ele>
        <time>2021-03-07 12:21:29</time>
      </trkpt>
      <trkpt lat="42.84128" lon="-1.58669">
        <ele>431.8</ele>
        <time>2021-03-07 12:21:30</time>
      </trkpt>
      <trkpt lat="42.84134" lon="-1.58668">
        <ele>431.8</ele>
        <time>2021-03-07 12:21:31</time>
      </trkpt>
      <trkpt lat="42.84141" lon="-1.58667">
        <ele>432</ele>
        <time>2021-03-07 12:21:32</time>
      </trkpt>
      <trkpt lat="42.84148" lon="-1.58666">
        <ele>432</ele>
        <time>2021-03-07 12:21:33</time>
      </trkpt>
      <trkpt lat="42.84154" lon="-1.58665">
        <ele>432</ele>
        <time>2021-03-07 12:21:34</time>
      </trkpt>
      <trkpt lat="42.84161" lon="-1.58664">
        <ele>432</ele>
        <time>2021-03-07 12:21:35</time>
      </trkpt>
      <trkpt lat="42.84168" lon="-1.58663">
        <ele>432</ele>
        <time>2021-03-07 12:21:36</time>
      </trkpt>
      <trkpt lat="42.84175" lon="-1.58663">
        <ele>432</ele>
        <time>2021-03-07 12:21:37</time>
      </trkpt>
      <trkpt lat="42.84182" lon="-1.58662">
        <ele>432.2</ele>
        <time>2021-03-07 12:21:38</time>
      </trkpt>
      <trkpt lat="42.84189" lon="-1.58661">
        <ele>432.2</ele>
        <time>2021-03-07 12:21:39</time>
      </trkpt>
      <trkpt lat="42.84196" lon="-1.5866">
        <ele>432.2</ele>
        <time>2021-03-07 12:21:40</time>
      </trkpt>
      <trkpt lat="42.84203" lon="-1.58659">
        <ele>432.2</ele>
        <time>2021-03-07 12:21:41</time>
      </trkpt>
      <trkpt lat="42.84209" lon="-1.58658">
        <ele>432.2</ele>
        <time>2021-03-07 12:21:42</time>
      </trkpt>
      <trkpt lat="42.84216" lon="-1.58657">
        <ele>432.2</ele>
        <time>2021-03-07 12:21:43</time>
      </trkpt>
      <trkpt lat="42.84223" lon="-1.58656">
        <ele>432.2</ele>
        <time>2021-03-07 12:21:44</time>
      </trkpt>
      <trkpt lat="42.8423" lon="-1.58654">
        <ele>432.2</ele>
        <time>2021-03-07 12:21:45</time>
      </trkpt>
      <trkpt lat="42.84237" lon="-1.58653">
        <ele>432.2</ele>
        <time>2021-03-07 12:21:46</time>
      </trkpt>
      <trkpt lat="42.84244" lon="-1.58653">
        <ele>432.2</ele>
        <time>2021-03-07 12:21:47</time>
      </trkpt>
      <trkpt lat="42.84251" lon="-1.58652">
        <ele>432.2</ele>
        <time>2021-03-07 12:21:48</time>
      </trkpt>
      <trkpt lat="42.84258" lon="-1.58651">
        <ele>432.4</ele>
        <time>2021-03-07 12:21:49</time>
      </trkpt>
      <trkpt lat="42.84265" lon="-1.5865">
        <ele>432.4</ele>
        <time>2021-03-07 12:21:50</time>
      </trkpt>
      <trkpt lat="42.84271" lon="-1.58649">
        <ele>432.4</ele>
        <time>2021-03-07 12:21:51</time>
      </trkpt>
      <trkpt lat="42.84278" lon="-1.58648">
        <ele>432.4</ele>
        <time>2021-03-07 12:21:52</time>
      </trkpt>
      <trkpt lat="42.84285" lon="-1.58647">
        <ele>432.4</ele>
        <time>2021-03-07 12:21:53</time>
      </trkpt>
      <trkpt lat="42.84292" lon="-1.58646">
        <ele>432.4</ele>
        <time>2021-03-07 12:21:54</time>
      </trkpt>
      <trkpt lat="42.84299" lon="-1.58645">
        <ele>432.4</ele>
        <time>2021-03-07 12:21:55</time>
      </trkpt>
      <trkpt lat="42.84306" lon="-1.58644">
        <ele>432.4</ele>
        <time>2021-03-07 12:21:56</time>
      </trkpt>
      <trkpt lat="42.84313" lon="-1.58643">
        <ele>432.4</ele>
        <time>2021-03-07 12:21:57</time>
      </trkpt>
      <trkpt lat="42.8432" lon="-1.58642">
        <ele>432.4</ele>
        <time>2021-03-07 12:21:58</time>
      </trkpt>
      <trkpt lat="42.84327" lon="-1.58641">
        <ele>432.4</ele>
        <time>2021-03-07 12:21:59</time>
      </trkpt>
      <trkpt lat="42.84334" lon="-1.5864">
        <ele>432.4</ele>
        <time>2021-03-07 12:22:00</time>
      </trkpt>
      <trkpt lat="42.84341" lon="-1.58639">
        <ele>432.4</ele>
        <time>2021-03-07 12:22:01</time>
      </trkpt>
      <trkpt lat="42.84348" lon="-1.58638">
        <ele>432.4</ele>
        <time>2021-03-07 12:22:02</time>
      </trkpt>
      <trkpt lat="42.84355" lon="-1.58637">
        <ele>432.6</ele>
        <time>2021-03-07 12:22:03</time>
      </trkpt>
      <trkpt lat="42.84362" lon="-1.58636">
        <ele>432.6</ele>
        <time>2021-03-07 12:22:04</time>
      </trkpt>
      <trkpt lat="42.84368" lon="-1.58635">
        <ele>432.6</ele>
        <time>2021-03-07 12:22:05</time>
      </trkpt>
      <trkpt lat="42.84375" lon="-1.58634">
        <ele>432.6</ele>
        <time>2021-03-07 12:22:06</time>
      </trkpt>
      <trkpt lat="42.84382" lon="-1.58633">
        <ele>432.6</ele>
        <time>2021-03-07 12:22:07</time>
      </trkpt>
      <trkpt lat="42.84389" lon="-1.58631">
        <ele>432.8</ele>
        <time>2021-03-07 12:22:08</time>
      </trkpt>
      <trkpt lat="42.84396" lon="-1.5863">
        <ele>432.8</ele>
        <time>2021-03-07 12:22:09</time>
      </trkpt>
      <trkpt lat="42.84403" lon="-1.58628">
        <ele>433</ele>
        <time>2021-03-07 12:22:10</time>
      </trkpt>
      <trkpt lat="42.84409" lon="-1.58626">
        <ele>433</ele>
        <time>2021-03-07 12:22:11</time>
      </trkpt>
      <trkpt lat="42.84416" lon="-1.58624">
        <ele>433.2</ele>
        <time>2021-03-07 12:22:12</time>
      </trkpt>
      <trkpt lat="42.84423" lon="-1.58622">
        <ele>433.2</ele>
        <time>2021-03-07 12:22:13</time>
      </trkpt>
      <trkpt lat="42.8443" lon="-1.5862">
        <ele>433.4</ele>
        <time>2021-03-07 12:22:14</time>
      </trkpt>
      <trkpt lat="42.84437" lon="-1.58618">
        <ele>433.4</ele>
        <time>2021-03-07 12:22:15</time>
      </trkpt>
      <trkpt lat="42.84443" lon="-1.58615">
        <ele>433.6</ele>
        <time>2021-03-07 12:22:16</time>
      </trkpt>
      <trkpt lat="42.8445" lon="-1.58613">
        <ele>433.8</ele>
        <time>2021-03-07 12:22:17</time>
      </trkpt>
      <trkpt lat="42.84457" lon="-1.58611">
        <ele>434</ele>
        <time>2021-03-07 12:22:18</time>
      </trkpt>
      <trkpt lat="42.84463" lon="-1.58608">
        <ele>434</ele>
        <time>2021-03-07 12:22:19</time>
      </trkpt>
      <trkpt lat="42.8447" lon="-1.58606">
        <ele>434</ele>
        <time>2021-03-07 12:22:20</time>
      </trkpt>
      <trkpt lat="42.84477" lon="-1.58604">
        <ele>434.2</ele>
        <time>2021-03-07 12:22:21</time>
      </trkpt>
      <trkpt lat="42.84483" lon="-1.58602">
        <ele>434.2</ele>
        <time>2021-03-07 12:22:22</time>
      </trkpt>
      <trkpt lat="42.8449" lon="-1.58599">
        <ele>434.4</ele>
        <time>2021-03-07 12:22:23</time>
      </trkpt>
      <trkpt lat="42.84496" lon="-1.58597">
        <ele>434.4</ele>
        <time>2021-03-07 12:22:24</time>
      </trkpt>
      <trkpt lat="42.84503" lon="-1.58595">
        <ele>434.6</ele>
        <time>2021-03-07 12:22:25</time>
      </trkpt>
      <trkpt lat="42.84509" lon="-1.58592">
        <ele>434.6</ele>
        <time>2021-03-07 12:22:26</time>
      </trkpt>
      <trkpt lat="42.84516" lon="-1.5859">
        <ele>434.8</ele>
        <time>2021-03-07 12:22:27</time>
      </trkpt>
      <trkpt lat="42.84523" lon="-1.58587">
        <ele>434.8</ele>
        <time>2021-03-07 12:22:28</time>
      </trkpt>
      <trkpt lat="42.84529" lon="-1.58585">
        <ele>435</ele>
        <time>2021-03-07 12:22:29</time>
      </trkpt>
      <trkpt lat="42.84536" lon="-1.58582">
        <ele>435</ele>
        <time>2021-03-07 12:22:30</time>
      </trkpt>
      <trkpt lat="42.84542" lon="-1.58579">
        <ele>435.2</ele>
        <time>2021-03-07 12:22:31</time>
      </trkpt>
      <trkpt lat="42.84549" lon="-1.58576">
        <ele>435.2</ele>
        <time>2021-03-07 12:22:32</time>
      </trkpt>
      <trkpt lat="42.84555" lon="-1.58573">
        <ele>435.2</ele>
        <time>2021-03-07 12:22:33</time>
      </trkpt>
      <trkpt lat="42.84562" lon="-1.5857">
        <ele>435.2</ele>
        <time>2021-03-07 12:22:34</time>
      </trkpt>
      <trkpt lat="42.84568" lon="-1.58568">
        <ele>435.4</ele>
        <time>2021-03-07 12:22:35</time>
      </trkpt>
      <trkpt lat="42.84575" lon="-1.58565">
        <ele>435.4</ele>
        <time>2021-03-07 12:22:36</time>
      </trkpt>
      <trkpt lat="42.84581" lon="-1.58562">
        <ele>435.4</ele>
        <time>2021-03-07 12:22:37</time>
      </trkpt>
      <trkpt lat="42.84587" lon="-1.58559">
        <ele>435.6</ele>
        <time>2021-03-07 12:22:38</time>
      </trkpt>
      <trkpt lat="42.84593" lon="-1.58556">
        <ele>435.8</ele>
        <time>2021-03-07 12:22:39</time>
      </trkpt>
      <trkpt lat="42.84599" lon="-1.58554">
        <ele>436</ele>
        <time>2021-03-07 12:22:40</time>
      </trkpt>
      <trkpt lat="42.84605" lon="-1.58551">
        <ele>436</ele>
        <time>2021-03-07 12:22:41</time>
      </trkpt>
      <trkpt lat="42.84611" lon="-1.58548">
        <ele>436.2</ele>
        <time>2021-03-07 12:22:42</time>
      </trkpt>
      <trkpt lat="42.84617" lon="-1.58545">
        <ele>436.2</ele>
        <time>2021-03-07 12:22:43</time>
      </trkpt>
      <trkpt lat="42.84623" lon="-1.58543">
        <ele>436.2</ele>
        <time>2021-03-07 12:22:44</time>
      </trkpt>
      <trkpt lat="42.84628" lon="-1.5854">
        <ele>436.4</ele>
        <time>2021-03-07 12:22:45</time>
      </trkpt>
      <trkpt lat="42.84634" lon="-1.58537">
        <ele>436.6</ele>
        <time>2021-03-07 12:22:46</time>
      </trkpt>
      <trkpt lat="42.8464" lon="-1.58534">
        <ele>436.8</ele>
        <time>2021-03-07 12:22:47</time>
      </trkpt>
      <trkpt lat="42.84646" lon="-1.58532">
        <ele>437</ele>
        <time>2021-03-07 12:22:48</time>
      </trkpt>
      <trkpt lat="42.84652" lon="-1.58529">
        <ele>437.4</ele>
        <time>2021-03-07 12:22:49</time>
      </trkpt>
      <trkpt lat="42.84658" lon="-1.58527">
        <ele>437.4</ele>
        <time>2021-03-07 12:22:50</time>
      </trkpt>
      <trkpt lat="42.84665" lon="-1.58524">
        <ele>437.6</ele>
        <time>2021-03-07 12:22:51</time>
      </trkpt>
      <trkpt lat="42.84671" lon="-1.58522">
        <ele>437.6</ele>
        <time>2021-03-07 12:22:52</time>
      </trkpt>
      <trkpt lat="42.84677" lon="-1.58519">
        <ele>437.8</ele>
        <time>2021-03-07 12:22:53</time>
      </trkpt>
      <trkpt lat="42.84683" lon="-1.58516">
        <ele>437.8</ele>
        <time>2021-03-07 12:22:54</time>
      </trkpt>
      <trkpt lat="42.8469" lon="-1.58514">
        <ele>437.8</ele>
        <time>2021-03-07 12:22:55</time>
      </trkpt>
      <trkpt lat="42.84697" lon="-1.58511">
        <ele>437.8</ele>
        <time>2021-03-07 12:22:56</time>
      </trkpt>
      <trkpt lat="42.84704" lon="-1.58508">
        <ele>437.8</ele>
        <time>2021-03-07 12:22:57</time>
      </trkpt>
      <trkpt lat="42.8471" lon="-1.58505">
        <ele>437.8</ele>
        <time>2021-03-07 12:22:58</time>
      </trkpt>
      <trkpt lat="42.84718" lon="-1.58501">
        <ele>437.8</ele>
        <time>2021-03-07 12:22:59</time>
      </trkpt>
      <trkpt lat="42.84725" lon="-1.58498">
        <ele>437.8</ele>
        <time>2021-03-07 12:23:00</time>
      </trkpt>
      <trkpt lat="42.84732" lon="-1.58494">
        <ele>437.8</ele>
        <time>2021-03-07 12:23:01</time>
      </trkpt>
      <trkpt lat="42.84739" lon="-1.58491">
        <ele>437.8</ele>
        <time>2021-03-07 12:23:02</time>
      </trkpt>
      <trkpt lat="42.84746" lon="-1.58487">
        <ele>437.8</ele>
        <time>2021-03-07 12:23:03</time>
      </trkpt>
      <trkpt lat="42.84753" lon="-1.58484">
        <ele>437.8</ele>
        <time>2021-03-07 12:23:04</time>
      </trkpt>
      <trkpt lat="42.8476" lon="-1.5848">
        <ele>437.8</ele>
        <time>2021-03-07 12:23:05</time>
      </trkpt>
      <trkpt lat="42.84767" lon="-1.58476">
        <ele>437.8</ele>
        <time>2021-03-07 12:23:06</time>
      </trkpt>
      <trkpt lat="42.84774" lon="-1.58473">
        <ele>437.6</ele>
        <time>2021-03-07 12:23:07</time>
      </trkpt>
      <trkpt lat="42.84782" lon="-1.58469">
        <ele>437.6</ele>
        <time>2021-03-07 12:23:08</time>
      </trkpt>
      <trkpt lat="42.84789" lon="-1.58466">
        <ele>437.6</ele>
        <time>2021-03-07 12:23:09</time>
      </trkpt>
      <trkpt lat="42.84796" lon="-1.58462">
        <ele>437.6</ele>
        <time>2021-03-07 12:23:10</time>
      </trkpt>
      <trkpt lat="42.84803" lon="-1.58459">
        <ele>437.6</ele>
        <time>2021-03-07 12:23:11</time>
      </trkpt>
      <trkpt lat="42.8481" lon="-1.58456">
        <ele>437.4</ele>
        <time>2021-03-07 12:23:12</time>
      </trkpt>
      <trkpt lat="42.84817" lon="-1.58453">
        <ele>437.4</ele>
        <time>2021-03-07 12:23:13</time>
      </trkpt>
      <trkpt lat="42.84825" lon="-1.5845">
        <ele>437.2</ele>
        <time>2021-03-07 12:23:14</time>
      </trkpt>
      <trkpt lat="42.84832" lon="-1.58448">
        <ele>437.2</ele>
        <time>2021-03-07 12:23:15</time>
      </trkpt>
      <trkpt lat="42.8484" lon="-1.58445">
        <ele>437.2</ele>
        <time>2021-03-07 12:23:16</time>
      </trkpt>
      <trkpt lat="42.84847" lon="-1.58443">
        <ele>437.2</ele>
        <time>2021-03-07 12:23:17</time>
      </trkpt>
      <trkpt lat="42.84855" lon="-1.5844">
        <ele>437.2</ele>
        <time>2021-03-07 12:23:18</time>
      </trkpt>
      <trkpt lat="42.84862" lon="-1.58438">
        <ele>437.2</ele>
        <time>2021-03-07 12:23:19</time>
      </trkpt>
      <trkpt lat="42.8487" lon="-1.58436">
        <ele>437.2</ele>
        <time>2021-03-07 12:23:20</time>
      </trkpt>
      <trkpt lat="42.84878" lon="-1.58434">
        <ele>437.4</ele>
        <time>2021-03-07 12:23:21</time>
      </trkpt>
      <trkpt lat="42.84886" lon="-1.58432">
        <ele>437.6</ele>
        <time>2021-03-07 12:23:22</time>
      </trkpt>
      <trkpt lat="42.84894" lon="-1.5843">
        <ele>437.8</ele>
        <time>2021-03-07 12:23:23</time>
      </trkpt>
      <trkpt lat="42.84901" lon="-1.58428">
        <ele>437.8</ele>
        <time>2021-03-07 12:23:24</time>
      </trkpt>
      <trkpt lat="42.84909" lon="-1.58426">
        <ele>437.8</ele>
        <time>2021-03-07 12:23:25</time>
      </trkpt>
      <trkpt lat="42.84917" lon="-1.58424">
        <ele>438</ele>
        <time>2021-03-07 12:23:26</time>
      </trkpt>
      <trkpt lat="42.84925" lon="-1.58422">
        <ele>438</ele>
        <time>2021-03-07 12:23:27</time>
      </trkpt>
      <trkpt lat="42.84933" lon="-1.58419">
        <ele>438</ele>
        <time>2021-03-07 12:23:28</time>
      </trkpt>
      <trkpt lat="42.8494" lon="-1.58417">
        <ele>438</ele>
        <time>2021-03-07 12:23:29</time>
      </trkpt>
      <trkpt lat="42.84948" lon="-1.58416">
        <ele>438</ele>
        <time>2021-03-07 12:23:30</time>
      </trkpt>
      <trkpt lat="42.84956" lon="-1.58414">
        <ele>438.2</ele>
        <time>2021-03-07 12:23:31</time>
      </trkpt>
      <trkpt lat="42.84964" lon="-1.58412">
        <ele>438.2</ele>
        <time>2021-03-07 12:23:32</time>
      </trkpt>
      <trkpt lat="42.84971" lon="-1.5841">
        <ele>438.4</ele>
        <time>2021-03-07 12:23:33</time>
      </trkpt>
      <trkpt lat="42.84979" lon="-1.58408">
        <ele>438.4</ele>
        <time>2021-03-07 12:23:34</time>
      </trkpt>
      <trkpt lat="42.84986" lon="-1.58406">
        <ele>438.2</ele>
        <time>2021-03-07 12:23:35</time>
      </trkpt>
      <trkpt lat="42.84994" lon="-1.58404">
        <ele>438.4</ele>
        <time>2021-03-07 12:23:36</time>
      </trkpt>
      <trkpt lat="42.85002" lon="-1.58402">
        <ele>438.2</ele>
        <time>2021-03-07 12:23:37</time>
      </trkpt>
      <trkpt lat="42.85009" lon="-1.584">
        <ele>438.2</ele>
        <time>2021-03-07 12:23:38</time>
      </trkpt>
      <trkpt lat="42.85017" lon="-1.58398">
        <ele>438.2</ele>
        <time>2021-03-07 12:23:39</time>
      </trkpt>
      <trkpt lat="42.85025" lon="-1.58396">
        <ele>438.2</ele>
        <time>2021-03-07 12:23:40</time>
      </trkpt>
      <trkpt lat="42.85032" lon="-1.58394">
        <ele>438.2</ele>
        <time>2021-03-07 12:23:41</time>
      </trkpt>
      <trkpt lat="42.8504" lon="-1.58391">
        <ele>438.4</ele>
        <time>2021-03-07 12:23:42</time>
      </trkpt>
      <trkpt lat="42.85048" lon="-1.58389">
        <ele>438.4</ele>
        <time>2021-03-07 12:23:43</time>
      </trkpt>
      <trkpt lat="42.85055" lon="-1.58386">
        <ele>438.4</ele>
        <time>2021-03-07 12:23:44</time>
      </trkpt>
      <trkpt lat="42.85063" lon="-1.58383">
        <ele>438.4</ele>
        <time>2021-03-07 12:23:45</time>
      </trkpt>
      <trkpt lat="42.85071" lon="-1.58379">
        <ele>438.4</ele>
        <time>2021-03-07 12:23:46</time>
      </trkpt>
      <trkpt lat="42.85078" lon="-1.58376">
        <ele>438.4</ele>
        <time>2021-03-07 12:23:47</time>
      </trkpt>
      <trkpt lat="42.85085" lon="-1.58372">
        <ele>438.4</ele>
        <time>2021-03-07 12:23:48</time>
      </trkpt>
      <trkpt lat="42.85093" lon="-1.58368">
        <ele>438.4</ele>
        <time>2021-03-07 12:23:49</time>
      </trkpt>
      <trkpt lat="42.851" lon="-1.58364">
        <ele>438.4</ele>
        <time>2021-03-07 12:23:50</time>
      </trkpt>
      <trkpt lat="42.85107" lon="-1.58361">
        <ele>438.2</ele>
        <time>2021-03-07 12:23:51</time>
      </trkpt>
      <trkpt lat="42.85114" lon="-1.58357">
        <ele>438.2</ele>
        <time>2021-03-07 12:23:52</time>
      </trkpt>
      <trkpt lat="42.85121" lon="-1.58353">
        <ele>438.2</ele>
        <time>2021-03-07 12:23:53</time>
      </trkpt>
      <trkpt lat="42.85129" lon="-1.58349">
        <ele>438</ele>
        <time>2021-03-07 12:23:54</time>
      </trkpt>
      <trkpt lat="42.85136" lon="-1.58345">
        <ele>437.8</ele>
        <time>2021-03-07 12:23:55</time>
      </trkpt>
      <trkpt lat="42.85143" lon="-1.58341">
        <ele>437.8</ele>
        <time>2021-03-07 12:23:56</time>
      </trkpt>
      <trkpt lat="42.85149" lon="-1.58338">
        <ele>437.8</ele>
        <time>2021-03-07 12:23:57</time>
      </trkpt>
      <trkpt lat="42.85156" lon="-1.58336">
        <ele>437.8</ele>
        <time>2021-03-07 12:23:58</time>
      </trkpt>
      <trkpt lat="42.85162" lon="-1.58337">
        <ele>437.8</ele>
        <time>2021-03-07 12:23:59</time>
      </trkpt>
      <trkpt lat="42.85166" lon="-1.5834">
        <ele>437.8</ele>
        <time>2021-03-07 12:24:00</time>
      </trkpt>
      <trkpt lat="42.85167" lon="-1.58343">
        <ele>437.8</ele>
        <time>2021-03-07 12:24:01</time>
      </trkpt>
      <trkpt lat="42.85168" lon="-1.58346">
        <ele>437.8</ele>
        <time>2021-03-07 12:24:02</time>
      </trkpt>
      <trkpt lat="42.85168" lon="-1.58349">
        <ele>437.8</ele>
        <time>2021-03-07 12:24:03</time>
      </trkpt>
      <trkpt lat="42.85166" lon="-1.58351">
        <ele>437.8</ele>
        <time>2021-03-07 12:24:04</time>
      </trkpt>
      <trkpt lat="42.85163" lon="-1.58354">
        <ele>437.8</ele>
        <time>2021-03-07 12:24:05</time>
      </trkpt>
      <trkpt lat="42.8516" lon="-1.58355">
        <ele>438</ele>
        <time>2021-03-07 12:24:06</time>
      </trkpt>
      <trkpt lat="42.85155" lon="-1.58357">
        <ele>438</ele>
        <time>2021-03-07 12:24:07</time>
      </trkpt>
      <trkpt lat="42.85151" lon="-1.58359">
        <ele>438</ele>
        <time>2021-03-07 12:24:08</time>
      </trkpt>
      <trkpt lat="42.85145" lon="-1.58361">
        <ele>438</ele>
        <time>2021-03-07 12:24:09</time>
      </trkpt>
      <trkpt lat="42.8514" lon="-1.58363">
        <ele>438</ele>
        <time>2021-03-07 12:24:10</time>
      </trkpt>
      <trkpt lat="42.85134" lon="-1.58366">
        <ele>438</ele>
        <time>2021-03-07 12:24:11</time>
      </trkpt>
      <trkpt lat="42.85129" lon="-1.58368">
        <ele>438</ele>
        <time>2021-03-07 12:24:12</time>
      </trkpt>
      <trkpt lat="42.85123" lon="-1.5837">
        <ele>438</ele>
        <time>2021-03-07 12:24:13</time>
      </trkpt>
      <trkpt lat="42.85117" lon="-1.58372">
        <ele>438</ele>
        <time>2021-03-07 12:24:14</time>
      </trkpt>
      <trkpt lat="42.85111" lon="-1.58375">
        <ele>437.8</ele>
        <time>2021-03-07 12:24:15</time>
      </trkpt>
      <trkpt lat="42.85104" lon="-1.58377">
        <ele>437.8</ele>
        <time>2021-03-07 12:24:16</time>
      </trkpt>
      <trkpt lat="42.85098" lon="-1.58379">
        <ele>437.6</ele>
        <time>2021-03-07 12:24:17</time>
      </trkpt>
      <trkpt lat="42.85092" lon="-1.58382">
        <ele>437.4</ele>
        <time>2021-03-07 12:24:18</time>
      </trkpt>
      <trkpt lat="42.85086" lon="-1.58384">
        <ele>437.2</ele>
        <time>2021-03-07 12:24:19</time>
      </trkpt>
      <trkpt lat="42.8508" lon="-1.58386">
        <ele>437</ele>
        <time>2021-03-07 12:24:20</time>
      </trkpt>
      <trkpt lat="42.85074" lon="-1.58388">
        <ele>437</ele>
        <time>2021-03-07 12:24:21</time>
      </trkpt>
      <trkpt lat="42.85067" lon="-1.58391">
        <ele>437</ele>
        <time>2021-03-07 12:24:22</time>
      </trkpt>
      <trkpt lat="42.85061" lon="-1.58393">
        <ele>437</ele>
        <time>2021-03-07 12:24:23</time>
      </trkpt>
      <trkpt lat="42.85055" lon="-1.58395">
        <ele>437</ele>
        <time>2021-03-07 12:24:24</time>
      </trkpt>
      <trkpt lat="42.85049" lon="-1.58397">
        <ele>437</ele>
        <time>2021-03-07 12:24:25</time>
      </trkpt>
      <trkpt lat="42.85042" lon="-1.58399">
        <ele>436.8</ele>
        <time>2021-03-07 12:24:26</time>
      </trkpt>
      <trkpt lat="42.85036" lon="-1.58401">
        <ele>436.8</ele>
        <time>2021-03-07 12:24:27</time>
      </trkpt>
      <trkpt lat="42.8503" lon="-1.58403">
        <ele>436.8</ele>
        <time>2021-03-07 12:24:28</time>
      </trkpt>
      <trkpt lat="42.85024" lon="-1.58405">
        <ele>436.8</ele>
        <time>2021-03-07 12:24:29</time>
      </trkpt>
      <trkpt lat="42.85017" lon="-1.58407">
        <ele>436.8</ele>
        <time>2021-03-07 12:24:30</time>
      </trkpt>
      <trkpt lat="42.85011" lon="-1.58408">
        <ele>436.8</ele>
        <time>2021-03-07 12:24:31</time>
      </trkpt>
      <trkpt lat="42.85005" lon="-1.5841">
        <ele>436.6</ele>
        <time>2021-03-07 12:24:32</time>
      </trkpt>
      <trkpt lat="42.84998" lon="-1.58412">
        <ele>436.6</ele>
        <time>2021-03-07 12:24:33</time>
      </trkpt>
      <trkpt lat="42.84992" lon="-1.58413">
        <ele>436.6</ele>
        <time>2021-03-07 12:24:34</time>
      </trkpt>
      <trkpt lat="42.84986" lon="-1.58415">
        <ele>436.6</ele>
        <time>2021-03-07 12:24:35</time>
      </trkpt>
      <trkpt lat="42.84979" lon="-1.58416">
        <ele>436.6</ele>
        <time>2021-03-07 12:24:36</time>
      </trkpt>
      <trkpt lat="42.84973" lon="-1.58418">
        <ele>436.4</ele>
        <time>2021-03-07 12:24:37</time>
      </trkpt>
      <trkpt lat="42.84967" lon="-1.5842">
        <ele>436.4</ele>
        <time>2021-03-07 12:24:38</time>
      </trkpt>
      <trkpt lat="42.8496" lon="-1.58421">
        <ele>436.4</ele>
        <time>2021-03-07 12:24:39</time>
      </trkpt>
      <trkpt lat="42.84954" lon="-1.58423">
        <ele>436.4</ele>
        <time>2021-03-07 12:24:40</time>
      </trkpt>
      <trkpt lat="42.84948" lon="-1.58425">
        <ele>436.4</ele>
        <time>2021-03-07 12:24:41</time>
      </trkpt>
      <trkpt lat="42.84941" lon="-1.58426">
        <ele>436.4</ele>
        <time>2021-03-07 12:24:42</time>
      </trkpt>
      <trkpt lat="42.84935" lon="-1.58428">
        <ele>436.4</ele>
        <time>2021-03-07 12:24:43</time>
      </trkpt>
      <trkpt lat="42.84929" lon="-1.58429">
        <ele>436.2</ele>
        <time>2021-03-07 12:24:44</time>
      </trkpt>
      <trkpt lat="42.84922" lon="-1.58431">
        <ele>436.2</ele>
        <time>2021-03-07 12:24:45</time>
      </trkpt>
      <trkpt lat="42.84915" lon="-1.58433">
        <ele>436.2</ele>
        <time>2021-03-07 12:24:46</time>
      </trkpt>
      <trkpt lat="42.84909" lon="-1.58434">
        <ele>436.2</ele>
        <time>2021-03-07 12:24:47</time>
      </trkpt>
      <trkpt lat="42.84902" lon="-1.58436">
        <ele>436.2</ele>
        <time>2021-03-07 12:24:48</time>
      </trkpt>
      <trkpt lat="42.84896" lon="-1.58438">
        <ele>436.4</ele>
        <time>2021-03-07 12:24:49</time>
      </trkpt>
      <trkpt lat="42.84889" lon="-1.5844">
        <ele>436.4</ele>
        <time>2021-03-07 12:24:50</time>
      </trkpt>
      <trkpt lat="42.84883" lon="-1.58442">
        <ele>436.4</ele>
        <time>2021-03-07 12:24:51</time>
      </trkpt>
      <trkpt lat="42.84877" lon="-1.58444">
        <ele>436.4</ele>
        <time>2021-03-07 12:24:52</time>
      </trkpt>
      <trkpt lat="42.8487" lon="-1.58446">
        <ele>436.4</ele>
        <time>2021-03-07 12:24:53</time>
      </trkpt>
      <trkpt lat="42.84864" lon="-1.58448">
        <ele>436.4</ele>
        <time>2021-03-07 12:24:54</time>
      </trkpt>
      <trkpt lat="42.84857" lon="-1.5845">
        <ele>436.4</ele>
        <time>2021-03-07 12:24:55</time>
      </trkpt>
      <trkpt lat="42.84851" lon="-1.58452">
        <ele>436.6</ele>
        <time>2021-03-07 12:24:56</time>
      </trkpt>
      <trkpt lat="42.84845" lon="-1.58454">
        <ele>436.6</ele>
        <time>2021-03-07 12:24:57</time>
      </trkpt>
      <trkpt lat="42.84838" lon="-1.58456">
        <ele>436.6</ele>
        <time>2021-03-07 12:24:58</time>
      </trkpt>
      <trkpt lat="42.84831" lon="-1.58459">
        <ele>436.6</ele>
        <time>2021-03-07 12:24:59</time>
      </trkpt>
      <trkpt lat="42.84825" lon="-1.58461">
        <ele>436.8</ele>
        <time>2021-03-07 12:25:00</time>
      </trkpt>
      <trkpt lat="42.84818" lon="-1.58464">
        <ele>436.8</ele>
        <time>2021-03-07 12:25:01</time>
      </trkpt>
      <trkpt lat="42.84812" lon="-1.58466">
        <ele>437</ele>
        <time>2021-03-07 12:25:02</time>
      </trkpt>
      <trkpt lat="42.84805" lon="-1.58469">
        <ele>437</ele>
        <time>2021-03-07 12:25:03</time>
      </trkpt>
      <trkpt lat="42.84799" lon="-1.58472">
        <ele>437.2</ele>
        <time>2021-03-07 12:25:04</time>
      </trkpt>
      <trkpt lat="42.84792" lon="-1.58475">
        <ele>437.2</ele>
        <time>2021-03-07 12:25:05</time>
      </trkpt>
      <trkpt lat="42.84786" lon="-1.58478">
        <ele>437.2</ele>
        <time>2021-03-07 12:25:06</time>
      </trkpt>
      <trkpt lat="42.8478" lon="-1.58481">
        <ele>437.4</ele>
        <time>2021-03-07 12:25:07</time>
      </trkpt>
      <trkpt lat="42.84773" lon="-1.58484">
        <ele>437.4</ele>
        <time>2021-03-07 12:25:08</time>
      </trkpt>
      <trkpt lat="42.84767" lon="-1.58488">
        <ele>437.4</ele>
        <time>2021-03-07 12:25:09</time>
      </trkpt>
      <trkpt lat="42.8476" lon="-1.58491">
        <ele>437.6</ele>
        <time>2021-03-07 12:25:10</time>
      </trkpt>
      <trkpt lat="42.84754" lon="-1.58494">
        <ele>437.6</ele>
        <time>2021-03-07 12:25:11</time>
      </trkpt>
      <trkpt lat="42.84748" lon="-1.58497">
        <ele>437.6</ele>
        <time>2021-03-07 12:25:12</time>
      </trkpt>
      <trkpt lat="42.84741" lon="-1.58501">
        <ele>437.6</ele>
        <time>2021-03-07 12:25:13</time>
      </trkpt>
      <trkpt lat="42.84735" lon="-1.58504">
        <ele>437.6</ele>
        <time>2021-03-07 12:25:14</time>
      </trkpt>
      <trkpt lat="42.84729" lon="-1.58507">
        <ele>437.6</ele>
        <time>2021-03-07 12:25:15</time>
      </trkpt>
      <trkpt lat="42.84723" lon="-1.5851">
        <ele>437.6</ele>
        <time>2021-03-07 12:25:16</time>
      </trkpt>
      <trkpt lat="42.84716" lon="-1.58513">
        <ele>437.6</ele>
        <time>2021-03-07 12:25:17</time>
      </trkpt>
      <trkpt lat="42.8471" lon="-1.58516">
        <ele>437.8</ele>
        <time>2021-03-07 12:25:18</time>
      </trkpt>
      <trkpt lat="42.84703" lon="-1.5852">
        <ele>437.8</ele>
        <time>2021-03-07 12:25:19</time>
      </trkpt>
      <trkpt lat="42.84696" lon="-1.58523">
        <ele>437.8</ele>
        <time>2021-03-07 12:25:20</time>
      </trkpt>
      <trkpt lat="42.8469" lon="-1.58526">
        <ele>437.8</ele>
        <time>2021-03-07 12:25:21</time>
      </trkpt>
      <trkpt lat="42.84683" lon="-1.58529">
        <ele>437.8</ele>
        <time>2021-03-07 12:25:22</time>
      </trkpt>
      <trkpt lat="42.84676" lon="-1.58531">
        <ele>437.8</ele>
        <time>2021-03-07 12:25:23</time>
      </trkpt>
      <trkpt lat="42.84669" lon="-1.58534">
        <ele>438</ele>
        <time>2021-03-07 12:25:24</time>
      </trkpt>
      <trkpt lat="42.84662" lon="-1.58537">
        <ele>438</ele>
        <time>2021-03-07 12:25:25</time>
      </trkpt>
      <trkpt lat="42.84655" lon="-1.5854">
        <ele>438</ele>
        <time>2021-03-07 12:25:26</time>
      </trkpt>
      <trkpt lat="42.84648" lon="-1.58543">
        <ele>438</ele>
        <time>2021-03-07 12:25:27</time>
      </trkpt>
      <trkpt lat="42.84641" lon="-1.58546">
        <ele>438</ele>
        <time>2021-03-07 12:25:28</time>
      </trkpt>
      <trkpt lat="42.84634" lon="-1.58549">
        <ele>438</ele>
        <time>2021-03-07 12:25:29</time>
      </trkpt>
      <trkpt lat="42.84627" lon="-1.58551">
        <ele>438</ele>
        <time>2021-03-07 12:25:30</time>
      </trkpt>
      <trkpt lat="42.8462" lon="-1.58554">
        <ele>438</ele>
        <time>2021-03-07 12:25:31</time>
      </trkpt>
      <trkpt lat="42.84613" lon="-1.58557">
        <ele>438</ele>
        <time>2021-03-07 12:25:32</time>
      </trkpt>
      <trkpt lat="42.84606" lon="-1.58561">
        <ele>438</ele>
        <time>2021-03-07 12:25:33</time>
      </trkpt>
      <trkpt lat="42.84599" lon="-1.58564">
        <ele>438</ele>
        <time>2021-03-07 12:25:34</time>
      </trkpt>
      <trkpt lat="42.84591" lon="-1.58568">
        <ele>438</ele>
        <time>2021-03-07 12:25:35</time>
      </trkpt>
      <trkpt lat="42.84584" lon="-1.58571">
        <ele>437.8</ele>
        <time>2021-03-07 12:25:36</time>
      </trkpt>
      <trkpt lat="42.84577" lon="-1.58574">
        <ele>437.8</ele>
        <time>2021-03-07 12:25:37</time>
      </trkpt>
      <trkpt lat="42.84569" lon="-1.58577">
        <ele>437.6</ele>
        <time>2021-03-07 12:25:38</time>
      </trkpt>
      <trkpt lat="42.84562" lon="-1.58581">
        <ele>437.6</ele>
        <time>2021-03-07 12:25:39</time>
      </trkpt>
      <trkpt lat="42.84554" lon="-1.58584">
        <ele>437.4</ele>
        <time>2021-03-07 12:25:40</time>
      </trkpt>
      <trkpt lat="42.84547" lon="-1.58588">
        <ele>437.4</ele>
        <time>2021-03-07 12:25:41</time>
      </trkpt>
      <trkpt lat="42.84539" lon="-1.58591">
        <ele>437.4</ele>
        <time>2021-03-07 12:25:42</time>
      </trkpt>
      <trkpt lat="42.84531" lon="-1.58595">
        <ele>437.2</ele>
        <time>2021-03-07 12:25:43</time>
      </trkpt>
      <trkpt lat="42.84523" lon="-1.58598">
        <ele>437</ele>
        <time>2021-03-07 12:25:44</time>
      </trkpt>
      <trkpt lat="42.84515" lon="-1.58601">
        <ele>436.6</ele>
        <time>2021-03-07 12:25:45</time>
      </trkpt>
      <trkpt lat="42.84507" lon="-1.58604">
        <ele>436.2</ele>
        <time>2021-03-07 12:25:46</time>
      </trkpt>
      <trkpt lat="42.84499" lon="-1.58606">
        <ele>436</ele>
        <time>2021-03-07 12:25:47</time>
      </trkpt>
      <trkpt lat="42.8449" lon="-1.58609">
        <ele>436</ele>
        <time>2021-03-07 12:25:48</time>
      </trkpt>
      <trkpt lat="42.84482" lon="-1.58612">
        <ele>435.8</ele>
        <time>2021-03-07 12:25:49</time>
      </trkpt>
      <trkpt lat="42.84474" lon="-1.58615">
        <ele>435.8</ele>
        <time>2021-03-07 12:25:50</time>
      </trkpt>
      <trkpt lat="42.84465" lon="-1.58618">
        <ele>435.6</ele>
        <time>2021-03-07 12:25:51</time>
      </trkpt>
      <trkpt lat="42.84457" lon="-1.58621">
        <ele>435.6</ele>
        <time>2021-03-07 12:25:52</time>
      </trkpt>
      <trkpt lat="42.84449" lon="-1.58624">
        <ele>435.4</ele>
        <time>2021-03-07 12:25:53</time>
      </trkpt>
      <trkpt lat="42.8444" lon="-1.58627">
        <ele>435.2</ele>
        <time>2021-03-07 12:25:54</time>
      </trkpt>
      <trkpt lat="42.84432" lon="-1.58629">
        <ele>435</ele>
        <time>2021-03-07 12:25:55</time>
      </trkpt>
      <trkpt lat="42.84423" lon="-1.58632">
        <ele>434.6</ele>
        <time>2021-03-07 12:25:56</time>
      </trkpt>
      <trkpt lat="42.84415" lon="-1.58635">
        <ele>434.4</ele>
        <time>2021-03-07 12:25:57</time>
      </trkpt>
      <trkpt lat="42.84407" lon="-1.58637">
        <ele>434.2</ele>
        <time>2021-03-07 12:25:58</time>
      </trkpt>
      <trkpt lat="42.84398" lon="-1.58639">
        <ele>434.2</ele>
        <time>2021-03-07 12:25:59</time>
      </trkpt>
      <trkpt lat="42.8439" lon="-1.58641">
        <ele>434</ele>
        <time>2021-03-07 12:26:00</time>
      </trkpt>
      <trkpt lat="42.84381" lon="-1.58643">
        <ele>433.8</ele>
        <time>2021-03-07 12:26:01</time>
      </trkpt>
      <trkpt lat="42.84373" lon="-1.58645">
        <ele>433.6</ele>
        <time>2021-03-07 12:26:02</time>
      </trkpt>
      <trkpt lat="42.84365" lon="-1.58646">
        <ele>433.6</ele>
        <time>2021-03-07 12:26:03</time>
      </trkpt>
      <trkpt lat="42.84356" lon="-1.58648">
        <ele>433.4</ele>
        <time>2021-03-07 12:26:04</time>
      </trkpt>
      <trkpt lat="42.84348" lon="-1.58649">
        <ele>433.2</ele>
        <time>2021-03-07 12:26:05</time>
      </trkpt>
      <trkpt lat="42.8434" lon="-1.5865">
        <ele>433.2</ele>
        <time>2021-03-07 12:26:06</time>
      </trkpt>
      <trkpt lat="42.84332" lon="-1.58652">
        <ele>433.2</ele>
        <time>2021-03-07 12:26:07</time>
      </trkpt>
      <trkpt lat="42.84323" lon="-1.58653">
        <ele>433</ele>
        <time>2021-03-07 12:26:08</time>
      </trkpt>
      <trkpt lat="42.84315" lon="-1.58654">
        <ele>432.6</ele>
        <time>2021-03-07 12:26:09</time>
      </trkpt>
      <trkpt lat="42.84307" lon="-1.58655">
        <ele>432.6</ele>
        <time>2021-03-07 12:26:10</time>
      </trkpt>
      <trkpt lat="42.84299" lon="-1.58656">
        <ele>432.2</ele>
        <time>2021-03-07 12:26:11</time>
      </trkpt>
      <trkpt lat="42.84291" lon="-1.58657">
        <ele>432.2</ele>
        <time>2021-03-07 12:26:12</time>
      </trkpt>
      <trkpt lat="42.84283" lon="-1.58658">
        <ele>432.4</ele>
        <time>2021-03-07 12:26:13</time>
      </trkpt>
      <trkpt lat="42.84275" lon="-1.58659">
        <ele>432.2</ele>
        <time>2021-03-07 12:26:14</time>
      </trkpt>
      <trkpt lat="42.84267" lon="-1.5866">
        <ele>432.2</ele>
        <time>2021-03-07 12:26:15</time>
      </trkpt>
      <trkpt lat="42.8426" lon="-1.58661">
        <ele>432</ele>
        <time>2021-03-07 12:26:16</time>
      </trkpt>
      <trkpt lat="42.84252" lon="-1.58662">
        <ele>432</ele>
        <time>2021-03-07 12:26:17</time>
      </trkpt>
      <trkpt lat="42.84244" lon="-1.58663">
        <ele>432</ele>
        <time>2021-03-07 12:26:18</time>
      </trkpt>
      <trkpt lat="42.84237" lon="-1.58665">
        <ele>431.8</ele>
        <time>2021-03-07 12:26:19</time>
      </trkpt>
      <trkpt lat="42.84229" lon="-1.58666">
        <ele>431.8</ele>
        <time>2021-03-07 12:26:20</time>
      </trkpt>
      <trkpt lat="42.84221" lon="-1.58667">
        <ele>431.8</ele>
        <time>2021-03-07 12:26:21</time>
      </trkpt>
      <trkpt lat="42.84214" lon="-1.58668">
        <ele>431.8</ele>
        <time>2021-03-07 12:26:22</time>
      </trkpt>
      <trkpt lat="42.84206" lon="-1.58669">
        <ele>431.8</ele>
        <time>2021-03-07 12:26:23</time>
      </trkpt>
      <trkpt lat="42.84199" lon="-1.5867">
        <ele>431.8</ele>
        <time>2021-03-07 12:26:24</time>
      </trkpt>
      <trkpt lat="42.84191" lon="-1.58671">
        <ele>431.8</ele>
        <time>2021-03-07 12:26:25</time>
      </trkpt>
      <trkpt lat="42.84184" lon="-1.58672">
        <ele>431.8</ele>
        <time>2021-03-07 12:26:26</time>
      </trkpt>
      <trkpt lat="42.84176" lon="-1.58673">
        <ele>431.6</ele>
        <time>2021-03-07 12:26:27</time>
      </trkpt>
      <trkpt lat="42.84169" lon="-1.58674">
        <ele>431.6</ele>
        <time>2021-03-07 12:26:28</time>
      </trkpt>
      <trkpt lat="42.84161" lon="-1.58675">
        <ele>431.6</ele>
        <time>2021-03-07 12:26:29</time>
      </trkpt>
      <trkpt lat="42.84153" lon="-1.58676">
        <ele>431.6</ele>
        <time>2021-03-07 12:26:30</time>
      </trkpt>
      <trkpt lat="42.84146" lon="-1.58677">
        <ele>431.6</ele>
        <time>2021-03-07 12:26:31</time>
      </trkpt>
      <trkpt lat="42.84138" lon="-1.58678">
        <ele>431.6</ele>
        <time>2021-03-07 12:26:32</time>
      </trkpt>
      <trkpt lat="42.8413" lon="-1.58678">
        <ele>431.8</ele>
        <time>2021-03-07 12:26:33</time>
      </trkpt>
      <trkpt lat="42.84123" lon="-1.5868">
        <ele>431.8</ele>
        <time>2021-03-07 12:26:34</time>
      </trkpt>
      <trkpt lat="42.84115" lon="-1.58681">
        <ele>432</ele>
        <time>2021-03-07 12:26:35</time>
      </trkpt>
      <trkpt lat="42.84107" lon="-1.58681">
        <ele>432</ele>
        <time>2021-03-07 12:26:36</time>
      </trkpt>
      <trkpt lat="42.84099" lon="-1.58682">
        <ele>432.2</ele>
        <time>2021-03-07 12:26:37</time>
      </trkpt>
      <trkpt lat="42.84092" lon="-1.58683">
        <ele>432.2</ele>
        <time>2021-03-07 12:26:38</time>
      </trkpt>
      <trkpt lat="42.84084" lon="-1.58684">
        <ele>432.2</ele>
        <time>2021-03-07 12:26:39</time>
      </trkpt>
      <trkpt lat="42.84077" lon="-1.58687">
        <ele>432.2</ele>
        <time>2021-03-07 12:26:40</time>
      </trkpt>
      <trkpt lat="42.8407" lon="-1.58691">
        <ele>432.2</ele>
        <time>2021-03-07 12:26:41</time>
      </trkpt>
      <trkpt lat="42.84063" lon="-1.58697">
        <ele>432.2</ele>
        <time>2021-03-07 12:26:42</time>
      </trkpt>
      <trkpt lat="42.84056" lon="-1.58701">
        <ele>432.2</ele>
        <time>2021-03-07 12:26:43</time>
      </trkpt>
      <trkpt lat="42.84048" lon="-1.58703">
        <ele>432.2</ele>
        <time>2021-03-07 12:26:44</time>
      </trkpt>
      <trkpt lat="42.8404" lon="-1.58702">
        <ele>432.2</ele>
        <time>2021-03-07 12:26:45</time>
      </trkpt>
      <trkpt lat="42.84034" lon="-1.58698">
        <ele>432.2</ele>
        <time>2021-03-07 12:26:46</time>
      </trkpt>
      <trkpt lat="42.84029" lon="-1.58692">
        <ele>432.2</ele>
        <time>2021-03-07 12:26:47</time>
      </trkpt>
      <trkpt lat="42.84028" lon="-1.58683">
        <ele>432</ele>
        <time>2021-03-07 12:26:48</time>
      </trkpt>
      <trkpt lat="42.84028" lon="-1.58672">
        <ele>432</ele>
        <time>2021-03-07 12:26:49</time>
      </trkpt>
      <trkpt lat="42.8403" lon="-1.58663">
        <ele>432</ele>
        <time>2021-03-07 12:26:50</time>
      </trkpt>
      <trkpt lat="42.84032" lon="-1.58654">
        <ele>431.8</ele>
        <time>2021-03-07 12:26:51</time>
      </trkpt>
    </trkseg>
  </trk>
</gpx>
